<?xml version='1.0' encoding='UTF-8'?><gpx version="1.1" creator="JPX - https://github.com/jenetics/jpx" xmlns="http://www.topografix.com/GPX/1/1"><trk><trkseg><trkpt lat="45.24607359782644" lon="3.7744811946974104"><ele>1013.0</ele><time>2026-04-26T12:36:14.014Z</time></trkpt><trkpt lat="45.24611751391885" lon="3.77437943022291"><ele>1013.0</ele><time>2026-04-26T12:36:37.003Z</time></trkpt><trkpt lat="45.24596849926304" lon="3.7744575832074267"><ele>1013.0</ele><time>2026-04-26T12:36:52Z</time></trkpt><trkpt lat="45.24593254089844" lon="3.7745761033182728"><ele>1013.0</ele><time>2026-04-26T12:36:54Z</time></trkpt><trkpt lat="45.245931367431986" lon="3.774667885158001"><ele>1013.0</ele><time>2026-04-26T12:36:55Z</time></trkpt><trkpt lat="45.24593842670446" lon="3.774776857375894"><ele>1013.0</ele><time>2026-04-26T12:36:56Z</time></trkpt><trkpt lat="45.245936253792564" lon="3.774874894190824"><ele>1013.0</ele><time>2026-04-26T12:36:57Z</time></trkpt><trkpt lat="45.245943540278255" lon="3.774964575916312"><ele>1013.0</ele><time>2026-04-26T12:36:58Z</time></trkpt><trkpt lat="45.246007693955214" lon="3.7750462586229676"><ele>1013.0</ele><time>2026-04-26T12:37:04Z</time></trkpt><trkpt lat="45.24598135336911" lon="3.7748373470771774"><ele>1013.0</ele><time>2026-04-26T12:37:06Z</time></trkpt><trkpt lat="45.24595955662423" lon="3.7746988628472073"><ele>1013.0</ele><time>2026-04-26T12:37:07Z</time></trkpt><trkpt lat="45.24593785595844" lon="3.774604069256737"><ele>1013.0</ele><time>2026-04-26T12:37:08Z</time></trkpt><trkpt lat="45.24592206173495" lon="3.774514320854536"><ele>1013.0</ele><time>2026-04-26T12:37:11Z</time></trkpt><trkpt lat="45.24602527342445" lon="3.7745018895679228"><ele>1013.0</ele><time>2026-04-26T12:37:36.631Z</time></trkpt><trkpt lat="45.24611194398625" lon="3.7744151100878613"><ele>1013.0</ele><time>2026-04-26T12:38:21Z</time></trkpt><trkpt lat="45.24607485898061" lon="3.7745881466095645"><ele>1013.0</ele><time>2026-04-26T12:38:44.001Z</time></trkpt><trkpt lat="45.24607975672847" lon="3.774425085347646"><ele>1013.0</ele><time>2026-04-26T12:39:07.001Z</time></trkpt><trkpt lat="45.245900539107915" lon="3.774402977576367"><ele>1013.0</ele><time>2026-04-26T12:39:19.001Z</time></trkpt><trkpt lat="45.245846266419676" lon="3.7741813145701815"><ele>1013.25</ele><time>2026-04-26T12:39:21.001Z</time></trkpt><trkpt lat="45.24583594401187" lon="3.773977842840413"><ele>1013.5</ele><time>2026-04-26T12:39:22.001Z</time></trkpt><trkpt lat="45.245845594192176" lon="3.7737652958775585"><ele>1013.75</ele><time>2026-04-26T12:39:23.001Z</time></trkpt><trkpt lat="45.24586889202898" lon="3.7735676417671655"><ele>1014.0</ele><time>2026-04-26T12:39:24.001Z</time></trkpt><trkpt lat="45.245888985078935" lon="3.773390145225729"><ele>1014.0</ele><time>2026-04-26T12:39:25.001Z</time></trkpt><trkpt lat="45.24590518944527" lon="3.7732107401561046"><ele>1014.0</ele><time>2026-04-26T12:39:26.001Z</time></trkpt><trkpt lat="45.24591486287818" lon="3.773050063953431"><ele>1014.0</ele><time>2026-04-26T12:39:27.001Z</time></trkpt><trkpt lat="45.24592079022444" lon="3.772912408797964"><ele>1014.0</ele><time>2026-04-26T12:39:28.001Z</time></trkpt><trkpt lat="45.24590131790973" lon="3.772657683548281"><ele>1014.3333333333333</ele><time>2026-04-26T12:39:31.001Z</time></trkpt><trkpt lat="45.24573838834979" lon="3.772641146829896"><ele>1014.6666666666666</ele><time>2026-04-26T12:39:33.001Z</time></trkpt><trkpt lat="45.245581425303804" lon="3.772624072256535"><ele>1015.0</ele><time>2026-04-26T12:39:34.001Z</time></trkpt><trkpt lat="45.24539542071744" lon="3.7725961802966768"><ele>1013.0</ele><time>2026-04-26T12:39:35.001Z</time></trkpt><trkpt lat="45.24520875771218" lon="3.7725517758916474"><ele>1011.0</ele><time>2026-04-26T12:39:36.001Z</time></trkpt><trkpt lat="45.245076127402406" lon="3.7725233293262743"><ele>1009.0</ele><time>2026-04-26T12:39:37.001Z</time></trkpt><trkpt lat="45.244987651415485" lon="3.772512927946455"><ele>1007.0</ele><time>2026-04-26T12:39:38.001Z</time></trkpt><trkpt lat="45.24488142325945" lon="3.772504672649305"><ele>1005.8</ele><time>2026-04-26T12:39:40.001Z</time></trkpt><trkpt lat="45.24474581658111" lon="3.772527941286415"><ele>1004.6</ele><time>2026-04-26T12:39:42.001Z</time></trkpt><trkpt lat="45.24461282701537" lon="3.772505041733997"><ele>1003.3999999999999</ele><time>2026-04-26T12:39:44.001Z</time></trkpt><trkpt lat="45.2445217085284" lon="3.7724647547298127"><ele>1002.1999999999999</ele><time>2026-04-26T12:39:45.001Z</time></trkpt><trkpt lat="45.24445634587585" lon="3.7724105617120207"><ele>1001.0</ele><time>2026-04-26T12:39:46.001Z</time></trkpt><trkpt lat="45.244386801793965" lon="3.772271551178761"><ele>1001.0</ele><time>2026-04-26T12:39:47.001Z</time></trkpt><trkpt lat="45.24432915387049" lon="3.7720842729139377"><ele>1001.0</ele><time>2026-04-26T12:39:48.001Z</time></trkpt><trkpt lat="45.24426432487099" lon="3.7719216062869414"><ele>1001.0</ele><time>2026-04-26T12:39:49.001Z</time></trkpt><trkpt lat="45.2440544879438" lon="3.771713340074221"><ele>999.0</ele><time>2026-04-26T12:39:51.001Z</time></trkpt><trkpt lat="45.24388882590727" lon="3.7715821753993035"><ele>997.0</ele><time>2026-04-26T12:39:51.999Z</time></trkpt><trkpt lat="45.24370159629817" lon="3.771461599168169"><ele>995.0</ele><time>2026-04-26T12:39:52.999Z</time></trkpt><trkpt lat="45.24357834567163" lon="3.7713721986046473"><ele>995.0</ele><time>2026-04-26T12:39:53.999Z</time></trkpt><trkpt lat="45.24347544425041" lon="3.7712865116315633"><ele>995.0</ele><time>2026-04-26T12:39:54.999Z</time></trkpt><trkpt lat="45.24338475848648" lon="3.7711858555285165"><ele>995.0</ele><time>2026-04-26T12:39:55.999Z</time></trkpt><trkpt lat="45.243311740459696" lon="3.771059368923241"><ele>995.0</ele><time>2026-04-26T12:39:56.999Z</time></trkpt><trkpt lat="45.243239764610436" lon="3.77088034622039"><ele>994.5</ele><time>2026-04-26T12:39:57.999Z</time></trkpt><trkpt lat="45.24317644953402" lon="3.7707109396425165"><ele>994.0</ele><time>2026-04-26T12:39:58.999Z</time></trkpt><trkpt lat="45.24310917910288" lon="3.7705857759602868"><ele>993.5</ele><time>2026-04-26T12:39:59.999Z</time></trkpt><trkpt lat="45.243011088694715" lon="3.7704717509002728"><ele>993.0</ele><time>2026-04-26T12:40:00.999Z</time></trkpt><trkpt lat="45.24287286101602" lon="3.770334027653933"><ele>995.6666666666667</ele><time>2026-04-26T12:40:01.999Z</time></trkpt><trkpt lat="45.24271585155339" lon="3.7701860389075006"><ele>998.3333333333334</ele><time>2026-04-26T12:40:03Z</time></trkpt><trkpt lat="45.24257684301837" lon="3.7700601659781046"><ele>1001.0</ele><time>2026-04-26T12:40:04Z</time></trkpt><trkpt lat="45.242466714861486" lon="3.7699566100773927"><ele>1001.0</ele><time>2026-04-26T12:40:05Z</time></trkpt><trkpt lat="45.24236300431355" lon="3.7698436680115988"><ele>1001.0</ele><time>2026-04-26T12:40:06Z</time></trkpt><trkpt lat="45.24226667645307" lon="3.769733917193843"><ele>1001.0</ele><time>2026-04-26T12:40:07Z</time></trkpt><trkpt lat="45.242171496462284" lon="3.7696389406807724"><ele>1001.0</ele><time>2026-04-26T12:40:08Z</time></trkpt><trkpt lat="45.24205262236022" lon="3.769538038371214"><ele>1000.0</ele><time>2026-04-26T12:40:09Z</time></trkpt><trkpt lat="45.24194131268156" lon="3.7694550346948876"><ele>999.0</ele><time>2026-04-26T12:40:10Z</time></trkpt><trkpt lat="45.24177828787256" lon="3.769339376973907"><ele>998.0</ele><time>2026-04-26T12:40:12Z</time></trkpt><trkpt lat="45.241720244896335" lon="3.7692774277220136"><ele>997.0</ele><time>2026-04-26T12:40:13Z</time></trkpt><trkpt lat="45.241664374647684" lon="3.7691702127175426"><ele>998.75</ele><time>2026-04-26T12:40:14Z</time></trkpt><trkpt lat="45.24159568796744" lon="3.76901908294421"><ele>1000.5</ele><time>2026-04-26T12:40:15Z</time></trkpt><trkpt lat="45.24151991365283" lon="3.7688713526430635"><ele>1002.25</ele><time>2026-04-26T12:40:16Z</time></trkpt><trkpt lat="45.24145341638893" lon="3.768727410554288"><ele>1004.0</ele><time>2026-04-26T12:40:17Z</time></trkpt><trkpt lat="45.241380281496454" lon="3.768611979099876"><ele>1006.0</ele><time>2026-04-26T12:40:18Z</time></trkpt><trkpt lat="45.24132643765197" lon="3.7685138356505177"><ele>1008.0000000000001</ele><time>2026-04-26T12:40:19Z</time></trkpt><trkpt lat="45.24128424491523" lon="3.7684199492896124"><ele>1010.0000000000001</ele><time>2026-04-26T12:40:20Z</time></trkpt><trkpt lat="45.2412075964115" lon="3.7683852408724605"><ele>1012.0</ele><time>2026-04-26T12:40:22Z</time></trkpt><trkpt lat="45.24108675833198" lon="3.7683420132294363"><ele>1014.0</ele><time>2026-04-26T12:40:24Z</time></trkpt><trkpt lat="45.24102502170935" lon="3.768457535153255"><ele>1011.0</ele><time>2026-04-26T12:40:26Z</time></trkpt><trkpt lat="45.24086740640534" lon="3.768545060850933"><ele>1008.0</ele><time>2026-04-26T12:40:44Z</time></trkpt><trkpt lat="45.240670915548925" lon="3.768708600669371"><ele>1005.0</ele><time>2026-04-26T12:40:46Z</time></trkpt><trkpt lat="45.24053032869209" lon="3.7688339331163627"><ele>1005.0</ele><time>2026-04-26T12:40:47Z</time></trkpt><trkpt lat="45.24042660211405" lon="3.7689094949830633"><ele>1005.0</ele><time>2026-04-26T12:40:48Z</time></trkpt><trkpt lat="45.24034884234661" lon="3.7689360926725803"><ele>1005.0</ele><time>2026-04-26T12:40:49Z</time></trkpt><trkpt lat="45.24026484978953" lon="3.7689454592109457"><ele>1005.0</ele><time>2026-04-26T12:40:50Z</time></trkpt><trkpt lat="45.24018488295622" lon="3.768938141206858"><ele>1005.0</ele><time>2026-04-26T12:40:51Z</time></trkpt><trkpt lat="45.240088530064234" lon="3.768850393994183"><ele>1005.0</ele><time>2026-04-26T12:40:53Z</time></trkpt><trkpt lat="45.23997164601823" lon="3.7687822059536007"><ele>1005.0</ele><time>2026-04-26T12:40:55.001Z</time></trkpt><trkpt lat="45.23985011333327" lon="3.7687393002315983"><ele>1005.0</ele><time>2026-04-26T12:40:56.001Z</time></trkpt><trkpt lat="45.239676562929986" lon="3.7687918997072023"><ele>1005.0</ele><time>2026-04-26T12:40:57.001Z</time></trkpt><trkpt lat="45.23957567401803" lon="3.7689488072542288"><ele>1004.6</ele><time>2026-04-26T12:40:58.001Z</time></trkpt><trkpt lat="45.2395151862184" lon="3.7690729837721757"><ele>1004.2</ele><time>2026-04-26T12:40:59.001Z</time></trkpt><trkpt lat="45.239432439984405" lon="3.7691824479798255"><ele>1003.8</ele><time>2026-04-26T12:41:00.001Z</time></trkpt><trkpt lat="45.23936247304696" lon="3.769282209140499"><ele>1003.4</ele><time>2026-04-26T12:41:01.001Z</time></trkpt><trkpt lat="45.23929978908337" lon="3.7693999057247525"><ele>1003.0</ele><time>2026-04-26T12:41:02.001Z</time></trkpt><trkpt lat="45.23926064680646" lon="3.769503044756453"><ele>1003.0</ele><time>2026-04-26T12:41:03.001Z</time></trkpt><trkpt lat="45.23921689528828" lon="3.769594382606824"><ele>1003.0</ele><time>2026-04-26T12:41:04.001Z</time></trkpt><trkpt lat="45.2391792122574" lon="3.769695168267173"><ele>1003.0</ele><time>2026-04-26T12:41:05.001Z</time></trkpt><trkpt lat="45.239099717233216" lon="3.7699073589696206"><ele>1003.0</ele><time>2026-04-26T12:41:07.001Z</time></trkpt><trkpt lat="45.23904646783428" lon="3.7699843357496836"><ele>1003.0</ele><time>2026-04-26T12:41:09.001Z</time></trkpt><trkpt lat="45.238990097517956" lon="3.7700369604347608"><ele>1004.0</ele><time>2026-04-26T12:41:15.001Z</time></trkpt><trkpt lat="45.23889748123728" lon="3.7700431189906047"><ele>1005.0</ele><time>2026-04-26T12:41:24.001Z</time></trkpt><trkpt lat="45.23888719577502" lon="3.7699478248133493"><ele>1006.0</ele><time>2026-04-26T12:41:26.001Z</time></trkpt><trkpt lat="45.23883901936764" lon="3.7696459789872003"><ele>1007.0</ele><time>2026-04-26T12:41:29.001Z</time></trkpt><trkpt lat="45.23882483872399" lon="3.7694561860374787"><ele>1008.0</ele><time>2026-04-26T12:41:30.001Z</time></trkpt><trkpt lat="45.23881400588429" lon="3.769293143128623"><ele>1009.0</ele><time>2026-04-26T12:41:31.001Z</time></trkpt><trkpt lat="45.23879228101531" lon="3.7691404437172564"><ele>1010.0</ele><time>2026-04-26T12:41:32.001Z</time></trkpt><trkpt lat="45.23874928409178" lon="3.7689764112954505"><ele>1011.0</ele><time>2026-04-26T12:41:33.001Z</time></trkpt><trkpt lat="45.23869461267898" lon="3.7688688405889574"><ele>1012.0</ele><time>2026-04-26T12:41:34.001Z</time></trkpt><trkpt lat="45.23863150991121" lon="3.7687830315899014"><ele>1011.9999999999999</ele><time>2026-04-26T12:41:36.001Z</time></trkpt><trkpt lat="45.23855827265243" lon="3.7686492372627804"><ele>1012.0</ele><time>2026-04-26T12:41:38.001Z</time></trkpt><trkpt lat="45.23855086389291" lon="3.7685385372425304"><ele>1012.0</ele><time>2026-04-26T12:41:39.001Z</time></trkpt><trkpt lat="45.23854317660858" lon="3.7684371090082167"><ele>1012.0</ele><time>2026-04-26T12:41:40.001Z</time></trkpt><trkpt lat="45.23853065547082" lon="3.7683373893433765"><ele>1011.9999999999999</ele><time>2026-04-26T12:41:41.001Z</time></trkpt><trkpt lat="45.23852630106738" lon="3.7682137989068547"><ele>1012.0</ele><time>2026-04-26T12:41:42.001Z</time></trkpt><trkpt lat="45.2385288742552" lon="3.768081121055193"><ele>1014.75</ele><time>2026-04-26T12:41:43.001Z</time></trkpt><trkpt lat="45.238530496342634" lon="3.7679488662404235"><ele>1017.5</ele><time>2026-04-26T12:41:44.001Z</time></trkpt><trkpt lat="45.23857600420282" lon="3.767783185399792"><ele>1020.25</ele><time>2026-04-26T12:41:46.001Z</time></trkpt><trkpt lat="45.23862515068967" lon="3.7677022871105508"><ele>1023.0</ele><time>2026-04-26T12:41:47.001Z</time></trkpt><trkpt lat="45.238761878955465" lon="3.7675442485884663"><ele>1025.0</ele><time>2026-04-26T12:41:49.001Z</time></trkpt><trkpt lat="45.238839397583014" lon="3.767448291791976"><ele>1027.0</ele><time>2026-04-26T12:41:50.001Z</time></trkpt><trkpt lat="45.23892515338098" lon="3.767379120642574"><ele>1029.0</ele><time>2026-04-26T12:41:51.001Z</time></trkpt><trkpt lat="45.239014820518314" lon="3.767308488527414"><ele>1031.0</ele><time>2026-04-26T12:41:52.001Z</time></trkpt><trkpt lat="45.23910196589492" lon="3.767226540466206"><ele>1033.0</ele><time>2026-04-26T12:41:53.001Z</time></trkpt><trkpt lat="45.23918391784881" lon="3.7671479611830887"><ele>1033.0</ele><time>2026-04-26T12:41:54.001Z</time></trkpt><trkpt lat="45.239264258290675" lon="3.767065832554374"><ele>1033.0</ele><time>2026-04-26T12:41:55.001Z</time></trkpt><trkpt lat="45.23933317156369" lon="3.7670016910379793"><ele>1033.0</ele><time>2026-04-26T12:41:56.001Z</time></trkpt><trkpt lat="45.23939462961212" lon="3.7669474525268667"><ele>1033.0</ele><time>2026-04-26T12:41:57.001Z</time></trkpt><trkpt lat="45.23948630302884" lon="3.766852786858598"><ele>1033.0</ele><time>2026-04-26T12:41:59.001Z</time></trkpt><trkpt lat="45.23953736651929" lon="3.7667430296135618"><ele>1033.4</ele><time>2026-04-26T12:42:01.001Z</time></trkpt><trkpt lat="45.23959067763493" lon="3.7666842820660325"><ele>1033.8</ele><time>2026-04-26T12:42:02.001Z</time></trkpt><trkpt lat="45.23964918868336" lon="3.766631085905406"><ele>1034.2</ele><time>2026-04-26T12:42:06.001Z</time></trkpt><trkpt lat="45.239710321974265" lon="3.76653860945895"><ele>1034.6</ele><time>2026-04-26T12:42:49.001Z</time></trkpt><trkpt lat="45.23954519404755" lon="3.7664520394869703"><ele>1035.0</ele><time>2026-04-26T12:42:57.001Z</time></trkpt><trkpt lat="45.239451340909305" lon="3.766436784004576"><ele>1035.0</ele><time>2026-04-26T12:42:58.001Z</time></trkpt><trkpt lat="45.23935504142468" lon="3.7664219008543647"><ele>1035.0</ele><time>2026-04-26T12:42:59.001Z</time></trkpt><trkpt lat="45.23928066814344" lon="3.766416596633234"><ele>1035.0</ele><time>2026-04-26T12:43:00.001Z</time></trkpt><trkpt lat="45.239190748950776" lon="3.766387270005192"><ele>1035.0</ele><time>2026-04-26T12:43:01.001Z</time></trkpt><trkpt lat="45.23910794133439" lon="3.766353664583182"><ele>1035.0</ele><time>2026-04-26T12:43:02.001Z</time></trkpt><trkpt lat="45.23904461149124" lon="3.7663219179621117"><ele>1035.0</ele><time>2026-04-26T12:43:03.001Z</time></trkpt><trkpt lat="45.23893597339497" lon="3.7662598475102285"><ele>1035.0</ele><time>2026-04-26T12:43:05.001Z</time></trkpt><trkpt lat="45.23883812551414" lon="3.7662030513926688"><ele>1035.0</ele><time>2026-04-26T12:43:07.001Z</time></trkpt><trkpt lat="45.23876846821958" lon="3.766171566506887"><ele>1035.0</ele><time>2026-04-26T12:43:08.001Z</time></trkpt><trkpt lat="45.238691559448256" lon="3.7661098421775705"><ele>1035.0</ele><time>2026-04-26T12:43:09.001Z</time></trkpt><trkpt lat="45.23858583136757" lon="3.7660355227418476"><ele>1035.0</ele><time>2026-04-26T12:43:10.001Z</time></trkpt><trkpt lat="45.238373756216674" lon="3.7658989121573065"><ele>1035.0</ele><time>2026-04-26T12:43:12.001Z</time></trkpt><trkpt lat="45.23830150379115" lon="3.7658366167050925"><ele>1035.0</ele><time>2026-04-26T12:43:13.001Z</time></trkpt><trkpt lat="45.238254536858335" lon="3.7657505867330245"><ele>1035.0</ele><time>2026-04-26T12:43:14.001Z</time></trkpt><trkpt lat="45.23822665423915" lon="3.7656453559795775"><ele>1035.0</ele><time>2026-04-26T12:43:15.001Z</time></trkpt><trkpt lat="45.23820433016166" lon="3.76549598466639"><ele>1035.0</ele><time>2026-04-26T12:43:16.001Z</time></trkpt><trkpt lat="45.238186063946436" lon="3.765326209256526"><ele>1034.3333333333333</ele><time>2026-04-26T12:43:17.001Z</time></trkpt><trkpt lat="45.238160535582644" lon="3.765119099111547"><ele>1033.6666666666665</ele><time>2026-04-26T12:43:18.001Z</time></trkpt><trkpt lat="45.23814337793294" lon="3.7649129569014375"><ele>1033.0</ele><time>2026-04-26T12:43:19.001Z</time></trkpt><trkpt lat="45.238117134595456" lon="3.764673112310706"><ele>1033.0</ele><time>2026-04-26T12:43:20.001Z</time></trkpt><trkpt lat="45.23806702445552" lon="3.764431797227921"><ele>1033.0</ele><time>2026-04-26T12:43:21.001Z</time></trkpt><trkpt lat="45.23800863096705" lon="3.7642502089304717"><ele>1033.0</ele><time>2026-04-26T12:43:22.001Z</time></trkpt><trkpt lat="45.23796612725522" lon="3.764074992292004"><ele>1033.0</ele><time>2026-04-26T12:43:23.001Z</time></trkpt><trkpt lat="45.23792306009794" lon="3.763910798854418"><ele>1033.25</ele><time>2026-04-26T12:43:24.001Z</time></trkpt><trkpt lat="45.23790416781281" lon="3.7637228499856916"><ele>1033.5</ele><time>2026-04-26T12:43:25.001Z</time></trkpt><trkpt lat="45.237897425219415" lon="3.763540144315662"><ele>1033.75</ele><time>2026-04-26T12:43:26.001Z</time></trkpt><trkpt lat="45.23788251038104" lon="3.7633690664947093"><ele>1034.0</ele><time>2026-04-26T12:43:27.001Z</time></trkpt><trkpt lat="45.237865651705626" lon="3.7632184478482578"><ele>1033.25</ele><time>2026-04-26T12:43:28.001Z</time></trkpt><trkpt lat="45.23785953979633" lon="3.763076482936827"><ele>1032.5</ele><time>2026-04-26T12:43:29.001Z</time></trkpt><trkpt lat="45.23784784795735" lon="3.7629416245947462"><ele>1031.75</ele><time>2026-04-26T12:43:30.001Z</time></trkpt><trkpt lat="45.23781554324396" lon="3.76280982196664"><ele>1031.0</ele><time>2026-04-26T12:43:31.001Z</time></trkpt><trkpt lat="45.237628407011435" lon="3.762540620023164"><ele>1030.3333333333335</ele><time>2026-04-26T12:43:33.001Z</time></trkpt><trkpt lat="45.237519716423115" lon="3.7623822567430656"><ele>1029.6666666666667</ele><time>2026-04-26T12:43:34.001Z</time></trkpt><trkpt lat="45.237404942816624" lon="3.7622161174541904"><ele>1029.0</ele><time>2026-04-26T12:43:35.001Z</time></trkpt><trkpt lat="45.237293560738266" lon="3.762051860741273"><ele>1029.0</ele><time>2026-04-26T12:43:36.001Z</time></trkpt><trkpt lat="45.23719232494408" lon="3.761896751963909"><ele>1029.0</ele><time>2026-04-26T12:43:37.001Z</time></trkpt><trkpt lat="45.23710174189618" lon="3.7617471100185718"><ele>1029.0</ele><time>2026-04-26T12:43:38.001Z</time></trkpt><trkpt lat="45.23702183563467" lon="3.7615930190517113"><ele>1029.0</ele><time>2026-04-26T12:43:39.001Z</time></trkpt><trkpt lat="45.2369457667528" lon="3.7614409390819947"><ele>1027.5</ele><time>2026-04-26T12:43:40.001Z</time></trkpt><trkpt lat="45.23687485351926" lon="3.761299580325386"><ele>1026.0</ele><time>2026-04-26T12:43:41.001Z</time></trkpt><trkpt lat="45.2367974307815" lon="3.761169341074588"><ele>1024.5</ele><time>2026-04-26T12:43:42.001Z</time></trkpt><trkpt lat="45.23671804150365" lon="3.7610494775871874"><ele>1023.0</ele><time>2026-04-26T12:43:43.001Z</time></trkpt><trkpt lat="45.2366538677423" lon="3.760946957311442"><ele>1022.6666666666666</ele><time>2026-04-26T12:43:44.001Z</time></trkpt><trkpt lat="45.2366005026335" lon="3.7608516413679327"><ele>1022.3333333333333</ele><time>2026-04-26T12:43:45.001Z</time></trkpt><trkpt lat="45.236555186504724" lon="3.760761136157488"><ele>1022.0</ele><time>2026-04-26T12:43:46.001Z</time></trkpt><trkpt lat="45.236527763769814" lon="3.7606537405155724"><ele>1021.6666666666666</ele><time>2026-04-26T12:43:47.001Z</time></trkpt><trkpt lat="45.2365183425365" lon="3.760506190953552"><ele>1021.3333333333333</ele><time>2026-04-26T12:43:48.001Z</time></trkpt><trkpt lat="45.23651535682098" lon="3.7603654674475226"><ele>1021.0</ele><time>2026-04-26T12:43:49.001Z</time></trkpt><trkpt lat="45.23651313541136" lon="3.7602431072793667"><ele>1020.1999999999999</ele><time>2026-04-26T12:43:50.001Z</time></trkpt><trkpt lat="45.236511886499954" lon="3.7601312345387714"><ele>1019.3999999999999</ele><time>2026-04-26T12:43:51.001Z</time></trkpt><trkpt lat="45.2365119576279" lon="3.7600263711223594"><ele>1018.6</ele><time>2026-04-26T12:43:52.001Z</time></trkpt><trkpt lat="45.23650785573179" lon="3.759801241017517"><ele>1017.8</ele><time>2026-04-26T12:43:54.001Z</time></trkpt><trkpt lat="45.236492025239635" lon="3.7596782034418874"><ele>1017.0</ele><time>2026-04-26T12:43:55.001Z</time></trkpt><trkpt lat="45.23646598353431" lon="3.759551431591137"><ele>1015.8333333333334</ele><time>2026-04-26T12:43:56.001Z</time></trkpt><trkpt lat="45.236434838215644" lon="3.75943559004966"><ele>1014.6666666666667</ele><time>2026-04-26T12:43:57.001Z</time></trkpt><trkpt lat="45.23640906189173" lon="3.7593432975781123"><ele>1013.5</ele><time>2026-04-26T12:43:58.001Z</time></trkpt><trkpt lat="45.23632948320681" lon="3.759212506418392"><ele>1012.3333333333334</ele><time>2026-04-26T12:44:00.001Z</time></trkpt><trkpt lat="45.23626303305043" lon="3.759177572073168"><ele>1011.1666666666667</ele><time>2026-04-26T12:44:01.001Z</time></trkpt><trkpt lat="45.2361764510274" lon="3.7591565454405"><ele>1010.0</ele><time>2026-04-26T12:44:02.001Z</time></trkpt><trkpt lat="45.23608534935432" lon="3.7591486947614494"><ele>1009.0</ele><time>2026-04-26T12:44:03.001Z</time></trkpt><trkpt lat="45.23600459688068" lon="3.759149153285141"><ele>1008.0</ele><time>2026-04-26T12:44:04.002Z</time></trkpt><trkpt lat="45.23593970396692" lon="3.759126682975639"><ele>1007.0</ele><time>2026-04-26T12:44:05.002Z</time></trkpt><trkpt lat="45.23585676557499" lon="3.7589767421460714"><ele>1006.0</ele><time>2026-04-26T12:44:07.002Z</time></trkpt><trkpt lat="45.23582711689826" lon="3.758847261716064"><ele>1005.0</ele><time>2026-04-26T12:44:08.002Z</time></trkpt><trkpt lat="45.235807985803845" lon="3.758713594807198"><ele>1005.0</ele><time>2026-04-26T12:44:09.002Z</time></trkpt><trkpt lat="45.23579954613272" lon="3.758582723992014"><ele>1005.0</ele><time>2026-04-26T12:44:10.002Z</time></trkpt><trkpt lat="45.235785095192725" lon="3.7584350254577066"><ele>1005.0</ele><time>2026-04-26T12:44:11.002Z</time></trkpt><trkpt lat="45.23573914705549" lon="3.7582711852421617"><ele>1005.0</ele><time>2026-04-26T12:44:12.002Z</time></trkpt><trkpt lat="45.23568124944589" lon="3.7580907473542497"><ele>1000.5</ele><time>2026-04-26T12:44:13.001Z</time></trkpt><trkpt lat="45.23552180761017" lon="3.75771625577341"><ele>996.0</ele><time>2026-04-26T12:44:15.001Z</time></trkpt><trkpt lat="45.23545769079122" lon="3.75753536107496"><ele>995.5</ele><time>2026-04-26T12:44:16.001Z</time></trkpt><trkpt lat="45.23539387121374" lon="3.7573710429203206"><ele>995.0</ele><time>2026-04-26T12:44:17.001Z</time></trkpt><trkpt lat="45.23532383793211" lon="3.7572250679548045"><ele>994.5</ele><time>2026-04-26T12:44:18.001Z</time></trkpt><trkpt lat="45.235246098846304" lon="3.7570796559220807"><ele>994.0</ele><time>2026-04-26T12:44:19.001Z</time></trkpt><trkpt lat="45.2351797325118" lon="3.756949030894069"><ele>994.2</ele><time>2026-04-26T12:44:20.001Z</time></trkpt><trkpt lat="45.23512036016477" lon="3.75682826602712"><ele>994.4000000000001</ele><time>2026-04-26T12:44:21.001Z</time></trkpt><trkpt lat="45.23505633157093" lon="3.756702581060384"><ele>994.6</ele><time>2026-04-26T12:44:22.001Z</time></trkpt><trkpt lat="45.235001488086304" lon="3.7565811383468244"><ele>994.8</ele><time>2026-04-26T12:44:23.001Z</time></trkpt><trkpt lat="45.234947600173236" lon="3.756459857969894"><ele>995.0</ele><time>2026-04-26T12:44:24.001Z</time></trkpt><trkpt lat="45.234903001422246" lon="3.756320976561478"><ele>995.0</ele><time>2026-04-26T12:44:25.001Z</time></trkpt><trkpt lat="45.23485553341179" lon="3.7561740245435344"><ele>995.0</ele><time>2026-04-26T12:44:26.001Z</time></trkpt><trkpt lat="45.234813810185" lon="3.756030841825167"><ele>995.0</ele><time>2026-04-26T12:44:27.001Z</time></trkpt><trkpt lat="45.23478903385595" lon="3.7558943170108194"><ele>995.0</ele><time>2026-04-26T12:44:28.001Z</time></trkpt><trkpt lat="45.23477559554648" lon="3.7557649109834292"><ele>995.0</ele><time>2026-04-26T12:44:29.001Z</time></trkpt><trkpt lat="45.2347662410625" lon="3.7556456631370536"><ele>994.2</ele><time>2026-04-26T12:44:30.001Z</time></trkpt><trkpt lat="45.234756647618894" lon="3.7555401410336597"><ele>993.4</ele><time>2026-04-26T12:44:31.001Z</time></trkpt><trkpt lat="45.23474665595536" lon="3.7554422359729354"><ele>992.5999999999999</ele><time>2026-04-26T12:44:32.001Z</time></trkpt><trkpt lat="45.234726728476524" lon="3.755307920725272"><ele>991.8</ele><time>2026-04-26T12:44:34.001Z</time></trkpt><trkpt lat="45.2347084251755" lon="3.7550734959093797"><ele>991.0</ele><time>2026-04-26T12:44:46.001Z</time></trkpt><trkpt lat="45.234684872567335" lon="3.7549506318794164"><ele>990.1999999999999</ele><time>2026-04-26T12:44:47.001Z</time></trkpt><trkpt lat="45.23463896339094" lon="3.7547974970303355"><ele>989.3999999999999</ele><time>2026-04-26T12:44:48.001Z</time></trkpt><trkpt lat="45.23459825717368" lon="3.7546613731387586"><ele>988.6</ele><time>2026-04-26T12:44:49.001Z</time></trkpt><trkpt lat="45.23456358426521" lon="3.754542851883429"><ele>987.8</ele><time>2026-04-26T12:44:50.001Z</time></trkpt><trkpt lat="45.23453103283354" lon="3.754441182949855"><ele>987.0</ele><time>2026-04-26T12:44:51.001Z</time></trkpt><trkpt lat="45.234501840186496" lon="3.75435648891248"><ele>987.0</ele><time>2026-04-26T12:44:52.001Z</time></trkpt><trkpt lat="45.23447298234571" lon="3.754269751971147"><ele>987.0</ele><time>2026-04-26T12:44:53.001Z</time></trkpt><trkpt lat="45.23445862996782" lon="3.7541696926259087"><ele>987.0</ele><time>2026-04-26T12:44:54.001Z</time></trkpt><trkpt lat="45.23444900998907" lon="3.7540782362690894"><ele>987.0</ele><time>2026-04-26T12:44:55.001Z</time></trkpt><trkpt lat="45.234408606266136" lon="3.7538010274114533"><ele>987.0</ele><time>2026-04-26T12:44:58.001Z</time></trkpt><trkpt lat="45.23433076455246" lon="3.7536680545191947"><ele>987.0</ele><time>2026-04-26T12:45:00.001Z</time></trkpt><trkpt lat="45.23425830000818" lon="3.753620714015378"><ele>987.0</ele><time>2026-04-26T12:45:01.001Z</time></trkpt><trkpt lat="45.234183749932726" lon="3.753560901609948"><ele>987.0</ele><time>2026-04-26T12:45:02.001Z</time></trkpt><trkpt lat="45.23411792762601" lon="3.753507200700439"><ele>987.0</ele><time>2026-04-26T12:45:03.001Z</time></trkpt><trkpt lat="45.23402851583006" lon="3.7534074970133235"><ele>987.0</ele><time>2026-04-26T12:45:05.001Z</time></trkpt><trkpt lat="45.2339537313856" lon="3.753284346097972"><ele>986.0</ele><time>2026-04-26T12:45:07.001Z</time></trkpt><trkpt lat="45.233913611521906" lon="3.7532056979727577"><ele>985.0</ele><time>2026-04-26T12:45:08.001Z</time></trkpt><trkpt lat="45.23386649038909" lon="3.75308956347957"><ele>984.0</ele><time>2026-04-26T12:45:10.001Z</time></trkpt><trkpt lat="45.233820633665964" lon="3.753002936962151"><ele>983.0</ele><time>2026-04-26T12:45:12.001Z</time></trkpt><trkpt lat="45.23379688153646" lon="3.7528678035695577"><ele>982.0</ele><time>2026-04-26T12:45:14.001Z</time></trkpt><trkpt lat="45.23377788835267" lon="3.75274904322522"><ele>981.0</ele><time>2026-04-26T12:45:16.001Z</time></trkpt><trkpt lat="45.23387216099642" lon="3.7525356498888907"><ele>980.6666666666666</ele><time>2026-04-26T12:45:20.001Z</time></trkpt><trkpt lat="45.23393787205354" lon="3.7524024966664395"><ele>980.3333333333333</ele><time>2026-04-26T12:45:24.001Z</time></trkpt><trkpt lat="45.23401147902068" lon="3.7523111025947578"><ele>980.0</ele><time>2026-04-26T12:45:26.001Z</time></trkpt><trkpt lat="45.23406518827106" lon="3.752232684620323"><ele>979.6666666666666</ele><time>2026-04-26T12:45:28.001Z</time></trkpt><trkpt lat="45.23411140280676" lon="3.7521550789831095"><ele>979.3333333333333</ele><time>2026-04-26T12:45:31.001Z</time></trkpt><trkpt lat="45.23411337880754" lon="3.752039088928445"><ele>979.0</ele><time>2026-04-26T12:45:34.001Z</time></trkpt><trkpt lat="45.23422666951992" lon="3.751710976090252"><ele>977.0</ele><time>2026-04-26T12:45:35.001Z</time></trkpt><trkpt lat="45.234254241187266" lon="3.7515408732149065"><ele>975.0000000000001</ele><time>2026-04-26T12:45:37.001Z</time></trkpt><trkpt lat="45.23431484684505" lon="3.7513843185037388"><ele>973.0000000000001</ele><time>2026-04-26T12:45:44.001Z</time></trkpt><trkpt lat="45.23431313362456" lon="3.7512879006240705"><ele>971.0</ele><time>2026-04-26T12:45:47.001Z</time></trkpt><trkpt lat="45.234280410176716" lon="3.751169155933644"><ele>969.0</ele><time>2026-04-26T12:45:50.001Z</time></trkpt><trkpt lat="45.234232628770606" lon="3.7510091925281914"><ele>968.2</ele><time>2026-04-26T12:45:52.001Z</time></trkpt><trkpt lat="45.2342143614071" lon="3.7509004264587373"><ele>967.4000000000001</ele><time>2026-04-26T12:45:54.001Z</time></trkpt><trkpt lat="45.234177423636176" lon="3.751009151650638"><ele>966.6</ele><time>2026-04-26T12:45:56.001Z</time></trkpt><trkpt lat="45.234142563382825" lon="3.750852075526654"><ele>965.8</ele><time>2026-04-26T12:49:45Z</time></trkpt><trkpt lat="45.23407832523348" lon="3.7506557632024644"><ele>965.0</ele><time>2026-04-26T12:50:04Z</time></trkpt><trkpt lat="45.23402226341419" lon="3.750527489348665"><ele>965.0</ele><time>2026-04-26T12:50:06Z</time></trkpt><trkpt lat="45.23387615758557" lon="3.75026095150193"><ele>965.0</ele><time>2026-04-26T12:50:09Z</time></trkpt><trkpt lat="45.23382313357322" lon="3.7501653832460287"><ele>965.0</ele><time>2026-04-26T12:50:10Z</time></trkpt><trkpt lat="45.23378179693515" lon="3.7500833330770984"><ele>965.0</ele><time>2026-04-26T12:50:11Z</time></trkpt><trkpt lat="45.233750749535616" lon="3.749996822024533"><ele>965.0</ele><time>2026-04-26T12:50:12Z</time></trkpt><trkpt lat="45.23370759270646" lon="3.7498793878750893"><ele>965.0</ele><time>2026-04-26T12:50:13Z</time></trkpt><trkpt lat="45.23365452218378" lon="3.7497162619103976"><ele>965.0</ele><time>2026-04-26T12:50:14Z</time></trkpt><trkpt lat="45.23360226791442" lon="3.7495877981659693"><ele>965.0</ele><time>2026-04-26T12:50:15Z</time></trkpt><trkpt lat="45.23356426143797" lon="3.749480219923433"><ele>965.0</ele><time>2026-04-26T12:50:16Z</time></trkpt><trkpt lat="45.23353848806653" lon="3.749350031481688"><ele>965.0</ele><time>2026-04-26T12:50:17Z</time></trkpt><trkpt lat="45.233515533100196" lon="3.74920884614717"><ele>965.0</ele><time>2026-04-26T12:50:18Z</time></trkpt><trkpt lat="45.233512756933045" lon="3.7490960157443247"><ele>965.0</ele><time>2026-04-26T12:50:19Z</time></trkpt><trkpt lat="45.23351426112324" lon="3.748936045638147"><ele>965.0</ele><time>2026-04-26T12:50:20Z</time></trkpt><trkpt lat="45.233499809632086" lon="3.748781320522528"><ele>965.0</ele><time>2026-04-26T12:50:21Z</time></trkpt><trkpt lat="45.233495665489315" lon="3.748656208708957"><ele>964.8</ele><time>2026-04-26T12:50:22Z</time></trkpt><trkpt lat="45.233494065660096" lon="3.7485317210962976"><ele>964.6</ele><time>2026-04-26T12:50:23Z</time></trkpt><trkpt lat="45.23346897687653" lon="3.748426784589508"><ele>964.4000000000001</ele><time>2026-04-26T12:50:24Z</time></trkpt><trkpt lat="45.23342103807723" lon="3.7483214975947803"><ele>964.2</ele><time>2026-04-26T12:50:25Z</time></trkpt><trkpt lat="45.23332001569549" lon="3.748230133126309"><ele>964.0</ele><time>2026-04-26T12:50:26Z</time></trkpt><trkpt lat="45.23319111413107" lon="3.7481249811301094"><ele>962.6666666666666</ele><time>2026-04-26T12:50:27Z</time></trkpt><trkpt lat="45.232994167064874" lon="3.7479217150350173"><ele>961.3333333333333</ele><time>2026-04-26T12:50:29Z</time></trkpt><trkpt lat="45.23292363248188" lon="3.747816901708865"><ele>960.0</ele><time>2026-04-26T12:50:30Z</time></trkpt><trkpt lat="45.23282775116298" lon="3.7476974625893997"><ele>959.6</ele><time>2026-04-26T12:50:31Z</time></trkpt><trkpt lat="45.232740467047314" lon="3.7476028871478753"><ele>959.2</ele><time>2026-04-26T12:50:32Z</time></trkpt><trkpt lat="45.23264789197435" lon="3.747532990836465"><ele>958.8</ele><time>2026-04-26T12:50:33Z</time></trkpt><trkpt lat="45.232557989593424" lon="3.7474508849894455"><ele>958.4</ele><time>2026-04-26T12:50:34Z</time></trkpt><trkpt lat="45.232465220761455" lon="3.747355708769582"><ele>958.0</ele><time>2026-04-26T12:50:35Z</time></trkpt><trkpt lat="45.23239281488827" lon="3.7472556003091264"><ele>958.0</ele><time>2026-04-26T12:50:36Z</time></trkpt><trkpt lat="45.23233819032127" lon="3.7471510131789194"><ele>958.0</ele><time>2026-04-26T12:50:37Z</time></trkpt><trkpt lat="45.232284046142105" lon="3.747016678791648"><ele>958.0</ele><time>2026-04-26T12:50:38Z</time></trkpt><trkpt lat="45.23224463420908" lon="3.7468848871245495"><ele>958.0</ele><time>2026-04-26T12:50:39Z</time></trkpt><trkpt lat="45.23220825882794" lon="3.7467653945117254"><ele>958.0</ele><time>2026-04-26T12:50:40Z</time></trkpt><trkpt lat="45.232185926835776" lon="3.7466813874020226"><ele>957.5999999999999</ele><time>2026-04-26T12:50:41Z</time></trkpt><trkpt lat="45.232183132108425" lon="3.7465734066923733"><ele>957.1999999999999</ele><time>2026-04-26T12:50:43Z</time></trkpt><trkpt lat="45.232198604044726" lon="3.746478762827815"><ele>956.8</ele><time>2026-04-26T12:50:46Z</time></trkpt><trkpt lat="45.23226341574095" lon="3.7464534734355754"><ele>956.4</ele><time>2026-04-26T12:50:51Z</time></trkpt><trkpt lat="45.232468269161686" lon="3.7464240004600016"><ele>956.0</ele><time>2026-04-26T12:51:10Z</time></trkpt><trkpt lat="45.232617216949166" lon="3.7463617696855436"><ele>956.0</ele><time>2026-04-26T12:51:11Z</time></trkpt><trkpt lat="45.232779212282466" lon="3.746289912213907"><ele>956.0</ele><time>2026-04-26T12:51:12Z</time></trkpt><trkpt lat="45.23309219988057" lon="3.746212723943494"><ele>957.3333333333334</ele><time>2026-04-26T12:51:14Z</time></trkpt><trkpt lat="45.233232256128225" lon="3.7462407557235196"><ele>958.6666666666667</ele><time>2026-04-26T12:51:15Z</time></trkpt><trkpt lat="45.23341180737415" lon="3.746321333043133"><ele>960.0</ele><time>2026-04-26T12:51:16Z</time></trkpt><trkpt lat="45.23359958043165" lon="3.746399102792837"><ele>960.0</ele><time>2026-04-26T12:51:17Z</time></trkpt><trkpt lat="45.233802324099614" lon="3.7464762536303295"><ele>960.0</ele><time>2026-04-26T12:51:18Z</time></trkpt><trkpt lat="45.23401465546652" lon="3.7465477573846155"><ele>960.0</ele><time>2026-04-26T12:51:19Z</time></trkpt><trkpt lat="45.23423099990753" lon="3.746621553695934"><ele>962.3333333333333</ele><time>2026-04-26T12:51:20Z</time></trkpt><trkpt lat="45.2344538195567" lon="3.7467004706467635"><ele>964.6666666666666</ele><time>2026-04-26T12:51:21Z</time></trkpt><trkpt lat="45.234654515088536" lon="3.7467647880364265"><ele>967.0</ele><time>2026-04-26T12:51:22Z</time></trkpt><trkpt lat="45.23485813421739" lon="3.746823478652886"><ele>971.3333333333333</ele><time>2026-04-26T12:51:23Z</time></trkpt><trkpt lat="45.235064892182294" lon="3.7468787068717577"><ele>975.6666666666667</ele><time>2026-04-26T12:51:24Z</time></trkpt><trkpt lat="45.235243171835386" lon="3.746909980198815"><ele>980.0</ele><time>2026-04-26T12:51:25Z</time></trkpt><trkpt lat="45.23538532602033" lon="3.746935572843954"><ele>980.0</ele><time>2026-04-26T12:51:26Z</time></trkpt><trkpt lat="45.235510519639575" lon="3.746958024926333"><ele>980.0</ele><time>2026-04-26T12:51:27Z</time></trkpt><trkpt lat="45.23564399482648" lon="3.74696804776392"><ele>980.0</ele><time>2026-04-26T12:51:28Z</time></trkpt><trkpt lat="45.235781366656134" lon="3.747000218247302"><ele>980.0</ele><time>2026-04-26T12:51:29Z</time></trkpt><trkpt lat="45.23592828206377" lon="3.747043102105962"><ele>981.75</ele><time>2026-04-26T12:51:30Z</time></trkpt><trkpt lat="45.23606680346389" lon="3.747071274602848"><ele>983.5</ele><time>2026-04-26T12:51:31Z</time></trkpt><trkpt lat="45.236193774937114" lon="3.747073809832816"><ele>985.25</ele><time>2026-04-26T12:51:32Z</time></trkpt><trkpt lat="45.23629477981201" lon="3.7470847006276142"><ele>987.0</ele><time>2026-04-26T12:51:33Z</time></trkpt><trkpt lat="45.23643179558759" lon="3.747034561327393"><ele>987.0</ele><time>2026-04-26T12:51:35Z</time></trkpt><trkpt lat="45.23646908222859" lon="3.74693567328709"><ele>987.0</ele><time>2026-04-26T12:51:36Z</time></trkpt><trkpt lat="45.23649230831553" lon="3.746818137331649"><ele>987.0</ele><time>2026-04-26T12:51:37Z</time></trkpt><trkpt lat="45.236515284200784" lon="3.7466883284368193"><ele>987.0</ele><time>2026-04-26T12:51:38Z</time></trkpt><trkpt lat="45.236540585895895" lon="3.7465693834375053"><ele>987.0</ele><time>2026-04-26T12:51:39Z</time></trkpt><trkpt lat="45.236576222162476" lon="3.7464518660424373"><ele>987.0</ele><time>2026-04-26T12:51:40Z</time></trkpt><trkpt lat="45.23663349450627" lon="3.7463424629963757"><ele>987.2</ele><time>2026-04-26T12:51:41Z</time></trkpt><trkpt lat="45.23671091937152" lon="3.7462498895070406"><ele>987.4000000000001</ele><time>2026-04-26T12:51:42Z</time></trkpt><trkpt lat="45.23679538925978" lon="3.7461715267946047"><ele>987.5999999999999</ele><time>2026-04-26T12:51:43Z</time></trkpt><trkpt lat="45.236875656771645" lon="3.74609350291923"><ele>987.8</ele><time>2026-04-26T12:51:44Z</time></trkpt><trkpt lat="45.236957081141014" lon="3.746010525433331"><ele>988.0</ele><time>2026-04-26T12:51:45Z</time></trkpt><trkpt lat="45.23704164739442" lon="3.7459375344582884"><ele>988.0</ele><time>2026-04-26T12:51:46Z</time></trkpt><trkpt lat="45.237124006744665" lon="3.745862377506951"><ele>988.0</ele><time>2026-04-26T12:51:47Z</time></trkpt><trkpt lat="45.23720346252174" lon="3.745781250023014"><ele>988.0</ele><time>2026-04-26T12:51:48Z</time></trkpt><trkpt lat="45.237280836290324" lon="3.7456927580306414"><ele>988.0</ele><time>2026-04-26T12:51:49Z</time></trkpt><trkpt lat="45.23734773806538" lon="3.7455851899675308"><ele>988.0</ele><time>2026-04-26T12:51:50Z</time></trkpt><trkpt lat="45.2374052955385" lon="3.7454620138439307"><ele>988.0</ele><time>2026-04-26T12:51:51Z</time></trkpt><trkpt lat="45.237453105965095" lon="3.745337557477526"><ele>988.0</ele><time>2026-04-26T12:51:52Z</time></trkpt><trkpt lat="45.23750071033739" lon="3.745227661387578"><ele>988.0</ele><time>2026-04-26T12:51:53Z</time></trkpt><trkpt lat="45.23757233817244" lon="3.7451322646898526"><ele>988.0</ele><time>2026-04-26T12:51:54Z</time></trkpt><trkpt lat="45.23765738976684" lon="3.7449620211714545"><ele>988.0</ele><time>2026-04-26T12:51:56Z</time></trkpt><trkpt lat="45.23766896831735" lon="3.744863950806036"><ele>987.5</ele><time>2026-04-26T12:51:59Z</time></trkpt><trkpt lat="45.237676910162925" lon="3.744763796669753"><ele>987.0</ele><time>2026-04-26T12:53:00Z</time></trkpt><trkpt lat="45.23756203352174" lon="3.7444617506804345"><ele>986.5</ele><time>2026-04-26T12:53:03Z</time></trkpt><trkpt lat="45.237523708318314" lon="3.744330378853296"><ele>986.0</ele><time>2026-04-26T12:53:04Z</time></trkpt><trkpt lat="45.2374759658399" lon="3.744205798296952"><ele>986.0</ele><time>2026-04-26T12:53:05Z</time></trkpt><trkpt lat="45.23742598076118" lon="3.744110150646363"><ele>985.9999999999999</ele><time>2026-04-26T12:53:06Z</time></trkpt><trkpt lat="45.23736182496878" lon="3.743987145518048"><ele>985.9999999999999</ele><time>2026-04-26T12:53:08Z</time></trkpt><trkpt lat="45.2373277875326" lon="3.7438063657963068"><ele>986.0</ele><time>2026-04-26T12:53:10Z</time></trkpt><trkpt lat="45.237322532486495" lon="3.743665637265042"><ele>986.0</ele><time>2026-04-26T12:53:11Z</time></trkpt><trkpt lat="45.23733122789107" lon="3.7434815090368074"><ele>986.0</ele><time>2026-04-26T12:53:12Z</time></trkpt><trkpt lat="45.23734409632012" lon="3.7432745873427162"><ele>986.0</ele><time>2026-04-26T12:53:13Z</time></trkpt><trkpt lat="45.23736291773517" lon="3.743049758867335"><ele>986.0</ele><time>2026-04-26T12:53:14Z</time></trkpt><trkpt lat="45.237371635149444" lon="3.7428439277233116"><ele>985.25</ele><time>2026-04-26T12:53:15Z</time></trkpt><trkpt lat="45.23736602208731" lon="3.742669345994071"><ele>984.5</ele><time>2026-04-26T12:53:16Z</time></trkpt><trkpt lat="45.237338588137284" lon="3.74251325136759"><ele>983.75</ele><time>2026-04-26T12:53:17Z</time></trkpt><trkpt lat="45.23727834040199" lon="3.7423754663580597"><ele>983.0</ele><time>2026-04-26T12:53:18Z</time></trkpt><trkpt lat="45.237198650395" lon="3.7422705907689395"><ele>981.2</ele><time>2026-04-26T12:53:19Z</time></trkpt><trkpt lat="45.237131438074314" lon="3.7421870452462334"><ele>979.4</ele><time>2026-04-26T12:53:20Z</time></trkpt><trkpt lat="45.23706753703046" lon="3.74210902706104"><ele>977.6000000000001</ele><time>2026-04-26T12:53:21Z</time></trkpt><trkpt lat="45.23694717360815" lon="3.741983789833907"><ele>975.8000000000001</ele><time>2026-04-26T12:53:23Z</time></trkpt><trkpt lat="45.23688852231815" lon="3.7419338106019673"><ele>974.0</ele><time>2026-04-26T12:53:24Z</time></trkpt><trkpt lat="45.23677489758989" lon="3.74189946060774"><ele>974.0000000000001</ele><time>2026-04-26T12:53:26Z</time></trkpt><trkpt lat="45.23671373156491" lon="3.7419292833233966"><ele>974.0</ele><time>2026-04-26T12:53:27Z</time></trkpt><trkpt lat="45.23660634656657" lon="3.7418773745291904"><ele>974.0</ele><time>2026-04-26T12:53:29Z</time></trkpt><trkpt lat="45.23651344269228" lon="3.7418505636440607"><ele>974.0</ele><time>2026-04-26T12:53:31Z</time></trkpt><trkpt lat="45.23647323560295" lon="3.7417609631937383"><ele>974.0000000000001</ele><time>2026-04-26T12:53:33Z</time></trkpt><trkpt lat="45.23645152186949" lon="3.741672487718868"><ele>974.0</ele><time>2026-04-26T12:54:48Z</time></trkpt><trkpt lat="45.23636153365548" lon="3.741451121150107"><ele>973.5</ele><time>2026-04-26T12:54:52Z</time></trkpt><trkpt lat="45.236323193879095" lon="3.741321865801753"><ele>973.0</ele><time>2026-04-26T12:54:53Z</time></trkpt><trkpt lat="45.23627516683752" lon="3.7411337052586986"><ele>972.5</ele><time>2026-04-26T12:54:54Z</time></trkpt><trkpt lat="45.23622301734129" lon="3.7409022129925296"><ele>972.0</ele><time>2026-04-26T12:54:55Z</time></trkpt><trkpt lat="45.236181315804245" lon="3.74066163313112"><ele>971.75</ele><time>2026-04-26T12:54:56Z</time></trkpt><trkpt lat="45.23615352378256" lon="3.7404518716773687"><ele>971.5</ele><time>2026-04-26T12:54:57Z</time></trkpt><trkpt lat="45.23613894020567" lon="3.740262920276642"><ele>971.25</ele><time>2026-04-26T12:54:58Z</time></trkpt><trkpt lat="45.23614187803414" lon="3.740075766303835"><ele>971.0</ele><time>2026-04-26T12:54:59Z</time></trkpt><trkpt lat="45.236160790125396" lon="3.7398637706196776"><ele>969.3333333333334</ele><time>2026-04-26T12:55:00Z</time></trkpt><trkpt lat="45.23619023219977" lon="3.739613407239046"><ele>967.6666666666667</ele><time>2026-04-26T12:55:01Z</time></trkpt><trkpt lat="45.23621870771536" lon="3.739333682459376"><ele>966.0</ele><time>2026-04-26T12:55:02Z</time></trkpt><trkpt lat="45.2362404715535" lon="3.739024104743981"><ele>963.6666666666667</ele><time>2026-04-26T12:55:03Z</time></trkpt><trkpt lat="45.23623850551478" lon="3.738711565006615"><ele>961.3333333333334</ele><time>2026-04-26T12:55:04Z</time></trkpt><trkpt lat="45.236219590214255" lon="3.7384386000470777"><ele>959.0</ele><time>2026-04-26T12:55:05Z</time></trkpt><trkpt lat="45.23619073073472" lon="3.738187011092485"><ele>958.3333333333334</ele><time>2026-04-26T12:55:06Z</time></trkpt><trkpt lat="45.23615719947643" lon="3.7379523990257386"><ele>957.6666666666667</ele><time>2026-04-26T12:55:07Z</time></trkpt><trkpt lat="45.236121983747815" lon="3.737726481509151"><ele>957.0</ele><time>2026-04-26T12:55:08Z</time></trkpt><trkpt lat="45.23608319205689" lon="3.7375257044398826"><ele>956.0</ele><time>2026-04-26T12:55:09Z</time></trkpt><trkpt lat="45.235967707718366" lon="3.737168047265329"><ele>955.0</ele><time>2026-04-26T12:55:11Z</time></trkpt><trkpt lat="45.23588504984502" lon="3.7369884550798287"><ele>954.0</ele><time>2026-04-26T12:55:12Z</time></trkpt><trkpt lat="45.23578544783348" lon="3.7367921368717174"><ele>953.3333333333333</ele><time>2026-04-26T12:55:13Z</time></trkpt><trkpt lat="45.23568213623475" lon="3.7365840682329226"><ele>952.6666666666666</ele><time>2026-04-26T12:55:14Z</time></trkpt><trkpt lat="45.23559619163156" lon="3.736397200235774"><ele>952.0</ele><time>2026-04-26T12:55:15Z</time></trkpt><trkpt lat="45.235511543270114" lon="3.7362384938788504"><ele>954.75</ele><time>2026-04-26T12:55:16Z</time></trkpt><trkpt lat="45.235428714021246" lon="3.7361012872819637"><ele>957.5</ele><time>2026-04-26T12:55:17Z</time></trkpt><trkpt lat="45.23535276344343" lon="3.7359649415810914"><ele>960.25</ele><time>2026-04-26T12:55:18Z</time></trkpt><trkpt lat="45.23527940300353" lon="3.7358559877961475"><ele>963.0</ele><time>2026-04-26T12:55:19Z</time></trkpt><trkpt lat="45.23517588052237" lon="3.7357808101636913"><ele>964.0</ele><time>2026-04-26T12:55:20Z</time></trkpt><trkpt lat="45.23507131758771" lon="3.7356999235615382"><ele>965.0</ele><time>2026-04-26T12:55:21Z</time></trkpt><trkpt lat="45.234971708339806" lon="3.735598478155053"><ele>966.0</ele><time>2026-04-26T12:55:22Z</time></trkpt><trkpt lat="45.23487935413909" lon="3.7355057077351916"><ele>967.0</ele><time>2026-04-26T12:55:23Z</time></trkpt><trkpt lat="45.234791432620625" lon="3.735403162635185"><ele>971.0</ele><time>2026-04-26T12:55:24Z</time></trkpt><trkpt lat="45.234687784024686" lon="3.7353124099746164"><ele>975.0</ele><time>2026-04-26T12:55:25Z</time></trkpt><trkpt lat="45.234595828341334" lon="3.7352152392144697"><ele>979.0</ele><time>2026-04-26T12:55:26Z</time></trkpt><trkpt lat="45.234502442600835" lon="3.7351106714089553"><ele>983.0</ele><time>2026-04-26T12:55:27Z</time></trkpt><trkpt lat="45.23440954860817" lon="3.734998858751215"><ele>983.6666666666667</ele><time>2026-04-26T12:55:28Z</time></trkpt><trkpt lat="45.23431358464616" lon="3.7348896084356205"><ele>984.3333333333333</ele><time>2026-04-26T12:55:29Z</time></trkpt><trkpt lat="45.23411289491312" lon="3.7346726408959445"><ele>985.0</ele><time>2026-04-26T12:55:31Z</time></trkpt><trkpt lat="45.234009489530386" lon="3.7345614477152833"><ele>986.25</ele><time>2026-04-26T12:55:32Z</time></trkpt><trkpt lat="45.2339118632094" lon="3.7344477779193412"><ele>987.5</ele><time>2026-04-26T12:55:33Z</time></trkpt><trkpt lat="45.233816659710186" lon="3.73432380269772"><ele>988.75</ele><time>2026-04-26T12:55:34Z</time></trkpt><trkpt lat="45.233716557156825" lon="3.734193927623849"><ele>990.0</ele><time>2026-04-26T12:55:35Z</time></trkpt><trkpt lat="45.23363849507579" lon="3.7340575753494907"><ele>991.5</ele><time>2026-04-26T12:55:36Z</time></trkpt><trkpt lat="45.2335295625408" lon="3.733919365169401"><ele>993.0</ele><time>2026-04-26T12:55:37Z</time></trkpt><trkpt lat="45.23341218737736" lon="3.733795618356005"><ele>994.5</ele><time>2026-04-26T12:55:38Z</time></trkpt><trkpt lat="45.2333078795058" lon="3.7336964628465847"><ele>996.0</ele><time>2026-04-26T12:55:39Z</time></trkpt><trkpt lat="45.23321644792529" lon="3.7335831591360504"><ele>998.0</ele><time>2026-04-26T12:55:40Z</time></trkpt><trkpt lat="45.23313107421324" lon="3.7334565698358833"><ele>999.9999999999999</ele><time>2026-04-26T12:55:41Z</time></trkpt><trkpt lat="45.233063162365355" lon="3.733329583031227"><ele>1001.9999999999999</ele><time>2026-04-26T12:55:42Z</time></trkpt><trkpt lat="45.23301732202762" lon="3.733235562379127"><ele>1004.0</ele><time>2026-04-26T12:55:43Z</time></trkpt><trkpt lat="45.23304370248197" lon="3.733058831197131"><ele>1006.0</ele><time>2026-04-26T12:55:45Z</time></trkpt><trkpt lat="45.233078078540515" lon="3.7329553100911204"><ele>1006.0</ele><time>2026-04-26T12:55:46Z</time></trkpt><trkpt lat="45.23310767365783" lon="3.7328173879682396"><ele>1006.0</ele><time>2026-04-26T12:55:47Z</time></trkpt><trkpt lat="45.23313052761094" lon="3.7326648761606074"><ele>1006.0</ele><time>2026-04-26T12:55:48Z</time></trkpt><trkpt lat="45.23315611440583" lon="3.7324929992113325"><ele>1006.0</ele><time>2026-04-26T12:55:49Z</time></trkpt><trkpt lat="45.23317346206326" lon="3.732323328417278"><ele>1005.6666666666666</ele><time>2026-04-26T12:55:50Z</time></trkpt><trkpt lat="45.23316365370375" lon="3.731943732476466"><ele>1005.3333333333333</ele><time>2026-04-26T12:55:52Z</time></trkpt><trkpt lat="45.23316401584523" lon="3.731761861485752"><ele>1005.0</ele><time>2026-04-26T12:55:53Z</time></trkpt><trkpt lat="45.23316693891888" lon="3.73164001333318"><ele>1006.8</ele><time>2026-04-26T12:55:54Z</time></trkpt><trkpt lat="45.23316362869956" lon="3.7315019498956423"><ele>1008.6</ele><time>2026-04-26T12:55:56Z</time></trkpt><trkpt lat="45.233142806054786" lon="3.7313332811967745"><ele>1010.4000000000001</ele><time>2026-04-26T12:55:58Z</time></trkpt><trkpt lat="45.23312159531768" lon="3.7312470980545442"><ele>1012.2</ele><time>2026-04-26T12:55:59Z</time></trkpt><trkpt lat="45.23307188470778" lon="3.7310999901980186"><ele>1014.0</ele><time>2026-04-26T12:56:01Z</time></trkpt><trkpt lat="45.23301565208709" lon="3.731040240455772"><ele>1015.0</ele><time>2026-04-26T12:56:02Z</time></trkpt><trkpt lat="45.23293970608874" lon="3.730983923333521"><ele>1016.0000000000001</ele><time>2026-04-26T12:56:03Z</time></trkpt><trkpt lat="45.23285703494631" lon="3.7309166998339864"><ele>1017.0000000000001</ele><time>2026-04-26T12:56:04Z</time></trkpt><trkpt lat="45.23276734308839" lon="3.730863062610538"><ele>1018.0</ele><time>2026-04-26T12:56:05Z</time></trkpt><trkpt lat="45.23267443553291" lon="3.7308111358576936"><ele>1019.0</ele><time>2026-04-26T12:56:06Z</time></trkpt><trkpt lat="45.23260063961694" lon="3.73076193279394"><ele>1019.0</ele><time>2026-04-26T12:56:07Z</time></trkpt><trkpt lat="45.23253135345322" lon="3.7307190301227817"><ele>1019.0</ele><time>2026-04-26T12:56:08Z</time></trkpt><trkpt lat="45.23245170070368" lon="3.7306611586184117"><ele>1019.0</ele><time>2026-04-26T12:56:10Z</time></trkpt><trkpt lat="45.23239292735403" lon="3.7306151497679214"><ele>1019.0</ele><time>2026-04-26T12:56:38Z</time></trkpt><trkpt lat="45.232174423643876" lon="3.730500010212524"><ele>1018.75</ele><time>2026-04-26T12:56:41Z</time></trkpt><trkpt lat="45.23206221085044" lon="3.7304317335840165"><ele>1018.5</ele><time>2026-04-26T12:56:42Z</time></trkpt><trkpt lat="45.2319259270164" lon="3.730361026370259"><ele>1018.25</ele><time>2026-04-26T12:56:43Z</time></trkpt><trkpt lat="45.23175763868694" lon="3.730271327645148"><ele>1018.0</ele><time>2026-04-26T12:56:44Z</time></trkpt><trkpt lat="45.23156924855288" lon="3.7301680717665127"><ele>1018.6666666666666</ele><time>2026-04-26T12:56:45Z</time></trkpt><trkpt lat="45.231386117595655" lon="3.73007594903443"><ele>1019.3333333333333</ele><time>2026-04-26T12:56:46Z</time></trkpt><trkpt lat="45.231225754762335" lon="3.7300022364670067"><ele>1020.0</ele><time>2026-04-26T12:56:47Z</time></trkpt><trkpt lat="45.231048141687914" lon="3.7299332902933853"><ele>1020.0</ele><time>2026-04-26T12:56:48Z</time></trkpt><trkpt lat="45.230862470691115" lon="3.7298524257654186"><ele>1020.0</ele><time>2026-04-26T12:56:49Z</time></trkpt><trkpt lat="45.23067414511454" lon="3.729773813713141"><ele>1020.0</ele><time>2026-04-26T12:56:50Z</time></trkpt><trkpt lat="45.23048867959358" lon="3.7297006513304147"><ele>1020.0</ele><time>2026-04-26T12:56:51Z</time></trkpt><trkpt lat="45.23031000322919" lon="3.729640468288978"><ele>1020.0</ele><time>2026-04-26T12:56:52Z</time></trkpt><trkpt lat="45.23014102526944" lon="3.729596403207539"><ele>1020.0</ele><time>2026-04-26T12:56:53Z</time></trkpt><trkpt lat="45.22999209178623" lon="3.7295591600792606"><ele>1020.0</ele><time>2026-04-26T12:56:54Z</time></trkpt><trkpt lat="45.22985483763745" lon="3.7295223022137107"><ele>1020.0</ele><time>2026-04-26T12:56:55Z</time></trkpt><trkpt lat="45.22974138626664" lon="3.729489439140668"><ele>1020.0</ele><time>2026-04-26T12:56:56Z</time></trkpt><trkpt lat="45.22963733552145" lon="3.7294647167314525"><ele>1020.0</ele><time>2026-04-26T12:56:57Z</time></trkpt><trkpt lat="45.22954225001623" lon="3.7294375567317175"><ele>1020.3333333333333</ele><time>2026-04-26T12:56:58Z</time></trkpt><trkpt lat="45.229445550576585" lon="3.729376206659892"><ele>1020.6666666666666</ele><time>2026-04-26T12:56:59Z</time></trkpt><trkpt lat="45.22919730781711" lon="3.7291659004726365"><ele>1021.0</ele><time>2026-04-26T12:57:01Z</time></trkpt><trkpt lat="45.2290405502716" lon="3.729052385346797"><ele>1022.25</ele><time>2026-04-26T12:57:02Z</time></trkpt><trkpt lat="45.2289034883273" lon="3.7289446582127215"><ele>1023.5</ele><time>2026-04-26T12:57:03Z</time></trkpt><trkpt lat="45.22879309263479" lon="3.7288478064899806"><ele>1024.75</ele><time>2026-04-26T12:57:04Z</time></trkpt><trkpt lat="45.22867566096538" lon="3.7287466627503902"><ele>1026.0</ele><time>2026-04-26T12:57:05Z</time></trkpt><trkpt lat="45.22853035110639" lon="3.7286259340424457"><ele>1025.6666666666667</ele><time>2026-04-26T12:57:06Z</time></trkpt><trkpt lat="45.22838331395345" lon="3.7285077065529006"><ele>1025.3333333333335</ele><time>2026-04-26T12:57:07Z</time></trkpt><trkpt lat="45.2282464199784" lon="3.728405012275645"><ele>1025.0</ele><time>2026-04-26T12:57:08Z</time></trkpt><trkpt lat="45.2281366025564" lon="3.7282907715535365"><ele>1025.0</ele><time>2026-04-26T12:57:09Z</time></trkpt><trkpt lat="45.22803413485656" lon="3.7281899473075404"><ele>1025.0</ele><time>2026-04-26T12:57:10Z</time></trkpt><trkpt lat="45.22794691779856" lon="3.728083201136358"><ele>1025.0</ele><time>2026-04-26T12:57:11Z</time></trkpt><trkpt lat="45.22788324583007" lon="3.727957017179571"><ele>1025.0</ele><time>2026-04-26T12:57:12Z</time></trkpt><trkpt lat="45.22783706118937" lon="3.7278206217789416"><ele>1024.2</ele><time>2026-04-26T12:57:13Z</time></trkpt><trkpt lat="45.22780100572954" lon="3.727708840450034"><ele>1023.4</ele><time>2026-04-26T12:57:14Z</time></trkpt><trkpt lat="45.227759478299916" lon="3.727608009015153"><ele>1022.5999999999999</ele><time>2026-04-26T12:57:15Z</time></trkpt><trkpt lat="45.22771796442335" lon="3.727512910185169"><ele>1021.8</ele><time>2026-04-26T12:57:16Z</time></trkpt><trkpt lat="45.22765827895684" lon="3.727393977271436"><ele>1021.0</ele><time>2026-04-26T12:57:17Z</time></trkpt><trkpt lat="45.22760874091193" lon="3.7272600631356356"><ele>1021.0</ele><time>2026-04-26T12:57:18Z</time></trkpt><trkpt lat="45.2275455851892" lon="3.7271476462041897"><ele>1021.0</ele><time>2026-04-26T12:57:19Z</time></trkpt><trkpt lat="45.22749497513541" lon="3.727039186101625"><ele>1021.0</ele><time>2026-04-26T12:57:20Z</time></trkpt><trkpt lat="45.227388088342856" lon="3.726794051096487"><ele>1021.0</ele><time>2026-04-26T12:57:22Z</time></trkpt><trkpt lat="45.22734092303965" lon="3.726676211248617"><ele>1020.3333333333333</ele><time>2026-04-26T12:57:23Z</time></trkpt><trkpt lat="45.22727661195172" lon="3.7265643735933605"><ele>1019.6666666666666</ele><time>2026-04-26T12:57:24Z</time></trkpt><trkpt lat="45.22720161061083" lon="3.7264745307658296"><ele>1019.0</ele><time>2026-04-26T12:57:25Z</time></trkpt><trkpt lat="45.22714504252804" lon="3.7263897556323515"><ele>1018.3333333333333</ele><time>2026-04-26T12:57:26Z</time></trkpt><trkpt lat="45.22708321064909" lon="3.7263114414707905"><ele>1017.6666666666666</ele><time>2026-04-26T12:57:27Z</time></trkpt><trkpt lat="45.22701574307699" lon="3.7262601191009495"><ele>1017.0</ele><time>2026-04-26T12:57:28Z</time></trkpt><trkpt lat="45.22695077956544" lon="3.7262134499139123"><ele>1017.0</ele><time>2026-04-26T12:57:29Z</time></trkpt><trkpt lat="45.2268875327847" lon="3.7261438175957493"><ele>1017.0</ele><time>2026-04-26T12:57:30Z</time></trkpt><trkpt lat="45.22682767682833" lon="3.7260873625467648"><ele>1017.0</ele><time>2026-04-26T12:57:31Z</time></trkpt><trkpt lat="45.22675105344751" lon="3.726036904399725"><ele>1017.0</ele><time>2026-04-26T12:57:32Z</time></trkpt><trkpt lat="45.22669390069217" lon="3.725967350080894"><ele>1017.0</ele><time>2026-04-26T12:57:33Z</time></trkpt><trkpt lat="45.22660400601206" lon="3.7258611502005046"><ele>1017.0</ele><time>2026-04-26T12:57:34Z</time></trkpt><trkpt lat="45.22652615502914" lon="3.7257552959779905"><ele>1014.8</ele><time>2026-04-26T12:57:35Z</time></trkpt><trkpt lat="45.22645691796839" lon="3.725634282626063"><ele>1012.6</ele><time>2026-04-26T12:57:36Z</time></trkpt><trkpt lat="45.22638238077626" lon="3.725526090810561"><ele>1010.3999999999999</ele><time>2026-04-26T12:57:37Z</time></trkpt><trkpt lat="45.226302413805264" lon="3.7254107779514256"><ele>1008.1999999999999</ele><time>2026-04-26T12:57:38Z</time></trkpt><trkpt lat="45.22622754081637" lon="3.7252854865084477"><ele>1006.0</ele><time>2026-04-26T12:57:39Z</time></trkpt><trkpt lat="45.22615862659145" lon="3.7251522173333407"><ele>1004.0</ele><time>2026-04-26T12:57:40Z</time></trkpt><trkpt lat="45.226079105623626" lon="3.7250119354671827"><ele>1002.0</ele><time>2026-04-26T12:57:41Z</time></trkpt><trkpt lat="45.22591344326473" lon="3.724740552843873"><ele>1000.0</ele><time>2026-04-26T12:57:43Z</time></trkpt><trkpt lat="45.22584665165673" lon="3.724614982389435"><ele>999.9999999999999</ele><time>2026-04-26T12:57:44Z</time></trkpt><trkpt lat="45.225780608803134" lon="3.724501682993407"><ele>1000.0</ele><time>2026-04-26T12:57:45Z</time></trkpt><trkpt lat="45.22571778595184" lon="3.72440913173817"><ele>1000.0</ele><time>2026-04-26T12:57:46Z</time></trkpt><trkpt lat="45.225659878193454" lon="3.7243100677136165"><ele>1000.0</ele><time>2026-04-26T12:57:47Z</time></trkpt><trkpt lat="45.22560717025359" lon="3.7242212599805886"><ele>999.9999999999999</ele><time>2026-04-26T12:57:48Z</time></trkpt><trkpt lat="45.22554791295663" lon="3.724175101183617"><ele>1000.0</ele><time>2026-04-26T12:57:49Z</time></trkpt><trkpt lat="45.225476016498405" lon="3.724121241344797"><ele>996.8</ele><time>2026-04-26T12:57:50Z</time></trkpt><trkpt lat="45.22540667951137" lon="3.724066796811546"><ele>993.6</ele><time>2026-04-26T12:57:51Z</time></trkpt><trkpt lat="45.225336969851504" lon="3.7240279910921585"><ele>990.4000000000001</ele><time>2026-04-26T12:57:52Z</time></trkpt><trkpt lat="45.22523121588032" lon="3.723976793955135"><ele>987.2</ele><time>2026-04-26T12:57:54Z</time></trkpt><trkpt lat="45.22515307436133" lon="3.723892364709336"><ele>984.0</ele><time>2026-04-26T12:57:56Z</time></trkpt><trkpt lat="45.22507185885178" lon="3.723805186795334"><ele>984.0</ele><time>2026-04-26T12:57:58Z</time></trkpt><trkpt lat="45.22507187476407" lon="3.723647748467802"><ele>984.0</ele><time>2026-04-26T12:58:00Z</time></trkpt><trkpt lat="45.22512382887479" lon="3.7235018884518643"><ele>984.0</ele><time>2026-04-26T12:58:02Z</time></trkpt><trkpt lat="45.225211995234694" lon="3.7232678532922914"><ele>984.0</ele><time>2026-04-26T12:58:06Z</time></trkpt><trkpt lat="45.225180162963404" lon="3.72318202427753"><ele>982.4000000000001</ele><time>2026-04-26T12:58:09Z</time></trkpt><trkpt lat="45.22515426204732" lon="3.72308059788653"><ele>980.8000000000001</ele><time>2026-04-26T12:58:15Z</time></trkpt><trkpt lat="45.22512997638267" lon="3.72297302214628"><ele>979.1999999999999</ele><time>2026-04-26T12:58:17Z</time></trkpt><trkpt lat="45.22509016059271" lon="3.7228319771196405"><ele>977.5999999999999</ele><time>2026-04-26T12:58:18Z</time></trkpt><trkpt lat="45.22502759438397" lon="3.7226665563945827"><ele>976.0</ele><time>2026-04-26T12:58:19Z</time></trkpt><trkpt lat="45.22495644810465" lon="3.7224702344002307"><ele>976.0</ele><time>2026-04-26T12:58:20Z</time></trkpt><trkpt lat="45.22486226352672" lon="3.7222800547313124"><ele>976.0</ele><time>2026-04-26T12:58:21Z</time></trkpt><trkpt lat="45.22476760656018" lon="3.722121224261783"><ele>976.0</ele><time>2026-04-26T12:58:22Z</time></trkpt><trkpt lat="45.22468056634681" lon="3.721995733933112"><ele>976.0</ele><time>2026-04-26T12:58:23Z</time></trkpt><trkpt lat="45.22444822137122" lon="3.7217717396939434"><ele>979.6666666666666</ele><time>2026-04-26T12:58:25Z</time></trkpt><trkpt lat="45.224317437235904" lon="3.721659374805058"><ele>983.3333333333333</ele><time>2026-04-26T12:58:26Z</time></trkpt><trkpt lat="45.22418881154203" lon="3.7215105145810665"><ele>987.0</ele><time>2026-04-26T12:58:27Z</time></trkpt><trkpt lat="45.22407294564926" lon="3.7213428735590535"><ele>986.3333333333333</ele><time>2026-04-26T12:58:28Z</time></trkpt><trkpt lat="45.22395857248963" lon="3.721144132994151"><ele>985.6666666666666</ele><time>2026-04-26T12:58:29Z</time></trkpt><trkpt lat="45.223840231424866" lon="3.720934036302405"><ele>985.0</ele><time>2026-04-26T12:58:30Z</time></trkpt><trkpt lat="45.22372303641707" lon="3.7207332302250835"><ele>986.0</ele><time>2026-04-26T12:58:31Z</time></trkpt><trkpt lat="45.223623621284005" lon="3.720562923375684"><ele>987.0</ele><time>2026-04-26T12:58:32Z</time></trkpt><trkpt lat="45.22352081748931" lon="3.720354373728288"><ele>988.0</ele><time>2026-04-26T12:58:33Z</time></trkpt><trkpt lat="45.223409970836535" lon="3.7201004998736393"><ele>988.0</ele><time>2026-04-26T12:58:34Z</time></trkpt><trkpt lat="45.22329474006226" lon="3.7198321569496793"><ele>988.0</ele><time>2026-04-26T12:58:35Z</time></trkpt><trkpt lat="45.223196942091604" lon="3.7195711151893884"><ele>988.0</ele><time>2026-04-26T12:58:36Z</time></trkpt><trkpt lat="45.223105480767714" lon="3.71933780488571"><ele>985.6666666666666</ele><time>2026-04-26T12:58:37Z</time></trkpt><trkpt lat="45.22301378955666" lon="3.7191119757537523"><ele>983.3333333333333</ele><time>2026-04-26T12:58:38Z</time></trkpt><trkpt lat="45.2229132147923" lon="3.7188765125566805"><ele>981.0</ele><time>2026-04-26T12:58:39Z</time></trkpt><trkpt lat="45.22282444476409" lon="3.718664126771803"><ele>981.5</ele><time>2026-04-26T12:58:40Z</time></trkpt><trkpt lat="45.22275374001483" lon="3.718462718473113"><ele>982.0</ele><time>2026-04-26T12:58:41Z</time></trkpt><trkpt lat="45.222684788129" lon="3.718306335528089"><ele>982.5</ele><time>2026-04-26T12:58:42Z</time></trkpt><trkpt lat="45.222602916328725" lon="3.7181894718875905"><ele>983.0</ele><time>2026-04-26T12:58:43Z</time></trkpt><trkpt lat="45.22248790628691" lon="3.7181043781420424"><ele>986.5</ele><time>2026-04-26T12:58:44Z</time></trkpt><trkpt lat="45.22217909290281" lon="3.717946773385203"><ele>990.0</ele><time>2026-04-26T12:58:46Z</time></trkpt><trkpt lat="45.222031329168125" lon="3.7178864438331467"><ele>990.0</ele><time>2026-04-26T12:58:47Z</time></trkpt><trkpt lat="45.22191079988544" lon="3.717843262277542"><ele>990.0</ele><time>2026-04-26T12:58:48Z</time></trkpt><trkpt lat="45.221802733442196" lon="3.717818733714866"><ele>990.0</ele><time>2026-04-26T12:58:49Z</time></trkpt><trkpt lat="45.22168992657171" lon="3.7178263376738485"><ele>990.0</ele><time>2026-04-26T12:58:50Z</time></trkpt><trkpt lat="45.22158065192461" lon="3.7178566334845473"><ele>992.0</ele><time>2026-04-26T12:58:51Z</time></trkpt><trkpt lat="45.221476817636564" lon="3.7178870674461706"><ele>994.0</ele><time>2026-04-26T12:58:52Z</time></trkpt><trkpt lat="45.221367512039095" lon="3.7179154429586636"><ele>996.0</ele><time>2026-04-26T12:58:53Z</time></trkpt><trkpt lat="45.22125701009038" lon="3.7179230128335266"><ele>998.0</ele><time>2026-04-26T12:58:54Z</time></trkpt><trkpt lat="45.22114520168862" lon="3.717915134472024"><ele>1000.0</ele><time>2026-04-26T12:58:55Z</time></trkpt><trkpt lat="45.221049896395066" lon="3.7178864099720066"><ele>999.9999999999999</ele><time>2026-04-26T12:58:56Z</time></trkpt><trkpt lat="45.22095721796945" lon="3.7178254281692906"><ele>1000.0</ele><time>2026-04-26T12:58:57Z</time></trkpt><trkpt lat="45.22086510681053" lon="3.717755256839071"><ele>1000.0</ele><time>2026-04-26T12:58:58Z</time></trkpt><trkpt lat="45.2208027490312" lon="3.7176974402204483"><ele>1000.0</ele><time>2026-04-26T12:58:59Z</time></trkpt><trkpt lat="45.220753167717206" lon="3.7176276305710245"><ele>999.9999999999999</ele><time>2026-04-26T12:59:01Z</time></trkpt><trkpt lat="45.220694627009955" lon="3.717541027536322"><ele>1000.0</ele><time>2026-04-26T12:59:17Z</time></trkpt><trkpt lat="45.22070509135376" lon="3.7172569358979417"><ele>1001.3333333333333</ele><time>2026-04-26T12:59:20Z</time></trkpt><trkpt lat="45.220711701585905" lon="3.7171392378730794"><ele>1002.6666666666666</ele><time>2026-04-26T12:59:21Z</time></trkpt><trkpt lat="45.22072121230041" lon="3.717024418933189"><ele>1004.0</ele><time>2026-04-26T12:59:22Z</time></trkpt><trkpt lat="45.220725460673236" lon="3.716896136445996"><ele>1005.3333333333333</ele><time>2026-04-26T12:59:23Z</time></trkpt><trkpt lat="45.22071810757262" lon="3.716773481395601"><ele>1006.6666666666666</ele><time>2026-04-26T12:59:24Z</time></trkpt><trkpt lat="45.22070629924212" lon="3.7166631989096013"><ele>1008.0</ele><time>2026-04-26T12:59:25Z</time></trkpt><trkpt lat="45.220689791136024" lon="3.7165525942173"><ele>1008.8</ele><time>2026-04-26T12:59:26Z</time></trkpt><trkpt lat="45.22067069360905" lon="3.7164338724002977"><ele>1009.5999999999999</ele><time>2026-04-26T12:59:28Z</time></trkpt><trkpt lat="45.22062250070426" lon="3.71632953978394"><ele>1010.4000000000001</ele><time>2026-04-26T12:59:35Z</time></trkpt><trkpt lat="45.220599841722745" lon="3.716193434704633"><ele>1011.2</ele><time>2026-04-26T12:59:37Z</time></trkpt><trkpt lat="45.22057397164777" lon="3.7161060692948134"><ele>1012.0</ele><time>2026-04-26T12:59:38Z</time></trkpt><trkpt lat="45.22046670428452" lon="3.7158684290939252"><ele>1012.6666666666666</ele><time>2026-04-26T12:59:40Z</time></trkpt><trkpt lat="45.22040824723081" lon="3.7157309029959014"><ele>1013.3333333333333</ele><time>2026-04-26T12:59:41Z</time></trkpt><trkpt lat="45.22035632153961" lon="3.715601886183787"><ele>1014.0</ele><time>2026-04-26T12:59:42Z</time></trkpt><trkpt lat="45.22031610415694" lon="3.7154977953929915"><ele>1014.6666666666667</ele><time>2026-04-26T12:59:43Z</time></trkpt><trkpt lat="45.220275514699274" lon="3.7154096906862635"><ele>1015.3333333333334</ele><time>2026-04-26T12:59:44Z</time></trkpt><trkpt lat="45.22024171669467" lon="3.7153297276432617"><ele>1016.0</ele><time>2026-04-26T12:59:45Z</time></trkpt><trkpt lat="45.22021119573765" lon="3.715226234262584"><ele>1017.1999999999999</ele><time>2026-04-26T12:59:46Z</time></trkpt><trkpt lat="45.22018867448235" lon="3.7151084834965884"><ele>1018.3999999999999</ele><time>2026-04-26T12:59:47Z</time></trkpt><trkpt lat="45.220180604659625" lon="3.714986806046411"><ele>1019.6</ele><time>2026-04-26T12:59:48Z</time></trkpt><trkpt lat="45.22016684821989" lon="3.714861994716232"><ele>1020.8</ele><time>2026-04-26T12:59:49Z</time></trkpt><trkpt lat="45.22013586677912" lon="3.714717667719894"><ele>1022.0</ele><time>2026-04-26T12:59:50Z</time></trkpt><trkpt lat="45.22009586407747" lon="3.714612941054858"><ele>1022.0</ele><time>2026-04-26T12:59:51Z</time></trkpt><trkpt lat="45.22001205698433" lon="3.7144679984116697"><ele>1022.0</ele><time>2026-04-26T12:59:53Z</time></trkpt><trkpt lat="45.21996502937165" lon="3.7143957028995884"><ele>1022.0</ele><time>2026-04-26T12:59:54Z</time></trkpt><trkpt lat="45.21986692847302" lon="3.7142850388271857"><ele>1022.0</ele><time>2026-04-26T12:59:56Z</time></trkpt><trkpt lat="45.21979979230211" lon="3.714219997286676"><ele>1022.0</ele><time>2026-04-26T12:59:57Z</time></trkpt><trkpt lat="45.21972946637679" lon="3.7141431949341164"><ele>1021.5</ele><time>2026-04-26T12:59:58Z</time></trkpt><trkpt lat="45.219667735097474" lon="3.7140772290206865"><ele>1021.0</ele><time>2026-04-26T12:59:59Z</time></trkpt><trkpt lat="45.21952755482679" lon="3.7138373062436285"><ele>1020.5</ele><time>2026-04-26T13:00:03Z</time></trkpt><trkpt lat="45.21950592042123" lon="3.7137299911817077"><ele>1020.0</ele><time>2026-04-26T13:00:04Z</time></trkpt><trkpt lat="45.21947374229544" lon="3.71360347873555"><ele>1020.4</ele><time>2026-04-26T13:00:05Z</time></trkpt><trkpt lat="45.21943766737042" lon="3.7134756529540844"><ele>1020.8</ele><time>2026-04-26T13:00:06Z</time></trkpt><trkpt lat="45.21939178215142" lon="3.7133471453899056"><ele>1021.2</ele><time>2026-04-26T13:00:07Z</time></trkpt><trkpt lat="45.21933095275688" lon="3.7132386643987796"><ele>1021.6</ele><time>2026-04-26T13:00:08Z</time></trkpt><trkpt lat="45.2192540393895" lon="3.7131371601077077"><ele>1022.0</ele><time>2026-04-26T13:00:09Z</time></trkpt><trkpt lat="45.21917076899768" lon="3.7130502602591995"><ele>1022.0</ele><time>2026-04-26T13:00:10Z</time></trkpt><trkpt lat="45.21908366335343" lon="3.712971911590288"><ele>1022.0</ele><time>2026-04-26T13:00:11Z</time></trkpt><trkpt lat="45.21899800265842" lon="3.712887075309915"><ele>1022.0</ele><time>2026-04-26T13:00:12Z</time></trkpt><trkpt lat="45.218910421420304" lon="3.712787784027586"><ele>1022.0</ele><time>2026-04-26T13:00:13Z</time></trkpt><trkpt lat="45.21882651708979" lon="3.7126729327176706"><ele>1022.0</ele><time>2026-04-26T13:00:14Z</time></trkpt><trkpt lat="45.218739426073334" lon="3.7125587820483714"><ele>1022.25</ele><time>2026-04-26T13:00:15Z</time></trkpt><trkpt lat="45.21864450744207" lon="3.712437279518474"><ele>1022.5</ele><time>2026-04-26T13:00:16Z</time></trkpt><trkpt lat="45.21854622039051" lon="3.7123146405371874"><ele>1022.75</ele><time>2026-04-26T13:00:17Z</time></trkpt><trkpt lat="45.218439600337874" lon="3.71217567719338"><ele>1023.0</ele><time>2026-04-26T13:00:18Z</time></trkpt><trkpt lat="45.21833597665775" lon="3.7120414222759828"><ele>1023.0</ele><time>2026-04-26T13:00:19Z</time></trkpt><trkpt lat="45.218240768761554" lon="3.711909187871944"><ele>1023.0</ele><time>2026-04-26T13:00:20Z</time></trkpt><trkpt lat="45.21807024633015" lon="3.711673874476637"><ele>1023.0</ele><time>2026-04-26T13:00:22Z</time></trkpt><trkpt lat="45.21799658877774" lon="3.711580079131367"><ele>1023.8</ele><time>2026-04-26T13:00:23Z</time></trkpt><trkpt lat="45.21792327410816" lon="3.711488779103951"><ele>1024.6</ele><time>2026-04-26T13:00:24Z</time></trkpt><trkpt lat="45.21785237799702" lon="3.711376001949042"><ele>1025.4</ele><time>2026-04-26T13:00:25Z</time></trkpt><trkpt lat="45.21779227132197" lon="3.7112620700976895"><ele>1026.2</ele><time>2026-04-26T13:00:26Z</time></trkpt><trkpt lat="45.21775076868255" lon="3.711135264599552"><ele>1027.0</ele><time>2026-04-26T13:00:27Z</time></trkpt><trkpt lat="45.21772053899695" lon="3.7110177712950927"><ele>1027.6666666666665</ele><time>2026-04-26T13:00:28Z</time></trkpt><trkpt lat="45.217699404055224" lon="3.710916480649906"><ele>1028.3333333333333</ele><time>2026-04-26T13:00:29Z</time></trkpt><trkpt lat="45.21768519182714" lon="3.710825616445826"><ele>1029.0</ele><time>2026-04-26T13:00:30Z</time></trkpt><trkpt lat="45.21767172699381" lon="3.7107112336252306"><ele>1029.6666666666667</ele><time>2026-04-26T13:00:32Z</time></trkpt><trkpt lat="45.21765932158977" lon="3.7106047244279545"><ele>1030.3333333333335</ele><time>2026-04-26T13:00:36Z</time></trkpt><trkpt lat="45.2176399251942" lon="3.7105085159306253"><ele>1031.0</ele><time>2026-04-26T13:00:43Z</time></trkpt><trkpt lat="45.217562258556825" lon="3.7102579456530993"><ele>1032.3999999999999</ele><time>2026-04-26T13:00:45Z</time></trkpt><trkpt lat="45.21751133327294" lon="3.710117896124496"><ele>1033.8</ele><time>2026-04-26T13:00:46Z</time></trkpt><trkpt lat="45.21747066423239" lon="3.710004456456967"><ele>1035.1999999999998</ele><time>2026-04-26T13:00:47Z</time></trkpt><trkpt lat="45.217435279794344" lon="3.7099067102630223"><ele>1036.6</ele><time>2026-04-26T13:00:48Z</time></trkpt><trkpt lat="45.21738924839855" lon="3.7097977111048808"><ele>1038.0</ele><time>2026-04-26T13:00:49Z</time></trkpt><trkpt lat="45.21734754532496" lon="3.709691960561486"><ele>1038.0</ele><time>2026-04-26T13:00:50Z</time></trkpt><trkpt lat="45.21732003083287" lon="3.7095962187339357"><ele>1038.0</ele><time>2026-04-26T13:00:51Z</time></trkpt><trkpt lat="45.2172948878239" lon="3.7094988569680893"><ele>1038.0</ele><time>2026-04-26T13:00:52Z</time></trkpt><trkpt lat="45.21724733884867" lon="3.709362324917303"><ele>1038.0</ele><time>2026-04-26T13:00:53Z</time></trkpt><trkpt lat="45.217170944734626" lon="3.709203305620698"><ele>1038.0</ele><time>2026-04-26T13:00:54Z</time></trkpt><trkpt lat="45.21707907149169" lon="3.709030598946989"><ele>1036.6666666666667</ele><time>2026-04-26T13:00:55Z</time></trkpt><trkpt lat="45.21698320808801" lon="3.708837091441529"><ele>1035.3333333333335</ele><time>2026-04-26T13:00:56Z</time></trkpt><trkpt lat="45.21688404191876" lon="3.7086481701967173"><ele>1034.0</ele><time>2026-04-26T13:00:57Z</time></trkpt><trkpt lat="45.216799109928424" lon="3.708484825868382"><ele>1033.0</ele><time>2026-04-26T13:00:58Z</time></trkpt><trkpt lat="45.21671525072702" lon="3.708335381201196"><ele>1032.0</ele><time>2026-04-26T13:00:59Z</time></trkpt><trkpt lat="45.21663342140088" lon="3.708208088026681"><ele>1031.0</ele><time>2026-04-26T13:01:00Z</time></trkpt><trkpt lat="45.21654821850315" lon="3.7080980000051444"><ele>1030.0</ele><time>2026-04-26T13:01:01Z</time></trkpt><trkpt lat="45.21645303055556" lon="3.708010481461156"><ele>1030.0</ele><time>2026-04-26T13:01:02Z</time></trkpt><trkpt lat="45.21634358244854" lon="3.70793281137338"><ele>1030.0</ele><time>2026-04-26T13:01:03Z</time></trkpt><trkpt lat="45.216244645485446" lon="3.7078751629215922"><ele>1030.0</ele><time>2026-04-26T13:01:04Z</time></trkpt><trkpt lat="45.21608153653165" lon="3.7077690531120417"><ele>1030.0</ele><time>2026-04-26T13:01:06Z</time></trkpt><trkpt lat="45.21602801656272" lon="3.7077013439088997"><ele>1029.3333333333333</ele><time>2026-04-26T13:01:07Z</time></trkpt><trkpt lat="45.21593415676865" lon="3.707626989287104"><ele>1028.6666666666665</ele><time>2026-04-26T13:01:09Z</time></trkpt><trkpt lat="45.2158443272943" lon="3.707570358940128"><ele>1028.0</ele><time>2026-04-26T13:01:11Z</time></trkpt><trkpt lat="45.21577112391547" lon="3.707499974398525"><ele>1027.3333333333333</ele><time>2026-04-26T13:01:13Z</time></trkpt><trkpt lat="45.215698585959835" lon="3.7074554565393463"><ele>1026.6666666666667</ele><time>2026-04-26T13:01:15Z</time></trkpt><trkpt lat="45.21563887627366" lon="3.7074044452239545"><ele>1026.0</ele><time>2026-04-26T13:01:17Z</time></trkpt><trkpt lat="45.21557742351183" lon="3.707360197607534"><ele>1026.0</ele><time>2026-04-26T13:01:19Z</time></trkpt><trkpt lat="45.21549885965233" lon="3.7073067554447445"><ele>1026.0</ele><time>2026-04-26T13:01:22Z</time></trkpt><trkpt lat="45.21543757337087" lon="3.707268345354129"><ele>1026.0</ele><time>2026-04-26T13:01:24Z</time></trkpt><trkpt lat="45.21537090269337" lon="3.7072286140185304"><ele>1026.0</ele><time>2026-04-26T13:01:26Z</time></trkpt><trkpt lat="45.215136027724284" lon="3.7070680410430494"><ele>1026.0</ele><time>2026-04-26T13:01:29Z</time></trkpt><trkpt lat="45.21502018018719" lon="3.7070065662611946"><ele>1026.0</ele><time>2026-04-26T13:01:30Z</time></trkpt><trkpt lat="45.21489143116179" lon="3.7069428942814278"><ele>1026.0</ele><time>2026-04-26T13:01:31Z</time></trkpt><trkpt lat="45.21478369195162" lon="3.7068871127148286"><ele>1026.0</ele><time>2026-04-26T13:01:32Z</time></trkpt><trkpt lat="45.21468407951143" lon="3.706836980038274"><ele>1025.0</ele><time>2026-04-26T13:01:33Z</time></trkpt><trkpt lat="45.21458308412715" lon="3.706790784659317"><ele>1023.9999999999999</ele><time>2026-04-26T13:01:34Z</time></trkpt><trkpt lat="45.214489227928276" lon="3.7067373380963975"><ele>1022.9999999999999</ele><time>2026-04-26T13:01:35Z</time></trkpt><trkpt lat="45.214399058754" lon="3.706683240224853"><ele>1022.0</ele><time>2026-04-26T13:01:36Z</time></trkpt><trkpt lat="45.21432469179972" lon="3.7066320009506826"><ele>1021.0</ele><time>2026-04-26T13:01:37Z</time></trkpt><trkpt lat="45.21425445178624" lon="3.706587835497217"><ele>1021.0</ele><time>2026-04-26T13:01:38Z</time></trkpt><trkpt lat="45.21414798387905" lon="3.7065330518859385"><ele>1020.9999999999999</ele><time>2026-04-26T13:01:40Z</time></trkpt><trkpt lat="45.21405043269603" lon="3.70646663396358"><ele>1020.9999999999999</ele><time>2026-04-26T13:01:42Z</time></trkpt><trkpt lat="45.21399032612018" lon="3.7063847163809536"><ele>1021.0</ele><time>2026-04-26T13:01:44Z</time></trkpt><trkpt lat="45.21396716915098" lon="3.706292311411675"><ele>1021.0</ele><time>2026-04-26T13:01:46Z</time></trkpt><trkpt lat="45.21388233972823" lon="3.706355320767521"><ele>1021.0</ele><time>2026-04-26T13:01:49Z</time></trkpt><trkpt lat="45.21385550099587" lon="3.7064526670080813"><ele>1020.9999999999999</ele><time>2026-04-26T13:07:17Z</time></trkpt><trkpt lat="45.21389168918366" lon="3.7065250819617384"><ele>1020.9999999999999</ele><time>2026-04-26T13:07:42Z</time></trkpt><trkpt lat="45.21402285008427" lon="3.7064303814153554"><ele>1021.0</ele><time>2026-04-26T13:07:46Z</time></trkpt><trkpt lat="45.214075643394295" lon="3.706313398647805"><ele>1021.0</ele><time>2026-04-26T13:08:06Z</time></trkpt><trkpt lat="45.21414471744373" lon="3.7059981407429023"><ele>1020.4</ele><time>2026-04-26T13:08:10Z</time></trkpt><trkpt lat="45.21415376183895" lon="3.705851137443125"><ele>1019.8</ele><time>2026-04-26T13:08:11Z</time></trkpt><trkpt lat="45.21415735162886" lon="3.705684163269249"><ele>1019.1999999999999</ele><time>2026-04-26T13:08:12Z</time></trkpt><trkpt lat="45.21415904423348" lon="3.705546389488354"><ele>1018.5999999999999</ele><time>2026-04-26T13:08:13Z</time></trkpt><trkpt lat="45.214165076469385" lon="3.705429641570046"><ele>1018.0</ele><time>2026-04-26T13:08:14Z</time></trkpt><trkpt lat="45.21417580102827" lon="3.7053351931145904"><ele>1018.0</ele><time>2026-04-26T13:08:15Z</time></trkpt><trkpt lat="45.21416406288868" lon="3.705161704856908"><ele>1018.0</ele><time>2026-04-26T13:08:17Z</time></trkpt><trkpt lat="45.2141362411762" lon="3.705060851061383"><ele>1018.0</ele><time>2026-04-26T13:08:18Z</time></trkpt><trkpt lat="45.21410732614268" lon="3.704947153197855"><ele>1018.0</ele><time>2026-04-26T13:08:19Z</time></trkpt><trkpt lat="45.214107755241315" lon="3.704830784797709"><ele>1018.0</ele><time>2026-04-26T13:08:20Z</time></trkpt><trkpt lat="45.214126462992155" lon="3.70471413792717"><ele>1018.0</ele><time>2026-04-26T13:08:21Z</time></trkpt><trkpt lat="45.21415462334351" lon="3.7046048427966167"><ele>1018.0</ele><time>2026-04-26T13:08:22Z</time></trkpt><trkpt lat="45.21420051583652" lon="3.704487702177726"><ele>1018.0</ele><time>2026-04-26T13:08:23Z</time></trkpt><trkpt lat="45.21426453974237" lon="3.7043547537258945"><ele>1018.0</ele><time>2026-04-26T13:08:24Z</time></trkpt><trkpt lat="45.21432666096299" lon="3.704209491304701"><ele>1018.0</ele><time>2026-04-26T13:08:25Z</time></trkpt><trkpt lat="45.21436424558643" lon="3.7040512412187248"><ele>1016.5</ele><time>2026-04-26T13:08:26Z</time></trkpt><trkpt lat="45.21438425513447" lon="3.7038831134190633"><ele>1015.0</ele><time>2026-04-26T13:08:27Z</time></trkpt><trkpt lat="45.21439959889709" lon="3.7036128419102514"><ele>1013.5</ele><time>2026-04-26T13:08:29Z</time></trkpt><trkpt lat="45.214414076303854" lon="3.7034782858471713"><ele>1012.0</ele><time>2026-04-26T13:08:30Z</time></trkpt><trkpt lat="45.21445280021474" lon="3.703290157161914"><ele>1008.6666666666666</ele><time>2026-04-26T13:08:31Z</time></trkpt><trkpt lat="45.214492275566094" lon="3.7030715088016826"><ele>1005.3333333333333</ele><time>2026-04-26T13:08:32Z</time></trkpt><trkpt lat="45.214518958841744" lon="3.70281328892626"><ele>1002.0</ele><time>2026-04-26T13:08:33Z</time></trkpt><trkpt lat="45.21453818930827" lon="3.702574063611563"><ele>998.3333333333333</ele><time>2026-04-26T13:08:34Z</time></trkpt><trkpt lat="45.214558332001324" lon="3.7023494569809987"><ele>994.6666666666666</ele><time>2026-04-26T13:08:35Z</time></trkpt><trkpt lat="45.21458884984179" lon="3.702142092786975"><ele>991.0</ele><time>2026-04-26T13:08:36Z</time></trkpt><trkpt lat="45.21462916472551" lon="3.7019338317829633"><ele>988.75</ele><time>2026-04-26T13:08:37Z</time></trkpt><trkpt lat="45.21466754707777" lon="3.701742523027082"><ele>986.5</ele><time>2026-04-26T13:08:38Z</time></trkpt><trkpt lat="45.2147038181542" lon="3.701566569381782"><ele>984.25</ele><time>2026-04-26T13:08:39Z</time></trkpt><trkpt lat="45.214725160347356" lon="3.7014007352668448"><ele>982.0</ele><time>2026-04-26T13:08:40Z</time></trkpt><trkpt lat="45.21473756683375" lon="3.7012576455522366"><ele>982.0</ele><time>2026-04-26T13:08:41Z</time></trkpt><trkpt lat="45.214734983039875" lon="3.7011144359660584"><ele>982.0</ele><time>2026-04-26T13:08:42Z</time></trkpt><trkpt lat="45.2147073429296" lon="3.7009838123286283"><ele>982.0</ele><time>2026-04-26T13:08:43Z</time></trkpt><trkpt lat="45.21464399644157" lon="3.7008711052916836"><ele>982.0</ele><time>2026-04-26T13:08:44Z</time></trkpt><trkpt lat="45.21455368148937" lon="3.700758012183691"><ele>982.0</ele><time>2026-04-26T13:08:45Z</time></trkpt><trkpt lat="45.21446053523506" lon="3.700628028544681"><ele>981.25</ele><time>2026-04-26T13:08:46Z</time></trkpt><trkpt lat="45.21439775773329" lon="3.7005232578152696"><ele>980.5</ele><time>2026-04-26T13:08:47Z</time></trkpt><trkpt lat="45.21435508223601" lon="3.7004083481068464"><ele>979.75</ele><time>2026-04-26T13:08:48Z</time></trkpt><trkpt lat="45.21435405124316" lon="3.70012438748683"><ele>979.0</ele><time>2026-04-26T13:08:50Z</time></trkpt><trkpt lat="45.214380600178444" lon="3.699970771019362"><ele>979.0</ele><time>2026-04-26T13:08:51Z</time></trkpt><trkpt lat="45.214425136725005" lon="3.699802773924652"><ele>979.0</ele><time>2026-04-26T13:08:52Z</time></trkpt><trkpt lat="45.214481036160734" lon="3.6996185616505355"><ele>979.0</ele><time>2026-04-26T13:08:53Z</time></trkpt><trkpt lat="45.21452674622392" lon="3.6994155030554126"><ele>979.0</ele><time>2026-04-26T13:08:54Z</time></trkpt><trkpt lat="45.21455796285002" lon="3.699259569609455"><ele>979.1428571428571</ele><time>2026-04-26T13:08:55Z</time></trkpt><trkpt lat="45.214572504792635" lon="3.699132033341968"><ele>979.2857142857143</ele><time>2026-04-26T13:08:56Z</time></trkpt><trkpt lat="45.2145650879369" lon="3.6990176466372473"><ele>979.4285714285714</ele><time>2026-04-26T13:08:57Z</time></trkpt><trkpt lat="45.21454521831887" lon="3.6989204759378644"><ele>979.5714285714286</ele><time>2026-04-26T13:08:58Z</time></trkpt><trkpt lat="45.21451916370721" lon="3.6988352673032723"><ele>979.7142857142858</ele><time>2026-04-26T13:08:59Z</time></trkpt><trkpt lat="45.21448599428577" lon="3.698756751954585"><ele>979.8571428571429</ele><time>2026-04-26T13:09:00Z</time></trkpt><trkpt lat="45.21444448293123" lon="3.698677415812114"><ele>980.0</ele><time>2026-04-26T13:09:01Z</time></trkpt><trkpt lat="45.214397732591245" lon="3.6986014677204953"><ele>979.8</ele><time>2026-04-26T13:09:02Z</time></trkpt><trkpt lat="45.214350566310664" lon="3.69852291024775"><ele>979.6</ele><time>2026-04-26T13:09:03Z</time></trkpt><trkpt lat="45.21429871095837" lon="3.698452384589938"><ele>979.4000000000001</ele><time>2026-04-26T13:09:04Z</time></trkpt><trkpt lat="45.21423049964711" lon="3.6983755729674366"><ele>979.2</ele><time>2026-04-26T13:09:05Z</time></trkpt><trkpt lat="45.21414674018" lon="3.698277436742815"><ele>979.0</ele><time>2026-04-26T13:09:06Z</time></trkpt><trkpt lat="45.21405098872019" lon="3.698196682419576"><ele>978.75</ele><time>2026-04-26T13:09:07Z</time></trkpt><trkpt lat="45.213965305287275" lon="3.6981323012960448"><ele>978.5</ele><time>2026-04-26T13:09:08Z</time></trkpt><trkpt lat="45.2138809838013" lon="3.6980657778460877"><ele>978.25</ele><time>2026-04-26T13:09:09Z</time></trkpt><trkpt lat="45.213704882928496" lon="3.6978653974606117"><ele>978.0</ele><time>2026-04-26T13:09:11Z</time></trkpt><trkpt lat="45.213632602134986" lon="3.6977489220275084"><ele>976.8</ele><time>2026-04-26T13:09:12Z</time></trkpt><trkpt lat="45.213560870567264" lon="3.6976384314999193"><ele>975.5999999999999</ele><time>2026-04-26T13:09:13Z</time></trkpt><trkpt lat="45.213488867883605" lon="3.697534689436384"><ele>974.4000000000001</ele><time>2026-04-26T13:09:14Z</time></trkpt><trkpt lat="45.21342025952043" lon="3.6974233814485267"><ele>973.2</ele><time>2026-04-26T13:09:15Z</time></trkpt><trkpt lat="45.21336409756667" lon="3.6972993451309404"><ele>972.0</ele><time>2026-04-26T13:09:16Z</time></trkpt><trkpt lat="45.2133132758548" lon="3.697169002014977"><ele>972.0</ele><time>2026-04-26T13:09:17Z</time></trkpt><trkpt lat="45.213259435880765" lon="3.697043869711923"><ele>972.0</ele><time>2026-04-26T13:09:18Z</time></trkpt><trkpt lat="45.21321163578039" lon="3.696948082240411"><ele>972.0</ele><time>2026-04-26T13:09:19Z</time></trkpt><trkpt lat="45.21316446510717" lon="3.6968803135661172"><ele>972.0</ele><time>2026-04-26T13:09:20Z</time></trkpt><trkpt lat="45.21310753358538" lon="3.696826361457516"><ele>972.0</ele><time>2026-04-26T13:09:21Z</time></trkpt><trkpt lat="45.213039853374035" lon="3.696782916681505"><ele>972.0</ele><time>2026-04-26T13:09:22Z</time></trkpt><trkpt lat="45.21296210951366" lon="3.6967454366349366"><ele>969.8333333333334</ele><time>2026-04-26T13:09:23Z</time></trkpt><trkpt lat="45.21287534623458" lon="3.6967445543405995"><ele>967.6666666666667</ele><time>2026-04-26T13:09:24Z</time></trkpt><trkpt lat="45.21278883357492" lon="3.696763325449483"><ele>965.5</ele><time>2026-04-26T13:09:25Z</time></trkpt><trkpt lat="45.21271259038493" lon="3.6967756565144074"><ele>963.3333333333334</ele><time>2026-04-26T13:09:26Z</time></trkpt><trkpt lat="45.21264173063253" lon="3.6967664847115285"><ele>961.1666666666667</ele><time>2026-04-26T13:09:27Z</time></trkpt><trkpt lat="45.212578663038315" lon="3.696732959784167"><ele>959.0</ele><time>2026-04-26T13:09:28Z</time></trkpt><trkpt lat="45.21251099682546" lon="3.6965904979141095"><ele>959.0</ele><time>2026-04-26T13:09:30Z</time></trkpt><trkpt lat="45.21257434443984" lon="3.696394786459051"><ele>959.0000000000001</ele><time>2026-04-26T13:09:32Z</time></trkpt><trkpt lat="45.2126423211019" lon="3.696322681379194"><ele>959.0000000000001</ele><time>2026-04-26T13:09:33Z</time></trkpt><trkpt lat="45.21270396153945" lon="3.6962613455537165"><ele>959.0</ele><time>2026-04-26T13:09:34Z</time></trkpt><trkpt lat="45.212768668294196" lon="3.6961853711351385"><ele>959.0</ele><time>2026-04-26T13:09:35Z</time></trkpt><trkpt lat="45.21283152386859" lon="3.6960913855087525"><ele>956.8000000000001</ele><time>2026-04-26T13:09:36Z</time></trkpt><trkpt lat="45.212876559230544" lon="3.6959635633404737"><ele>954.6000000000001</ele><time>2026-04-26T13:09:37Z</time></trkpt><trkpt lat="45.21291250313166" lon="3.695814190856048"><ele>952.4</ele><time>2026-04-26T13:09:38Z</time></trkpt><trkpt lat="45.212935601205224" lon="3.695646147396846"><ele>950.2</ele><time>2026-04-26T13:09:39Z</time></trkpt><trkpt lat="45.21295284395779" lon="3.695484399439194"><ele>948.0</ele><time>2026-04-26T13:09:40Z</time></trkpt><trkpt lat="45.21296018284949" lon="3.6953405590666244"><ele>948.1666666666666</ele><time>2026-04-26T13:09:41Z</time></trkpt><trkpt lat="45.21294908168132" lon="3.6951994184339214"><ele>948.3333333333333</ele><time>2026-04-26T13:09:42Z</time></trkpt><trkpt lat="45.21290631445193" lon="3.6950839741351946"><ele>948.5</ele><time>2026-04-26T13:09:43Z</time></trkpt><trkpt lat="45.2128343964136" lon="3.6950278011088518"><ele>948.6666666666666</ele><time>2026-04-26T13:09:44Z</time></trkpt><trkpt lat="45.212758197178" lon="3.695019280540632"><ele>948.8333333333333</ele><time>2026-04-26T13:09:45Z</time></trkpt><trkpt lat="45.21268373717407" lon="3.695005209667817"><ele>949.0</ele><time>2026-04-26T13:09:46Z</time></trkpt><trkpt lat="45.21260354302159" lon="3.6949687879684383"><ele>949.0</ele><time>2026-04-26T13:09:47Z</time></trkpt><trkpt lat="45.21252258969036" lon="3.6948927078576794"><ele>949.0000000000001</ele><time>2026-04-26T13:09:48Z</time></trkpt><trkpt lat="45.21245755228621" lon="3.6947858800341606"><ele>949.0000000000001</ele><time>2026-04-26T13:09:49Z</time></trkpt><trkpt lat="45.2124060146021" lon="3.6946496640965365"><ele>949.0</ele><time>2026-04-26T13:09:50Z</time></trkpt><trkpt lat="45.212381219934485" lon="3.694506172673879"><ele>949.0</ele><time>2026-04-26T13:09:51Z</time></trkpt><trkpt lat="45.21236299306936" lon="3.694176200301096"><ele>950.6</ele><time>2026-04-26T13:09:53Z</time></trkpt><trkpt lat="45.21237834846462" lon="3.693992571362714"><ele>952.2</ele><time>2026-04-26T13:09:54Z</time></trkpt><trkpt lat="45.21240429538185" lon="3.693818466896965"><ele>953.8000000000001</ele><time>2026-04-26T13:09:55Z</time></trkpt><trkpt lat="45.2124313818695" lon="3.6936875464375696"><ele>955.4000000000001</ele><time>2026-04-26T13:09:56Z</time></trkpt><trkpt lat="45.21245897001173" lon="3.693581518309633"><ele>957.0</ele><time>2026-04-26T13:09:57Z</time></trkpt><trkpt lat="45.21249395780143" lon="3.6934954124093915"><ele>957.0</ele><time>2026-04-26T13:09:58Z</time></trkpt><trkpt lat="45.21253143946277" lon="3.6934230790024905"><ele>957.0</ele><time>2026-04-26T13:09:59Z</time></trkpt><trkpt lat="45.21255494468589" lon="3.6933250698351676"><ele>957.0</ele><time>2026-04-26T13:10:01Z</time></trkpt><trkpt lat="45.212481067960695" lon="3.693221792703616"><ele>957.0</ele><time>2026-04-26T13:10:03Z</time></trkpt><trkpt lat="45.212412800407" lon="3.693151913097486"><ele>957.0</ele><time>2026-04-26T13:10:04Z</time></trkpt><trkpt lat="45.21232479894197" lon="3.6930583652692057"><ele>957.0</ele><time>2026-04-26T13:10:05Z</time></trkpt><trkpt lat="45.212228748826824" lon="3.692956135089054"><ele>956.75</ele><time>2026-04-26T13:10:06Z</time></trkpt><trkpt lat="45.212144944064015" lon="3.6928945053301923"><ele>956.5</ele><time>2026-04-26T13:10:07Z</time></trkpt><trkpt lat="45.212056443401835" lon="3.6928096881815557"><ele>956.25</ele><time>2026-04-26T13:10:08Z</time></trkpt><trkpt lat="45.21197134718053" lon="3.6926809972304304"><ele>956.0</ele><time>2026-04-26T13:10:09Z</time></trkpt><trkpt lat="45.21188474562302" lon="3.692552785451475"><ele>956.0</ele><time>2026-04-26T13:10:10Z</time></trkpt><trkpt lat="45.21177691603067" lon="3.692397078946558"><ele>956.0</ele><time>2026-04-26T13:10:11Z</time></trkpt><trkpt lat="45.211668136572825" lon="3.692236736502352"><ele>956.0</ele><time>2026-04-26T13:10:12Z</time></trkpt><trkpt lat="45.21142930379965" lon="3.6918694375926"><ele>957.0</ele><time>2026-04-26T13:10:14Z</time></trkpt><trkpt lat="45.2112859385878" lon="3.6917146366449525"><ele>958.0</ele><time>2026-04-26T13:10:15Z</time></trkpt><trkpt lat="45.21115363914755" lon="3.6916142564157606"><ele>959.0</ele><time>2026-04-26T13:10:16Z</time></trkpt><trkpt lat="45.21102726289635" lon="3.6915383823949974"><ele>959.0</ele><time>2026-04-26T13:10:17Z</time></trkpt><trkpt lat="45.21089832570083" lon="3.691482721646787"><ele>959.0</ele><time>2026-04-26T13:10:18Z</time></trkpt><trkpt lat="45.210764992389" lon="3.6914559938212403"><ele>959.0</ele><time>2026-04-26T13:10:19Z</time></trkpt><trkpt lat="45.21061207985745" lon="3.691447814163342"><ele>959.0</ele><time>2026-04-26T13:10:20Z</time></trkpt><trkpt lat="45.210462482948174" lon="3.6914436605196643"><ele>954.75</ele><time>2026-04-26T13:10:21Z</time></trkpt><trkpt lat="45.2103114821665" lon="3.6914216597412692"><ele>950.5</ele><time>2026-04-26T13:10:22Z</time></trkpt><trkpt lat="45.21017346654415" lon="3.691405218203684"><ele>946.25</ele><time>2026-04-26T13:10:23Z</time></trkpt><trkpt lat="45.210040753976344" lon="3.691378676420025"><ele>942.0</ele><time>2026-04-26T13:10:24Z</time></trkpt><trkpt lat="45.20990353183218" lon="3.6913334279587606"><ele>941.75</ele><time>2026-04-26T13:10:25Z</time></trkpt><trkpt lat="45.20978859535306" lon="3.6912896368941124"><ele>941.5</ele><time>2026-04-26T13:10:26Z</time></trkpt><trkpt lat="45.209679307465095" lon="3.6912016709892557"><ele>941.25</ele><time>2026-04-26T13:10:27Z</time></trkpt><trkpt lat="45.20957874351988" lon="3.691081076681244"><ele>941.0</ele><time>2026-04-26T13:10:28Z</time></trkpt><trkpt lat="45.20948628673475" lon="3.690950836362131"><ele>941.0</ele><time>2026-04-26T13:10:29Z</time></trkpt><trkpt lat="45.2094082523624" lon="3.6908132125405237"><ele>941.0</ele><time>2026-04-26T13:10:30Z</time></trkpt><trkpt lat="45.209342296568586" lon="3.690671615088366"><ele>941.0</ele><time>2026-04-26T13:10:31Z</time></trkpt><trkpt lat="45.2092770666213" lon="3.6905402193147294"><ele>941.0</ele><time>2026-04-26T13:10:32Z</time></trkpt><trkpt lat="45.209225128825146" lon="3.6904183013008396"><ele>943.0</ele><time>2026-04-26T13:10:33Z</time></trkpt><trkpt lat="45.20913346432122" lon="3.690128680185728"><ele>945.0</ele><time>2026-04-26T13:10:35Z</time></trkpt><trkpt lat="45.2091163415641" lon="3.6899867887567512"><ele>947.0</ele><time>2026-04-26T13:10:36Z</time></trkpt><trkpt lat="45.209118475510174" lon="3.6898363435631674"><ele>949.0</ele><time>2026-04-26T13:10:37Z</time></trkpt><trkpt lat="45.2091338913228" lon="3.689668228292194"><ele>949.0</ele><time>2026-04-26T13:10:38Z</time></trkpt><trkpt lat="45.209156284774274" lon="3.6894938876277057"><ele>949.0</ele><time>2026-04-26T13:10:39Z</time></trkpt><trkpt lat="45.20915853900006" lon="3.689317504462383"><ele>949.0</ele><time>2026-04-26T13:10:40Z</time></trkpt><trkpt lat="45.20912418839889" lon="3.689156216610178"><ele>949.0</ele><time>2026-04-26T13:10:41Z</time></trkpt><trkpt lat="45.20908107087275" lon="3.6890158851792307"><ele>949.2</ele><time>2026-04-26T13:10:42Z</time></trkpt><trkpt lat="45.209048548612444" lon="3.68887484560755"><ele>949.4000000000001</ele><time>2026-04-26T13:10:43Z</time></trkpt><trkpt lat="45.20903068287659" lon="3.6887367926589776"><ele>949.6</ele><time>2026-04-26T13:10:44Z</time></trkpt><trkpt lat="45.20903391612748" lon="3.6885951405532094"><ele>949.8</ele><time>2026-04-26T13:10:45Z</time></trkpt><trkpt lat="45.20905785058185" lon="3.6884444318049314"><ele>950.0</ele><time>2026-04-26T13:10:46Z</time></trkpt><trkpt lat="45.20910034349724" lon="3.6882857604339288"><ele>947.5</ele><time>2026-04-26T13:10:47Z</time></trkpt><trkpt lat="45.20915271304061" lon="3.688129807097137"><ele>945.0</ele><time>2026-04-26T13:10:48Z</time></trkpt><trkpt lat="45.209214951171575" lon="3.687971048734278"><ele>942.5</ele><time>2026-04-26T13:10:49Z</time></trkpt><trkpt lat="45.20928125122632" lon="3.6878131619804586"><ele>940.0</ele><time>2026-04-26T13:10:50Z</time></trkpt><trkpt lat="45.209343924749696" lon="3.687661291212633"><ele>938.0</ele><time>2026-04-26T13:10:51Z</time></trkpt><trkpt lat="45.20940223959289" lon="3.68751765118818"><ele>936.0</ele><time>2026-04-26T13:10:52Z</time></trkpt><trkpt lat="45.20945502429969" lon="3.687386960895533"><ele>934.0</ele><time>2026-04-26T13:10:53Z</time></trkpt><trkpt lat="45.20954806456618" lon="3.687110698096043"><ele>932.0</ele><time>2026-04-26T13:10:55Z</time></trkpt><trkpt lat="45.20960079193337" lon="3.6869689378385524"><ele>930.75</ele><time>2026-04-26T13:10:56Z</time></trkpt><trkpt lat="45.20966332674816" lon="3.6868150131080553"><ele>929.5</ele><time>2026-04-26T13:10:57Z</time></trkpt><trkpt lat="45.209736904806746" lon="3.686659365043935"><ele>928.25</ele><time>2026-04-26T13:10:58Z</time></trkpt><trkpt lat="45.20982042936721" lon="3.686535391188697"><ele>927.0</ele><time>2026-04-26T13:10:59Z</time></trkpt><trkpt lat="45.20990711977086" lon="3.6864457955623737"><ele>927.8</ele><time>2026-04-26T13:11:00Z</time></trkpt><trkpt lat="45.210007041829535" lon="3.68637697556262"><ele>928.6</ele><time>2026-04-26T13:11:01Z</time></trkpt><trkpt lat="45.21010909269829" lon="3.6863114409580313"><ele>929.3999999999999</ele><time>2026-04-26T13:11:02.001Z</time></trkpt><trkpt lat="45.21020237464836" lon="3.686227189913866"><ele>930.1999999999999</ele><time>2026-04-26T13:11:03.001Z</time></trkpt><trkpt lat="45.21027501290524" lon="3.6861152205757204"><ele>931.0</ele><time>2026-04-26T13:11:04.001Z</time></trkpt><trkpt lat="45.21032761746137" lon="3.6860141770597465"><ele>931.0</ele><time>2026-04-26T13:11:05.001Z</time></trkpt><trkpt lat="45.210375535293196" lon="3.6859082105426295"><ele>931.0</ele><time>2026-04-26T13:11:07.001Z</time></trkpt><trkpt lat="45.21027744003682" lon="3.68585727634892"><ele>931.0</ele><time>2026-04-26T13:11:15.001Z</time></trkpt><trkpt lat="45.2101282268513" lon="3.6859720376646155"><ele>931.0</ele><time>2026-04-26T13:11:17Z</time></trkpt><trkpt lat="45.21001759005963" lon="3.6860818745713133"><ele>929.6666666666666</ele><time>2026-04-26T13:11:18Z</time></trkpt><trkpt lat="45.209872723831914" lon="3.6862089673607636"><ele>928.3333333333333</ele><time>2026-04-26T13:11:19Z</time></trkpt><trkpt lat="45.20970686433509" lon="3.686343363977041"><ele>927.0</ele><time>2026-04-26T13:11:20Z</time></trkpt><trkpt lat="45.209524340832594" lon="3.6864966573742906"><ele>927.0</ele><time>2026-04-26T13:11:21Z</time></trkpt><trkpt lat="45.209336870284055" lon="3.68666833666633"><ele>927.0</ele><time>2026-04-26T13:11:22Z</time></trkpt><trkpt lat="45.20917581020807" lon="3.686836881389488"><ele>927.0</ele><time>2026-04-26T13:11:23Z</time></trkpt><trkpt lat="45.20902812365121" lon="3.687025687170244"><ele>925.6666666666667</ele><time>2026-04-26T13:11:24Z</time></trkpt><trkpt lat="45.208894393406275" lon="3.6872313876748155"><ele>924.3333333333334</ele><time>2026-04-26T13:11:25Z</time></trkpt><trkpt lat="45.208771025461346" lon="3.687432993384711"><ele>923.0</ele><time>2026-04-26T13:11:26Z</time></trkpt><trkpt lat="45.20865506434991" lon="3.687599000300321"><ele>924.3333333333334</ele><time>2026-04-26T13:11:27Z</time></trkpt><trkpt lat="45.20852402058838" lon="3.687760484997108"><ele>925.6666666666667</ele><time>2026-04-26T13:11:28Z</time></trkpt><trkpt lat="45.208373824349984" lon="3.6879136405348434"><ele>927.0</ele><time>2026-04-26T13:11:29Z</time></trkpt><trkpt lat="45.208204212565214" lon="3.6880402797337877"><ele>924.0</ele><time>2026-04-26T13:11:30Z</time></trkpt><trkpt lat="45.207998407118914" lon="3.688162208517194"><ele>921.0</ele><time>2026-04-26T13:11:31Z</time></trkpt><trkpt lat="45.207779933582025" lon="3.6882875083538122"><ele>921.0</ele><time>2026-04-26T13:11:32Z</time></trkpt><trkpt lat="45.207602325768306" lon="3.6884022480482264"><ele>921.0</ele><time>2026-04-26T13:11:33Z</time></trkpt><trkpt lat="45.207470158361254" lon="3.6885001565852304"><ele>921.0</ele><time>2026-04-26T13:11:34Z</time></trkpt><trkpt lat="45.20736283626884" lon="3.6885765966855337"><ele>921.0</ele><time>2026-04-26T13:11:35Z</time></trkpt><trkpt lat="45.20726547172953" lon="3.6886377626344413"><ele>921.0</ele><time>2026-04-26T13:11:36Z</time></trkpt><trkpt lat="45.207116479783735" lon="3.688689350080664"><ele>921.0</ele><time>2026-04-26T13:11:39Z</time></trkpt><trkpt lat="45.20704508444002" lon="3.688549318507241"><ele>921.0</ele><time>2026-04-26T13:11:41Z</time></trkpt><trkpt lat="45.20700941951324" lon="3.688461283845795"><ele>921.0</ele><time>2026-04-26T13:11:42Z</time></trkpt><trkpt lat="45.206963096521136" lon="3.688383595880239"><ele>920.9999999999999</ele><time>2026-04-26T13:11:43Z</time></trkpt><trkpt lat="45.20689851730899" lon="3.6883232552586978"><ele>920.9999999999999</ele><time>2026-04-26T13:11:44Z</time></trkpt><trkpt lat="45.206804861307795" lon="3.688241316846574"><ele>921.0</ele><time>2026-04-26T13:11:45Z</time></trkpt><trkpt lat="45.20671528401376" lon="3.6881603946090804"><ele>921.0</ele><time>2026-04-26T13:11:46Z</time></trkpt><trkpt lat="45.20663407158468" lon="3.688092479094124"><ele>921.0</ele><time>2026-04-26T13:11:47Z</time></trkpt><trkpt lat="45.2065459711674" lon="3.6880434207602253"><ele>920.9999999999999</ele><time>2026-04-26T13:11:48Z</time></trkpt><trkpt lat="45.20645536360081" lon="3.6880146119866626"><ele>920.9999999999999</ele><time>2026-04-26T13:11:49Z</time></trkpt><trkpt lat="45.206368249064646" lon="3.6880031295365088"><ele>921.0</ele><time>2026-04-26T13:11:50Z</time></trkpt><trkpt lat="45.20627641022794" lon="3.6879991791771682"><ele>921.0</ele><time>2026-04-26T13:11:51Z</time></trkpt><trkpt lat="45.20617651648357" lon="3.6879926930511027"><ele>921.0</ele><time>2026-04-26T13:11:52Z</time></trkpt><trkpt lat="45.2060667641432" lon="3.688002718113219"><ele>921.0</ele><time>2026-04-26T13:11:53Z</time></trkpt><trkpt lat="45.20593658893093" lon="3.688034320091007"><ele>921.0</ele><time>2026-04-26T13:11:54Z</time></trkpt><trkpt lat="45.205797359338426" lon="3.688082444514563"><ele>921.0</ele><time>2026-04-26T13:11:55Z</time></trkpt><trkpt lat="45.20565526381928" lon="3.6881258104105834"><ele>921.0</ele><time>2026-04-26T13:11:56Z</time></trkpt><trkpt lat="45.20552752744123" lon="3.688169568050212"><ele>921.0</ele><time>2026-04-26T13:11:57Z</time></trkpt><trkpt lat="45.205303617843555" lon="3.6882413292849003"><ele>921.0</ele><time>2026-04-26T13:11:59Z</time></trkpt><trkpt lat="45.20522045636156" lon="3.6882657974466593"><ele>921.0</ele><time>2026-04-26T13:12:00Z</time></trkpt><trkpt lat="45.20513831426279" lon="3.6882940511517024"><ele>921.0</ele><time>2026-04-26T13:12:02Z</time></trkpt><trkpt lat="45.205073994792066" lon="3.6882963266403537"><ele>921.0</ele><time>2026-04-26T13:12:06Z</time></trkpt><trkpt lat="45.205027046994644" lon="3.6882024940247358"><ele>921.0</ele><time>2026-04-26T13:12:09Z</time></trkpt><trkpt lat="45.20495831453675" lon="3.6882835774485647"><ele>921.0</ele><time>2026-04-26T13:12:29Z</time></trkpt><trkpt lat="45.20473755937932" lon="3.6883570677513435"><ele>919.6666666666667</ele><time>2026-04-26T13:12:32Z</time></trkpt><trkpt lat="45.204591891987015" lon="3.688374967787521"><ele>918.3333333333334</ele><time>2026-04-26T13:12:33Z</time></trkpt><trkpt lat="45.20442482654383" lon="3.68838908709704"><ele>917.0</ele><time>2026-04-26T13:12:34Z</time></trkpt><trkpt lat="45.20424055373738" lon="3.68838471506041"><ele>917.0</ele><time>2026-04-26T13:12:35Z</time></trkpt><trkpt lat="45.204045783457964" lon="3.688364126360769"><ele>917.0</ele><time>2026-04-26T13:12:36Z</time></trkpt><trkpt lat="45.20384828925843" lon="3.6883384932973224"><ele>917.0</ele><time>2026-04-26T13:12:37Z</time></trkpt><trkpt lat="45.20368431585401" lon="3.6883156908188965"><ele>917.0</ele><time>2026-04-26T13:12:38Z</time></trkpt><trkpt lat="45.20355176191102" lon="3.688313846699013"><ele>917.0</ele><time>2026-04-26T13:12:39Z</time></trkpt><trkpt lat="45.20343304686884" lon="3.688355813257029"><ele>917.0</ele><time>2026-04-26T13:12:40Z</time></trkpt><trkpt lat="45.203316020245516" lon="3.6884587139591756"><ele>917.0</ele><time>2026-04-26T13:12:41Z</time></trkpt><trkpt lat="45.203199928324544" lon="3.6886138718947694"><ele>915.3333333333334</ele><time>2026-04-26T13:12:42Z</time></trkpt><trkpt lat="45.20308860423313" lon="3.6887961047973663"><ele>913.6666666666667</ele><time>2026-04-26T13:12:43Z</time></trkpt><trkpt lat="45.202955869381256" lon="3.6889753755241332"><ele>912.0</ele><time>2026-04-26T13:12:44Z</time></trkpt><trkpt lat="45.20281786835554" lon="3.6891307841784218"><ele>912.0</ele><time>2026-04-26T13:12:45Z</time></trkpt><trkpt lat="45.20269060599702" lon="3.6892578369025153"><ele>912.0</ele><time>2026-04-26T13:12:46Z</time></trkpt><trkpt lat="45.2025604935362" lon="3.689365385234228"><ele>912.0</ele><time>2026-04-26T13:12:47Z</time></trkpt><trkpt lat="45.2024209968724" lon="3.689445598113405"><ele>913.3333333333333</ele><time>2026-04-26T13:12:48Z</time></trkpt><trkpt lat="45.20227994181479" lon="3.689488381036976"><ele>914.6666666666666</ele><time>2026-04-26T13:12:49Z</time></trkpt><trkpt lat="45.202141328593854" lon="3.689496369877863"><ele>916.0</ele><time>2026-04-26T13:12:50Z</time></trkpt><trkpt lat="45.20182611991033" lon="3.689428195358668"><ele>916.0</ele><time>2026-04-26T13:12:52Z</time></trkpt><trkpt lat="45.20167216407357" lon="3.689418603567594"><ele>916.0</ele><time>2026-04-26T13:12:53Z</time></trkpt><trkpt lat="45.201523663185924" lon="3.6894395304538468"><ele>916.0</ele><time>2026-04-26T13:12:54Z</time></trkpt><trkpt lat="45.20139179051972" lon="3.689466110158343"><ele>916.0</ele><time>2026-04-26T13:12:55Z</time></trkpt><trkpt lat="45.20126199219925" lon="3.689456643604036"><ele>915.25</ele><time>2026-04-26T13:12:56Z</time></trkpt><trkpt lat="45.20114495022099" lon="3.6893995002634266"><ele>914.5</ele><time>2026-04-26T13:12:57Z</time></trkpt><trkpt lat="45.201039235072855" lon="3.6893309054864436"><ele>913.75</ele><time>2026-04-26T13:12:58Z</time></trkpt><trkpt lat="45.20093726448774" lon="3.6893026173320442"><ele>913.0</ele><time>2026-04-26T13:12:59Z</time></trkpt><trkpt lat="45.20082855388952" lon="3.689330637389181"><ele>913.0</ele><time>2026-04-26T13:13:00Z</time></trkpt><trkpt lat="45.2007063201546" lon="3.68940589182842"><ele>913.0</ele><time>2026-04-26T13:13:01Z</time></trkpt><trkpt lat="45.20056797990466" lon="3.689483311546214"><ele>913.0</ele><time>2026-04-26T13:13:02Z</time></trkpt><trkpt lat="45.20041196176979" lon="3.6895463440389427"><ele>913.0</ele><time>2026-04-26T13:13:03Z</time></trkpt><trkpt lat="45.20026513164807" lon="3.689604721147594"><ele>912.0</ele><time>2026-04-26T13:13:04Z</time></trkpt><trkpt lat="45.2001351978571" lon="3.6896740594322313"><ele>911.0</ele><time>2026-04-26T13:13:05Z</time></trkpt><trkpt lat="45.20000666005364" lon="3.689748729861984"><ele>910.0</ele><time>2026-04-26T13:13:06Z</time></trkpt><trkpt lat="45.19989760275672" lon="3.6898104018727294"><ele>909.0</ele><time>2026-04-26T13:13:07Z</time></trkpt><trkpt lat="45.199801683498436" lon="3.6898606401658034"><ele>909.0</ele><time>2026-04-26T13:13:08.001Z</time></trkpt><trkpt lat="45.19971869550642" lon="3.6898950434925286"><ele>909.0000000000001</ele><time>2026-04-26T13:13:09.001Z</time></trkpt><trkpt lat="45.1996559691609" lon="3.6899203872270943"><ele>909.0000000000001</ele><time>2026-04-26T13:13:10.001Z</time></trkpt><trkpt lat="45.19955268334909" lon="3.689966823484608"><ele>909.0</ele><time>2026-04-26T13:13:12.001Z</time></trkpt><trkpt lat="45.19939232940397" lon="3.6900066155182443"><ele>909.0</ele><time>2026-04-26T13:13:18.001Z</time></trkpt><trkpt lat="45.199318356871665" lon="3.6900307879540306"><ele>909.0</ele><time>2026-04-26T13:13:22Z</time></trkpt><trkpt lat="45.19920906205464" lon="3.6900661076065564"><ele>909.0000000000001</ele><time>2026-04-26T13:13:36Z</time></trkpt><trkpt lat="45.19905604473568" lon="3.6900400251216854"><ele>909.0000000000001</ele><time>2026-04-26T13:13:38Z</time></trkpt><trkpt lat="45.199004260616356" lon="3.6899782128072767"><ele>909.0</ele><time>2026-04-26T13:13:39Z</time></trkpt><trkpt lat="45.19894212775339" lon="3.689854019594904"><ele>909.0</ele><time>2026-04-26T13:13:40Z</time></trkpt><trkpt lat="45.198890213100384" lon="3.6896952805531438"><ele>909.4000000000001</ele><time>2026-04-26T13:13:41Z</time></trkpt><trkpt lat="45.19885266543529" lon="3.689570633967292"><ele>909.8000000000001</ele><time>2026-04-26T13:13:42Z</time></trkpt><trkpt lat="45.19882380754919" lon="3.6894800893374957"><ele>910.1999999999999</ele><time>2026-04-26T13:13:43Z</time></trkpt><trkpt lat="45.19881506560446" lon="3.6893390483398196"><ele>910.5999999999999</ele><time>2026-04-26T13:13:44Z</time></trkpt><trkpt lat="45.198806260713035" lon="3.689236089303259"><ele>911.0</ele><time>2026-04-26T13:13:45Z</time></trkpt><trkpt lat="45.198755559191845" lon="3.689034958454743"><ele>912.4</ele><time>2026-04-26T13:13:47Z</time></trkpt><trkpt lat="45.19874952421886" lon="3.688909576578225"><ele>913.8</ele><time>2026-04-26T13:13:48Z</time></trkpt><trkpt lat="45.19874036371381" lon="3.688781084023401"><ele>915.1999999999999</ele><time>2026-04-26T13:13:49Z</time></trkpt><trkpt lat="45.19871002343938" lon="3.688662882148462"><ele>916.5999999999999</ele><time>2026-04-26T13:13:50Z</time></trkpt><trkpt lat="45.1986859210632" lon="3.688507782314041"><ele>918.0</ele><time>2026-04-26T13:13:51Z</time></trkpt><trkpt lat="45.19867518878439" lon="3.6883726569026014"><ele>919.0</ele><time>2026-04-26T13:13:52Z</time></trkpt><trkpt lat="45.19867259242561" lon="3.688262295208024"><ele>920.0</ele><time>2026-04-26T13:13:53Z</time></trkpt><trkpt lat="45.19865898736152" lon="3.6881469207482973"><ele>921.0</ele><time>2026-04-26T13:13:54Z</time></trkpt><trkpt lat="45.198626663771975" lon="3.6879991451940115"><ele>922.0</ele><time>2026-04-26T13:13:55Z</time></trkpt><trkpt lat="45.198573450174884" lon="3.687858476982482"><ele>923.0</ele><time>2026-04-26T13:13:56Z</time></trkpt><trkpt lat="45.19849686715942" lon="3.687706920352422"><ele>932.0</ele><time>2026-04-26T13:13:57Z</time></trkpt></trkseg><trkseg><trkpt lat="45.19795928061074" lon="3.6863050663505708"><ele>954.0</ele><time>2026-04-26T14:09:19Z</time></trkpt><trkpt lat="45.197997447592606" lon="3.686454083339835"><ele>954.0000000000001</ele><time>2026-04-26T14:09:20Z</time></trkpt><trkpt lat="45.19800900844583" lon="3.6865698944351277"><ele>954.0000000000001</ele><time>2026-04-26T14:09:21Z</time></trkpt><trkpt lat="45.19802940518296" lon="3.686750474375957"><ele>954.0</ele><time>2026-04-26T14:09:23Z</time></trkpt><trkpt lat="45.19799654026391" lon="3.6866383890105308"><ele>954.0</ele><time>2026-04-26T14:09:29Z</time></trkpt><trkpt lat="45.19794230903393" lon="3.686503203103797"><ele>954.0</ele><time>2026-04-26T14:09:30Z</time></trkpt><trkpt lat="45.197910217678306" lon="3.686340426982096"><ele>954.0000000000001</ele><time>2026-04-26T14:09:31Z</time></trkpt><trkpt lat="45.197883880742445" lon="3.686206209976018"><ele>954.0000000000001</ele><time>2026-04-26T14:09:32Z</time></trkpt><trkpt lat="45.19785094349218" lon="3.686090379443142"><ele>954.0</ele><time>2026-04-26T14:09:33Z</time></trkpt><trkpt lat="45.19781099023902" lon="3.6859149948730052"><ele>954.0</ele><time>2026-04-26T14:09:34Z</time></trkpt><trkpt lat="45.197779598182514" lon="3.6857449710770935"><ele>953.0</ele><time>2026-04-26T14:09:35Z</time></trkpt><trkpt lat="45.197752873834425" lon="3.685645565259229"><ele>952.0</ele><time>2026-04-26T14:09:36Z</time></trkpt><trkpt lat="45.197642029802864" lon="3.6855219782697812"><ele>951.0</ele><time>2026-04-26T14:09:38Z</time></trkpt><trkpt lat="45.197530302605756" lon="3.685461668830348"><ele>950.0</ele><time>2026-04-26T14:09:39Z</time></trkpt><trkpt lat="45.197397063818116" lon="3.6853940258099533"><ele>954.0</ele><time>2026-04-26T14:09:40Z</time></trkpt><trkpt lat="45.19727573084423" lon="3.6854021184369654"><ele>958.0</ele><time>2026-04-26T14:09:41Z</time></trkpt><trkpt lat="45.19714917026586" lon="3.6854154025184003"><ele>962.0</ele><time>2026-04-26T14:09:42Z</time></trkpt><trkpt lat="45.19700515705784" lon="3.6854417904407835"><ele>966.0</ele><time>2026-04-26T14:09:43Z</time></trkpt><trkpt lat="45.19686832627654" lon="3.685465861177851"><ele>966.0</ele><time>2026-04-26T14:09:44Z</time></trkpt><trkpt lat="45.1967642066884" lon="3.6855250841425677"><ele>965.9999999999999</ele><time>2026-04-26T14:09:45Z</time></trkpt><trkpt lat="45.19666533518252" lon="3.685596877584307"><ele>965.9999999999999</ele><time>2026-04-26T14:09:46Z</time></trkpt><trkpt lat="45.19659562842577" lon="3.685654510629807"><ele>966.0</ele><time>2026-04-26T14:09:47Z</time></trkpt><trkpt lat="45.196531720309686" lon="3.6856870390705088"><ele>966.0</ele><time>2026-04-26T14:09:51Z</time></trkpt><trkpt lat="45.19650040821213" lon="3.6855767161111634"><ele>964.5714285714286</ele><time>2026-04-26T14:09:55Z</time></trkpt><trkpt lat="45.19642897047774" lon="3.6855502995610934"><ele>963.1428571428571</ele><time>2026-04-26T14:10:01Z</time></trkpt><trkpt lat="45.19636900123676" lon="3.6855991044008913"><ele>961.7142857142858</ele><time>2026-04-26T14:10:05Z</time></trkpt><trkpt lat="45.196307619941116" lon="3.6856364580931626"><ele>960.2857142857143</ele><time>2026-04-26T14:10:08Z</time></trkpt><trkpt lat="45.19623835787993" lon="3.685664957476104"><ele>958.8571428571429</ele><time>2026-04-26T14:10:11Z</time></trkpt><trkpt lat="45.196174794011576" lon="3.6856776991810816"><ele>957.4285714285716</ele><time>2026-04-26T14:10:13Z</time></trkpt><trkpt lat="45.196075661053314" lon="3.6856657308303267"><ele>956.0000000000001</ele><time>2026-04-26T14:10:15Z</time></trkpt><trkpt lat="45.1959799571269" lon="3.6856231215125974"><ele>956.0</ele><time>2026-04-26T14:10:31Z</time></trkpt><trkpt lat="45.19588716351465" lon="3.685630153908644"><ele>955.9999999999999</ele><time>2026-04-26T14:10:33Z</time></trkpt><trkpt lat="45.19579687834511" lon="3.6856308754324503"><ele>955.9999999999999</ele><time>2026-04-26T14:10:34Z</time></trkpt><trkpt lat="45.195680932693065" lon="3.6856064165888798"><ele>956.0</ele><time>2026-04-26T14:10:35Z</time></trkpt><trkpt lat="45.19557037772009" lon="3.68560741520721"><ele>956.0</ele><time>2026-04-26T14:10:36Z</time></trkpt><trkpt lat="45.195470429556615" lon="3.6856138568728656"><ele>953.8</ele><time>2026-04-26T14:10:37Z</time></trkpt><trkpt lat="45.19537744772259" lon="3.685606431104567"><ele>951.5999999999999</ele><time>2026-04-26T14:10:38Z</time></trkpt><trkpt lat="45.195281594861264" lon="3.6856156211426168"><ele>949.4</ele><time>2026-04-26T14:10:39Z</time></trkpt><trkpt lat="45.19518209620008" lon="3.685616907014957"><ele>947.2</ele><time>2026-04-26T14:10:40Z</time></trkpt><trkpt lat="45.19509086954788" lon="3.6856126682728725"><ele>945.0</ele><time>2026-04-26T14:10:41Z</time></trkpt><trkpt lat="45.19500230830433" lon="3.685602113176439"><ele>945.0</ele><time>2026-04-26T14:10:42Z</time></trkpt><trkpt lat="45.19490702660315" lon="3.685583331053877"><ele>945.0</ele><time>2026-04-26T14:10:43Z</time></trkpt><trkpt lat="45.194830865047955" lon="3.685584858719605"><ele>945.0</ele><time>2026-04-26T14:10:44Z</time></trkpt><trkpt lat="45.19473604526604" lon="3.685527386096455"><ele>945.0</ele><time>2026-04-26T14:10:46Z</time></trkpt><trkpt lat="45.19466939454888" lon="3.685467769225134"><ele>945.0</ele><time>2026-04-26T14:10:48Z</time></trkpt><trkpt lat="45.1945662433766" lon="3.6854328828978273"><ele>943.2</ele><time>2026-04-26T14:10:50Z</time></trkpt><trkpt lat="45.19446896519423" lon="3.685389067899115"><ele>941.4</ele><time>2026-04-26T14:10:52Z</time></trkpt><trkpt lat="45.1943634868495" lon="3.6853387459137594"><ele>939.5999999999999</ele><time>2026-04-26T14:10:54Z</time></trkpt><trkpt lat="45.19428567608931" lon="3.685284902017"><ele>937.8</ele><time>2026-04-26T14:10:55Z</time></trkpt><trkpt lat="45.194190077858956" lon="3.6852128918355995"><ele>936.0</ele><time>2026-04-26T14:10:56Z</time></trkpt><trkpt lat="45.194096073673954" lon="3.685143095155311"><ele>935.5999999999999</ele><time>2026-04-26T14:10:57Z</time></trkpt><trkpt lat="45.19401078058911" lon="3.685074104859121"><ele>935.1999999999999</ele><time>2026-04-26T14:10:58Z</time></trkpt><trkpt lat="45.19392652808377" lon="3.685003837043167"><ele>934.8000000000001</ele><time>2026-04-26T14:10:59Z</time></trkpt><trkpt lat="45.193834104038245" lon="3.684963791368521"><ele>934.4000000000001</ele><time>2026-04-26T14:11:00Z</time></trkpt><trkpt lat="45.193742910611675" lon="3.6849503637326797"><ele>934.0</ele><time>2026-04-26T14:11:01Z</time></trkpt><trkpt lat="45.19366046762708" lon="3.6849186768562503"><ele>932.3333333333333</ele><time>2026-04-26T14:11:02Z</time></trkpt><trkpt lat="45.19357694597821" lon="3.6849120706617113"><ele>930.6666666666666</ele><time>2026-04-26T14:11:03Z</time></trkpt><trkpt lat="45.193502452747204" lon="3.6849066715452277"><ele>929.0</ele><time>2026-04-26T14:11:04Z</time></trkpt><trkpt lat="45.193437404751975" lon="3.6849238143573557"><ele>927.3333333333333</ele><time>2026-04-26T14:11:05Z</time></trkpt><trkpt lat="45.193320436416066" lon="3.684922538098979"><ele>925.6666666666666</ele><time>2026-04-26T14:11:07Z</time></trkpt><trkpt lat="45.193218728917174" lon="3.6849459144388566"><ele>924.0</ele><time>2026-04-26T14:11:09Z</time></trkpt><trkpt lat="45.1931525707966" lon="3.685069399992939"><ele>923.3333333333334</ele><time>2026-04-26T14:11:11Z</time></trkpt><trkpt lat="45.19308289805717" lon="3.6850944233678193"><ele>922.6666666666667</ele><time>2026-04-26T14:11:13Z</time></trkpt><trkpt lat="45.19301932499847" lon="3.685060260304346"><ele>922.0</ele><time>2026-04-26T14:11:15Z</time></trkpt><trkpt lat="45.19299218555731" lon="3.684950514234851"><ele>921.3333333333334</ele><time>2026-04-26T14:11:17Z</time></trkpt><trkpt lat="45.19295932553929" lon="3.6848525529715412"><ele>920.6666666666667</ele><time>2026-04-26T14:11:19Z</time></trkpt><trkpt lat="45.19288945363243" lon="3.684798269876489"><ele>920.0</ele><time>2026-04-26T14:11:21Z</time></trkpt><trkpt lat="45.192828469953604" lon="3.6847338565770213"><ele>920.0</ele><time>2026-04-26T14:11:23Z</time></trkpt><trkpt lat="45.192752501983875" lon="3.6846732164616247"><ele>920.0</ele><time>2026-04-26T14:11:25Z</time></trkpt><trkpt lat="45.19265195280373" lon="3.6846440705108754"><ele>920.0</ele><time>2026-04-26T14:11:27Z</time></trkpt><trkpt lat="45.192557166546045" lon="3.6846148056293373"><ele>920.0</ele><time>2026-04-26T14:11:29Z</time></trkpt><trkpt lat="45.19246940983783" lon="3.684543709830898"><ele>920.0</ele><time>2026-04-26T14:11:31Z</time></trkpt><trkpt lat="45.1923599624859" lon="3.684505547497964"><ele>920.2</ele><time>2026-04-26T14:11:33Z</time></trkpt><trkpt lat="45.19225407876189" lon="3.6845007353007"><ele>920.4</ele><time>2026-04-26T14:11:35Z</time></trkpt><trkpt lat="45.19216124769448" lon="3.684471451917531"><ele>920.5999999999999</ele><time>2026-04-26T14:11:37Z</time></trkpt><trkpt lat="45.19206513880938" lon="3.6844564687390546"><ele>920.8</ele><time>2026-04-26T14:11:39Z</time></trkpt><trkpt lat="45.19198378132284" lon="3.6844121592354644"><ele>921.0</ele><time>2026-04-26T14:11:41Z</time></trkpt><trkpt lat="45.19189719850685" lon="3.684396985851159"><ele>921.0</ele><time>2026-04-26T14:11:43Z</time></trkpt><trkpt lat="45.19181949405574" lon="3.684374684517672"><ele>920.9999999999999</ele><time>2026-04-26T14:11:45Z</time></trkpt><trkpt lat="45.191742872951906" lon="3.6843080813481643"><ele>920.9999999999999</ele><time>2026-04-26T14:11:47Z</time></trkpt><trkpt lat="45.191634762695784" lon="3.6842725325985626"><ele>921.0</ele><time>2026-04-26T14:11:49Z</time></trkpt><trkpt lat="45.19152051210582" lon="3.6842092802000916"><ele>921.0</ele><time>2026-04-26T14:11:51Z</time></trkpt><trkpt lat="45.191454673715356" lon="3.684196192260806"><ele>918.8</ele><time>2026-04-26T14:11:52Z</time></trkpt><trkpt lat="45.191338061874" lon="3.6841671392187325"><ele>916.5999999999999</ele><time>2026-04-26T14:11:54Z</time></trkpt><trkpt lat="45.19124098332074" lon="3.6841352938559213"><ele>914.4</ele><time>2026-04-26T14:11:56Z</time></trkpt><trkpt lat="45.19116084233961" lon="3.6840832871820295"><ele>912.2</ele><time>2026-04-26T14:11:58Z</time></trkpt><trkpt lat="45.191092995144444" lon="3.68401599412011"><ele>910.0</ele><time>2026-04-26T14:12:00Z</time></trkpt><trkpt lat="45.19102546362254" lon="3.6839220972337614"><ele>910.0</ele><time>2026-04-26T14:12:02Z</time></trkpt><trkpt lat="45.19094931057121" lon="3.6837903221001227"><ele>910.0</ele><time>2026-04-26T14:12:04Z</time></trkpt><trkpt lat="45.190941805612844" lon="3.6836718047348973"><ele>910.0</ele><time>2026-04-26T14:12:05Z</time></trkpt><trkpt lat="45.19092348820163" lon="3.6835414836148677"><ele>910.0</ele><time>2026-04-26T14:12:06Z</time></trkpt><trkpt lat="45.19091555158495" lon="3.683382314735378"><ele>910.0</ele><time>2026-04-26T14:12:07Z</time></trkpt><trkpt lat="45.1909194152292" lon="3.683210011801615"><ele>911.5</ele><time>2026-04-26T14:12:08Z</time></trkpt><trkpt lat="45.19092353389041" lon="3.6830116296951054"><ele>913.0</ele><time>2026-04-26T14:12:09Z</time></trkpt><trkpt lat="45.1909248000075" lon="3.6828259176105003"><ele>914.5</ele><time>2026-04-26T14:12:10Z</time></trkpt><trkpt lat="45.19092390555554" lon="3.682664618441662"><ele>916.0</ele><time>2026-04-26T14:12:11Z</time></trkpt><trkpt lat="45.19092174018612" lon="3.6825249905277313"><ele>915.9999999999999</ele><time>2026-04-26T14:12:12Z</time></trkpt><trkpt lat="45.190919496862726" lon="3.682432827413582"><ele>916.0</ele><time>2026-04-26T14:12:13Z</time></trkpt><trkpt lat="45.190914381203825" lon="3.682318918482213"><ele>916.0</ele><time>2026-04-26T14:12:14Z</time></trkpt><trkpt lat="45.19090486145752" lon="3.682205244268719"><ele>916.0</ele><time>2026-04-26T14:12:15Z</time></trkpt><trkpt lat="45.19087615553793" lon="3.682067291384026"><ele>915.9999999999999</ele><time>2026-04-26T14:12:16Z</time></trkpt><trkpt lat="45.19083903116134" lon="3.6819419216762617"><ele>916.0</ele><time>2026-04-26T14:12:17Z</time></trkpt><trkpt lat="45.19080031869938" lon="3.6818434846093115"><ele>916.8</ele><time>2026-04-26T14:12:18Z</time></trkpt><trkpt lat="45.19075236282848" lon="3.6817784129497992"><ele>917.5999999999999</ele><time>2026-04-26T14:12:19Z</time></trkpt><trkpt lat="45.19070797232923" lon="3.68164937470748"><ele>918.4</ele><time>2026-04-26T14:12:21Z</time></trkpt><trkpt lat="45.190700487564264" lon="3.681482662835729"><ele>919.2</ele><time>2026-04-26T14:12:23Z</time></trkpt><trkpt lat="45.19074523798604" lon="3.6813090078972635"><ele>920.0</ele><time>2026-04-26T14:12:25Z</time></trkpt><trkpt lat="45.190746542622925" lon="3.6812074786087807"><ele>920.25</ele><time>2026-04-26T14:12:26Z</time></trkpt><trkpt lat="45.190753597399606" lon="3.681081262292606"><ele>920.5</ele><time>2026-04-26T14:12:27Z</time></trkpt><trkpt lat="45.19075463846" lon="3.680928250046417"><ele>920.75</ele><time>2026-04-26T14:12:28Z</time></trkpt><trkpt lat="45.19074958459866" lon="3.6807560377459083"><ele>921.0</ele><time>2026-04-26T14:12:29Z</time></trkpt><trkpt lat="45.190749566586625" lon="3.6805532170683732"><ele>921.0</ele><time>2026-04-26T14:12:30Z</time></trkpt><trkpt lat="45.19075112770927" lon="3.6803269706191557"><ele>921.0</ele><time>2026-04-26T14:12:31Z</time></trkpt><trkpt lat="45.190743290920814" lon="3.680087305853542"><ele>921.0</ele><time>2026-04-26T14:12:32Z</time></trkpt><trkpt lat="45.190727714598715" lon="3.679844645826828"><ele>921.5</ele><time>2026-04-26T14:12:33Z</time></trkpt><trkpt lat="45.190714065743265" lon="3.679626508395742"><ele>922.0</ele><time>2026-04-26T14:12:34Z</time></trkpt><trkpt lat="45.19070787878797" lon="3.6794468063531895"><ele>922.5</ele><time>2026-04-26T14:12:35Z</time></trkpt><trkpt lat="45.19070436523673" lon="3.679289297629064"><ele>923.0</ele><time>2026-04-26T14:12:36Z</time></trkpt><trkpt lat="45.19070474957491" lon="3.679143922993922"><ele>924.0</ele><time>2026-04-26T14:12:37Z</time></trkpt><trkpt lat="45.19072572285702" lon="3.679018160974298"><ele>925.0</ele><time>2026-04-26T14:12:38Z</time></trkpt><trkpt lat="45.19073710174542" lon="3.6789186318201943"><ele>926.0</ele><time>2026-04-26T14:12:39Z</time></trkpt><trkpt lat="45.19088645232226" lon="3.6788495629329767"><ele>927.0</ele><time>2026-04-26T14:12:40Z</time></trkpt><trkpt lat="45.19098699133138" lon="3.678739269198217"><ele>928.0</ele><time>2026-04-26T14:12:41Z</time></trkpt><trkpt lat="45.191086916791186" lon="3.6786341005984373"><ele>926.75</ele><time>2026-04-26T14:12:42Z</time></trkpt><trkpt lat="45.19120874152028" lon="3.6785121366948186"><ele>925.5</ele><time>2026-04-26T14:12:43Z</time></trkpt><trkpt lat="45.19131830614093" lon="3.678406479859019"><ele>924.25</ele><time>2026-04-26T14:12:44Z</time></trkpt><trkpt lat="45.19142388412007" lon="3.6783073745591466"><ele>923.0</ele><time>2026-04-26T14:12:45Z</time></trkpt><trkpt lat="45.19152722521146" lon="3.6782034061140862"><ele>925.75</ele><time>2026-04-26T14:12:46Z</time></trkpt><trkpt lat="45.19161625792435" lon="3.678106143342289"><ele>928.5</ele><time>2026-04-26T14:12:47Z</time></trkpt><trkpt lat="45.191711719684285" lon="3.6779962394107106"><ele>931.25</ele><time>2026-04-26T14:12:48Z</time></trkpt><trkpt lat="45.191813241025706" lon="3.6778777560150986"><ele>934.0</ele><time>2026-04-26T14:12:49Z</time></trkpt><trkpt lat="45.191925806080384" lon="3.6777508737116262"><ele>934.0</ele><time>2026-04-26T14:12:50Z</time></trkpt><trkpt lat="45.1920401477082" lon="3.6776357020538675"><ele>934.0</ele><time>2026-04-26T14:12:51Z</time></trkpt><trkpt lat="45.192154525187924" lon="3.677534816265629"><ele>934.0</ele><time>2026-04-26T14:12:52Z</time></trkpt><trkpt lat="45.19225014302599" lon="3.6774659100753535"><ele>934.0</ele><time>2026-04-26T14:12:53Z</time></trkpt><trkpt lat="45.19231348223528" lon="3.6774253140666007"><ele>935.6</ele><time>2026-04-26T14:12:54Z</time></trkpt><trkpt lat="45.19238389392653" lon="3.6773852406330154"><ele>937.2</ele><time>2026-04-26T14:12:55Z</time></trkpt><trkpt lat="45.19244355486229" lon="3.677354347528065"><ele>938.8000000000001</ele><time>2026-04-26T14:12:56Z</time></trkpt><trkpt lat="45.19253194715464" lon="3.677305872833501"><ele>940.4000000000001</ele><time>2026-04-26T14:12:58Z</time></trkpt><trkpt lat="45.192609338889596" lon="3.6772634308762697"><ele>942.0</ele><time>2026-04-26T14:13:03Z</time></trkpt><trkpt lat="45.192481662508754" lon="3.6765956538647058"><ele>944.0</ele><time>2026-04-26T14:13:04Z</time></trkpt><trkpt lat="45.19305633028543" lon="3.67698592547263"><ele>953.0</ele><time>2026-04-26T14:13:08Z</time></trkpt><trkpt lat="45.19316003974224" lon="3.6754249361802196"><ele>954.25</ele><time>2026-04-26T14:13:13Z</time></trkpt><trkpt lat="45.19322171907962" lon="3.6752489027357313"><ele>955.5</ele><time>2026-04-26T14:13:14Z</time></trkpt><trkpt lat="45.1932676200187" lon="3.675102722206763"><ele>956.75</ele><time>2026-04-26T14:13:15Z</time></trkpt><trkpt lat="45.193301429108864" lon="3.6749714922843"><ele>958.0</ele><time>2026-04-26T14:13:16Z</time></trkpt><trkpt lat="45.19334561006018" lon="3.674821086059973"><ele>957.9999999999999</ele><time>2026-04-26T14:13:17Z</time></trkpt><trkpt lat="45.19338488538592" lon="3.6746691356680983"><ele>958.0</ele><time>2026-04-26T14:13:18Z</time></trkpt><trkpt lat="45.19341872041623" lon="3.674545598971055"><ele>958.0</ele><time>2026-04-26T14:13:19Z</time></trkpt><trkpt lat="45.19345933366105" lon="3.674445263245382"><ele>958.0</ele><time>2026-04-26T14:13:20Z</time></trkpt><trkpt lat="45.193495803513564" lon="3.6743713542768317"><ele>957.9999999999999</ele><time>2026-04-26T14:13:21Z</time></trkpt><trkpt lat="45.193552081015085" lon="3.6742998412556513"><ele>958.0</ele><time>2026-04-26T14:13:22Z</time></trkpt><trkpt lat="45.19362335139748" lon="3.6742327551868876"><ele>961.5999999999999</ele><time>2026-04-26T14:13:23Z</time></trkpt><trkpt lat="45.193689309929894" lon="3.674147784777607"><ele>965.1999999999999</ele><time>2026-04-26T14:13:24Z</time></trkpt><trkpt lat="45.19377464763256" lon="3.6740347568429534"><ele>968.8</ele><time>2026-04-26T14:13:25Z</time></trkpt><trkpt lat="45.193856105288745" lon="3.6739504175766915"><ele>972.4</ele><time>2026-04-26T14:13:26Z</time></trkpt><trkpt lat="45.19389891622778" lon="3.6738474435744304"><ele>976.0</ele><time>2026-04-26T14:13:27Z</time></trkpt><trkpt lat="45.19393103544532" lon="3.6737463074711694"><ele>975.9999999999999</ele><time>2026-04-26T14:13:28Z</time></trkpt><trkpt lat="45.19395082335314" lon="3.6736512599489646"><ele>976.0</ele><time>2026-04-26T14:13:29Z</time></trkpt><trkpt lat="45.193963735370914" lon="3.673537731134284"><ele>976.0</ele><time>2026-04-26T14:13:30Z</time></trkpt><trkpt lat="45.19394993449677" lon="3.6733741191633995"><ele>976.0</ele><time>2026-04-26T14:13:32Z</time></trkpt><trkpt lat="45.1939029896875" lon="3.6732871829439318"><ele>975.9999999999999</ele><time>2026-04-26T14:13:33Z</time></trkpt><trkpt lat="45.1938769250374" lon="3.673154316443348"><ele>976.0</ele><time>2026-04-26T14:13:34Z</time></trkpt><trkpt lat="45.19385872643575" lon="3.672966070736828"><ele>979.0</ele><time>2026-04-26T14:13:35Z</time></trkpt><trkpt lat="45.19384396611679" lon="3.672791083638508"><ele>981.9999999999999</ele><time>2026-04-26T14:13:36Z</time></trkpt><trkpt lat="45.19383247405396" lon="3.6726576392307715"><ele>984.9999999999999</ele><time>2026-04-26T14:13:37Z</time></trkpt><trkpt lat="45.19385907357865" lon="3.6725110000542505"><ele>988.0</ele><time>2026-04-26T14:13:38Z</time></trkpt><trkpt lat="45.19388269975476" lon="3.6723924894308975"><ele>991.0</ele><time>2026-04-26T14:13:39Z</time></trkpt><trkpt lat="45.193919246088846" lon="3.672224042464601"><ele>990.9999999999999</ele><time>2026-04-26T14:13:40Z</time></trkpt><trkpt lat="45.1939323388445" lon="3.67208528312724"><ele>991.0</ele><time>2026-04-26T14:13:41Z</time></trkpt><trkpt lat="45.1939527946009" lon="3.671957037276403"><ele>991.0</ele><time>2026-04-26T14:13:42Z</time></trkpt><trkpt lat="45.1939844829739" lon="3.671850939775162"><ele>991.0</ele><time>2026-04-26T14:13:43Z</time></trkpt><trkpt lat="45.194025934378374" lon="3.6717383957505567"><ele>990.9999999999999</ele><time>2026-04-26T14:13:44Z</time></trkpt><trkpt lat="45.194077082962885" lon="3.6716553654773745"><ele>991.0</ele><time>2026-04-26T14:13:45Z</time></trkpt><trkpt lat="45.19412740710581" lon="3.671584143228121"><ele>990.9999999999999</ele><time>2026-04-26T14:13:46Z</time></trkpt><trkpt lat="45.19418129299367" lon="3.6714992905109836"><ele>991.0</ele><time>2026-04-26T14:13:47Z</time></trkpt><trkpt lat="45.19422541510566" lon="3.6714193081952393"><ele>991.0</ele><time>2026-04-26T14:13:48Z</time></trkpt><trkpt lat="45.19426316346247" lon="3.671324768896396"><ele>991.0</ele><time>2026-04-26T14:13:49Z</time></trkpt><trkpt lat="45.194270191493985" lon="3.6712295954221195"><ele>990.9999999999999</ele><time>2026-04-26T14:13:52Z</time></trkpt><trkpt lat="45.194200772387795" lon="3.6711357803327873"><ele>991.0</ele><time>2026-04-26T14:14:00Z</time></trkpt><trkpt lat="45.194148145259476" lon="3.671067283143941"><ele>993.3333333333333</ele><time>2026-04-26T14:14:01Z</time></trkpt><trkpt lat="45.19411082672068" lon="3.6709822493957147"><ele>995.6666666666666</ele><time>2026-04-26T14:14:02Z</time></trkpt><trkpt lat="45.1940546216586" lon="3.6708150894869216"><ele>998.0</ele><time>2026-04-26T14:14:04Z</time></trkpt><trkpt lat="45.194016565111895" lon="3.670723409573478"><ele>1000.3333333333333</ele><time>2026-04-26T14:14:05Z</time></trkpt><trkpt lat="45.193963687790806" lon="3.6706550736809747"><ele>1002.6666666666666</ele><time>2026-04-26T14:14:06Z</time></trkpt><trkpt lat="45.19390967291163" lon="3.6705461462462234"><ele>1005.0</ele><time>2026-04-26T14:14:07Z</time></trkpt><trkpt lat="45.193850933999954" lon="3.670435992744154"><ele>1007.8</ele><time>2026-04-26T14:14:08Z</time></trkpt><trkpt lat="45.19378256238964" lon="3.670319618739841"><ele>1010.6</ele><time>2026-04-26T14:14:09Z</time></trkpt><trkpt lat="45.19372680945728" lon="3.6702120654733696"><ele>1013.4000000000001</ele><time>2026-04-26T14:14:10Z</time></trkpt><trkpt lat="45.19366567505866" lon="3.670132426503375"><ele>1016.2</ele><time>2026-04-26T14:14:11Z</time></trkpt><trkpt lat="45.19360780477141" lon="3.6700471918749082"><ele>1019.0</ele><time>2026-04-26T14:14:12Z</time></trkpt><trkpt lat="45.19354767465" lon="3.669940806324835"><ele>1020.0000000000001</ele><time>2026-04-26T14:14:13Z</time></trkpt><trkpt lat="45.19349575193474" lon="3.669857592864089"><ele>1021.0</ele><time>2026-04-26T14:14:14Z</time></trkpt><trkpt lat="45.19342976058465" lon="3.669776790394433"><ele>1022.0</ele><time>2026-04-26T14:14:15Z</time></trkpt><trkpt lat="45.19335957220804" lon="3.6696749879878303"><ele>1023.0</ele><time>2026-04-26T14:14:16Z</time></trkpt><trkpt lat="45.1933150849209" lon="3.6695820261824394"><ele>1024.0</ele><time>2026-04-26T14:14:17Z</time></trkpt><trkpt lat="45.19328706604564" lon="3.6694735562837626"><ele>1025.0</ele><time>2026-04-26T14:14:18Z</time></trkpt><trkpt lat="45.19326828277917" lon="3.6693711269168796"><ele>1025.6</ele><time>2026-04-26T14:14:19Z</time></trkpt><trkpt lat="45.19323276614272" lon="3.669283056575392"><ele>1026.2</ele><time>2026-04-26T14:14:21Z</time></trkpt><trkpt lat="45.19324290130417" lon="3.669179416520383"><ele>1026.8</ele><time>2026-04-26T14:15:30Z</time></trkpt><trkpt lat="45.193221350179556" lon="3.6690677745204603"><ele>1027.4</ele><time>2026-04-26T14:15:32Z</time></trkpt><trkpt lat="45.19319606401452" lon="3.6688577795922526"><ele>1028.0</ele><time>2026-04-26T14:15:34Z</time></trkpt><trkpt lat="45.193172053894045" lon="3.6687094864102505"><ele>1028.5</ele><time>2026-04-26T14:15:35Z</time></trkpt><trkpt lat="45.19316001037189" lon="3.668532894213724"><ele>1029.0</ele><time>2026-04-26T14:15:36Z</time></trkpt><trkpt lat="45.19317709713334" lon="3.668350576576801"><ele>1029.5</ele><time>2026-04-26T14:15:37Z</time></trkpt><trkpt lat="45.19317094822958" lon="3.6681354556907158"><ele>1030.0</ele><time>2026-04-26T14:15:38Z</time></trkpt><trkpt lat="45.193168192988004" lon="3.6679018509392107"><ele>1026.3333333333333</ele><time>2026-04-26T14:15:39Z</time></trkpt><trkpt lat="45.1931707016751" lon="3.667659839064762"><ele>1022.6666666666667</ele><time>2026-04-26T14:15:40Z</time></trkpt><trkpt lat="45.1931656436483" lon="3.6673790939196507"><ele>1019.0</ele><time>2026-04-26T14:15:41Z</time></trkpt><trkpt lat="45.19317214534115" lon="3.6671182853214255"><ele>1022.0</ele><time>2026-04-26T14:15:42Z</time></trkpt><trkpt lat="45.19317797190566" lon="3.666878448925757"><ele>1025.0</ele><time>2026-04-26T14:15:43Z</time></trkpt><trkpt lat="45.19319204362871" lon="3.666645147975591"><ele>1028.0</ele><time>2026-04-26T14:15:44Z</time></trkpt><trkpt lat="45.19316606848655" lon="3.666378065742425"><ele>1028.0</ele><time>2026-04-26T14:15:45Z</time></trkpt><trkpt lat="45.193153429706236" lon="3.666161628146896"><ele>1028.0</ele><time>2026-04-26T14:15:46Z</time></trkpt><trkpt lat="45.1931504731125" lon="3.665987274095455"><ele>1028.0</ele><time>2026-04-26T14:15:47Z</time></trkpt><trkpt lat="45.19316872734505" lon="3.665817140546271"><ele>1028.0</ele><time>2026-04-26T14:15:48Z</time></trkpt><trkpt lat="45.193190354273945" lon="3.6656393787391552"><ele>1031.0</ele><time>2026-04-26T14:15:49Z</time></trkpt><trkpt lat="45.19323238914041" lon="3.6654398516170614"><ele>1034.0</ele><time>2026-04-26T14:15:50Z</time></trkpt><trkpt lat="45.19325567532492" lon="3.6652247189705514"><ele>1037.0</ele><time>2026-04-26T14:15:51Z</time></trkpt><trkpt lat="45.19327733190322" lon="3.665016219683528"><ele>1040.0</ele><time>2026-04-26T14:15:52Z</time></trkpt><trkpt lat="45.19332107382395" lon="3.6648444105812135"><ele>1041.2</ele><time>2026-04-26T14:15:53Z</time></trkpt><trkpt lat="45.19334978007614" lon="3.6646796082101476"><ele>1042.4</ele><time>2026-04-26T14:15:54Z</time></trkpt><trkpt lat="45.193369428799734" lon="3.664502377461976"><ele>1043.6</ele><time>2026-04-26T14:15:55Z</time></trkpt><trkpt lat="45.19337930865547" lon="3.6643496324481397"><ele>1044.8</ele><time>2026-04-26T14:15:56Z</time></trkpt><trkpt lat="45.193378880428085" lon="3.6642198366332432"><ele>1046.0</ele><time>2026-04-26T14:15:57Z</time></trkpt><trkpt lat="45.19335944259633" lon="3.6641152786662112"><ele>1046.1666666666667</ele><time>2026-04-26T14:15:58Z</time></trkpt><trkpt lat="45.19334690694337" lon="3.664014703165553"><ele>1046.3333333333335</ele><time>2026-04-26T14:15:59Z</time></trkpt><trkpt lat="45.19332455195032" lon="3.663923883365021"><ele>1046.5</ele><time>2026-04-26T14:16:00Z</time></trkpt><trkpt lat="45.193296152788754" lon="3.6638399395743884"><ele>1046.6666666666667</ele><time>2026-04-26T14:16:01Z</time></trkpt><trkpt lat="45.19328190118716" lon="3.6637483581713055"><ele>1046.8333333333333</ele><time>2026-04-26T14:16:02Z</time></trkpt><trkpt lat="45.19321821788244" lon="3.6636048412225106"><ele>1047.0</ele><time>2026-04-26T14:16:04Z</time></trkpt><trkpt lat="45.19319144185314" lon="3.663440738511762"><ele>1047.0</ele><time>2026-04-26T14:16:06Z</time></trkpt><trkpt lat="45.19319030830098" lon="3.663251458311376"><ele>1047.0</ele><time>2026-04-26T14:16:08Z</time></trkpt><trkpt lat="45.19319703166954" lon="3.6631547084440554"><ele>1047.0</ele><time>2026-04-26T14:16:09Z</time></trkpt><trkpt lat="45.193195333260505" lon="3.66299267033585"><ele>1047.0</ele><time>2026-04-26T14:16:11Z</time></trkpt><trkpt lat="45.19322088840414" lon="3.6628491280136872"><ele>1047.0</ele><time>2026-04-26T14:16:13Z</time></trkpt><trkpt lat="45.19323406261655" lon="3.662729668084914"><ele>1046.5</ele><time>2026-04-26T14:16:15Z</time></trkpt><trkpt lat="45.19324742981213" lon="3.6626301016098046"><ele>1046.0</ele><time>2026-04-26T14:16:56Z</time></trkpt><trkpt lat="45.193328205903676" lon="3.662592138675491"><ele>1045.5</ele><time>2026-04-26T14:16:59Z</time></trkpt><trkpt lat="45.19338293935742" lon="3.662636520762717"><ele>1045.0</ele><time>2026-04-26T14:17:02Z</time></trkpt><trkpt lat="45.193451060497424" lon="3.662664292646423"><ele>1044.5</ele><time>2026-04-26T14:17:04Z</time></trkpt><trkpt lat="45.1935961143878" lon="3.662577774877528"><ele>1044.0</ele><time>2026-04-26T14:17:06Z</time></trkpt><trkpt lat="45.19369949558843" lon="3.662560389334542"><ele>1044.0</ele><time>2026-04-26T14:17:07Z</time></trkpt><trkpt lat="45.19379442203147" lon="3.6626161408788582"><ele>1044.0</ele><time>2026-04-26T14:17:08Z</time></trkpt><trkpt lat="45.193890383788684" lon="3.6626634759436287"><ele>1044.0</ele><time>2026-04-26T14:17:09Z</time></trkpt><trkpt lat="45.19400248597273" lon="3.6627628888206787"><ele>1044.0</ele><time>2026-04-26T14:17:10Z</time></trkpt><trkpt lat="45.194161641502696" lon="3.66288202736943"><ele>1044.3333333333333</ele><time>2026-04-26T14:17:11Z</time></trkpt><trkpt lat="45.19435455008654" lon="3.662991177266295"><ele>1044.6666666666665</ele><time>2026-04-26T14:17:12Z</time></trkpt><trkpt lat="45.19456658682271" lon="3.6630992716487913"><ele>1045.0</ele><time>2026-04-26T14:17:13Z</time></trkpt><trkpt lat="45.19480106751955" lon="3.6632070480772754"><ele>1043.0</ele><time>2026-04-26T14:17:14Z</time></trkpt><trkpt lat="45.19503887870805" lon="3.663305203523619"><ele>1041.0</ele><time>2026-04-26T14:17:15Z</time></trkpt><trkpt lat="45.19524984724071" lon="3.663391041325529"><ele>1041.0</ele><time>2026-04-26T14:17:16Z</time></trkpt><trkpt lat="45.195438371757675" lon="3.6634722104047412"><ele>1041.0</ele><time>2026-04-26T14:17:17Z</time></trkpt><trkpt lat="45.19560663063186" lon="3.6635491126578708"><ele>1041.0</ele><time>2026-04-26T14:17:18Z</time></trkpt><trkpt lat="45.195761089840296" lon="3.6636304888358127"><ele>1038.6666666666667</ele><time>2026-04-26T14:17:19Z</time></trkpt><trkpt lat="45.1959132962996" lon="3.66371902519592"><ele>1036.3333333333335</ele><time>2026-04-26T14:17:20Z</time></trkpt><trkpt lat="45.19607367359543" lon="3.663818181040453"><ele>1034.0</ele><time>2026-04-26T14:17:21Z</time></trkpt><trkpt lat="45.196215483873715" lon="3.6639271009169248"><ele>1034.0</ele><time>2026-04-26T14:17:22Z</time></trkpt><trkpt lat="45.196344318775076" lon="3.6640482609518714"><ele>1034.0</ele><time>2026-04-26T14:17:23Z</time></trkpt><trkpt lat="45.196487594147435" lon="3.6641914385404992"><ele>1034.0</ele><time>2026-04-26T14:17:24Z</time></trkpt><trkpt lat="45.196638155573766" lon="3.664337112085347"><ele>1030.3333333333335</ele><time>2026-04-26T14:17:25Z</time></trkpt><trkpt lat="45.19677494074178" lon="3.6644660354083998"><ele>1026.6666666666667</ele><time>2026-04-26T14:17:26Z</time></trkpt><trkpt lat="45.196916327964324" lon="3.664559110373025"><ele>1023.0</ele><time>2026-04-26T14:17:27Z</time></trkpt><trkpt lat="45.19703010492594" lon="3.664685211637528"><ele>1023.0</ele><time>2026-04-26T14:17:28Z</time></trkpt><trkpt lat="45.19714513500493" lon="3.6648088026729444"><ele>1023.0</ele><time>2026-04-26T14:17:29Z</time></trkpt><trkpt lat="45.197241929160334" lon="3.664930946039805"><ele>1023.0</ele><time>2026-04-26T14:17:30Z</time></trkpt><trkpt lat="45.197338155586586" lon="3.6650600804461417"><ele>1023.0</ele><time>2026-04-26T14:17:31Z</time></trkpt><trkpt lat="45.19743589524529" lon="3.6651709665023464"><ele>1021.75</ele><time>2026-04-26T14:17:32Z</time></trkpt><trkpt lat="45.197543275677866" lon="3.6652557572529343"><ele>1020.5</ele><time>2026-04-26T14:17:33Z</time></trkpt><trkpt lat="45.19765718393386" lon="3.6653132225838325"><ele>1019.25</ele><time>2026-04-26T14:17:34Z</time></trkpt><trkpt lat="45.19775718885857" lon="3.6653848604673884"><ele>1018.0</ele><time>2026-04-26T14:17:35Z</time></trkpt><trkpt lat="45.19783694783256" lon="3.6654597187883953"><ele>1017.8333333333333</ele><time>2026-04-26T14:17:36Z</time></trkpt><trkpt lat="45.19791331302193" lon="3.6655086421026817"><ele>1017.6666666666666</ele><time>2026-04-26T14:17:37Z</time></trkpt><trkpt lat="45.19798371760939" lon="3.665553143728652"><ele>1017.5</ele><time>2026-04-26T14:17:38Z</time></trkpt><trkpt lat="45.19805013241864" lon="3.665572379393094"><ele>1017.3333333333333</ele><time>2026-04-26T14:17:39Z</time></trkpt><trkpt lat="45.19811908790567" lon="3.6656222504942644"><ele>1017.1666666666666</ele><time>2026-04-26T14:17:40Z</time></trkpt><trkpt lat="45.19818565979539" lon="3.665693317403032"><ele>1017.0</ele><time>2026-04-26T14:17:41Z</time></trkpt><trkpt lat="45.19826021383517" lon="3.665749695157979"><ele>1018.5</ele><time>2026-04-26T14:17:42Z</time></trkpt><trkpt lat="45.1983207626564" lon="3.665799638727022"><ele>1020.0</ele><time>2026-04-26T14:17:43Z</time></trkpt><trkpt lat="45.1983906130291" lon="3.66585499472348"><ele>1021.5</ele><time>2026-04-26T14:17:44Z</time></trkpt><trkpt lat="45.19846642928932" lon="3.6658971173744384"><ele>1023.0</ele><time>2026-04-26T14:17:45Z</time></trkpt><trkpt lat="45.198551643699105" lon="3.665897594546933"><ele>1024.5</ele><time>2026-04-26T14:17:46Z</time></trkpt><trkpt lat="45.19863156293921" lon="3.665892603140297"><ele>1026.0</ele><time>2026-04-26T14:17:47Z</time></trkpt><trkpt lat="45.19871429236602" lon="3.6658893275095137"><ele>1026.0</ele><time>2026-04-26T14:17:48Z</time></trkpt><trkpt lat="45.19878561413997" lon="3.6658531504604266"><ele>1026.0</ele><time>2026-04-26T14:17:49Z</time></trkpt><trkpt lat="45.198862878830845" lon="3.6658299597873705"><ele>1026.0</ele><time>2026-04-26T14:17:50Z</time></trkpt><trkpt lat="45.19894062939203" lon="3.6658151726154378"><ele>1026.0</ele><time>2026-04-26T14:17:51Z</time></trkpt><trkpt lat="45.1990223883095" lon="3.6658086334425377"><ele>1026.0</ele><time>2026-04-26T14:17:52Z</time></trkpt><trkpt lat="45.19910447208708" lon="3.665817242747224"><ele>1026.0</ele><time>2026-04-26T14:17:53Z</time></trkpt><trkpt lat="45.199178035379866" lon="3.6658628871315977"><ele>1027.5</ele><time>2026-04-26T14:17:54Z</time></trkpt><trkpt lat="45.19923887561996" lon="3.6659228348023745"><ele>1029.0</ele><time>2026-04-26T14:17:55Z</time></trkpt><trkpt lat="45.19930272440272" lon="3.665988150012672"><ele>1030.5</ele><time>2026-04-26T14:17:56Z</time></trkpt><trkpt lat="45.19937333709164" lon="3.6660584185380394"><ele>1032.0</ele><time>2026-04-26T14:17:57Z</time></trkpt><trkpt lat="45.19942692955414" lon="3.6661174664133833"><ele>1033.5</ele><time>2026-04-26T14:17:58Z</time></trkpt><trkpt lat="45.19947721293953" lon="3.6661756743244767"><ele>1035.0</ele><time>2026-04-26T14:17:59Z</time></trkpt><trkpt lat="45.19955730697025" lon="3.666283200906693"><ele>1035.0</ele><time>2026-04-26T14:18:01Z</time></trkpt><trkpt lat="45.19960558223085" lon="3.6663500811300698"><ele>1035.0</ele><time>2026-04-26T14:18:03Z</time></trkpt><trkpt lat="45.19966587905875" lon="3.666387059407765"><ele>1035.0</ele><time>2026-04-26T14:18:08Z</time></trkpt><trkpt lat="45.19971469013829" lon="3.666459190081133"><ele>1035.0</ele><time>2026-04-26T14:18:10Z</time></trkpt><trkpt lat="45.1997665930138" lon="3.6665185843159738"><ele>1035.0</ele><time>2026-04-26T14:18:13Z</time></trkpt><trkpt lat="45.19983550191109" lon="3.6664809285524895"><ele>1035.0</ele><time>2026-04-26T14:18:15Z</time></trkpt><trkpt lat="45.19984709290224" lon="3.6663829993161445"><ele>1035.0</ele><time>2026-04-26T14:18:17Z</time></trkpt><trkpt lat="45.19988885430054" lon="3.666259575415586"><ele>1038.0</ele><time>2026-04-26T14:18:19Z</time></trkpt><trkpt lat="45.199928125808796" lon="3.6661647591846145"><ele>1041.0</ele><time>2026-04-26T14:18:20Z</time></trkpt><trkpt lat="45.199951247683565" lon="3.666042572689189"><ele>1044.0</ele><time>2026-04-26T14:18:21Z</time></trkpt><trkpt lat="45.19995050431704" lon="3.6659142258137476"><ele>1047.0</ele><time>2026-04-26T14:18:22Z</time></trkpt><trkpt lat="45.19995639538289" lon="3.665819154181026"><ele>1050.0</ele><time>2026-04-26T14:18:23Z</time></trkpt><trkpt lat="45.199986035529115" lon="3.6656887629639012"><ele>1053.0</ele><time>2026-04-26T14:18:25Z</time></trkpt><trkpt lat="45.20003630169738" lon="3.6655941948053177"><ele>1054.2</ele><time>2026-04-26T14:18:26Z</time></trkpt><trkpt lat="45.20006901556982" lon="3.665425002382251"><ele>1055.4</ele><time>2026-04-26T14:18:28Z</time></trkpt><trkpt lat="45.200132778218794" lon="3.6653011629929826"><ele>1056.6000000000001</ele><time>2026-04-26T14:18:30Z</time></trkpt><trkpt lat="45.200166395252126" lon="3.665223274450987"><ele>1057.8</ele><time>2026-04-26T14:18:32Z</time></trkpt><trkpt lat="45.20026837270017" lon="3.665169395362596"><ele>1059.0</ele><time>2026-04-26T14:18:35Z</time></trkpt><trkpt lat="45.20037904636773" lon="3.665182606043472"><ele>1061.4</ele><time>2026-04-26T14:18:36Z</time></trkpt><trkpt lat="45.20047156966879" lon="3.665202063754578"><ele>1063.8000000000002</ele><time>2026-04-26T14:18:37Z</time></trkpt><trkpt lat="45.20058084007323" lon="3.6652248364347466"><ele>1066.1999999999998</ele><time>2026-04-26T14:18:38Z</time></trkpt><trkpt lat="45.20066652440069" lon="3.6652270709847627"><ele>1068.6</ele><time>2026-04-26T14:18:39Z</time></trkpt><trkpt lat="45.200776317101" lon="3.665230047254245"><ele>1071.0</ele><time>2026-04-26T14:18:40Z</time></trkpt><trkpt lat="45.20086893427644" lon="3.6652363830894497"><ele>1073.8333333333333</ele><time>2026-04-26T14:18:41Z</time></trkpt><trkpt lat="45.200978157087555" lon="3.6652320431340097"><ele>1076.6666666666667</ele><time>2026-04-26T14:18:42Z</time></trkpt><trkpt lat="45.20107600732088" lon="3.665220202767996"><ele>1079.5</ele><time>2026-04-26T14:18:43Z</time></trkpt><trkpt lat="45.201148619603934" lon="3.6652152478393116"><ele>1082.3333333333335</ele><time>2026-04-26T14:18:44Z</time></trkpt><trkpt lat="45.20122377938786" lon="3.665182780375204"><ele>1085.1666666666667</ele><time>2026-04-26T14:18:45Z</time></trkpt><trkpt lat="45.201306691160596" lon="3.6651329780133133"><ele>1088.0</ele><time>2026-04-26T14:18:46Z</time></trkpt><trkpt lat="45.20137101758074" lon="3.6650410392947195"><ele>1088.0</ele><time>2026-04-26T14:18:47Z</time></trkpt><trkpt lat="45.20142954211618" lon="3.6649672898093875"><ele>1088.0</ele><time>2026-04-26T14:18:48Z</time></trkpt><trkpt lat="45.20146175177931" lon="3.664852133796374"><ele>1088.0</ele><time>2026-04-26T14:18:49Z</time></trkpt><trkpt lat="45.201488520551685" lon="3.6647177532613173"><ele>1088.0</ele><time>2026-04-26T14:18:52Z</time></trkpt><trkpt lat="45.201498911894404" lon="3.664627766841836"><ele>1088.0</ele><time>2026-04-26T14:18:53Z</time></trkpt><trkpt lat="45.20150291903522" lon="3.6645042859896986"><ele>1088.0</ele><time>2026-04-26T14:18:55Z</time></trkpt><trkpt lat="45.20152994470592" lon="3.6643869161226887"><ele>1089.8333333333335</ele><time>2026-04-26T14:18:57Z</time></trkpt><trkpt lat="45.20152982374686" lon="3.664253438894562"><ele>1091.6666666666667</ele><time>2026-04-26T14:19:00Z</time></trkpt><trkpt lat="45.20154666233791" lon="3.664120450544813"><ele>1093.5</ele><time>2026-04-26T14:19:02Z</time></trkpt><trkpt lat="45.20156031096227" lon="3.6640248548276526"><ele>1095.3333333333333</ele><time>2026-04-26T14:19:03Z</time></trkpt><trkpt lat="45.20160013429927" lon="3.66388698719512"><ele>1097.1666666666665</ele><time>2026-04-26T14:19:04Z</time></trkpt><trkpt lat="45.20161686485147" lon="3.663774854032731"><ele>1099.0</ele><time>2026-04-26T14:19:05Z</time></trkpt><trkpt lat="45.20164404269507" lon="3.6636430715187243"><ele>1099.4</ele><time>2026-04-26T14:19:07Z</time></trkpt><trkpt lat="45.201673601691894" lon="3.663508387169571"><ele>1099.8000000000002</ele><time>2026-04-26T14:19:08Z</time></trkpt><trkpt lat="45.20168257254676" lon="3.6633942426624384"><ele>1100.1999999999998</ele><time>2026-04-26T14:19:09Z</time></trkpt><trkpt lat="45.20167644673583" lon="3.6632043194054305"><ele>1100.6</ele><time>2026-04-26T14:19:11Z</time></trkpt><trkpt lat="45.201682837839286" lon="3.6630409908105506"><ele>1101.0</ele><time>2026-04-26T14:19:12Z</time></trkpt><trkpt lat="45.20168512327788" lon="3.6629161794149505"><ele>1101.0</ele><time>2026-04-26T14:19:13Z</time></trkpt><trkpt lat="45.20168092599561" lon="3.6627961264073794"><ele>1101.0</ele><time>2026-04-26T14:19:14Z</time></trkpt><trkpt lat="45.20167846913658" lon="3.66270231416897"><ele>1101.0</ele><time>2026-04-26T14:19:15Z</time></trkpt><trkpt lat="45.20167585030088" lon="3.662571450310275"><ele>1101.0</ele><time>2026-04-26T14:19:16Z</time></trkpt><trkpt lat="45.20167300225131" lon="3.66247766390503"><ele>1101.0</ele><time>2026-04-26T14:19:17Z</time></trkpt><trkpt lat="45.201669530162185" lon="3.662371306628762"><ele>1101.0</ele><time>2026-04-26T14:19:19Z</time></trkpt><trkpt lat="45.20165903711024" lon="3.6622552584053794"><ele>1100.3999999999999</ele><time>2026-04-26T14:19:22Z</time></trkpt><trkpt lat="45.20166404580877" lon="3.6621253945242853"><ele>1099.8</ele><time>2026-04-26T14:20:17Z</time></trkpt><trkpt lat="45.201661547623296" lon="3.6620232541847306"><ele>1099.1999999999998</ele><time>2026-04-26T14:20:18Z</time></trkpt><trkpt lat="45.20165476691264" lon="3.661892769177224"><ele>1098.6</ele><time>2026-04-26T14:20:19Z</time></trkpt><trkpt lat="45.201659704133" lon="3.661725425343857"><ele>1098.0</ele><time>2026-04-26T14:20:20Z</time></trkpt><trkpt lat="45.20166886686835" lon="3.6615494578197185"><ele>1097.75</ele><time>2026-04-26T14:20:21Z</time></trkpt><trkpt lat="45.20167649990984" lon="3.6613437051849407"><ele>1097.5</ele><time>2026-04-26T14:20:22Z</time></trkpt><trkpt lat="45.20168612624723" lon="3.661106216584515"><ele>1097.25</ele><time>2026-04-26T14:20:23Z</time></trkpt><trkpt lat="45.201691802984335" lon="3.660933821077556"><ele>1097.0</ele><time>2026-04-26T14:20:24Z</time></trkpt><trkpt lat="45.20169865118388" lon="3.6607765242831856"><ele>1097.0</ele><time>2026-04-26T14:20:25Z</time></trkpt><trkpt lat="45.20169000699865" lon="3.660635196268811"><ele>1097.0</ele><time>2026-04-26T14:20:26Z</time></trkpt><trkpt lat="45.201673635241654" lon="3.660492653342735"><ele>1097.0</ele><time>2026-04-26T14:20:28Z</time></trkpt><trkpt lat="45.20169904660081" lon="3.6603906649918883"><ele>1097.0</ele><time>2026-04-26T14:20:29Z</time></trkpt><trkpt lat="45.20171323871414" lon="3.6602831721984748"><ele>1097.0</ele><time>2026-04-26T14:20:30Z</time></trkpt><trkpt lat="45.201743897050505" lon="3.660189009955871"><ele>1097.0</ele><time>2026-04-26T14:20:31Z</time></trkpt><trkpt lat="45.201753978881335" lon="3.6600786583173255"><ele>1096.8</ele><time>2026-04-26T14:20:32Z</time></trkpt><trkpt lat="45.20178087701325" lon="3.6599639597831524"><ele>1096.6</ele><time>2026-04-26T14:20:33Z</time></trkpt><trkpt lat="45.20181866763095" lon="3.6598878785494784"><ele>1096.3999999999999</ele><time>2026-04-26T14:20:34Z</time></trkpt><trkpt lat="45.201849502070715" lon="3.6597692343516686"><ele>1096.2</ele><time>2026-04-26T14:20:36Z</time></trkpt><trkpt lat="45.20186912822718" lon="3.659642382055358"><ele>1096.0</ele><time>2026-04-26T14:20:38Z</time></trkpt><trkpt lat="45.2019308691696" lon="3.659497918258337"><ele>1096.0</ele><time>2026-04-26T14:20:40Z</time></trkpt><trkpt lat="45.2019667369699" lon="3.6594004329702607"><ele>1097.0</ele><time>2026-04-26T14:20:41Z</time></trkpt><trkpt lat="45.20200713306779" lon="3.6593000055454032"><ele>1097.0</ele><time>2026-04-26T14:20:43Z</time></trkpt><trkpt lat="45.202045862372174" lon="3.659220368804196"><ele>1097.0</ele><time>2026-04-26T14:20:44Z</time></trkpt><trkpt lat="45.20208273451196" lon="3.6591383846097947"><ele>1097.0</ele><time>2026-04-26T14:20:46Z</time></trkpt><trkpt lat="45.20212329983513" lon="3.6590592099923502"><ele>1097.0</ele><time>2026-04-26T14:20:48Z</time></trkpt></trkseg><trkseg><trkpt lat="45.25042715810193" lon="3.6652588503768873"><ele>956.0000000000001</ele><time>2026-04-26T14:40:44Z</time></trkpt><trkpt lat="45.25041651254037" lon="3.6653696688568127"><ele>956.0</ele><time>2026-04-26T14:40:52Z</time></trkpt><trkpt lat="45.250471740242794" lon="3.665293408530628"><ele>956.0</ele><time>2026-04-26T14:42:38Z</time></trkpt><trkpt lat="45.25052754803234" lon="3.665225909018124"><ele>956.0</ele><time>2026-04-26T14:42:41Z</time></trkpt><trkpt lat="45.25057655344862" lon="3.6651643923417736"><ele>956.0000000000001</ele><time>2026-04-26T14:42:44Z</time></trkpt><trkpt lat="45.25064248130998" lon="3.665089996786029"><ele>956.0</ele><time>2026-04-26T14:42:48Z</time></trkpt><trkpt lat="45.2507023893915" lon="3.665022164126668"><ele>957.3333333333334</ele><time>2026-04-26T14:42:53Z</time></trkpt><trkpt lat="45.250737848041965" lon="3.664926870225276"><ele>958.6666666666667</ele><time>2026-04-26T14:42:56Z</time></trkpt><trkpt lat="45.25079861290732" lon="3.6648573515914427"><ele>960.0</ele><time>2026-04-26T14:43:00Z</time></trkpt><trkpt lat="45.25086882908469" lon="3.6648118915721106"><ele>961.3333333333333</ele><time>2026-04-26T14:43:03Z</time></trkpt><trkpt lat="45.2509345747059" lon="3.6647412634346006"><ele>962.6666666666666</ele><time>2026-04-26T14:43:07Z</time></trkpt><trkpt lat="45.25098248991236" lon="3.6646741227207524"><ele>964.0</ele><time>2026-04-26T14:43:10Z</time></trkpt><trkpt lat="45.25104149157899" lon="3.6645789733532683"><ele>963.9999999999999</ele><time>2026-04-26T14:43:13Z</time></trkpt><trkpt lat="45.25110811964618" lon="3.6644949153938624"><ele>964.0</ele><time>2026-04-26T14:43:16Z</time></trkpt><trkpt lat="45.251150977260856" lon="3.6644128092355617"><ele>964.0</ele><time>2026-04-26T14:43:22Z</time></trkpt><trkpt lat="45.25116570781177" lon="3.664319585417596"><ele>964.0</ele><time>2026-04-26T14:43:40Z</time></trkpt><trkpt lat="45.25121019694215" lon="3.6642400460311677"><ele>963.9999999999999</ele><time>2026-04-26T14:43:43Z</time></trkpt><trkpt lat="45.25126554411364" lon="3.6641644227068215"><ele>964.0</ele><time>2026-04-26T14:43:45Z</time></trkpt><trkpt lat="45.25132276204097" lon="3.6640970113720255"><ele>961.1428571428572</ele><time>2026-04-26T14:43:48Z</time></trkpt><trkpt lat="45.251361103828586" lon="3.6640165034540972"><ele>958.2857142857144</ele><time>2026-04-26T14:43:51Z</time></trkpt><trkpt lat="45.251390695128855" lon="3.6639363397453604"><ele>955.4285714285714</ele><time>2026-04-26T14:43:56Z</time></trkpt><trkpt lat="45.2514288893697" lon="3.663864691965799"><ele>952.5714285714287</ele><time>2026-04-26T14:44:01Z</time></trkpt><trkpt lat="45.251482481280505" lon="3.663815050737461"><ele>949.7142857142858</ele><time>2026-04-26T14:44:10Z</time></trkpt><trkpt lat="45.25155646097283" lon="3.6637726987918646"><ele>946.8571428571429</ele><time>2026-04-26T14:44:23.999Z</time></trkpt><trkpt lat="45.251490427282654" lon="3.6637682540780765"><ele>944.0</ele><time>2026-04-26T14:45:33Z</time></trkpt><trkpt lat="45.25154621678196" lon="3.6636731071718303"><ele>941.3333333333334</ele><time>2026-04-26T14:45:49Z</time></trkpt><trkpt lat="45.251574671035755" lon="3.6635857462366808"><ele>938.6666666666667</ele><time>2026-04-26T14:45:57Z</time></trkpt><trkpt lat="45.25160847023351" lon="3.663460118645926"><ele>936.0</ele><time>2026-04-26T14:46:01Z</time></trkpt><trkpt lat="45.25164104327811" lon="3.6633713674077835"><ele>933.3333333333333</ele><time>2026-04-26T14:46:02Z</time></trkpt><trkpt lat="45.25173452974702" lon="3.6632402467502043"><ele>930.6666666666666</ele><time>2026-04-26T14:46:04Z</time></trkpt><trkpt lat="45.25176362606709" lon="3.663155005577946"><ele>928.0</ele><time>2026-04-26T14:46:05Z</time></trkpt><trkpt lat="45.251808404432296" lon="3.663085712056033"><ele>928.0</ele><time>2026-04-26T14:46:06Z</time></trkpt><trkpt lat="45.25185068291429" lon="3.6629774457430084"><ele>928.0</ele><time>2026-04-26T14:46:08Z</time></trkpt><trkpt lat="45.2518894535299" lon="3.6628776408474732"><ele>928.0</ele><time>2026-04-26T14:46:10Z</time></trkpt><trkpt lat="45.25184643051716" lon="3.66277447699137"><ele>928.0</ele><time>2026-04-26T14:46:13Z</time></trkpt><trkpt lat="45.25176785745708" lon="3.6627663788962788"><ele>928.0</ele><time>2026-04-26T14:46:18Z</time></trkpt><trkpt lat="45.25165965468966" lon="3.662858141350007"><ele>927.9999999999999</ele><time>2026-04-26T14:46:21Z</time></trkpt><trkpt lat="45.25159507539822" lon="3.6629157355425384"><ele>928.0</ele><time>2026-04-26T14:46:24Z</time></trkpt><trkpt lat="45.25154013516444" lon="3.6629698314578762"><ele>928.0</ele><time>2026-04-26T14:46:27Z</time></trkpt><trkpt lat="45.25148040988346" lon="3.6630103659209903"><ele>928.0</ele><time>2026-04-26T14:46:29Z</time></trkpt><trkpt lat="45.25140409630234" lon="3.663071790553283"><ele>927.9999999999999</ele><time>2026-04-26T14:46:32Z</time></trkpt><trkpt lat="45.25131412137393" lon="3.663082945712963"><ele>928.0</ele><time>2026-04-26T14:46:35Z</time></trkpt><trkpt lat="45.25121394762311" lon="3.663041071683432"><ele>927.6666666666666</ele><time>2026-04-26T14:46:37Z</time></trkpt><trkpt lat="45.25114840175157" lon="3.662982571384891"><ele>927.3333333333333</ele><time>2026-04-26T14:46:39Z</time></trkpt><trkpt lat="45.25108500768068" lon="3.6628365195079384"><ele>927.0</ele><time>2026-04-26T14:46:41Z</time></trkpt><trkpt lat="45.25107176843607" lon="3.662732261013327"><ele>926.6666666666667</ele><time>2026-04-26T14:46:42Z</time></trkpt><trkpt lat="45.25105248045605" lon="3.6626337462191105"><ele>926.3333333333334</ele><time>2026-04-26T14:46:43Z</time></trkpt><trkpt lat="45.25102665305823" lon="3.662491460981949"><ele>926.0</ele><time>2026-04-26T14:46:45Z</time></trkpt><trkpt lat="45.251050592902565" lon="3.6623798936388012"><ele>921.5999999999999</ele><time>2026-04-26T14:46:47Z</time></trkpt><trkpt lat="45.251123994848015" lon="3.662272063375639"><ele>917.1999999999999</ele><time>2026-04-26T14:46:49Z</time></trkpt><trkpt lat="45.25121339340934" lon="3.6621472492094878"><ele>912.8000000000001</ele><time>2026-04-26T14:46:51Z</time></trkpt><trkpt lat="45.251269696375964" lon="3.662077110799669"><ele>908.4000000000001</ele><time>2026-04-26T14:46:53Z</time></trkpt><trkpt lat="45.25132489892914" lon="3.6619590344099335"><ele>904.0</ele><time>2026-04-26T14:47:54Z</time></trkpt><trkpt lat="45.251442537221585" lon="3.6618802219762947"><ele>902.5</ele><time>2026-04-26T14:47:56Z</time></trkpt><trkpt lat="45.251522991660174" lon="3.6617875913373417"><ele>901.0</ele><time>2026-04-26T14:47:57Z</time></trkpt><trkpt lat="45.25157922336443" lon="3.6616521630821928"><ele>899.5</ele><time>2026-04-26T14:47:58Z</time></trkpt><trkpt lat="45.25162882248098" lon="3.661451586831402"><ele>898.0</ele><time>2026-04-26T14:47:59Z</time></trkpt><trkpt lat="45.25166928245718" lon="3.661218461631321"><ele>894.6666666666666</ele><time>2026-04-26T14:48:00Z</time></trkpt><trkpt lat="45.25171434041051" lon="3.66102133654525"><ele>891.3333333333333</ele><time>2026-04-26T14:48:01Z</time></trkpt><trkpt lat="45.251811030563765" lon="3.6608504176632466"><ele>888.0</ele><time>2026-04-26T14:48:02Z</time></trkpt><trkpt lat="45.25193676160958" lon="3.6606634332447885"><ele>888.0</ele><time>2026-04-26T14:48:03Z</time></trkpt><trkpt lat="45.25205396832294" lon="3.660542891935545"><ele>888.0</ele><time>2026-04-26T14:48:04Z</time></trkpt><trkpt lat="45.25214614353951" lon="3.660430839398668"><ele>888.0</ele><time>2026-04-26T14:48:05Z</time></trkpt><trkpt lat="45.252232105179864" lon="3.6603559007791793"><ele>888.0</ele><time>2026-04-26T14:48:06Z</time></trkpt><trkpt lat="45.25233118597774" lon="3.6602736773244966"><ele>886.75</ele><time>2026-04-26T14:48:07Z</time></trkpt><trkpt lat="45.25246833719255" lon="3.6602090841685055"><ele>885.5</ele><time>2026-04-26T14:48:08Z</time></trkpt><trkpt lat="45.25261110180095" lon="3.660213877005109"><ele>884.25</ele><time>2026-04-26T14:48:09Z</time></trkpt><trkpt lat="45.25273996309777" lon="3.6602149381784095"><ele>883.0</ele><time>2026-04-26T14:48:10Z</time></trkpt><trkpt lat="45.252839664454726" lon="3.6602209883518726"><ele>883.0</ele><time>2026-04-26T14:48:11Z</time></trkpt><trkpt lat="45.25294026510507" lon="3.6602574192365114"><ele>883.0</ele><time>2026-04-26T14:48:12Z</time></trkpt><trkpt lat="45.253031541453595" lon="3.660268840963936"><ele>883.0</ele><time>2026-04-26T14:48:13Z</time></trkpt><trkpt lat="45.25312620489536" lon="3.660322983218378"><ele>883.0</ele><time>2026-04-26T14:48:14Z</time></trkpt><trkpt lat="45.25319802339729" lon="3.6603802591831522"><ele>883.0</ele><time>2026-04-26T14:48:15Z</time></trkpt><trkpt lat="45.25326402991415" lon="3.660496550693827"><ele>885.2</ele><time>2026-04-26T14:48:16Z</time></trkpt><trkpt lat="45.2533056699367" lon="3.660639924805433"><ele>887.4</ele><time>2026-04-26T14:48:17Z</time></trkpt><trkpt lat="45.253343436882545" lon="3.6608082836804074"><ele>889.6000000000001</ele><time>2026-04-26T14:48:18Z</time></trkpt><trkpt lat="45.25337811766196" lon="3.660958937488753"><ele>891.8000000000001</ele><time>2026-04-26T14:48:19Z</time></trkpt><trkpt lat="45.25344831442126" lon="3.661059509549959"><ele>894.0</ele><time>2026-04-26T14:48:20Z</time></trkpt><trkpt lat="45.2535318951034" lon="3.66108627744302"><ele>894.0</ele><time>2026-04-26T14:48:21Z</time></trkpt><trkpt lat="45.25361434646895" lon="3.661062679053435"><ele>894.0000000000001</ele><time>2026-04-26T14:48:22Z</time></trkpt><trkpt lat="45.25369748259816" lon="3.6609930933612422"><ele>894.0000000000001</ele><time>2026-04-26T14:48:23Z</time></trkpt><trkpt lat="45.25375952448893" lon="3.660875519653144"><ele>894.0</ele><time>2026-04-26T14:48:24Z</time></trkpt><trkpt lat="45.25380755841472" lon="3.6607107613633896"><ele>894.0</ele><time>2026-04-26T14:48:25Z</time></trkpt><trkpt lat="45.25382787017894" lon="3.6605118830987102"><ele>894.0</ele><time>2026-04-26T14:48:26Z</time></trkpt><trkpt lat="45.25384075851968" lon="3.660299165971046"><ele>894.0</ele><time>2026-04-26T14:48:27Z</time></trkpt><trkpt lat="45.253837078557154" lon="3.660120816476411"><ele>894.0</ele><time>2026-04-26T14:48:28Z</time></trkpt><trkpt lat="45.25383979309843" lon="3.6599747666855453"><ele>894.0</ele><time>2026-04-26T14:48:29Z</time></trkpt><trkpt lat="45.25386918864925" lon="3.6598402774587138"><ele>891.25</ele><time>2026-04-26T14:48:30Z</time></trkpt><trkpt lat="45.2539267181987" lon="3.6596764906325596"><ele>888.5</ele><time>2026-04-26T14:48:31Z</time></trkpt><trkpt lat="45.254010582985835" lon="3.6595056156058337"><ele>885.75</ele><time>2026-04-26T14:48:32Z</time></trkpt><trkpt lat="45.25409385731382" lon="3.659344179213891"><ele>883.0</ele><time>2026-04-26T14:48:33Z</time></trkpt><trkpt lat="45.254170870350826" lon="3.6591928474462825"><ele>881.3333333333333</ele><time>2026-04-26T14:48:34Z</time></trkpt><trkpt lat="45.25426697578659" lon="3.6590451554586108"><ele>879.6666666666667</ele><time>2026-04-26T14:48:35Z</time></trkpt><trkpt lat="45.25439384772684" lon="3.6588897430048943"><ele>878.0</ele><time>2026-04-26T14:48:36Z</time></trkpt><trkpt lat="45.254522246351684" lon="3.6587318988136737"><ele>877.0</ele><time>2026-04-26T14:48:37Z</time></trkpt><trkpt lat="45.25464064360602" lon="3.6585894909513894"><ele>876.0</ele><time>2026-04-26T14:48:38Z</time></trkpt><trkpt lat="45.25474913648016" lon="3.6584369755162416"><ele>875.0</ele><time>2026-04-26T14:48:39Z</time></trkpt><trkpt lat="45.254860949103566" lon="3.658312057095329"><ele>875.0</ele><time>2026-04-26T14:48:40Z</time></trkpt><trkpt lat="45.25501856779065" lon="3.6582268894757077"><ele>875.0</ele><time>2026-04-26T14:48:41Z</time></trkpt><trkpt lat="45.25522014900468" lon="3.658118645668327"><ele>875.0</ele><time>2026-04-26T14:48:42Z</time></trkpt><trkpt lat="45.2554220489976" lon="3.658023525112332"><ele>875.0</ele><time>2026-04-26T14:48:43Z</time></trkpt><trkpt lat="45.25559271544412" lon="3.6579422766740297"><ele>875.0</ele><time>2026-04-26T14:48:43.999Z</time></trkpt><trkpt lat="45.255760274017724" lon="3.6578364389579034"><ele>875.0</ele><time>2026-04-26T14:48:44.999Z</time></trkpt><trkpt lat="45.25592067847586" lon="3.657739025775599"><ele>872.0</ele><time>2026-04-26T14:48:45.999Z</time></trkpt><trkpt lat="45.256067374939974" lon="3.6576133647969886"><ele>869.0</ele><time>2026-04-26T14:48:47Z</time></trkpt><trkpt lat="45.25619725545688" lon="3.657452582013634"><ele>866.0</ele><time>2026-04-26T14:48:48Z</time></trkpt><trkpt lat="45.2563142897788" lon="3.6572941016535374"><ele>866.0</ele><time>2026-04-26T14:48:49Z</time></trkpt><trkpt lat="45.25641983183271" lon="3.657127116665997"><ele>866.0</ele><time>2026-04-26T14:48:50Z</time></trkpt><trkpt lat="45.25650006637244" lon="3.656948447269305"><ele>866.0</ele><time>2026-04-26T14:48:51Z</time></trkpt><trkpt lat="45.25655932797944" lon="3.656755941970455"><ele>867.25</ele><time>2026-04-26T14:48:52Z</time></trkpt><trkpt lat="45.256599792900744" lon="3.6565631102476237"><ele>868.5</ele><time>2026-04-26T14:48:53Z</time></trkpt><trkpt lat="45.25662357424264" lon="3.656371085745067"><ele>869.75</ele><time>2026-04-26T14:48:54Z</time></trkpt><trkpt lat="45.25667064179372" lon="3.656206300705534"><ele>871.0</ele><time>2026-04-26T14:48:55Z</time></trkpt><trkpt lat="45.25670592883688" lon="3.6560343473711248"><ele>868.25</ele><time>2026-04-26T14:48:56Z</time></trkpt><trkpt lat="45.25673931282516" lon="3.655868501906403"><ele>865.5</ele><time>2026-04-26T14:48:57Z</time></trkpt><trkpt lat="45.25677803325872" lon="3.65571626829853"><ele>862.75</ele><time>2026-04-26T14:48:58Z</time></trkpt><trkpt lat="45.25682358703637" lon="3.6555677128651225"><ele>860.0</ele><time>2026-04-26T14:48:59Z</time></trkpt><trkpt lat="45.25690190680479" lon="3.655455148891404"><ele>860.0</ele><time>2026-04-26T14:49:00Z</time></trkpt><trkpt lat="45.25697913664742" lon="3.6553728236215015"><ele>860.0</ele><time>2026-04-26T14:49:01Z</time></trkpt><trkpt lat="45.25706291778781" lon="3.6553264112194355"><ele>860.0</ele><time>2026-04-26T14:49:02Z</time></trkpt><trkpt lat="45.25714867515471" lon="3.6553436162548003"><ele>860.0</ele><time>2026-04-26T14:49:03Z</time></trkpt><trkpt lat="45.25723074619807" lon="3.655388755358535"><ele>860.0</ele><time>2026-04-26T14:49:04Z</time></trkpt><trkpt lat="45.25732126061638" lon="3.655467453518925"><ele>859.6666666666667</ele><time>2026-04-26T14:49:05Z</time></trkpt><trkpt lat="45.25744634494403" lon="3.655582425129118"><ele>859.3333333333333</ele><time>2026-04-26T14:49:06Z</time></trkpt><trkpt lat="45.25757895563168" lon="3.6557146845029713"><ele>859.0</ele><time>2026-04-26T14:49:07Z</time></trkpt><trkpt lat="45.25769113606148" lon="3.655838722975013"><ele>859.0</ele><time>2026-04-26T14:49:08Z</time></trkpt><trkpt lat="45.25779059205598" lon="3.6559604388014866"><ele>859.0</ele><time>2026-04-26T14:49:09Z</time></trkpt><trkpt lat="45.257887351706124" lon="3.6561010773141525"><ele>859.0</ele><time>2026-04-26T14:49:10Z</time></trkpt><trkpt lat="45.257963007211615" lon="3.6562454072417223"><ele>859.0</ele><time>2026-04-26T14:49:11Z</time></trkpt><trkpt lat="45.258024039963566" lon="3.656415151279123"><ele>857.6666666666666</ele><time>2026-04-26T14:49:12Z</time></trkpt><trkpt lat="45.258090080675565" lon="3.6566328018297383"><ele>856.3333333333333</ele><time>2026-04-26T14:49:13Z</time></trkpt><trkpt lat="45.25815620114019" lon="3.656871891934454"><ele>855.0</ele><time>2026-04-26T14:49:14Z</time></trkpt><trkpt lat="45.25821269852302" lon="3.6570946024584545"><ele>855.0</ele><time>2026-04-26T14:49:15Z</time></trkpt><trkpt lat="45.258275734773" lon="3.6572875881595945"><ele>855.0</ele><time>2026-04-26T14:49:16Z</time></trkpt><trkpt lat="45.258329778815295" lon="3.6574501270436572"><ele>855.0</ele><time>2026-04-26T14:49:17Z</time></trkpt><trkpt lat="45.25838565319474" lon="3.6575973801392996"><ele>855.0</ele><time>2026-04-26T14:49:18Z</time></trkpt><trkpt lat="45.25844371135592" lon="3.6577225730585825"><ele>855.0</ele><time>2026-04-26T14:49:19Z</time></trkpt><trkpt lat="45.25852339788225" lon="3.6577950988346144"><ele>855.0</ele><time>2026-04-26T14:49:20Z</time></trkpt><trkpt lat="45.258635063497955" lon="3.657791734040024"><ele>855.0</ele><time>2026-04-26T14:49:21Z</time></trkpt><trkpt lat="45.258726793964506" lon="3.657810653585403"><ele>855.0</ele><time>2026-04-26T14:49:22Z</time></trkpt><trkpt lat="45.25880821698803" lon="3.657797131507232"><ele>855.0</ele><time>2026-04-26T14:49:23Z</time></trkpt><trkpt lat="45.2588730629725" lon="3.6577596160029175"><ele>855.6</ele><time>2026-04-26T14:49:24Z</time></trkpt><trkpt lat="45.258961559282355" lon="3.6577556226554293"><ele>856.2</ele><time>2026-04-26T14:49:26Z</time></trkpt><trkpt lat="45.25909514574382" lon="3.6577946099926666"><ele>856.8</ele><time>2026-04-26T14:49:29Z</time></trkpt><trkpt lat="45.25916303171563" lon="3.6578588734878497"><ele>857.4</ele><time>2026-04-26T14:49:30Z</time></trkpt><trkpt lat="45.25925621107824" lon="3.6579137263270343"><ele>858.0</ele><time>2026-04-26T14:49:31Z</time></trkpt><trkpt lat="45.25936958294098" lon="3.657967680895943"><ele>857.25</ele><time>2026-04-26T14:49:32Z</time></trkpt><trkpt lat="45.25950148483874" lon="3.6580138938436866"><ele>856.5</ele><time>2026-04-26T14:49:33Z</time></trkpt><trkpt lat="45.259637621461145" lon="3.658041696690634"><ele>855.75</ele><time>2026-04-26T14:49:34Z</time></trkpt><trkpt lat="45.259742176712045" lon="3.6580815363324413"><ele>855.0</ele><time>2026-04-26T14:49:35Z</time></trkpt><trkpt lat="45.25983409556454" lon="3.6581190283080294"><ele>855.0</ele><time>2026-04-26T14:49:36Z</time></trkpt><trkpt lat="45.259924280724725" lon="3.658220846047544"><ele>855.0</ele><time>2026-04-26T14:49:37Z</time></trkpt><trkpt lat="45.26001878838258" lon="3.658332503829592"><ele>855.0</ele><time>2026-04-26T14:49:38Z</time></trkpt><trkpt lat="45.26007290741807" lon="3.6584871751060812"><ele>855.0</ele><time>2026-04-26T14:49:39Z</time></trkpt><trkpt lat="45.26009541645144" lon="3.658640657413483"><ele>853.0</ele><time>2026-04-26T14:49:40Z</time></trkpt><trkpt lat="45.26011652273628" lon="3.658817587521516"><ele>851.0</ele><time>2026-04-26T14:49:41Z</time></trkpt><trkpt lat="45.260098081196986" lon="3.659021924377808"><ele>849.0</ele><time>2026-04-26T14:49:42Z</time></trkpt><trkpt lat="45.260059086403885" lon="3.659237131209793"><ele>847.0</ele><time>2026-04-26T14:49:43Z</time></trkpt><trkpt lat="45.26000141301112" lon="3.6594687549797182"><ele>847.0</ele><time>2026-04-26T14:49:44Z</time></trkpt><trkpt lat="45.259944238328444" lon="3.65972903177947"><ele>847.0</ele><time>2026-04-26T14:49:45Z</time></trkpt><trkpt lat="45.259901810408095" lon="3.6599986687989468"><ele>847.0</ele><time>2026-04-26T14:49:46Z</time></trkpt><trkpt lat="45.25985489868385" lon="3.660286638170754"><ele>847.6666666666666</ele><time>2026-04-26T14:49:47Z</time></trkpt><trkpt lat="45.25980505558744" lon="3.6605852513969004"><ele>848.3333333333333</ele><time>2026-04-26T14:49:48Z</time></trkpt><trkpt lat="45.259758128308434" lon="3.6608337097329873"><ele>849.0</ele><time>2026-04-26T14:49:49Z</time></trkpt><trkpt lat="45.25971849026604" lon="3.661052594205749"><ele>848.25</ele><time>2026-04-26T14:49:50Z</time></trkpt><trkpt lat="45.2596961956313" lon="3.6612616380139444"><ele>847.5</ele><time>2026-04-26T14:49:51Z</time></trkpt><trkpt lat="45.259687737114525" lon="3.661447157829532"><ele>846.75</ele><time>2026-04-26T14:49:52Z</time></trkpt><trkpt lat="45.25969914842097" lon="3.6616106011655893"><ele>846.0</ele><time>2026-04-26T14:49:53Z</time></trkpt><trkpt lat="45.259719264052165" lon="3.661716626559293"><ele>846.0</ele><time>2026-04-26T14:49:54Z</time></trkpt><trkpt lat="45.259713088707805" lon="3.6618235130469334"><ele>846.0</ele><time>2026-04-26T14:49:56Z</time></trkpt><trkpt lat="45.25984960495814" lon="3.661751385551677"><ele>846.0</ele><time>2026-04-26T14:50:01Z</time></trkpt><trkpt lat="45.25990003590812" lon="3.6616900975726008"><ele>846.0</ele><time>2026-04-26T14:50:02Z</time></trkpt><trkpt lat="45.2599599395749" lon="3.661618264431019"><ele>846.0</ele><time>2026-04-26T14:50:03Z</time></trkpt><trkpt lat="45.26002016710088" lon="3.661514328032703"><ele>846.8</ele><time>2026-04-26T14:50:04Z</time></trkpt><trkpt lat="45.26006648884951" lon="3.661400879641304"><ele>847.5999999999999</ele><time>2026-04-26T14:50:05Z</time></trkpt><trkpt lat="45.260120767140016" lon="3.6612578291680373"><ele>848.4</ele><time>2026-04-26T14:50:06Z</time></trkpt><trkpt lat="45.26018158896022" lon="3.661123111174457"><ele>849.2</ele><time>2026-04-26T14:50:07Z</time></trkpt><trkpt lat="45.2602495237973" lon="3.660992121816825"><ele>850.0</ele><time>2026-04-26T14:50:08Z</time></trkpt><trkpt lat="45.260301776480674" lon="3.660871318030538"><ele>849.9999999999999</ele><time>2026-04-26T14:50:09Z</time></trkpt><trkpt lat="45.26034875909478" lon="3.660770646791301"><ele>850.0</ele><time>2026-04-26T14:50:10Z</time></trkpt><trkpt lat="45.260390656359675" lon="3.6606827911416833"><ele>850.0</ele><time>2026-04-26T14:50:11Z</time></trkpt><trkpt lat="45.26042445734933" lon="3.660602077981064"><ele>850.0</ele><time>2026-04-26T14:50:12Z</time></trkpt><trkpt lat="45.2604576929967" lon="3.6604989058714033"><ele>849.9999999999999</ele><time>2026-04-26T14:50:13Z</time></trkpt><trkpt lat="45.260497297191954" lon="3.6603857115918133"><ele>850.0</ele><time>2026-04-26T14:50:14Z</time></trkpt><trkpt lat="45.26052675639718" lon="3.6602920341232914"><ele>849.4</ele><time>2026-04-26T14:50:15Z</time></trkpt><trkpt lat="45.26057226818829" lon="3.6602087523763926"><ele>848.8</ele><time>2026-04-26T14:50:16Z</time></trkpt><trkpt lat="45.260660456049735" lon="3.6600597509295447"><ele>848.2</ele><time>2026-04-26T14:50:18Z</time></trkpt><trkpt lat="45.26073766647879" lon="3.659941802781009"><ele>847.6</ele><time>2026-04-26T14:50:20Z</time></trkpt><trkpt lat="45.26081236150965" lon="3.659865721229252"><ele>847.0</ele><time>2026-04-26T14:50:22Z</time></trkpt><trkpt lat="45.26091643111674" lon="3.6598086228479896"><ele>851.25</ele><time>2026-04-26T14:50:24Z</time></trkpt><trkpt lat="45.261031272730406" lon="3.659807055936442"><ele>855.5</ele><time>2026-04-26T14:50:26Z</time></trkpt><trkpt lat="45.26113129269398" lon="3.6597273724266928"><ele>859.75</ele><time>2026-04-26T14:50:28Z</time></trkpt><trkpt lat="45.261157273742356" lon="3.659589793871633"><ele>864.0</ele><time>2026-04-26T14:50:30Z</time></trkpt><trkpt lat="45.26116003646868" lon="3.659410575099682"><ele>864.0</ele><time>2026-04-26T14:50:31.999Z</time></trkpt><trkpt lat="45.261146682894704" lon="3.65928135876804"><ele>864.0000000000001</ele><time>2026-04-26T14:50:32.999Z</time></trkpt><trkpt lat="45.26113133445913" lon="3.6591428528336025"><ele>864.0000000000001</ele><time>2026-04-26T14:50:33.999Z</time></trkpt><trkpt lat="45.26111667681648" lon="3.6590443971779223"><ele>864.0</ele><time>2026-04-26T14:50:35.999Z</time></trkpt><trkpt lat="45.26120525004113" lon="3.658913999231791"><ele>864.0</ele><time>2026-04-26T14:50:37.999Z</time></trkpt><trkpt lat="45.26126869165404" lon="3.658836386993538"><ele>864.0</ele><time>2026-04-26T14:50:38.999Z</time></trkpt><trkpt lat="45.261348767024444" lon="3.658755617942699"><ele>864.0000000000001</ele><time>2026-04-26T14:50:39.999Z</time></trkpt><trkpt lat="45.26147019689311" lon="3.6586596128744713"><ele>864.0000000000001</ele><time>2026-04-26T14:50:40.999Z</time></trkpt><trkpt lat="45.26156220852997" lon="3.6585779258373736"><ele>864.0</ele><time>2026-04-26T14:50:41.999Z</time></trkpt><trkpt lat="45.2616175477118" lon="3.658501071162457"><ele>864.0</ele><time>2026-04-26T14:50:42.999Z</time></trkpt><trkpt lat="45.26169102071959" lon="3.658432361640157"><ele>868.8333333333334</ele><time>2026-04-26T14:50:46.999Z</time></trkpt><trkpt lat="45.26173346139882" lon="3.65835730780929"><ele>873.6666666666667</ele><time>2026-04-26T14:50:49.999Z</time></trkpt><trkpt lat="45.261668449912996" lon="3.658423404188897"><ele>878.5</ele><time>2026-04-26T14:52:13Z</time></trkpt><trkpt lat="45.261638276560575" lon="3.658531791660357"><ele>883.3333333333334</ele><time>2026-04-26T14:52:40Z</time></trkpt><trkpt lat="45.26163347722752" lon="3.658638315133533"><ele>888.1666666666667</ele><time>2026-04-26T14:52:44Z</time></trkpt><trkpt lat="45.261642899870914" lon="3.6587885743787916"><ele>893.0</ele><time>2026-04-26T14:52:55Z</time></trkpt><trkpt lat="45.2616719610989" lon="3.6588832032237226"><ele>893.0000000000001</ele><time>2026-04-26T14:52:56Z</time></trkpt><trkpt lat="45.261717466330566" lon="3.6589490602679566"><ele>893.0</ele><time>2026-04-26T14:52:57Z</time></trkpt><trkpt lat="45.261776752046416" lon="3.659007896114829"><ele>893.0</ele><time>2026-04-26T14:52:58Z</time></trkpt><trkpt lat="45.2618506862482" lon="3.6590754588774597"><ele>893.0</ele><time>2026-04-26T14:52:59Z</time></trkpt><trkpt lat="45.261941492320496" lon="3.6591397526533123"><ele>893.0000000000001</ele><time>2026-04-26T14:53:00Z</time></trkpt><trkpt lat="45.26200889360189" lon="3.6592008776247305"><ele>893.0</ele><time>2026-04-26T14:53:01Z</time></trkpt><trkpt lat="45.2620491387762" lon="3.6592766142830913"><ele>893.0000000000001</ele><time>2026-04-26T14:53:02Z</time></trkpt><trkpt lat="45.26206932362505" lon="3.659373801363636"><ele>893.0</ele><time>2026-04-26T14:53:03Z</time></trkpt><trkpt lat="45.26206814520088" lon="3.6594794715434924"><ele>893.0</ele><time>2026-04-26T14:53:04Z</time></trkpt><trkpt lat="45.262047640264704" lon="3.6595749370188773"><ele>893.0</ele><time>2026-04-26T14:53:05Z</time></trkpt><trkpt lat="45.26200733182908" lon="3.6596852326953306"><ele>893.0000000000001</ele><time>2026-04-26T14:53:06Z</time></trkpt><trkpt lat="45.26194151893227" lon="3.6598226982648123"><ele>893.0</ele><time>2026-04-26T14:53:07Z</time></trkpt><trkpt lat="45.26183943625455" lon="3.6599843125570333"><ele>894.6666666666667</ele><time>2026-04-26T14:53:08Z</time></trkpt><trkpt lat="45.26174173136553" lon="3.6601774067050274"><ele>896.3333333333333</ele><time>2026-04-26T14:53:09Z</time></trkpt><trkpt lat="45.26163105585661" lon="3.6603749339859095"><ele>898.0</ele><time>2026-04-26T14:53:10Z</time></trkpt><trkpt lat="45.26155562666486" lon="3.6605307570629697"><ele>900.2</ele><time>2026-04-26T14:53:11Z</time></trkpt><trkpt lat="45.261493722642115" lon="3.660668478471216"><ele>902.4</ele><time>2026-04-26T14:53:12Z</time></trkpt><trkpt lat="45.2614559376526" lon="3.6607955885856094"><ele>904.6000000000001</ele><time>2026-04-26T14:53:13Z</time></trkpt><trkpt lat="45.261450331596045" lon="3.6609374854562837"><ele>906.8000000000001</ele><time>2026-04-26T14:53:14Z</time></trkpt><trkpt lat="45.26145428463734" lon="3.66107786340307"><ele>909.0</ele><time>2026-04-26T14:53:15Z</time></trkpt><trkpt lat="45.261476684045206" lon="3.6611922686800007"><ele>909.0</ele><time>2026-04-26T14:53:16Z</time></trkpt><trkpt lat="45.2615071939058" lon="3.6612798973580505"><ele>909.0</ele><time>2026-04-26T14:53:17Z</time></trkpt><trkpt lat="45.26155299965742" lon="3.6613702079210824"><ele>909.0</ele><time>2026-04-26T14:53:19Z</time></trkpt><trkpt lat="45.261631346038435" lon="3.6614293096733794"><ele>909.0</ele><time>2026-04-26T14:53:22Z</time></trkpt><trkpt lat="45.261692429071516" lon="3.66150138739562"><ele>909.0</ele><time>2026-04-26T14:53:23Z</time></trkpt><trkpt lat="45.261751462481335" lon="3.6615468383142806"><ele>909.0</ele><time>2026-04-26T14:53:24Z</time></trkpt><trkpt lat="45.26181819729559" lon="3.6615691930206142"><ele>909.0</ele><time>2026-04-26T14:53:25Z</time></trkpt><trkpt lat="45.26190042800935" lon="3.6615715403853635"><ele>909.0</ele><time>2026-04-26T14:53:26Z</time></trkpt><trkpt lat="45.26200974911494" lon="3.661565955638901"><ele>909.0</ele><time>2026-04-26T14:53:27Z</time></trkpt><trkpt lat="45.262141132446345" lon="3.6616094670721844"><ele>909.0</ele><time>2026-04-26T14:53:28Z</time></trkpt><trkpt lat="45.26228174199408" lon="3.661679491938635"><ele>911.0</ele><time>2026-04-26T14:53:29Z</time></trkpt><trkpt lat="45.26241201537965" lon="3.6617913084208755"><ele>913.0</ele><time>2026-04-26T14:53:30Z</time></trkpt><trkpt lat="45.26251714573291" lon="3.661936106566936"><ele>915.0</ele><time>2026-04-26T14:53:31Z</time></trkpt><trkpt lat="45.26259903360003" lon="3.6621199469210555"><ele>915.0</ele><time>2026-04-26T14:53:32Z</time></trkpt><trkpt lat="45.26267034514969" lon="3.6622715190771844"><ele>915.0</ele><time>2026-04-26T14:53:33Z</time></trkpt><trkpt lat="45.26271071027438" lon="3.6624225900854537"><ele>915.0</ele><time>2026-04-26T14:53:34Z</time></trkpt><trkpt lat="45.262742502904466" lon="3.6625435190028757"><ele>915.0</ele><time>2026-04-26T14:53:35Z</time></trkpt><trkpt lat="45.26274927354911" lon="3.662652599578206"><ele>915.0</ele><time>2026-04-26T14:53:36Z</time></trkpt><trkpt lat="45.26275763848088" lon="3.6627703609276"><ele>915.25</ele><time>2026-04-26T14:53:37Z</time></trkpt><trkpt lat="45.26273016409239" lon="3.662928343717788"><ele>915.5</ele><time>2026-04-26T14:53:38Z</time></trkpt><trkpt lat="45.26268676375524" lon="3.663085352500765"><ele>915.75</ele><time>2026-04-26T14:53:39Z</time></trkpt><trkpt lat="45.26262898445159" lon="3.6632526417326945"><ele>916.0</ele><time>2026-04-26T14:53:40Z</time></trkpt><trkpt lat="45.262610653105575" lon="3.6634010977819615"><ele>916.0</ele><time>2026-04-26T14:53:41Z</time></trkpt><trkpt lat="45.26263379562822" lon="3.6635462085675656"><ele>915.9999999999999</ele><time>2026-04-26T14:53:42Z</time></trkpt><trkpt lat="45.262680092769706" lon="3.6636734662934898"><ele>915.9999999999999</ele><time>2026-04-26T14:53:43Z</time></trkpt><trkpt lat="45.26275343253623" lon="3.6637842907931404"><ele>916.0</ele><time>2026-04-26T14:53:44Z</time></trkpt><trkpt lat="45.26285045571634" lon="3.663897467074595"><ele>916.0</ele><time>2026-04-26T14:53:45Z</time></trkpt><trkpt lat="45.262954829648976" lon="3.6640142859561258"><ele>916.3333333333333</ele><time>2026-04-26T14:53:46Z</time></trkpt><trkpt lat="45.26307083813646" lon="3.6641344670248244"><ele>916.6666666666667</ele><time>2026-04-26T14:53:47Z</time></trkpt><trkpt lat="45.263209367152406" lon="3.6642607445532343"><ele>917.0</ele><time>2026-04-26T14:53:48Z</time></trkpt><trkpt lat="45.263335787591934" lon="3.664365499052929"><ele>921.0</ele><time>2026-04-26T14:53:49Z</time></trkpt><trkpt lat="45.263437019354164" lon="3.6644520244608416"><ele>925.0</ele><time>2026-04-26T14:53:50Z</time></trkpt><trkpt lat="45.26350503426317" lon="3.664551530607258"><ele>929.0</ele><time>2026-04-26T14:53:51Z</time></trkpt><trkpt lat="45.26357152473586" lon="3.664618764852096"><ele>933.0</ele><time>2026-04-26T14:53:52Z</time></trkpt><trkpt lat="45.263607051093125" lon="3.6647287703030877"><ele>937.0</ele><time>2026-04-26T14:53:53Z</time></trkpt><trkpt lat="45.263609696793644" lon="3.6648614571841542"><ele>937.0</ele><time>2026-04-26T14:53:54Z</time></trkpt><trkpt lat="45.26356792264295" lon="3.664989296855759"><ele>937.0</ele><time>2026-04-26T14:53:55Z</time></trkpt><trkpt lat="45.26349369437605" lon="3.6650791972631915"><ele>937.0</ele><time>2026-04-26T14:53:56Z</time></trkpt><trkpt lat="45.263430146964126" lon="3.6651208486096496"><ele>937.0</ele><time>2026-04-26T14:53:57Z</time></trkpt><trkpt lat="45.26336173676605" lon="3.6651703720315645"><ele>937.0</ele><time>2026-04-26T14:53:59Z</time></trkpt><trkpt lat="45.26345343451244" lon="3.665308199429843"><ele>940.8</ele><time>2026-04-26T14:54:01Z</time></trkpt><trkpt lat="45.26352744727877" lon="3.6653549901399023"><ele>944.6</ele><time>2026-04-26T14:54:03Z</time></trkpt><trkpt lat="45.26361367197168" lon="3.665382649333289"><ele>948.3999999999999</ele><time>2026-04-26T14:54:04Z</time></trkpt><trkpt lat="45.26371119155576" lon="3.6654191544888124"><ele>952.1999999999999</ele><time>2026-04-26T14:54:05Z</time></trkpt><trkpt lat="45.263804205392" lon="3.6654429133845823"><ele>956.0</ele><time>2026-04-26T14:54:06Z</time></trkpt><trkpt lat="45.26391575227144" lon="3.665480071900762"><ele>958.25</ele><time>2026-04-26T14:54:07Z</time></trkpt><trkpt lat="45.26403898533257" lon="3.6654486247137106"><ele>960.5</ele><time>2026-04-26T14:54:08Z</time></trkpt><trkpt lat="45.26417508413902" lon="3.665427505818205"><ele>962.75</ele><time>2026-04-26T14:54:09Z</time></trkpt><trkpt lat="45.26430515845246" lon="3.665464686742604"><ele>965.0</ele><time>2026-04-26T14:54:10Z</time></trkpt><trkpt lat="45.26443196262324" lon="3.665509104027487"><ele>965.0</ele><time>2026-04-26T14:54:11Z</time></trkpt><trkpt lat="45.26458433632799" lon="3.665543001427207"><ele>965.0</ele><time>2026-04-26T14:54:12Z</time></trkpt><trkpt lat="45.26473437042056" lon="3.665592435711813"><ele>965.0</ele><time>2026-04-26T14:54:13Z</time></trkpt><trkpt lat="45.26485214137682" lon="3.665659727623497"><ele>965.0</ele><time>2026-04-26T14:54:14Z</time></trkpt><trkpt lat="45.264955426221974" lon="3.6657009800885976"><ele>966.0</ele><time>2026-04-26T14:54:15Z</time></trkpt><trkpt lat="45.26506166815989" lon="3.665744810342621"><ele>967.0</ele><time>2026-04-26T14:54:16Z</time></trkpt><trkpt lat="45.26515170262164" lon="3.6657832738294385"><ele>968.0</ele><time>2026-04-26T14:54:17Z</time></trkpt><trkpt lat="45.265247441537475" lon="3.665817412428583"><ele>969.0</ele><time>2026-04-26T14:54:18Z</time></trkpt><trkpt lat="45.26536242164528" lon="3.6658450023931106"><ele>970.0</ele><time>2026-04-26T14:54:19Z</time></trkpt><trkpt lat="45.26547064199812" lon="3.6658787948876603"><ele>970.0</ele><time>2026-04-26T14:54:20Z</time></trkpt><trkpt lat="45.26559236005631" lon="3.665901713091036"><ele>970.0</ele><time>2026-04-26T14:54:21Z</time></trkpt><trkpt lat="45.26571331660447" lon="3.66591355976381"><ele>970.0</ele><time>2026-04-26T14:54:22Z</time></trkpt><trkpt lat="45.265812799824495" lon="3.6659056797818734"><ele>970.0</ele><time>2026-04-26T14:54:23Z</time></trkpt><trkpt lat="45.265887684286476" lon="3.6658690573319554"><ele>970.0</ele><time>2026-04-26T14:54:24Z</time></trkpt><trkpt lat="45.26594523767508" lon="3.66581116787749"><ele>970.8333333333333</ele><time>2026-04-26T14:54:25Z</time></trkpt><trkpt lat="45.265995648857796" lon="3.6657314086400286"><ele>971.6666666666666</ele><time>2026-04-26T14:54:26Z</time></trkpt><trkpt lat="45.26603754369374" lon="3.665642275025118"><ele>972.5</ele><time>2026-04-26T14:54:27Z</time></trkpt><trkpt lat="45.26606776964244" lon="3.665532433108844"><ele>973.3333333333333</ele><time>2026-04-26T14:54:28Z</time></trkpt><trkpt lat="45.26607434579593" lon="3.6653914417074835"><ele>974.1666666666666</ele><time>2026-04-26T14:54:29Z</time></trkpt><trkpt lat="45.26605185257763" lon="3.6652514372234926"><ele>975.0</ele><time>2026-04-26T14:54:30Z</time></trkpt><trkpt lat="45.26602852576209" lon="3.6651244674318564"><ele>975.6</ele><time>2026-04-26T14:54:31Z</time></trkpt><trkpt lat="45.26602866048263" lon="3.664982532261775"><ele>976.2</ele><time>2026-04-26T14:54:33Z</time></trkpt><trkpt lat="45.26609608691253" lon="3.6649195694784136"><ele>976.8</ele><time>2026-04-26T14:54:35Z</time></trkpt><trkpt lat="45.26621485469913" lon="3.664853264692807"><ele>977.4</ele><time>2026-04-26T14:54:37Z</time></trkpt><trkpt lat="45.26629417864583" lon="3.6648199171077995"><ele>978.0</ele><time>2026-04-26T14:54:38Z</time></trkpt><trkpt lat="45.26637301887319" lon="3.6647988629307613"><ele>978.0</ele><time>2026-04-26T14:54:39Z</time></trkpt><trkpt lat="45.26643934998359" lon="3.6647814509965904"><ele>978.0</ele><time>2026-04-26T14:54:40Z</time></trkpt><trkpt lat="45.266509172885605" lon="3.664770611655968"><ele>978.0</ele><time>2026-04-26T14:54:41Z</time></trkpt><trkpt lat="45.266573983373895" lon="3.664788853430126"><ele>978.0</ele><time>2026-04-26T14:54:42Z</time></trkpt><trkpt lat="45.26664566626421" lon="3.664817447466542"><ele>978.0</ele><time>2026-04-26T14:54:45Z</time></trkpt><trkpt lat="45.266767947152616" lon="3.6647883150851825"><ele>978.0</ele><time>2026-04-26T14:54:49Z</time></trkpt><trkpt lat="45.26686320069821" lon="3.6647454565373256"><ele>980.5999999999999</ele><time>2026-04-26T14:54:50Z</time></trkpt><trkpt lat="45.26697837077431" lon="3.6647153571503797"><ele>983.1999999999999</ele><time>2026-04-26T14:54:51Z</time></trkpt><trkpt lat="45.2670922757096" lon="3.664701881552725"><ele>985.8</ele><time>2026-04-26T14:54:52Z</time></trkpt><trkpt lat="45.26720376363226" lon="3.66472441919332"><ele>988.4</ele><time>2026-04-26T14:54:53Z</time></trkpt><trkpt lat="45.26730375373565" lon="3.664768312338897"><ele>991.0</ele><time>2026-04-26T14:54:54Z</time></trkpt><trkpt lat="45.267386218194105" lon="3.6648595324750035"><ele>992.9999999999999</ele><time>2026-04-26T14:54:55Z</time></trkpt><trkpt lat="45.26746507797943" lon="3.6649456770055218"><ele>995.0</ele><time>2026-04-26T14:54:56Z</time></trkpt><trkpt lat="45.267528850365736" lon="3.665006122602377"><ele>997.0</ele><time>2026-04-26T14:54:57Z</time></trkpt><trkpt lat="45.267592010087945" lon="3.6650324930936575"><ele>999.0</ele><time>2026-04-26T14:54:58Z</time></trkpt><trkpt lat="45.26766968441803" lon="3.6650324211498013"><ele>1000.9999999999999</ele><time>2026-04-26T14:54:58.999Z</time></trkpt><trkpt lat="45.267746503848066" lon="3.6650112573401756"><ele>1003.0</ele><time>2026-04-26T14:54:59.999Z</time></trkpt><trkpt lat="45.267813297173504" lon="3.6649861657716896"><ele>1003.0</ele><time>2026-04-26T14:55:00.999Z</time></trkpt><trkpt lat="45.26791250785634" lon="3.6649435887423296"><ele>1003.0</ele><time>2026-04-26T14:55:01.999Z</time></trkpt><trkpt lat="45.26802671816389" lon="3.6648933606093097"><ele>1003.0</ele><time>2026-04-26T14:55:02.999Z</time></trkpt><trkpt lat="45.26815602030793" lon="3.6648340021380115"><ele>1003.0</ele><time>2026-04-26T14:55:03.999Z</time></trkpt><trkpt lat="45.26828678644564" lon="3.6647648170908265"><ele>1004.8333333333333</ele><time>2026-04-26T14:55:05Z</time></trkpt><trkpt lat="45.26838433403716" lon="3.6647224268802394"><ele>1006.6666666666666</ele><time>2026-04-26T14:55:06Z</time></trkpt><trkpt lat="45.268464027508784" lon="3.664710294715658"><ele>1008.5</ele><time>2026-04-26T14:55:07Z</time></trkpt><trkpt lat="45.26853435203097" lon="3.664696281704803"><ele>1010.3333333333333</ele><time>2026-04-26T14:55:08Z</time></trkpt><trkpt lat="45.26861835678865" lon="3.664691669565246"><ele>1012.1666666666666</ele><time>2026-04-26T14:55:09Z</time></trkpt><trkpt lat="45.26868636468994" lon="3.664713304074208"><ele>1014.0</ele><time>2026-04-26T14:55:10Z</time></trkpt><trkpt lat="45.26877487712581" lon="3.664782286508897"><ele>1014.0</ele><time>2026-04-26T14:55:12Z</time></trkpt><trkpt lat="45.26884779152057" lon="3.6648307621314506"><ele>1014.0000000000001</ele><time>2026-04-26T14:55:17Z</time></trkpt><trkpt lat="45.26891780779375" lon="3.6648292685244233"><ele>1014.0000000000001</ele><time>2026-04-26T14:55:19Z</time></trkpt><trkpt lat="45.269013898339615" lon="3.664836088577925"><ele>1014.0</ele><time>2026-04-26T14:55:22Z</time></trkpt><trkpt lat="45.26914581876313" lon="3.6649042921789037"><ele>1014.0</ele><time>2026-04-26T14:55:24Z</time></trkpt><trkpt lat="45.26921821069564" lon="3.664954141521354"><ele>1014.4000000000001</ele><time>2026-04-26T14:55:25Z</time></trkpt><trkpt lat="45.26930399064928" lon="3.6650184073931102"><ele>1014.8000000000001</ele><time>2026-04-26T14:55:27Z</time></trkpt><trkpt lat="45.26939557752325" lon="3.6650477136455737"><ele>1015.1999999999999</ele><time>2026-04-26T14:55:29Z</time></trkpt><trkpt lat="45.26949536624049" lon="3.665038351003725"><ele>1015.5999999999999</ele><time>2026-04-26T14:55:31Z</time></trkpt><trkpt lat="45.26964068083608" lon="3.664996210239524"><ele>1016.0</ele><time>2026-04-26T14:55:33Z</time></trkpt><trkpt lat="45.2697469679494" lon="3.664960821541138"><ele>1015.1666666666667</ele><time>2026-04-26T14:55:35Z</time></trkpt><trkpt lat="45.269855624463894" lon="3.6649293736579156"><ele>1014.3333333333334</ele><time>2026-04-26T14:55:37Z</time></trkpt><trkpt lat="45.269935300023455" lon="3.66491823510838"><ele>1013.5</ele><time>2026-04-26T14:55:39Z</time></trkpt><trkpt lat="45.27000684605791" lon="3.6649321064212446"><ele>1012.6666666666667</ele><time>2026-04-26T14:56:38Z</time></trkpt><trkpt lat="45.27009483088237" lon="3.6650059424748105"><ele>1011.8333333333334</ele><time>2026-04-26T14:56:39Z</time></trkpt><trkpt lat="45.27017283277891" lon="3.66503907108909"><ele>1011.0</ele><time>2026-04-26T14:56:40Z</time></trkpt><trkpt lat="45.27026357553441" lon="3.664963471742308"><ele>1011.0</ele><time>2026-04-26T14:56:42Z</time></trkpt><trkpt lat="45.27028924091304" lon="3.664782805833117"><ele>1010.9999999999999</ele><time>2026-04-26T14:56:44Z</time></trkpt><trkpt lat="45.27028551982071" lon="3.6646138253551412"><ele>1010.9999999999999</ele><time>2026-04-26T14:56:46Z</time></trkpt><trkpt lat="45.270304489889355" lon="3.6645273814636083"><ele>1011.0</ele><time>2026-04-26T14:56:47Z</time></trkpt><trkpt lat="45.27035200945154" lon="3.6644586191717186"><ele>1011.0</ele><time>2026-04-26T14:56:48Z</time></trkpt><trkpt lat="45.27043344544617" lon="3.6644032227144954"><ele>1010.6666666666667</ele><time>2026-04-26T14:56:49Z</time></trkpt><trkpt lat="45.27055258062126" lon="3.6643509894044577"><ele>1010.3333333333334</ele><time>2026-04-26T14:56:50Z</time></trkpt><trkpt lat="45.27070349552372" lon="3.664297587300477"><ele>1010.0</ele><time>2026-04-26T14:56:51Z</time></trkpt><trkpt lat="45.27087781178425" lon="3.6642589418775096"><ele>1005.0</ele><time>2026-04-26T14:56:52Z</time></trkpt><trkpt lat="45.27102969217294" lon="3.6642013203752337"><ele>1000.0</ele><time>2026-04-26T14:56:53Z</time></trkpt><trkpt lat="45.27117453911405" lon="3.664188552051502"><ele>995.0</ele><time>2026-04-26T14:56:54Z</time></trkpt><trkpt lat="45.271337967240065" lon="3.664210824859407"><ele>994.0</ele><time>2026-04-26T14:56:55Z</time></trkpt><trkpt lat="45.27150763544688" lon="3.664243471332792"><ele>993.0</ele><time>2026-04-26T14:56:56Z</time></trkpt><trkpt lat="45.271658183187796" lon="3.6642697131200683"><ele>992.0</ele><time>2026-04-26T14:56:57Z</time></trkpt><trkpt lat="45.27177868435851" lon="3.664286637972975"><ele>991.0</ele><time>2026-04-26T14:56:58Z</time></trkpt><trkpt lat="45.27191620817105" lon="3.6642917025321142"><ele>991.0</ele><time>2026-04-26T14:56:59Z</time></trkpt><trkpt lat="45.272075838311174" lon="3.6642930404903167"><ele>991.0</ele><time>2026-04-26T14:57:00Z</time></trkpt><trkpt lat="45.27224785387838" lon="3.6643128759755106"><ele>991.0</ele><time>2026-04-26T14:57:01Z</time></trkpt><trkpt lat="45.27240192129991" lon="3.6643304113759925"><ele>990.75</ele><time>2026-04-26T14:57:02Z</time></trkpt><trkpt lat="45.27253445934169" lon="3.664336572187464"><ele>990.5</ele><time>2026-04-26T14:57:03Z</time></trkpt><trkpt lat="45.27265577863242" lon="3.664320947021143"><ele>990.25</ele><time>2026-04-26T14:57:04Z</time></trkpt><trkpt lat="45.272767964217635" lon="3.6643161669509237"><ele>990.0</ele><time>2026-04-26T14:57:05Z</time></trkpt><trkpt lat="45.27286470908611" lon="3.664402736229589"><ele>991.75</ele><time>2026-04-26T14:57:06Z</time></trkpt><trkpt lat="45.27297477039027" lon="3.6644819668640713"><ele>993.5</ele><time>2026-04-26T14:57:07Z</time></trkpt><trkpt lat="45.273102934451124" lon="3.6645748768910775"><ele>995.25</ele><time>2026-04-26T14:57:08Z</time></trkpt><trkpt lat="45.27319475771993" lon="3.6646669107091"><ele>997.0</ele><time>2026-04-26T14:57:09Z</time></trkpt><trkpt lat="45.2732705150742" lon="3.664716587021899"><ele>997.0</ele><time>2026-04-26T14:57:09.999Z</time></trkpt><trkpt lat="45.27334868817491" lon="3.664723017077213"><ele>997.0</ele><time>2026-04-26T14:57:11Z</time></trkpt><trkpt lat="45.27344102732558" lon="3.6647103387216085"><ele>997.0</ele><time>2026-04-26T14:57:12Z</time></trkpt><trkpt lat="45.27354301833104" lon="3.6646243859037613"><ele>997.0</ele><time>2026-04-26T14:57:13Z</time></trkpt><trkpt lat="45.27364113860994" lon="3.6645147231054507"><ele>997.0</ele><time>2026-04-26T14:57:14Z</time></trkpt><trkpt lat="45.273722428169606" lon="3.66442584585924"><ele>994.9999999999999</ele><time>2026-04-26T14:57:15Z</time></trkpt><trkpt lat="45.27379801671468" lon="3.664334455569311"><ele>993.0</ele><time>2026-04-26T14:57:16Z</time></trkpt><trkpt lat="45.27385216656759" lon="3.664260855703203"><ele>991.0</ele><time>2026-04-26T14:57:17Z</time></trkpt><trkpt lat="45.273897191848086" lon="3.6641714245275514"><ele>989.0</ele><time>2026-04-26T14:57:18Z</time></trkpt><trkpt lat="45.27390512472238" lon="3.664079705179956"><ele>986.9999999999999</ele><time>2026-04-26T14:57:21Z</time></trkpt><trkpt lat="45.27391814828113" lon="3.663976609837175"><ele>985.0</ele><time>2026-04-26T14:57:26Z</time></trkpt><trkpt lat="45.273932675988846" lon="3.663802219554909"><ele>984.4</ele><time>2026-04-26T14:57:28Z</time></trkpt><trkpt lat="45.27395679790638" lon="3.6636466687892546"><ele>983.8</ele><time>2026-04-26T14:57:29Z</time></trkpt><trkpt lat="45.27400328769606" lon="3.6635040795127534"><ele>983.2</ele><time>2026-04-26T14:57:30Z</time></trkpt><trkpt lat="45.27407167874516" lon="3.663382967091572"><ele>982.6</ele><time>2026-04-26T14:57:31Z</time></trkpt><trkpt lat="45.274159677724214" lon="3.663301919206242"><ele>982.0</ele><time>2026-04-26T14:57:32Z</time></trkpt><trkpt lat="45.274250656168846" lon="3.663242053070284"><ele>980.6</ele><time>2026-04-26T14:57:33Z</time></trkpt><trkpt lat="45.27434257612141" lon="3.6632158997382516"><ele>979.2</ele><time>2026-04-26T14:57:34Z</time></trkpt><trkpt lat="45.274440490589136" lon="3.6632249043747116"><ele>977.8</ele><time>2026-04-26T14:57:35Z</time></trkpt><trkpt lat="45.274530893133665" lon="3.6632803730867103"><ele>976.4</ele><time>2026-04-26T14:57:36Z</time></trkpt><trkpt lat="45.27458545555633" lon="3.663373590925584"><ele>975.0</ele><time>2026-04-26T14:57:37Z</time></trkpt><trkpt lat="45.274628484225424" lon="3.6634714335068064"><ele>975.0</ele><time>2026-04-26T14:57:38Z</time></trkpt><trkpt lat="45.27463942231247" lon="3.663601945707756"><ele>975.0</ele><time>2026-04-26T14:57:39Z</time></trkpt><trkpt lat="45.2746107910993" lon="3.663786407854236"><ele>975.0</ele><time>2026-04-26T14:57:40Z</time></trkpt><trkpt lat="45.27460164987815" lon="3.663951393728417"><ele>975.0</ele><time>2026-04-26T14:57:41Z</time></trkpt><trkpt lat="45.27459643713266" lon="3.6641053421014647"><ele>974.6</ele><time>2026-04-26T14:57:42Z</time></trkpt><trkpt lat="45.274606465603206" lon="3.664243387242438"><ele>974.2</ele><time>2026-04-26T14:57:43Z</time></trkpt><trkpt lat="45.274667971692644" lon="3.6643260485262363"><ele>973.8</ele><time>2026-04-26T14:57:44Z</time></trkpt><trkpt lat="45.27473744495648" lon="3.6643981548141404"><ele>973.4</ele><time>2026-04-26T14:57:45Z</time></trkpt><trkpt lat="45.27483314571824" lon="3.6644422353694135"><ele>973.0</ele><time>2026-04-26T14:57:46Z</time></trkpt><trkpt lat="45.27491536419002" lon="3.6644684878783833"><ele>973.0</ele><time>2026-04-26T14:57:47Z</time></trkpt><trkpt lat="45.27499673533739" lon="3.66440215215969"><ele>973.0</ele><time>2026-04-26T14:57:48Z</time></trkpt><trkpt lat="45.27506770235487" lon="3.6643224094866476"><ele>973.0</ele><time>2026-04-26T14:57:49Z</time></trkpt><trkpt lat="45.27513149962017" lon="3.6641968384723054"><ele>973.0</ele><time>2026-04-26T14:57:50Z</time></trkpt><trkpt lat="45.27518840185117" lon="3.664025722758103"><ele>973.0</ele><time>2026-04-26T14:57:51Z</time></trkpt><trkpt lat="45.27524730729664" lon="3.6638389772072975"><ele>971.0</ele><time>2026-04-26T14:57:52Z</time></trkpt><trkpt lat="45.27531439351468" lon="3.663605080340221"><ele>969.0</ele><time>2026-04-26T14:57:53Z</time></trkpt><trkpt lat="45.275388889745265" lon="3.663354580084798"><ele>967.0</ele><time>2026-04-26T14:57:54Z</time></trkpt><trkpt lat="45.275471746092435" lon="3.663094253407799"><ele>967.0</ele><time>2026-04-26T14:57:55Z</time></trkpt><trkpt lat="45.27555511828553" lon="3.662852598352092"><ele>967.0</ele><time>2026-04-26T14:57:56Z</time></trkpt><trkpt lat="45.275639962299465" lon="3.6626324455115173"><ele>967.0</ele><time>2026-04-26T14:57:57Z</time></trkpt><trkpt lat="45.275736460044506" lon="3.66240867528662"><ele>966.0</ele><time>2026-04-26T14:57:58Z</time></trkpt><trkpt lat="45.27584724085908" lon="3.6621720712589783"><ele>965.0</ele><time>2026-04-26T14:57:59Z</time></trkpt><trkpt lat="45.275983406833376" lon="3.6618934679419297"><ele>964.0</ele><time>2026-04-26T14:58:00Z</time></trkpt><trkpt lat="45.276124093090935" lon="3.6616139624039157"><ele>964.0</ele><time>2026-04-26T14:58:01Z</time></trkpt><trkpt lat="45.27625577438609" lon="3.66136723094427"><ele>964.0</ele><time>2026-04-26T14:58:02Z</time></trkpt><trkpt lat="45.27637991604632" lon="3.661139240664827"><ele>964.0</ele><time>2026-04-26T14:58:03Z</time></trkpt><trkpt lat="45.27648612318598" lon="3.6609424341028576"><ele>965.5</ele><time>2026-04-26T14:58:04Z</time></trkpt><trkpt lat="45.27658440008081" lon="3.6607794323124705"><ele>967.0</ele><time>2026-04-26T14:58:05Z</time></trkpt><trkpt lat="45.27668816475707" lon="3.660643337917503"><ele>968.5</ele><time>2026-04-26T14:58:06Z</time></trkpt><trkpt lat="45.276810477212344" lon="3.660507799413458"><ele>970.0</ele><time>2026-04-26T14:58:07Z</time></trkpt><trkpt lat="45.27693238792931" lon="3.6603827622563236"><ele>970.0</ele><time>2026-04-26T14:58:08Z</time></trkpt><trkpt lat="45.27703922579572" lon="3.66028363714933"><ele>970.0</ele><time>2026-04-26T14:58:09Z</time></trkpt><trkpt lat="45.277154107578724" lon="3.66021082517963"><ele>970.0</ele><time>2026-04-26T14:58:10Z</time></trkpt><trkpt lat="45.27726673265464" lon="3.660159180132458"><ele>970.0</ele><time>2026-04-26T14:58:11Z</time></trkpt><trkpt lat="45.27739945355312" lon="3.6601281505593177"><ele>968.75</ele><time>2026-04-26T14:58:12Z</time></trkpt><trkpt lat="45.27753435071039" lon="3.660063012951365"><ele>967.5</ele><time>2026-04-26T14:58:13Z</time></trkpt><trkpt lat="45.277638681490146" lon="3.6600233461746328"><ele>966.25</ele><time>2026-04-26T14:58:14Z</time></trkpt><trkpt lat="45.27774274471181" lon="3.6598847131390126"><ele>965.0</ele><time>2026-04-26T14:58:15Z</time></trkpt><trkpt lat="45.27779997943138" lon="3.65974486945597"><ele>965.0</ele><time>2026-04-26T14:58:16Z</time></trkpt><trkpt lat="45.27788916710061" lon="3.659596078761121"><ele>965.0</ele><time>2026-04-26T14:58:17Z</time></trkpt><trkpt lat="45.27793832994883" lon="3.659442605197738"><ele>965.0</ele><time>2026-04-26T14:58:18Z</time></trkpt><trkpt lat="45.277968606608866" lon="3.6592953946500977"><ele>965.0</ele><time>2026-04-26T14:58:19Z</time></trkpt><trkpt lat="45.27797740119004" lon="3.6591736275939573"><ele>964.4</ele><time>2026-04-26T14:58:20Z</time></trkpt><trkpt lat="45.27800094323956" lon="3.6590744999342797"><ele>963.8</ele><time>2026-04-26T14:58:22Z</time></trkpt><trkpt lat="45.27813453592525" lon="3.6591658905509825"><ele>963.2</ele><time>2026-04-26T14:58:26Z</time></trkpt><trkpt lat="45.278157107804724" lon="3.6592566794379144"><ele>962.6</ele><time>2026-04-26T14:58:27Z</time></trkpt><trkpt lat="45.278208873386696" lon="3.6593373530001747"><ele>962.0</ele><time>2026-04-26T14:58:28Z</time></trkpt><trkpt lat="45.27827945903583" lon="3.659421709916193"><ele>963.4000000000001</ele><time>2026-04-26T14:58:29Z</time></trkpt><trkpt lat="45.27834551328115" lon="3.6595364452749966"><ele>964.8000000000001</ele><time>2026-04-26T14:58:30Z</time></trkpt><trkpt lat="45.27840593739422" lon="3.6596515160445846"><ele>966.2</ele><time>2026-04-26T14:58:31Z</time></trkpt><trkpt lat="45.27845181431333" lon="3.6597438214555145"><ele>967.6</ele><time>2026-04-26T14:58:32Z</time></trkpt><trkpt lat="45.27852560150821" lon="3.659872226049274"><ele>969.0</ele><time>2026-04-26T14:58:34Z</time></trkpt><trkpt lat="45.27863242526771" lon="3.6599853357048584"><ele>969.0</ele><time>2026-04-26T14:58:36Z</time></trkpt><trkpt lat="45.2786903277741" lon="3.660045938762546"><ele>969.0</ele><time>2026-04-26T14:58:37Z</time></trkpt><trkpt lat="45.278755721238895" lon="3.660116045772135"><ele>969.0</ele><time>2026-04-26T14:58:38Z</time></trkpt><trkpt lat="45.278799254013364" lon="3.660192629132042"><ele>969.0</ele><time>2026-04-26T14:58:39Z</time></trkpt><trkpt lat="45.278825837158195" lon="3.6602860471764034"><ele>969.0</ele><time>2026-04-26T14:58:40Z</time></trkpt><trkpt lat="45.278841958656805" lon="3.660431006283798"><ele>969.0</ele><time>2026-04-26T14:58:42Z</time></trkpt><trkpt lat="45.27878765187261" lon="3.6605978286403666"><ele>971.0</ele><time>2026-04-26T14:58:44Z</time></trkpt><trkpt lat="45.27872111876572" lon="3.6606824349876628"><ele>973.0000000000001</ele><time>2026-04-26T14:58:45Z</time></trkpt><trkpt lat="45.27868228140995" lon="3.6607946016468067"><ele>975.0000000000001</ele><time>2026-04-26T14:58:46Z</time></trkpt><trkpt lat="45.27863440878973" lon="3.6609546789597514"><ele>977.0</ele><time>2026-04-26T14:58:47Z</time></trkpt><trkpt lat="45.278572753460026" lon="3.6611315616128564"><ele>979.0</ele><time>2026-04-26T14:58:48Z</time></trkpt><trkpt lat="45.27850156531726" lon="3.6613153717924707"><ele>981.5</ele><time>2026-04-26T14:58:49Z</time></trkpt><trkpt lat="45.27843784656811" lon="3.6615031990911677"><ele>984.0</ele><time>2026-04-26T14:58:50Z</time></trkpt><trkpt lat="45.27839145020834" lon="3.661660710473835"><ele>986.5</ele><time>2026-04-26T14:58:51Z</time></trkpt><trkpt lat="45.27833227502383" lon="3.661766259613291"><ele>989.0</ele><time>2026-04-26T14:58:52Z</time></trkpt><trkpt lat="45.27826008711873" lon="3.661851495322805"><ele>992.0</ele><time>2026-04-26T14:58:53Z</time></trkpt><trkpt lat="45.27818066483178" lon="3.6619651095122934"><ele>995.0</ele><time>2026-04-26T14:58:54Z</time></trkpt><trkpt lat="45.27811222589885" lon="3.6621052743110956"><ele>998.0</ele><time>2026-04-26T14:58:55Z</time></trkpt><trkpt lat="45.27804254766451" lon="3.662265182837294"><ele>1001.0</ele><time>2026-04-26T14:58:56Z</time></trkpt><trkpt lat="45.277973255357644" lon="3.6624320143501"><ele>1001.0</ele><time>2026-04-26T14:58:57Z</time></trkpt><trkpt lat="45.27794018442534" lon="3.6625714648798797"><ele>1000.9999999999999</ele><time>2026-04-26T14:58:58Z</time></trkpt><trkpt lat="45.27792847783058" lon="3.662694326030306"><ele>1000.9999999999999</ele><time>2026-04-26T14:58:59Z</time></trkpt><trkpt lat="45.277939340963016" lon="3.6628265599273364"><ele>1001.0</ele><time>2026-04-26T14:59:00Z</time></trkpt><trkpt lat="45.277923428062756" lon="3.662950154535154"><ele>1001.0</ele><time>2026-04-26T14:59:01Z</time></trkpt><trkpt lat="45.27788165613176" lon="3.663056437413369"><ele>1004.0</ele><time>2026-04-26T14:59:02Z</time></trkpt><trkpt lat="45.27780776613164" lon="3.6631507236260314"><ele>1006.9999999999999</ele><time>2026-04-26T14:59:03Z</time></trkpt><trkpt lat="45.2777430827016" lon="3.663294280997282"><ele>1009.9999999999999</ele><time>2026-04-26T14:59:04Z</time></trkpt><trkpt lat="45.2777088351196" lon="3.6633755653576507"><ele>1013.0</ele><time>2026-04-26T14:59:05Z</time></trkpt><trkpt lat="45.27771819029768" lon="3.663522339621668"><ele>1016.0</ele><time>2026-04-26T14:59:07Z</time></trkpt><trkpt lat="45.27774217438154" lon="3.663625892128712"><ele>1017.5999999999999</ele><time>2026-04-26T14:59:08Z</time></trkpt><trkpt lat="45.27775968306669" lon="3.663741355167398"><ele>1019.1999999999999</ele><time>2026-04-26T14:59:09Z</time></trkpt><trkpt lat="45.27777668942355" lon="3.663889663551257"><ele>1020.8000000000001</ele><time>2026-04-26T14:59:10Z</time></trkpt><trkpt lat="45.27775780043655" lon="3.6640385606530894"><ele>1022.4000000000001</ele><time>2026-04-26T14:59:11Z</time></trkpt><trkpt lat="45.27774263993702" lon="3.6642177051755063"><ele>1024.0</ele><time>2026-04-26T14:59:12Z</time></trkpt><trkpt lat="45.277684818293615" lon="3.664396301126181"><ele>1026.5</ele><time>2026-04-26T14:59:13Z</time></trkpt><trkpt lat="45.27765792247296" lon="3.664582834297175"><ele>1029.0</ele><time>2026-04-26T14:59:14Z</time></trkpt><trkpt lat="45.27764170030141" lon="3.6647806896399437"><ele>1031.5</ele><time>2026-04-26T14:59:15Z</time></trkpt><trkpt lat="45.27757276845942" lon="3.664983588868319"><ele>1034.0</ele><time>2026-04-26T14:59:16Z</time></trkpt><trkpt lat="45.277525869183044" lon="3.6652086732064784"><ele>1037.5</ele><time>2026-04-26T14:59:17Z</time></trkpt><trkpt lat="45.277445649933156" lon="3.6654259134487726"><ele>1041.0</ele><time>2026-04-26T14:59:18Z</time></trkpt><trkpt lat="45.27739086603734" lon="3.665627273019971"><ele>1044.5</ele><time>2026-04-26T14:59:19Z</time></trkpt><trkpt lat="45.27735444527388" lon="3.6657788481020943"><ele>1048.0</ele><time>2026-04-26T14:59:20Z</time></trkpt><trkpt lat="45.27732222765949" lon="3.6659298241513336"><ele>1048.0</ele><time>2026-04-26T14:59:21Z</time></trkpt><trkpt lat="45.27728135063227" lon="3.666066767537064"><ele>1048.0</ele><time>2026-04-26T14:59:23Z</time></trkpt><trkpt lat="45.277234040159236" lon="3.66623736204128"><ele>1048.0</ele><time>2026-04-26T14:59:25Z</time></trkpt><trkpt lat="45.27720459803723" lon="3.666346127413599"><ele>1048.0</ele><time>2026-04-26T14:59:27Z</time></trkpt><trkpt lat="45.27716948936373" lon="3.6664758262140835"><ele>1048.0</ele><time>2026-04-26T14:59:29Z</time></trkpt><trkpt lat="45.27713052711655" lon="3.666619760911199"><ele>1046.8333333333333</ele><time>2026-04-26T14:59:31Z</time></trkpt><trkpt lat="45.277107612466246" lon="3.666704308354094"><ele>1045.6666666666665</ele><time>2026-04-26T14:59:32Z</time></trkpt><trkpt lat="45.27706920140737" lon="3.6668457468060556"><ele>1044.5</ele><time>2026-04-26T14:59:34Z</time></trkpt><trkpt lat="45.27704965489301" lon="3.6669373522477327"><ele>1043.3333333333333</ele><time>2026-04-26T14:59:37Z</time></trkpt><trkpt lat="45.277020434216695" lon="3.6670546665460435"><ele>1042.1666666666667</ele><time>2026-04-26T14:59:52Z</time></trkpt><trkpt lat="45.27699211250156" lon="3.6672017207595093"><ele>1041.0</ele><time>2026-04-26T14:59:53Z</time></trkpt><trkpt lat="45.276944724767105" lon="3.6673876612773615"><ele>1044.5</ele><time>2026-04-26T14:59:54Z</time></trkpt><trkpt lat="45.2768992335585" lon="3.66760138024227"><ele>1048.0</ele><time>2026-04-26T14:59:55Z</time></trkpt><trkpt lat="45.276836618459576" lon="3.667786380742467"><ele>1051.5</ele><time>2026-04-26T14:59:56Z</time></trkpt><trkpt lat="45.276762766291526" lon="3.667959871548298"><ele>1055.0</ele><time>2026-04-26T14:59:57Z</time></trkpt><trkpt lat="45.27669054702887" lon="3.6681412029093354"><ele>1059.0</ele><time>2026-04-26T14:59:58Z</time></trkpt><trkpt lat="45.27656159571181" lon="3.668315683778516"><ele>1063.0</ele><time>2026-04-26T14:59:59Z</time></trkpt><trkpt lat="45.27644108588805" lon="3.6684947811505584"><ele>1067.0</ele><time>2026-04-26T15:00:00Z</time></trkpt><trkpt lat="45.27634393394619" lon="3.6686817372209517"><ele>1067.0</ele><time>2026-04-26T15:00:01Z</time></trkpt><trkpt lat="45.27625807949906" lon="3.668911122323877"><ele>1067.0</ele><time>2026-04-26T15:00:02Z</time></trkpt><trkpt lat="45.276189723007995" lon="3.6691338257906536"><ele>1067.0</ele><time>2026-04-26T15:00:03Z</time></trkpt><trkpt lat="45.27613182205397" lon="3.669323177816707"><ele>1070.75</ele><time>2026-04-26T15:00:04Z</time></trkpt><trkpt lat="45.276056936117136" lon="3.6694426128462205"><ele>1074.5</ele><time>2026-04-26T15:00:05Z</time></trkpt><trkpt lat="45.275990628166724" lon="3.669555899083006"><ele>1078.25</ele><time>2026-04-26T15:00:06Z</time></trkpt><trkpt lat="45.27588302858565" lon="3.6696954390143643"><ele>1082.0</ele><time>2026-04-26T15:00:07Z</time></trkpt><trkpt lat="45.27577761015577" lon="3.6698418958663117"><ele>1082.0</ele><time>2026-04-26T15:00:08Z</time></trkpt><trkpt lat="45.27565351751274" lon="3.6699731579084784"><ele>1082.0</ele><time>2026-04-26T15:00:09Z</time></trkpt><trkpt lat="45.275531789897464" lon="3.670091256008375"><ele>1082.0</ele><time>2026-04-26T15:00:10Z</time></trkpt><trkpt lat="45.27539792182249" lon="3.670206617920182"><ele>1083.0</ele><time>2026-04-26T15:00:11Z</time></trkpt><trkpt lat="45.27526755435746" lon="3.6703082366891597"><ele>1084.0</ele><time>2026-04-26T15:00:12Z</time></trkpt><trkpt lat="45.27513726237837" lon="3.670405667753133"><ele>1085.0</ele><time>2026-04-26T15:00:13Z</time></trkpt><trkpt lat="45.27498171338849" lon="3.6704749691875187"><ele>1085.0</ele><time>2026-04-26T15:00:14Z</time></trkpt><trkpt lat="45.27484411909862" lon="3.6705528340745395"><ele>1085.0</ele><time>2026-04-26T15:00:15Z</time></trkpt><trkpt lat="45.27472720251425" lon="3.6706223959879556"><ele>1085.0</ele><time>2026-04-26T15:00:16Z</time></trkpt><trkpt lat="45.27458603296195" lon="3.67068971901429"><ele>1085.0</ele><time>2026-04-26T15:00:17Z</time></trkpt><trkpt lat="45.27448201949191" lon="3.6708273223912404"><ele>1084.6666666666667</ele><time>2026-04-26T15:00:18Z</time></trkpt><trkpt lat="45.27434928969547" lon="3.6709616106397056"><ele>1084.3333333333333</ele><time>2026-04-26T15:00:19Z</time></trkpt><trkpt lat="45.274213700954654" lon="3.6711122512842627"><ele>1084.0</ele><time>2026-04-26T15:00:20Z</time></trkpt><trkpt lat="45.27406714715561" lon="3.67127029887104"><ele>1080.6666666666665</ele><time>2026-04-26T15:00:21Z</time></trkpt><trkpt lat="45.273923535340245" lon="3.6714036594272907"><ele>1077.3333333333333</ele><time>2026-04-26T15:00:22Z</time></trkpt><trkpt lat="45.27379746475758" lon="3.6715023835696856"><ele>1074.0</ele><time>2026-04-26T15:00:23Z</time></trkpt><trkpt lat="45.27368148728852" lon="3.6715991758073843"><ele>1074.0</ele><time>2026-04-26T15:00:24Z</time></trkpt><trkpt lat="45.27359251796628" lon="3.6716984800020906"><ele>1074.0</ele><time>2026-04-26T15:00:25Z</time></trkpt><trkpt lat="45.27351431549359" lon="3.6717994668650586"><ele>1074.0</ele><time>2026-04-26T15:00:26Z</time></trkpt><trkpt lat="45.27343371803072" lon="3.671923416298991"><ele>1074.0</ele><time>2026-04-26T15:00:27Z</time></trkpt><trkpt lat="45.273362963005425" lon="3.6720560851885593"><ele>1077.0</ele><time>2026-04-26T15:00:28Z</time></trkpt><trkpt lat="45.27330652863379" lon="3.672199752950834"><ele>1080.0</ele><time>2026-04-26T15:00:29Z</time></trkpt><trkpt lat="45.27325062509377" lon="3.6723533736067346"><ele>1083.0</ele><time>2026-04-26T15:00:30Z</time></trkpt><trkpt lat="45.273190032818945" lon="3.6725303913260055"><ele>1086.0</ele><time>2026-04-26T15:00:31Z</time></trkpt><trkpt lat="45.273112394611886" lon="3.672727345581541"><ele>1084.6666666666667</ele><time>2026-04-26T15:00:32Z</time></trkpt><trkpt lat="45.273017758195174" lon="3.6729571232157348"><ele>1083.3333333333335</ele><time>2026-04-26T15:00:33Z</time></trkpt><trkpt lat="45.27291503392797" lon="3.6732047254130356"><ele>1082.0</ele><time>2026-04-26T15:00:34Z</time></trkpt><trkpt lat="45.27281671100081" lon="3.673431052167704"><ele>1083.6666666666667</ele><time>2026-04-26T15:00:35Z</time></trkpt><trkpt lat="45.27275595587486" lon="3.6736407473509467"><ele>1085.3333333333333</ele><time>2026-04-26T15:00:36Z</time></trkpt><trkpt lat="45.27269186888971" lon="3.673849680612274"><ele>1087.0</ele><time>2026-04-26T15:00:37Z</time></trkpt><trkpt lat="45.27261865975872" lon="3.674044028739281"><ele>1087.0</ele><time>2026-04-26T15:00:38Z</time></trkpt><trkpt lat="45.27253531592306" lon="3.6741874083223975"><ele>1087.0</ele><time>2026-04-26T15:00:39Z</time></trkpt><trkpt lat="45.27243899092763" lon="3.6743079986087412"><ele>1087.0</ele><time>2026-04-26T15:00:40Z</time></trkpt><trkpt lat="45.2723445862207" lon="3.6744190232252136"><ele>1087.0</ele><time>2026-04-26T15:00:41Z</time></trkpt><trkpt lat="45.27227092738951" lon="3.6745108472545276"><ele>1087.5</ele><time>2026-04-26T15:00:42Z</time></trkpt><trkpt lat="45.27221667388359" lon="3.6745853028277886"><ele>1088.0</ele><time>2026-04-26T15:00:43Z</time></trkpt><trkpt lat="45.2721475153953" lon="3.6746694187533375"><ele>1088.5</ele><time>2026-04-26T15:00:45Z</time></trkpt><trkpt lat="45.272100096300804" lon="3.6747663645323723"><ele>1089.0</ele><time>2026-04-26T15:00:48Z</time></trkpt><trkpt lat="45.272106797815425" lon="3.6749120485916253"><ele>1089.5</ele><time>2026-04-26T15:00:50Z</time></trkpt><trkpt lat="45.27211930594337" lon="3.675020230741276"><ele>1090.0</ele><time>2026-04-26T15:00:52Z</time></trkpt><trkpt lat="45.27211975491937" lon="3.6751200169425773"><ele>1090.0</ele><time>2026-04-26T15:00:55Z</time></trkpt><trkpt lat="45.272086187335844" lon="3.6752080246261203"><ele>1090.0</ele><time>2026-04-26T15:01:00Z</time></trkpt><trkpt lat="45.272050933080635" lon="3.6753618030969397"><ele>1090.0</ele><time>2026-04-26T15:01:02Z</time></trkpt><trkpt lat="45.272016981601325" lon="3.6754694234989946"><ele>1090.0</ele><time>2026-04-26T15:01:03Z</time></trkpt><trkpt lat="45.27198024507803" lon="3.6756114607529518"><ele>1090.0</ele><time>2026-04-26T15:01:04Z</time></trkpt><trkpt lat="45.27194682851485" lon="3.6757522929315343"><ele>1089.0</ele><time>2026-04-26T15:01:05Z</time></trkpt><trkpt lat="45.27193282099646" lon="3.6758618805847076"><ele>1088.0</ele><time>2026-04-26T15:01:06Z</time></trkpt><trkpt lat="45.27190866624046" lon="3.675974785606243"><ele>1087.0</ele><time>2026-04-26T15:01:07Z</time></trkpt><trkpt lat="45.271891049653085" lon="3.676128776085496"><ele>1086.0</ele><time>2026-04-26T15:01:08Z</time></trkpt><trkpt lat="45.27186719666636" lon="3.6763164674933018"><ele>1085.0</ele><time>2026-04-26T15:01:09Z</time></trkpt><trkpt lat="45.27189283192454" lon="3.6765255198680373"><ele>1083.0</ele><time>2026-04-26T15:01:10Z</time></trkpt><trkpt lat="45.27190107364064" lon="3.67673492125111"><ele>1081.0</ele><time>2026-04-26T15:01:11Z</time></trkpt><trkpt lat="45.27191728746811" lon="3.676922222807517"><ele>1079.0</ele><time>2026-04-26T15:01:12Z</time></trkpt><trkpt lat="45.27195029045088" lon="3.6770938349659423"><ele>1077.0</ele><time>2026-04-26T15:01:13Z</time></trkpt><trkpt lat="45.272006407213276" lon="3.67725187873175"><ele>1075.25</ele><time>2026-04-26T15:01:14Z</time></trkpt><trkpt lat="45.27207551250253" lon="3.6774139636519863"><ele>1073.5</ele><time>2026-04-26T15:01:15Z</time></trkpt><trkpt lat="45.272157772778876" lon="3.677597536821925"><ele>1071.75</ele><time>2026-04-26T15:01:16Z</time></trkpt><trkpt lat="45.27222823722451" lon="3.6777660515963957"><ele>1070.0</ele><time>2026-04-26T15:01:17Z</time></trkpt><trkpt lat="45.272298939527296" lon="3.6779074752815"><ele>1068.25</ele><time>2026-04-26T15:01:18Z</time></trkpt><trkpt lat="45.27237073224776" lon="3.678051928174533"><ele>1066.5</ele><time>2026-04-26T15:01:19Z</time></trkpt><trkpt lat="45.27243627495107" lon="3.678161460117669"><ele>1064.75</ele><time>2026-04-26T15:01:20Z</time></trkpt><trkpt lat="45.2725176195178" lon="3.678287691231443"><ele>1063.0</ele><time>2026-04-26T15:01:21Z</time></trkpt><trkpt lat="45.27248001095774" lon="3.6784961789201165"><ele>1062.0</ele><time>2026-04-26T15:01:22Z</time></trkpt><trkpt lat="45.27255562044675" lon="3.678610230098814"><ele>1061.0</ele><time>2026-04-26T15:01:24Z</time></trkpt><trkpt lat="45.272632320839" lon="3.678787161992008"><ele>1060.0</ele><time>2026-04-26T15:01:26Z</time></trkpt><trkpt lat="45.27268177932193" lon="3.6789484902954617"><ele>1059.0</ele><time>2026-04-26T15:01:27Z</time></trkpt><trkpt lat="45.272725854206165" lon="3.6791304587378693"><ele>1059.0</ele><time>2026-04-26T15:01:28Z</time></trkpt><trkpt lat="45.27278162242225" lon="3.679338462575373"><ele>1059.0</ele><time>2026-04-26T15:01:29Z</time></trkpt><trkpt lat="45.27283213014723" lon="3.6795727594853305"><ele>1059.0</ele><time>2026-04-26T15:01:30Z</time></trkpt><trkpt lat="45.272884212172" lon="3.679831602013848"><ele>1058.0</ele><time>2026-04-26T15:01:31Z</time></trkpt><trkpt lat="45.27292668898883" lon="3.680097223368427"><ele>1057.0</ele><time>2026-04-26T15:01:32Z</time></trkpt><trkpt lat="45.27296216591144" lon="3.6803283438747827"><ele>1056.0</ele><time>2026-04-26T15:01:33Z</time></trkpt><trkpt lat="45.27299505512175" lon="3.6805408848889787"><ele>1055.6666666666667</ele><time>2026-04-26T15:01:34Z</time></trkpt><trkpt lat="45.27303136129314" lon="3.680742973490053"><ele>1055.3333333333335</ele><time>2026-04-26T15:01:35Z</time></trkpt><trkpt lat="45.27307593146176" lon="3.680948024953296"><ele>1055.0</ele><time>2026-04-26T15:01:36Z</time></trkpt><trkpt lat="45.2731309908511" lon="3.6811687281648258"><ele>1054.25</ele><time>2026-04-26T15:01:37Z</time></trkpt><trkpt lat="45.27318514507716" lon="3.681371331071748"><ele>1053.5</ele><time>2026-04-26T15:01:38Z</time></trkpt><trkpt lat="45.27323137768676" lon="3.6815581102841946"><ele>1052.75</ele><time>2026-04-26T15:01:39Z</time></trkpt><trkpt lat="45.2732805897932" lon="3.6817332853739853"><ele>1052.0</ele><time>2026-04-26T15:01:40Z</time></trkpt><trkpt lat="45.27333927669233" lon="3.6818865387340467"><ele>1050.8</ele><time>2026-04-26T15:01:41Z</time></trkpt><trkpt lat="45.273382992315284" lon="3.6819754622815655"><ele>1049.6</ele><time>2026-04-26T15:01:42Z</time></trkpt><trkpt lat="45.273415155613094" lon="3.682080404165937"><ele>1048.3999999999999</ele><time>2026-04-26T15:01:44Z</time></trkpt><trkpt lat="45.27354211469368" lon="3.682184425355491"><ele>1047.2</ele><time>2026-04-26T15:01:46Z</time></trkpt><trkpt lat="45.27365028462165" lon="3.6822133413456433"><ele>1046.0</ele><time>2026-04-26T15:01:47Z</time></trkpt><trkpt lat="45.273731143938235" lon="3.6822688907791323"><ele>1046.0</ele><time>2026-04-26T15:01:48Z</time></trkpt><trkpt lat="45.27379559490495" lon="3.6823597977801183"><ele>1046.0</ele><time>2026-04-26T15:01:49Z</time></trkpt><trkpt lat="45.273829434507356" lon="3.6824802114174733"><ele>1046.0</ele><time>2026-04-26T15:01:50Z</time></trkpt><trkpt lat="45.273832322954306" lon="3.682608504733498"><ele>1046.0</ele><time>2026-04-26T15:01:51Z</time></trkpt><trkpt lat="45.273798937114485" lon="3.6827370740594785"><ele>1046.0</ele><time>2026-04-26T15:01:52Z</time></trkpt><trkpt lat="45.27374992869249" lon="3.682854489682169"><ele>1046.5</ele><time>2026-04-26T15:01:53Z</time></trkpt><trkpt lat="45.27370566746903" lon="3.682930054828422"><ele>1047.0</ele><time>2026-04-26T15:01:55Z</time></trkpt><trkpt lat="45.273793176001476" lon="3.6832512815019474"><ele>1047.5</ele><time>2026-04-26T15:01:58Z</time></trkpt><trkpt lat="45.273822910383714" lon="3.683398364792246"><ele>1048.0</ele><time>2026-04-26T15:01:59Z</time></trkpt><trkpt lat="45.273864600595665" lon="3.6835738136292613"><ele>1049.75</ele><time>2026-04-26T15:02:00Z</time></trkpt><trkpt lat="45.27390690479549" lon="3.68376562233528"><ele>1051.5</ele><time>2026-04-26T15:02:01Z</time></trkpt><trkpt lat="45.27394381156982" lon="3.683964620104753"><ele>1053.25</ele><time>2026-04-26T15:02:02Z</time></trkpt><trkpt lat="45.27398329262487" lon="3.684154457540198"><ele>1055.0</ele><time>2026-04-26T15:02:03Z</time></trkpt><trkpt lat="45.274020074622705" lon="3.68435352673317"><ele>1057.5</ele><time>2026-04-26T15:02:04Z</time></trkpt><trkpt lat="45.27405634202748" lon="3.684557239201919"><ele>1060.0</ele><time>2026-04-26T15:02:05Z</time></trkpt><trkpt lat="45.27409076589653" lon="3.684735117881003"><ele>1062.5</ele><time>2026-04-26T15:02:06Z</time></trkpt><trkpt lat="45.27413246338305" lon="3.684876197148367"><ele>1065.0</ele><time>2026-04-26T15:02:07Z</time></trkpt><trkpt lat="45.27419278140037" lon="3.6850149966561623"><ele>1065.0</ele><time>2026-04-26T15:02:09Z</time></trkpt><trkpt lat="45.27425344921395" lon="3.685109962850345"><ele>1065.0</ele><time>2026-04-26T15:02:30Z</time></trkpt><trkpt lat="45.27434102099792" lon="3.6852097973618863"><ele>1065.0</ele><time>2026-04-26T15:02:32Z</time></trkpt><trkpt lat="45.2744045477327" lon="3.685318082343566"><ele>1065.0</ele><time>2026-04-26T15:02:34Z</time></trkpt><trkpt lat="45.27445586549568" lon="3.685444187467578"><ele>1065.0</ele><time>2026-04-26T15:02:37Z</time></trkpt><trkpt lat="45.274507064737854" lon="3.685611886283034"><ele>1065.0</ele><time>2026-04-26T15:02:39Z</time></trkpt><trkpt lat="45.27453745973902" lon="3.6857008072055453"><ele>1065.0</ele><time>2026-04-26T15:02:40Z</time></trkpt><trkpt lat="45.27458370381341" lon="3.6857971485121723"><ele>1065.0</ele><time>2026-04-26T15:02:41Z</time></trkpt><trkpt lat="45.27464245888571" lon="3.685926907526285"><ele>1065.0</ele><time>2026-04-26T15:02:43Z</time></trkpt><trkpt lat="45.27468287748292" lon="3.6860089781484278"><ele>1065.0</ele><time>2026-04-26T15:02:44Z</time></trkpt><trkpt lat="45.27473421285477" lon="3.686097486905684"><ele>1065.0</ele><time>2026-04-26T15:02:45Z</time></trkpt><trkpt lat="45.27477486085947" lon="3.686173265323998"><ele>1066.4</ele><time>2026-04-26T15:02:46Z</time></trkpt><trkpt lat="45.274825936172995" lon="3.686259565657543"><ele>1067.8</ele><time>2026-04-26T15:02:48Z</time></trkpt><trkpt lat="45.27488512496594" lon="3.6863683154333566"><ele>1069.2</ele><time>2026-04-26T15:02:51Z</time></trkpt><trkpt lat="45.27494285524672" lon="3.6864281160270593"><ele>1070.6</ele><time>2026-04-26T15:02:55Z</time></trkpt><trkpt lat="45.274988629007055" lon="3.6865222030083014"><ele>1072.0</ele><time>2026-04-26T15:03:24Z</time></trkpt><trkpt lat="45.274949655512536" lon="3.68670045705106"><ele>1072.0</ele><time>2026-04-26T15:03:26Z</time></trkpt><trkpt lat="45.27491022900474" lon="3.6868525606929783"><ele>1072.0</ele><time>2026-04-26T15:03:28Z</time></trkpt><trkpt lat="45.274841054609375" lon="3.6869846691320296"><ele>1072.0</ele><time>2026-04-26T15:03:30Z</time></trkpt><trkpt lat="45.27476726506534" lon="3.687052736183084"><ele>1072.0</ele><time>2026-04-26T15:03:32Z</time></trkpt><trkpt lat="45.27470252476618" lon="3.6870955880091105"><ele>1072.0</ele><time>2026-04-26T15:03:34Z</time></trkpt><trkpt lat="45.27466982467363" lon="3.68717951285277"><ele>1070.1666666666665</ele><time>2026-04-26T15:03:37Z</time></trkpt><trkpt lat="45.27460631029012" lon="3.68714925588725"><ele>1068.3333333333333</ele><time>2026-04-26T15:03:39Z</time></trkpt><trkpt lat="45.27453789227181" lon="3.687174466223543"><ele>1066.5</ele><time>2026-04-26T15:03:41Z</time></trkpt><trkpt lat="45.274479296182456" lon="3.6872287228657137"><ele>1064.6666666666667</ele><time>2026-04-26T15:03:42Z</time></trkpt><trkpt lat="45.27440334133039" lon="3.687307005173654"><ele>1062.8333333333335</ele><time>2026-04-26T15:03:43Z</time></trkpt><trkpt lat="45.2743344510628" lon="3.6873726752901046"><ele>1061.0</ele><time>2026-04-26T15:03:44Z</time></trkpt><trkpt lat="45.27427046738876" lon="3.6874374858107846"><ele>1061.0</ele><time>2026-04-26T15:03:45Z</time></trkpt><trkpt lat="45.274194925711726" lon="3.6874898050536955"><ele>1061.0</ele><time>2026-04-26T15:03:46Z</time></trkpt><trkpt lat="45.274113305470564" lon="3.6875528123558707"><ele>1061.0</ele><time>2026-04-26T15:03:47Z</time></trkpt><trkpt lat="45.27401358958501" lon="3.6876397442013373"><ele>1061.0</ele><time>2026-04-26T15:03:48Z</time></trkpt><trkpt lat="45.2739171538164" lon="3.6877210882236438"><ele>1061.0</ele><time>2026-04-26T15:03:49Z</time></trkpt><trkpt lat="45.273832022670575" lon="3.687799582658317"><ele>1058.3999999999999</ele><time>2026-04-26T15:03:50Z</time></trkpt><trkpt lat="45.27375760470821" lon="3.6878724339448787"><ele>1055.8</ele><time>2026-04-26T15:03:51Z</time></trkpt><trkpt lat="45.27368412667345" lon="3.6879426979617778"><ele>1053.1999999999998</ele><time>2026-04-26T15:03:52Z</time></trkpt><trkpt lat="45.27360799845452" lon="3.6880186726560664"><ele>1050.6</ele><time>2026-04-26T15:03:53Z</time></trkpt><trkpt lat="45.27351092431138" lon="3.6881039748822224"><ele>1048.0</ele><time>2026-04-26T15:03:54Z</time></trkpt><trkpt lat="45.27343381626364" lon="3.688183872533908"><ele>1048.0</ele><time>2026-04-26T15:03:55Z</time></trkpt><trkpt lat="45.273366976528905" lon="3.688258524192364"><ele>1048.0</ele><time>2026-04-26T15:03:56Z</time></trkpt><trkpt lat="45.273293529384546" lon="3.688348423778604"><ele>1048.0</ele><time>2026-04-26T15:03:57Z</time></trkpt><trkpt lat="45.273227070442935" lon="3.6884378186953377"><ele>1048.0</ele><time>2026-04-26T15:03:58Z</time></trkpt><trkpt lat="45.27315648585646" lon="3.6885500348784817"><ele>1048.0</ele><time>2026-04-26T15:03:59Z</time></trkpt><trkpt lat="45.273067015190854" lon="3.688679284094746"><ele>1046.6666666666665</ele><time>2026-04-26T15:04:00Z</time></trkpt><trkpt lat="45.272953948845654" lon="3.6888478756040164"><ele>1045.3333333333333</ele><time>2026-04-26T15:04:01Z</time></trkpt><trkpt lat="45.272843956790595" lon="3.6890272118312426"><ele>1044.0</ele><time>2026-04-26T15:04:02Z</time></trkpt><trkpt lat="45.27274903491644" lon="3.6891849750137435"><ele>1044.0</ele><time>2026-04-26T15:04:03Z</time></trkpt><trkpt lat="45.27267039467623" lon="3.6893315328270204"><ele>1044.0</ele><time>2026-04-26T15:04:04Z</time></trkpt><trkpt lat="45.272596437953204" lon="3.6894978685046866"><ele>1044.0</ele><time>2026-04-26T15:04:05Z</time></trkpt><trkpt lat="45.27252963397073" lon="3.6896700426707523"><ele>1044.0</ele><time>2026-04-26T15:04:06Z</time></trkpt><trkpt lat="45.272450417930784" lon="3.689845389924024"><ele>1042.8</ele><time>2026-04-26T15:04:07Z</time></trkpt><trkpt lat="45.272386977863995" lon="3.6899905933903696"><ele>1041.6000000000001</ele><time>2026-04-26T15:04:08Z</time></trkpt><trkpt lat="45.272338332583594" lon="3.6901035314249784"><ele>1040.4</ele><time>2026-04-26T15:04:09Z</time></trkpt><trkpt lat="45.27229803877126" lon="3.690189072873087"><ele>1039.2</ele><time>2026-04-26T15:04:10Z</time></trkpt><trkpt lat="45.27226323496448" lon="3.690297260173096"><ele>1038.0</ele><time>2026-04-26T15:04:11Z</time></trkpt><trkpt lat="45.27223675971093" lon="3.690413005315972"><ele>1037.6666666666667</ele><time>2026-04-26T15:04:12Z</time></trkpt><trkpt lat="45.27220309077967" lon="3.690520481785188"><ele>1037.3333333333333</ele><time>2026-04-26T15:04:13Z</time></trkpt><trkpt lat="45.27215561476244" lon="3.690634105913638"><ele>1037.0</ele><time>2026-04-26T15:04:14Z</time></trkpt><trkpt lat="45.272108437186446" lon="3.6907311875858664"><ele>1036.6666666666665</ele><time>2026-04-26T15:04:15Z</time></trkpt><trkpt lat="45.27205803764352" lon="3.6908303076240836"><ele>1036.3333333333333</ele><time>2026-04-26T15:04:16Z</time></trkpt><trkpt lat="45.27201625566698" lon="3.690914854477284"><ele>1036.0</ele><time>2026-04-26T15:04:17Z</time></trkpt><trkpt lat="45.27195974337199" lon="3.6910493189088522"><ele>1034.0</ele><time>2026-04-26T15:04:19Z</time></trkpt><trkpt lat="45.27192601742263" lon="3.69120379339615"><ele>1032.0</ele><time>2026-04-26T15:04:21Z</time></trkpt><trkpt lat="45.27190691594579" lon="3.691289160594414"><ele>1030.0</ele><time>2026-04-26T15:04:22Z</time></trkpt><trkpt lat="45.271883556674545" lon="3.691382056936348"><ele>1028.0</ele><time>2026-04-26T15:04:23Z</time></trkpt><trkpt lat="45.271865389464054" lon="3.6914954367284265"><ele>1026.0</ele><time>2026-04-26T15:04:24Z</time></trkpt><trkpt lat="45.27183336857025" lon="3.6916225808769094"><ele>1024.0</ele><time>2026-04-26T15:04:25Z</time></trkpt><trkpt lat="45.27181298773933" lon="3.691747903788316"><ele>1023.9999999999999</ele><time>2026-04-26T15:04:26Z</time></trkpt><trkpt lat="45.271805353713916" lon="3.6918874741037095"><ele>1024.0</ele><time>2026-04-26T15:04:27Z</time></trkpt><trkpt lat="45.27177532038928" lon="3.691983525966918"><ele>1024.0</ele><time>2026-04-26T15:04:28Z</time></trkpt><trkpt lat="45.27173838893792" lon="3.692098371974561"><ele>1024.0</ele><time>2026-04-26T15:04:29Z</time></trkpt><trkpt lat="45.27169850764387" lon="3.6922060408194146"><ele>1023.9999999999999</ele><time>2026-04-26T15:04:30Z</time></trkpt><trkpt lat="45.27164948100211" lon="3.6922997126952395"><ele>1024.0</ele><time>2026-04-26T15:04:31Z</time></trkpt><trkpt lat="45.27161862414823" lon="3.6923882371667687"><ele>1021.6666666666666</ele><time>2026-04-26T15:04:32Z</time></trkpt><trkpt lat="45.27157690607571" lon="3.69251434716552"><ele>1019.3333333333333</ele><time>2026-04-26T15:04:34Z</time></trkpt><trkpt lat="45.271529114929265" lon="3.6925807508104755"><ele>1017.0</ele><time>2026-04-26T15:04:35Z</time></trkpt><trkpt lat="45.27149638748934" lon="3.6926643290168952"><ele>1014.6666666666667</ele><time>2026-04-26T15:04:36Z</time></trkpt><trkpt lat="45.271470618449065" lon="3.692764079289433"><ele>1012.3333333333334</ele><time>2026-04-26T15:04:37Z</time></trkpt><trkpt lat="45.2714573710099" lon="3.6928749789351127"><ele>1010.0</ele><time>2026-04-26T15:04:38Z</time></trkpt><trkpt lat="45.27145184884727" lon="3.6929789214556754"><ele>1008.0000000000001</ele><time>2026-04-26T15:04:39Z</time></trkpt><trkpt lat="45.27145443057443" lon="3.6930743903072054"><ele>1006.0</ele><time>2026-04-26T15:04:40Z</time></trkpt><trkpt lat="45.27145788454581" lon="3.693172026636409"><ele>1004.0</ele><time>2026-04-26T15:04:41Z</time></trkpt><trkpt lat="45.27144371182919" lon="3.6933385925426587"><ele>1002.0</ele><time>2026-04-26T15:04:43Z</time></trkpt><trkpt lat="45.27140038240167" lon="3.693440139292687"><ele>1000.0000000000001</ele><time>2026-04-26T15:04:45Z</time></trkpt><trkpt lat="45.27131931791323" lon="3.6934873311174794"><ele>998.0</ele><time>2026-04-26T15:04:47Z</time></trkpt><trkpt lat="45.271252989067094" lon="3.693476115175898"><ele>995.8333333333334</ele><time>2026-04-26T15:04:49Z</time></trkpt><trkpt lat="45.27114476003238" lon="3.6934718090311827"><ele>993.6666666666667</ele><time>2026-04-26T15:04:50Z</time></trkpt><trkpt lat="45.27106468455325" lon="3.693438953985336"><ele>991.5</ele><time>2026-04-26T15:04:52Z</time></trkpt><trkpt lat="45.270982889075135" lon="3.693392600999185"><ele>989.3333333333333</ele><time>2026-04-26T15:04:54Z</time></trkpt><trkpt lat="45.270906585757544" lon="3.693340235924999"><ele>987.1666666666666</ele><time>2026-04-26T15:04:56Z</time></trkpt><trkpt lat="45.270850250998656" lon="3.6932969718721025"><ele>985.0</ele><time>2026-04-26T15:04:58Z</time></trkpt><trkpt lat="45.270790635660994" lon="3.6932525667921685"><ele>984.9999999999999</ele><time>2026-04-26T15:05:00Z</time></trkpt><trkpt lat="45.27071006115909" lon="3.6931979840630125"><ele>985.0</ele><time>2026-04-26T15:05:02Z</time></trkpt><trkpt lat="45.2706475408123" lon="3.6931556315769867"><ele>985.0</ele><time>2026-04-26T15:05:04Z</time></trkpt><trkpt lat="45.2705822810527" lon="3.6931073009517186"><ele>985.0</ele><time>2026-04-26T15:05:06Z</time></trkpt><trkpt lat="45.270475604324155" lon="3.693013693320564"><ele>984.9999999999999</ele><time>2026-04-26T15:05:08Z</time></trkpt><trkpt lat="45.27041166763755" lon="3.692940719359716"><ele>985.0</ele><time>2026-04-26T15:05:09Z</time></trkpt><trkpt lat="45.27033827933983" lon="3.6928632664296264"><ele>984.1428571428572</ele><time>2026-04-26T15:05:11Z</time></trkpt><trkpt lat="45.270268713452985" lon="3.6928829678471073"><ele>983.2857142857144</ele><time>2026-04-26T15:05:15Z</time></trkpt><trkpt lat="45.270273672774024" lon="3.692974493451191"><ele>982.4285714285714</ele><time>2026-04-26T15:05:17Z</time></trkpt><trkpt lat="45.27028377908071" lon="3.6930661627038424"><ele>981.5714285714287</ele><time>2026-04-26T15:05:19Z</time></trkpt><trkpt lat="45.27030867076674" lon="3.6931507344994796"><ele>980.7142857142858</ele><time>2026-04-26T15:05:20Z</time></trkpt><trkpt lat="45.27034406667171" lon="3.6932482894790093"><ele>979.8571428571429</ele><time>2026-04-26T15:05:21Z</time></trkpt><trkpt lat="45.270346356032036" lon="3.6933466908214556"><ele>979.0</ele><time>2026-04-26T15:05:23Z</time></trkpt><trkpt lat="45.2702828861929" lon="3.693329767755397"><ele>979.0</ele><time>2026-04-26T15:05:38Z</time></trkpt><trkpt lat="45.27022524669793" lon="3.693278570313789"><ele>979.0</ele><time>2026-04-26T15:05:59Z</time></trkpt><trkpt lat="45.27026000150848" lon="3.693366353361126"><ele>979.0</ele><time>2026-04-26T15:08:05.999Z</time></trkpt><trkpt lat="45.2701962801183" lon="3.6933230998159803"><ele>979.0</ele><time>2026-04-26T15:08:09.999Z</time></trkpt><trkpt lat="45.270125976688504" lon="3.6932753224809596"><ele>979.0</ele><time>2026-04-26T15:08:15.999Z</time></trkpt><trkpt lat="45.27007207924542" lon="3.693224647869223"><ele>979.0</ele><time>2026-04-26T15:08:32.999Z</time></trkpt><trkpt lat="45.27008413200531" lon="3.693347988383747"><ele>979.0</ele><time>2026-04-26T15:08:35.999Z</time></trkpt><trkpt lat="45.27012975168476" lon="3.6934387799449335"><ele>979.0</ele><time>2026-04-26T15:08:37.999Z</time></trkpt><trkpt lat="45.27019236877222" lon="3.693570552183719"><ele>979.0000000000001</ele><time>2026-04-26T15:08:39.999Z</time></trkpt><trkpt lat="45.27022695253124" lon="3.693673243953067"><ele>979.0000000000001</ele><time>2026-04-26T15:08:40.999Z</time></trkpt><trkpt lat="45.27026521429653" lon="3.693801467210137"><ele>979.0</ele><time>2026-04-26T15:08:42.999Z</time></trkpt><trkpt lat="45.27029756438132" lon="3.6939304929856434"><ele>979.0</ele><time>2026-04-26T15:08:44.999Z</time></trkpt><trkpt lat="45.27034922951777" lon="3.6940711722583384"><ele>981.4999999999999</ele><time>2026-04-26T15:08:46.999Z</time></trkpt><trkpt lat="45.27037409389786" lon="3.694205754975416"><ele>984.0</ele><time>2026-04-26T15:08:48.999Z</time></trkpt><trkpt lat="45.27039628367112" lon="3.6943008481668413"><ele>986.5</ele><time>2026-04-26T15:08:49.999Z</time></trkpt><trkpt lat="45.27040542316734" lon="3.6944807182734944"><ele>989.0</ele><time>2026-04-26T15:08:51.999Z</time></trkpt><trkpt lat="45.27041070796272" lon="3.6945821716474097"><ele>991.4999999999999</ele><time>2026-04-26T15:08:52.999Z</time></trkpt><trkpt lat="45.2704010509278" lon="3.6946867355019006"><ele>994.0</ele><time>2026-04-26T15:08:53.999Z</time></trkpt><trkpt lat="45.27039276354781" lon="3.6948139501646677"><ele>995.1666666666666</ele><time>2026-04-26T15:08:54.999Z</time></trkpt><trkpt lat="45.27037614768121" lon="3.6949369261963083"><ele>996.3333333333333</ele><time>2026-04-26T15:08:55.999Z</time></trkpt><trkpt lat="45.27036102105547" lon="3.695110745541855"><ele>997.5</ele><time>2026-04-26T15:08:57.999Z</time></trkpt><trkpt lat="45.27033651593712" lon="3.6952017013755714"><ele>998.6666666666667</ele><time>2026-04-26T15:08:58.999Z</time></trkpt><trkpt lat="45.27031366016766" lon="3.6952922596039435"><ele>999.8333333333334</ele><time>2026-04-26T15:08:59.999Z</time></trkpt><trkpt lat="45.27027486828385" lon="3.69537854552682"><ele>1001.0</ele><time>2026-04-26T15:09:02.999Z</time></trkpt><trkpt lat="45.27022023890803" lon="3.6954713343464767"><ele>1001.8</ele><time>2026-04-26T15:10:35Z</time></trkpt><trkpt lat="45.27015371026948" lon="3.6955575334123156"><ele>1002.5999999999999</ele><time>2026-04-26T15:10:36Z</time></trkpt><trkpt lat="45.270086374735456" lon="3.695655032175551"><ele>1003.4</ele><time>2026-04-26T15:10:37Z</time></trkpt><trkpt lat="45.26999942633201" lon="3.6957730449583117"><ele>1004.2</ele><time>2026-04-26T15:10:38Z</time></trkpt><trkpt lat="45.269899221025945" lon="3.695872687321742"><ele>1005.0</ele><time>2026-04-26T15:10:39Z</time></trkpt><trkpt lat="45.26979252615526" lon="3.69599573041127"><ele>1006.6</ele><time>2026-04-26T15:10:40Z</time></trkpt><trkpt lat="45.269678955059696" lon="3.696132611296857"><ele>1008.2</ele><time>2026-04-26T15:10:41Z</time></trkpt><trkpt lat="45.2695952650593" lon="3.6962248314743587"><ele>1009.8</ele><time>2026-04-26T15:10:42Z</time></trkpt><trkpt lat="45.26952786489662" lon="3.696290234818652"><ele>1011.4</ele><time>2026-04-26T15:10:43Z</time></trkpt><trkpt lat="45.26947360430282" lon="3.6963382635899475"><ele>1013.0</ele><time>2026-04-26T15:10:44Z</time></trkpt><trkpt lat="45.26941644410139" lon="3.696395636903015"><ele>1013.0000000000001</ele><time>2026-04-26T15:10:46Z</time></trkpt><trkpt lat="45.269357545156375" lon="3.696459433564818"><ele>1013.0</ele><time>2026-04-26T15:10:49Z</time></trkpt><trkpt lat="45.269296367832965" lon="3.6965154443560677"><ele>1013.0</ele><time>2026-04-26T15:10:57Z</time></trkpt><trkpt lat="45.26923272791083" lon="3.6964388705473676"><ele>1013.0</ele><time>2026-04-26T15:10:58Z</time></trkpt><trkpt lat="45.26915491595622" lon="3.6964710904282843"><ele>1013.0000000000001</ele><time>2026-04-26T15:11:00Z</time></trkpt><trkpt lat="45.26909244788093" lon="3.696503548503034"><ele>1013.0</ele><time>2026-04-26T15:11:02Z</time></trkpt><trkpt lat="45.26901379551258" lon="3.6965431093587346"><ele>1013.0000000000001</ele><time>2026-04-26T15:11:04Z</time></trkpt><trkpt lat="45.268923940238295" lon="3.6965798919567217"><ele>1013.0</ele><time>2026-04-26T15:11:06Z</time></trkpt><trkpt lat="45.268803166929814" lon="3.6966017518623477"><ele>1013.0</ele><time>2026-04-26T15:11:08Z</time></trkpt><trkpt lat="45.26873450631229" lon="3.6965550987576936"><ele>1013.0</ele><time>2026-04-26T15:11:09Z</time></trkpt><trkpt lat="45.26866437963889" lon="3.696603192200767"><ele>1013.0000000000001</ele><time>2026-04-26T15:11:10Z</time></trkpt><trkpt lat="45.26860787268675" lon="3.6966589208988743"><ele>1013.0</ele><time>2026-04-26T15:11:11Z</time></trkpt><trkpt lat="45.26856675831086" lon="3.696748998533119"><ele>1013.0</ele><time>2026-04-26T15:11:12Z</time></trkpt><trkpt lat="45.26849454962566" lon="3.6968250967485186"><ele>1013.0</ele><time>2026-04-26T15:11:13Z</time></trkpt><trkpt lat="45.26838556133336" lon="3.6966844230442124"><ele>1013.0</ele><time>2026-04-26T15:11:14Z</time></trkpt><trkpt lat="45.26833946536986" lon="3.6966141433968507"><ele>1013.0</ele><time>2026-04-26T15:11:15Z</time></trkpt><trkpt lat="45.26826183386606" lon="3.696558455826839"><ele>1013.0</ele><time>2026-04-26T15:11:16Z</time></trkpt><trkpt lat="45.26811915122891" lon="3.6964565903203517"><ele>1025.0</ele><time>2026-04-26T15:11:18Z</time></trkpt><trkpt lat="45.267766619133745" lon="3.6970196872376744"><ele>1025.0</ele><time>2026-04-26T15:11:19Z</time></trkpt><trkpt lat="45.267661236104544" lon="3.6970681219575967"><ele>1025.0</ele><time>2026-04-26T15:11:20Z</time></trkpt><trkpt lat="45.26759048963134" lon="3.6971107442883846"><ele>1025.0</ele><time>2026-04-26T15:11:21Z</time></trkpt><trkpt lat="45.26760109502259" lon="3.6972599745376793"><ele>1025.0</ele><time>2026-04-26T15:11:24Z</time></trkpt><trkpt lat="45.267670055010534" lon="3.6973115349705394"><ele>1025.0</ele><time>2026-04-26T15:11:25Z</time></trkpt><trkpt lat="45.267757630678226" lon="3.6973555488945307"><ele>1025.0</ele><time>2026-04-26T15:11:26Z</time></trkpt><trkpt lat="45.26782980055201" lon="3.6974139372180637"><ele>1025.0</ele><time>2026-04-26T15:11:27Z</time></trkpt><trkpt lat="45.26790872758545" lon="3.6974971868899336"><ele>1025.0</ele><time>2026-04-26T15:11:28Z</time></trkpt><trkpt lat="45.267974570702066" lon="3.6976049214656403"><ele>1025.0</ele><time>2026-04-26T15:11:29Z</time></trkpt><trkpt lat="45.268008838673616" lon="3.697704866170983"><ele>1025.0</ele><time>2026-04-26T15:11:30Z</time></trkpt><trkpt lat="45.26802320527926" lon="3.6978323180274377"><ele>1026.0</ele><time>2026-04-26T15:11:31Z</time></trkpt><trkpt lat="45.268024684290616" lon="3.6979814404485656"><ele>1027.0</ele><time>2026-04-26T15:11:32Z</time></trkpt><trkpt lat="45.26801500163968" lon="3.698171554674657"><ele>1028.0</ele><time>2026-04-26T15:11:33Z</time></trkpt><trkpt lat="45.26800553619758" lon="3.698317620433407"><ele>1029.0</ele><time>2026-04-26T15:11:34Z</time></trkpt><trkpt lat="45.26798065621073" lon="3.698435941822414"><ele>1030.0</ele><time>2026-04-26T15:11:35Z</time></trkpt><trkpt lat="45.26792522311506" lon="3.698563075126732"><ele>1032.0</ele><time>2026-04-26T15:11:36Z</time></trkpt><trkpt lat="45.26784959990727" lon="3.6987002171735455"><ele>1034.0</ele><time>2026-04-26T15:11:37Z</time></trkpt><trkpt lat="45.26775848458348" lon="3.698833737222868"><ele>1036.0</ele><time>2026-04-26T15:11:38Z</time></trkpt><trkpt lat="45.26766474664741" lon="3.6990051076542816"><ele>1038.0</ele><time>2026-04-26T15:11:39Z</time></trkpt><trkpt lat="45.267576441835836" lon="3.6991652414053298"><ele>1038.0</ele><time>2026-04-26T15:11:40Z</time></trkpt><trkpt lat="45.267494903849034" lon="3.699306262186669"><ele>1038.0</ele><time>2026-04-26T15:11:41Z</time></trkpt><trkpt lat="45.267426127285916" lon="3.699422996919898"><ele>1038.0</ele><time>2026-04-26T15:11:42Z</time></trkpt><trkpt lat="45.26735318133329" lon="3.69955747524689"><ele>1038.0</ele><time>2026-04-26T15:11:43Z</time></trkpt><trkpt lat="45.26727337035249" lon="3.6996983949505737"><ele>1041.5</ele><time>2026-04-26T15:11:44Z</time></trkpt><trkpt lat="45.26721079027688" lon="3.699843123664121"><ele>1045.0</ele><time>2026-04-26T15:11:45Z</time></trkpt><trkpt lat="45.26716010705217" lon="3.699992442975425"><ele>1048.5</ele><time>2026-04-26T15:11:46Z</time></trkpt><trkpt lat="45.26711404469721" lon="3.7001384718630783"><ele>1052.0</ele><time>2026-04-26T15:11:47Z</time></trkpt><trkpt lat="45.267068917826634" lon="3.700280761961083"><ele>1052.75</ele><time>2026-04-26T15:11:48Z</time></trkpt><trkpt lat="45.267021604764814" lon="3.7004327317704386"><ele>1053.5</ele><time>2026-04-26T15:11:49Z</time></trkpt><trkpt lat="45.26698110234522" lon="3.7005971410783642"><ele>1054.25</ele><time>2026-04-26T15:11:50Z</time></trkpt><trkpt lat="45.26693811438057" lon="3.7007779648889616"><ele>1055.0</ele><time>2026-04-26T15:11:51Z</time></trkpt><trkpt lat="45.26690718772991" lon="3.7009546847043926"><ele>1056.75</ele><time>2026-04-26T15:11:52Z</time></trkpt><trkpt lat="45.26686531915699" lon="3.7010992409391004"><ele>1058.5</ele><time>2026-04-26T15:11:53Z</time></trkpt><trkpt lat="45.26681311262841" lon="3.7012396455076932"><ele>1060.25</ele><time>2026-04-26T15:11:54Z</time></trkpt><trkpt lat="45.26675430861572" lon="3.7013878999717846"><ele>1062.0</ele><time>2026-04-26T15:11:55Z</time></trkpt><trkpt lat="45.26669345321607" lon="3.7015405519108247"><ele>1062.0</ele><time>2026-04-26T15:11:56Z</time></trkpt><trkpt lat="45.266646849241916" lon="3.701671016263597"><ele>1062.0</ele><time>2026-04-26T15:11:57Z</time></trkpt><trkpt lat="45.26659298150853" lon="3.701798594790281"><ele>1062.0</ele><time>2026-04-26T15:11:58Z</time></trkpt><trkpt lat="45.26653619210041" lon="3.7019454780230805"><ele>1062.0</ele><time>2026-04-26T15:11:59Z</time></trkpt><trkpt lat="45.26646003828379" lon="3.70207633111822"><ele>1062.0</ele><time>2026-04-26T15:12:00Z</time></trkpt><trkpt lat="45.26638008279434" lon="3.702177057527724"><ele>1062.8333333333333</ele><time>2026-04-26T15:12:01Z</time></trkpt><trkpt lat="45.26631195081421" lon="3.7022458019141227"><ele>1063.6666666666667</ele><time>2026-04-26T15:12:03Z</time></trkpt><trkpt lat="45.26626529446346" lon="3.7023078611789706"><ele>1064.5</ele><time>2026-04-26T15:12:09Z</time></trkpt><trkpt lat="45.26620390252811" lon="3.7023533275064557"><ele>1065.3333333333335</ele><time>2026-04-26T15:12:13Z</time></trkpt><trkpt lat="45.266118632972116" lon="3.7024079840467765"><ele>1066.1666666666667</ele><time>2026-04-26T15:12:22Z</time></trkpt><trkpt lat="45.26600103573509" lon="3.7025068551721576"><ele>1067.0</ele><time>2026-04-26T15:12:24Z</time></trkpt><trkpt lat="45.265883736668975" lon="3.702620617221945"><ele>1067.0</ele><time>2026-04-26T15:12:25Z</time></trkpt><trkpt lat="45.26576606681883" lon="3.70274570184769"><ele>1067.0</ele><time>2026-04-26T15:12:26Z</time></trkpt><trkpt lat="45.265601803026954" lon="3.7028869308085754"><ele>1067.0</ele><time>2026-04-26T15:12:27Z</time></trkpt><trkpt lat="45.26545132487026" lon="3.703022476405744"><ele>1064.0</ele><time>2026-04-26T15:12:28Z</time></trkpt><trkpt lat="45.26527242114976" lon="3.7031991487457745"><ele>1061.0</ele><time>2026-04-26T15:12:29Z</time></trkpt><trkpt lat="45.26514649518848" lon="3.7033629307728937"><ele>1058.0</ele><time>2026-04-26T15:12:30Z</time></trkpt><trkpt lat="45.26504689956138" lon="3.7035466769194905"><ele>1057.5</ele><time>2026-04-26T15:12:31Z</time></trkpt><trkpt lat="45.264952741331896" lon="3.7036672369373123"><ele>1057.0</ele><time>2026-04-26T15:12:32Z</time></trkpt><trkpt lat="45.26483444619199" lon="3.703793925836653"><ele>1056.5</ele><time>2026-04-26T15:12:33Z</time></trkpt><trkpt lat="45.264685609214176" lon="3.703889497177224"><ele>1056.0</ele><time>2026-04-26T15:12:34Z</time></trkpt><trkpt lat="45.26461321150497" lon="3.7038255596383385"><ele>1056.0</ele><time>2026-04-26T15:12:35Z</time></trkpt><trkpt lat="45.26446986100973" lon="3.7039148920422553"><ele>1056.0</ele><time>2026-04-26T15:12:36Z</time></trkpt><trkpt lat="45.26428459490801" lon="3.704567754340136"><ele>1058.3333333333333</ele><time>2026-04-26T15:12:37Z</time></trkpt><trkpt lat="45.26415602040545" lon="3.7046990079657025"><ele>1060.6666666666665</ele><time>2026-04-26T15:12:38Z</time></trkpt><trkpt lat="45.26401674014691" lon="3.7048108301534697"><ele>1063.0</ele><time>2026-04-26T15:12:39Z</time></trkpt><trkpt lat="45.26387026268806" lon="3.7049099405204053"><ele>1063.6666666666665</ele><time>2026-04-26T15:12:40Z</time></trkpt><trkpt lat="45.26371444924155" lon="3.7050364462443883"><ele>1064.3333333333333</ele><time>2026-04-26T15:12:41Z</time></trkpt><trkpt lat="45.26358158872416" lon="3.705168623584595"><ele>1065.0</ele><time>2026-04-26T15:12:42Z</time></trkpt><trkpt lat="45.26344286769132" lon="3.7053423122945355"><ele>1066.6666666666667</ele><time>2026-04-26T15:12:43Z</time></trkpt><trkpt lat="45.26329735282112" lon="3.7055339502204085"><ele>1068.3333333333335</ele><time>2026-04-26T15:12:44Z</time></trkpt><trkpt lat="45.26313999830436" lon="3.705717156406458"><ele>1070.0</ele><time>2026-04-26T15:12:45Z</time></trkpt><trkpt lat="45.26299616444816" lon="3.705892006194279"><ele>1072.0</ele><time>2026-04-26T15:12:46Z</time></trkpt><trkpt lat="45.26284852342636" lon="3.706064639637313"><ele>1074.0</ele><time>2026-04-26T15:12:47Z</time></trkpt><trkpt lat="45.26273085192165" lon="3.706231082204011"><ele>1076.0</ele><time>2026-04-26T15:12:48Z</time></trkpt><trkpt lat="45.262631010992735" lon="3.706391809170886"><ele>1077.6</ele><time>2026-04-26T15:12:49Z</time></trkpt><trkpt lat="45.26255426048589" lon="3.7065088792330214"><ele>1079.1999999999998</ele><time>2026-04-26T15:12:50Z</time></trkpt><trkpt lat="45.26247249712965" lon="3.706628677573086"><ele>1080.8000000000002</ele><time>2026-04-26T15:12:52Z</time></trkpt><trkpt lat="45.262440815151635" lon="3.70672299599954"><ele>1082.4</ele><time>2026-04-26T15:12:54Z</time></trkpt><trkpt lat="45.26247807438454" lon="3.7068371302396432"><ele>1084.0</ele><time>2026-04-26T15:12:56Z</time></trkpt><trkpt lat="45.2625369438555" lon="3.706915219905239"><ele>1084.8333333333333</ele><time>2026-04-26T15:12:57Z</time></trkpt><trkpt lat="45.26261413702605" lon="3.7069822053636656"><ele>1085.6666666666665</ele><time>2026-04-26T15:12:58Z</time></trkpt><trkpt lat="45.262697730914944" lon="3.7070426519402417"><ele>1086.5</ele><time>2026-04-26T15:12:59Z</time></trkpt><trkpt lat="45.26276431716093" lon="3.7070856415916684"><ele>1087.3333333333333</ele><time>2026-04-26T15:13:00Z</time></trkpt><trkpt lat="45.26287643850578" lon="3.7071410941972673"><ele>1088.1666666666667</ele><time>2026-04-26T15:13:02Z</time></trkpt><trkpt lat="45.262947098261094" lon="3.7071592957471866"><ele>1089.0</ele><time>2026-04-26T15:13:03Z</time></trkpt><trkpt lat="45.26304119035014" lon="3.707192844189912"><ele>1087.0</ele><time>2026-04-26T15:13:04Z</time></trkpt><trkpt lat="45.263165796511075" lon="3.707226224174423"><ele>1085.0</ele><time>2026-04-26T15:13:05Z</time></trkpt><trkpt lat="45.263326023459406" lon="3.7072844554636926"><ele>1083.0</ele><time>2026-04-26T15:13:06Z</time></trkpt><trkpt lat="45.26348773643921" lon="3.7073758551087503"><ele>1083.0</ele><time>2026-04-26T15:13:07Z</time></trkpt><trkpt lat="45.26364481754501" lon="3.7075179658277997"><ele>1083.0</ele><time>2026-04-26T15:13:08Z</time></trkpt><trkpt lat="45.263763165334446" lon="3.707643710681093"><ele>1083.0</ele><time>2026-04-26T15:13:09Z</time></trkpt><trkpt lat="45.26385033202303" lon="3.707744382393849"><ele>1083.0</ele><time>2026-04-26T15:13:10Z</time></trkpt><trkpt lat="45.26390235490463" lon="3.707876039501953"><ele>1084.0</ele><time>2026-04-26T15:13:11Z</time></trkpt><trkpt lat="45.26391842691661" lon="3.708020378693992"><ele>1085.0</ele><time>2026-04-26T15:13:12Z</time></trkpt><trkpt lat="45.26392452340147" lon="3.7081731362089223"><ele>1086.0</ele><time>2026-04-26T15:13:13Z</time></trkpt><trkpt lat="45.263915780906316" lon="3.708309350811111"><ele>1087.0</ele><time>2026-04-26T15:13:14Z</time></trkpt><trkpt lat="45.26390071095427" lon="3.708421603789491"><ele>1088.0</ele><time>2026-04-26T15:13:15Z</time></trkpt><trkpt lat="45.26386873591234" lon="3.708590315351492"><ele>1088.1666666666667</ele><time>2026-04-26T15:13:17Z</time></trkpt><trkpt lat="45.26385157685117" lon="3.708679923460682"><ele>1088.3333333333335</ele><time>2026-04-26T15:13:18Z</time></trkpt><trkpt lat="45.26382152298688" lon="3.708789483883196"><ele>1088.5</ele><time>2026-04-26T15:13:19Z</time></trkpt><trkpt lat="45.26376855106215" lon="3.7088960425816935"><ele>1088.6666666666667</ele><time>2026-04-26T15:13:20Z</time></trkpt><trkpt lat="45.26374792815846" lon="3.7090266982254487"><ele>1088.8333333333333</ele><time>2026-04-26T15:13:21Z</time></trkpt><trkpt lat="45.26371883718653" lon="3.709151013747677"><ele>1089.0</ele><time>2026-04-26T15:13:22Z</time></trkpt><trkpt lat="45.26371923103793" lon="3.7092921876989364"><ele>1089.0</ele><time>2026-04-26T15:13:23Z</time></trkpt><trkpt lat="45.2637567194968" lon="3.7094522274804262"><ele>1089.0</ele><time>2026-04-26T15:13:24Z</time></trkpt><trkpt lat="45.26378944583892" lon="3.7095861244729127"><ele>1089.0</ele><time>2026-04-26T15:13:25Z</time></trkpt><trkpt lat="45.263854816256774" lon="3.7098054210022555"><ele>1089.0</ele><time>2026-04-26T15:13:26Z</time></trkpt><trkpt lat="45.263913757674885" lon="3.70999168697648"><ele>1089.0</ele><time>2026-04-26T15:13:27Z</time></trkpt><trkpt lat="45.26392690750531" lon="3.7101628342146364"><ele>1089.0</ele><time>2026-04-26T15:13:28Z</time></trkpt><trkpt lat="45.26393246089144" lon="3.7103153922319096"><ele>1089.0</ele><time>2026-04-26T15:13:29Z</time></trkpt><trkpt lat="45.26391612015794" lon="3.710455034439557"><ele>1089.0</ele><time>2026-04-26T15:13:30Z</time></trkpt><trkpt lat="45.26388717582048" lon="3.710571296306477"><ele>1089.0</ele><time>2026-04-26T15:13:31Z</time></trkpt><trkpt lat="45.2638395335107" lon="3.7106631206636447"><ele>1088.4</ele><time>2026-04-26T15:13:32Z</time></trkpt><trkpt lat="45.26377869890567" lon="3.710712863425526"><ele>1087.8000000000002</ele><time>2026-04-26T15:13:33Z</time></trkpt><trkpt lat="45.263732482411285" lon="3.7107900303472436"><ele>1087.1999999999998</ele><time>2026-04-26T15:13:35Z</time></trkpt><trkpt lat="45.263868615419035" lon="3.7109717179278454"><ele>1086.6</ele><time>2026-04-26T15:13:37Z</time></trkpt><trkpt lat="45.2639559195509" lon="3.7110523167809517"><ele>1086.0</ele><time>2026-04-26T15:13:38Z</time></trkpt><trkpt lat="45.26406590910113" lon="3.711151200607063"><ele>1086.0</ele><time>2026-04-26T15:13:39Z</time></trkpt><trkpt lat="45.26419085448402" lon="3.7112715567489496"><ele>1086.0</ele><time>2026-04-26T15:13:40Z</time></trkpt><trkpt lat="45.26433201797923" lon="3.7114109179887387"><ele>1086.0</ele><time>2026-04-26T15:13:41Z</time></trkpt><trkpt lat="45.26448846625557" lon="3.7115746593879853"><ele>1086.0</ele><time>2026-04-26T15:13:42Z</time></trkpt><trkpt lat="45.26463283059737" lon="3.7117098563253266"><ele>1086.0</ele><time>2026-04-26T15:13:43Z</time></trkpt><trkpt lat="45.264782745786626" lon="3.7118229787830397"><ele>1086.0</ele><time>2026-04-26T15:13:44Z</time></trkpt><trkpt lat="45.26493823428776" lon="3.711904907534622"><ele>1087.3333333333333</ele><time>2026-04-26T15:13:45Z</time></trkpt><trkpt lat="45.26508790749612" lon="3.712011588253938"><ele>1088.6666666666665</ele><time>2026-04-26T15:13:46Z</time></trkpt><trkpt lat="45.265230053873026" lon="3.712135210837027"><ele>1090.0</ele><time>2026-04-26T15:13:47Z</time></trkpt><trkpt lat="45.26536158216522" lon="3.7122517114513474"><ele>1090.0</ele><time>2026-04-26T15:13:48Z</time></trkpt><trkpt lat="45.265469857174914" lon="3.712381422658693"><ele>1090.0</ele><time>2026-04-26T15:13:49Z</time></trkpt><trkpt lat="45.26555988260484" lon="3.712508842962794"><ele>1090.0</ele><time>2026-04-26T15:13:50Z</time></trkpt><trkpt lat="45.26564861998287" lon="3.7126166868056028"><ele>1090.0</ele><time>2026-04-26T15:13:51Z</time></trkpt><trkpt lat="45.26572982134266" lon="3.712725373454542"><ele>1089.0</ele><time>2026-04-26T15:13:52Z</time></trkpt><trkpt lat="45.26581804276189" lon="3.712821850135665"><ele>1088.0</ele><time>2026-04-26T15:13:53Z</time></trkpt><trkpt lat="45.265909544500836" lon="3.7129260078168684"><ele>1087.0</ele><time>2026-04-26T15:13:54Z</time></trkpt><trkpt lat="45.26599937504052" lon="3.713006124981731"><ele>1086.0</ele><time>2026-04-26T15:13:55Z</time></trkpt><trkpt lat="45.266090134957885" lon="3.7130693377523363"><ele>1085.0</ele><time>2026-04-26T15:13:56Z</time></trkpt><trkpt lat="45.2661911590174" lon="3.713145491180805"><ele>1085.0</ele><time>2026-04-26T15:13:57Z</time></trkpt><trkpt lat="45.26628035856666" lon="3.7132233469850293"><ele>1085.0</ele><time>2026-04-26T15:13:58Z</time></trkpt><trkpt lat="45.26636486011645" lon="3.713292951717981"><ele>1085.0</ele><time>2026-04-26T15:13:59Z</time></trkpt><trkpt lat="45.26643101084112" lon="3.7133379143208134"><ele>1085.0</ele><time>2026-04-26T15:14:00Z</time></trkpt><trkpt lat="45.26654188884542" lon="3.713389689431588"><ele>1085.0</ele><time>2026-04-26T15:14:02Z</time></trkpt><trkpt lat="45.266655818030806" lon="3.7133297354845225"><ele>1083.8333333333335</ele><time>2026-04-26T15:14:04Z</time></trkpt><trkpt lat="45.266723846497975" lon="3.7132840894648065"><ele>1082.6666666666667</ele><time>2026-04-26T15:14:05Z</time></trkpt><trkpt lat="45.26678581944467" lon="3.7133228944848624"><ele>1081.5</ele><time>2026-04-26T15:14:08Z</time></trkpt><trkpt lat="45.2668086680149" lon="3.713447807908307"><ele>1080.3333333333333</ele><time>2026-04-26T15:14:11Z</time></trkpt><trkpt lat="45.26682253045163" lon="3.7135394114235947"><ele>1079.1666666666665</ele><time>2026-04-26T15:14:13Z</time></trkpt><trkpt lat="45.26686931609363" lon="3.7136938951408416"><ele>1078.0</ele><time>2026-04-26T15:14:15Z</time></trkpt><trkpt lat="45.26687980181745" lon="3.713883424453808"><ele>1077.75</ele><time>2026-04-26T15:14:17Z</time></trkpt><trkpt lat="45.26686447005494" lon="3.714062835689014"><ele>1077.5</ele><time>2026-04-26T15:14:18Z</time></trkpt><trkpt lat="45.26685362283677" lon="3.714221813745149"><ele>1077.25</ele><time>2026-04-26T15:14:19Z</time></trkpt><trkpt lat="45.266865417558535" lon="3.7143772956200594"><ele>1077.0</ele><time>2026-04-26T15:14:20Z</time></trkpt><trkpt lat="45.266860826604756" lon="3.714536736449948"><ele>1076.1666666666667</ele><time>2026-04-26T15:14:22Z</time></trkpt><trkpt lat="45.2668597170125" lon="3.714627458832659"><ele>1075.3333333333333</ele><time>2026-04-26T15:14:24Z</time></trkpt><trkpt lat="45.266918245425934" lon="3.714671552982431"><ele>1074.5</ele><time>2026-04-26T15:14:55Z</time></trkpt><trkpt lat="45.26699402713624" lon="3.7146048296560297"><ele>1073.6666666666665</ele><time>2026-04-26T15:14:56Z</time></trkpt><trkpt lat="45.26708496898021" lon="3.714570640754645"><ele>1072.8333333333333</ele><time>2026-04-26T15:14:57Z</time></trkpt><trkpt lat="45.26720083935287" lon="3.714548452201567"><ele>1072.0</ele><time>2026-04-26T15:14:58Z</time></trkpt><trkpt lat="45.26734101685415" lon="3.71454101925587"><ele>1069.6666666666665</ele><time>2026-04-26T15:14:59Z</time></trkpt><trkpt lat="45.267502110904445" lon="3.7145408039944394"><ele>1067.3333333333333</ele><time>2026-04-26T15:15:00Z</time></trkpt><trkpt lat="45.267691965019324" lon="3.714538625100871"><ele>1065.0</ele><time>2026-04-26T15:15:01Z</time></trkpt><trkpt lat="45.26786731610772" lon="3.714534912052029"><ele>1065.0</ele><time>2026-04-26T15:15:02Z</time></trkpt><trkpt lat="45.26803886708056" lon="3.7145967211015183"><ele>1065.0</ele><time>2026-04-26T15:15:03Z</time></trkpt><trkpt lat="45.26822407120395" lon="3.7146651918590283"><ele>1065.0</ele><time>2026-04-26T15:15:04Z</time></trkpt><trkpt lat="45.26843567905838" lon="3.7147452833630674"><ele>1066.0</ele><time>2026-04-26T15:15:05Z</time></trkpt><trkpt lat="45.26864297634487" lon="3.7148415022043757"><ele>1067.0</ele><time>2026-04-26T15:15:06Z</time></trkpt><trkpt lat="45.26882997322177" lon="3.714941589586725"><ele>1068.0</ele><time>2026-04-26T15:15:07Z</time></trkpt><trkpt lat="45.26897579580459" lon="3.7150691289248803"><ele>1069.0</ele><time>2026-04-26T15:15:08Z</time></trkpt><trkpt lat="45.26910459980535" lon="3.7151887061762694"><ele>1070.0</ele><time>2026-04-26T15:15:09Z</time></trkpt><trkpt lat="45.26922794160814" lon="3.715299064216894"><ele>1071.0</ele><time>2026-04-26T15:15:10Z</time></trkpt><trkpt lat="45.26934024682338" lon="3.7154159153160364"><ele>1072.0</ele><time>2026-04-26T15:15:11Z</time></trkpt><trkpt lat="45.26944208896159" lon="3.7155383503428845"><ele>1072.0</ele><time>2026-04-26T15:15:12Z</time></trkpt><trkpt lat="45.26955792651588" lon="3.71569672487894"><ele>1072.0</ele><time>2026-04-26T15:15:13Z</time></trkpt><trkpt lat="45.26968398742473" lon="3.7158735539891756"><ele>1072.0</ele><time>2026-04-26T15:15:14Z</time></trkpt><trkpt lat="45.26984818323421" lon="3.7160534102338283"><ele>1072.3333333333333</ele><time>2026-04-26T15:15:15Z</time></trkpt><trkpt lat="45.2699860223119" lon="3.716211001504402"><ele>1072.6666666666667</ele><time>2026-04-26T15:15:16Z</time></trkpt><trkpt lat="45.27010348600662" lon="3.716359807428945"><ele>1073.0</ele><time>2026-04-26T15:15:17Z</time></trkpt><trkpt lat="45.270206864019435" lon="3.7164658625052116"><ele>1073.0</ele><time>2026-04-26T15:15:18Z</time></trkpt><trkpt lat="45.270260666665514" lon="3.716549886522805"><ele>1073.0</ele><time>2026-04-26T15:15:19Z</time></trkpt><trkpt lat="45.270307998495305" lon="3.71662192529249"><ele>1073.0</ele><time>2026-04-26T15:15:20Z</time></trkpt><trkpt lat="45.27039038373388" lon="3.7167226451148476"><ele>1073.0</ele><time>2026-04-26T15:15:22Z</time></trkpt><trkpt lat="45.2704795368583" lon="3.7168474363118467"><ele>1073.0</ele><time>2026-04-26T15:15:24Z</time></trkpt><trkpt lat="45.270545033810784" lon="3.7169356374515217"><ele>1072.0</ele><time>2026-04-26T15:15:26Z</time></trkpt><trkpt lat="45.27064793745651" lon="3.7170561579500974"><ele>1071.0</ele><time>2026-04-26T15:16:32Z</time></trkpt><trkpt lat="45.2707455580367" lon="3.7171700975846935"><ele>1070.0</ele><time>2026-04-26T15:16:33Z</time></trkpt><trkpt lat="45.27086561989933" lon="3.7173029531417687"><ele>1069.0</ele><time>2026-04-26T15:16:34Z</time></trkpt><trkpt lat="45.27100029843813" lon="3.7174362981373874"><ele>1069.0</ele><time>2026-04-26T15:16:35Z</time></trkpt><trkpt lat="45.27113989394908" lon="3.7175533978380186"><ele>1069.0</ele><time>2026-04-26T15:16:36Z</time></trkpt><trkpt lat="45.27128270332049" lon="3.7176431824422624"><ele>1069.0</ele><time>2026-04-26T15:16:37Z</time></trkpt><trkpt lat="45.27139756577899" lon="3.717733998480214"><ele>1070.0</ele><time>2026-04-26T15:16:38Z</time></trkpt><trkpt lat="45.271502068669996" lon="3.7178212878553185"><ele>1071.0</ele><time>2026-04-26T15:16:39Z</time></trkpt><trkpt lat="45.271565889863226" lon="3.717939027904878"><ele>1072.0</ele><time>2026-04-26T15:16:40Z</time></trkpt><trkpt lat="45.271655048436934" lon="3.7180405897546067"><ele>1073.0</ele><time>2026-04-26T15:16:41Z</time></trkpt><trkpt lat="45.271714055058546" lon="3.7180908799482557"><ele>1074.0</ele><time>2026-04-26T15:16:43Z</time></trkpt><trkpt lat="45.27176388575156" lon="3.7182089955215436"><ele>1074.0</ele><time>2026-04-26T15:17:01Z</time></trkpt><trkpt lat="45.2715795188412" lon="3.7183993047383996"><ele>1074.0</ele><time>2026-04-26T15:17:02Z</time></trkpt><trkpt lat="45.27153887360826" lon="3.7184884553436843"><ele>1074.0</ele><time>2026-04-26T15:17:04Z</time></trkpt><trkpt lat="45.271497121359104" lon="3.718599545723396"><ele>1074.0</ele><time>2026-04-26T15:17:25Z</time></trkpt><trkpt lat="45.271439794735464" lon="3.7187062985777914"><ele>1075.8</ele><time>2026-04-26T15:17:59Z</time></trkpt><trkpt lat="45.271393902589466" lon="3.718785776080979"><ele>1077.6000000000001</ele><time>2026-04-26T15:18:00Z</time></trkpt><trkpt lat="45.27132368819405" lon="3.7188853387955882"><ele>1079.4</ele><time>2026-04-26T15:18:01Z</time></trkpt><trkpt lat="45.27123001604614" lon="3.7190026045500275"><ele>1081.2</ele><time>2026-04-26T15:18:02Z</time></trkpt><trkpt lat="45.27115822671241" lon="3.7191176156567805"><ele>1083.0</ele><time>2026-04-26T15:18:03Z</time></trkpt><trkpt lat="45.2710949848514" lon="3.719227639800546"><ele>1083.0</ele><time>2026-04-26T15:18:04Z</time></trkpt><trkpt lat="45.27102726965448" lon="3.7193432225513328"><ele>1083.0</ele><time>2026-04-26T15:18:05Z</time></trkpt><trkpt lat="45.27092394944994" lon="3.7194502582278273"><ele>1083.0</ele><time>2026-04-26T15:18:06Z</time></trkpt><trkpt lat="45.27085528524983" lon="3.719551657208165"><ele>1083.0</ele><time>2026-04-26T15:18:07Z</time></trkpt><trkpt lat="45.270795336496015" lon="3.7195924670162275"><ele>1083.0</ele><time>2026-04-26T15:18:08Z</time></trkpt><trkpt lat="45.27071719645513" lon="3.7196468610401565"><ele>1084.5</ele><time>2026-04-26T15:18:10Z</time></trkpt><trkpt lat="45.27064280707973" lon="3.7197205131415108"><ele>1086.0</ele><time>2026-04-26T15:18:11Z</time></trkpt><trkpt lat="45.27058709235292" lon="3.7197679066682445"><ele>1087.5</ele><time>2026-04-26T15:18:12Z</time></trkpt><trkpt lat="45.27048886568218" lon="3.71984529009878"><ele>1089.0</ele><time>2026-04-26T15:18:14Z</time></trkpt><trkpt lat="45.27043136928918" lon="3.7199006396899117"><ele>1090.5</ele><time>2026-04-26T15:18:15Z</time></trkpt><trkpt lat="45.270369073669755" lon="3.7199501415975473"><ele>1092.0</ele><time>2026-04-26T15:18:16Z</time></trkpt><trkpt lat="45.27029649147819" lon="3.7199908538656894"><ele>1092.0</ele><time>2026-04-26T15:18:17Z</time></trkpt><trkpt lat="45.27019636444588" lon="3.7200583989379266"><ele>1092.0</ele><time>2026-04-26T15:18:18Z</time></trkpt><trkpt lat="45.270110861705945" lon="3.720130678291744"><ele>1092.0</ele><time>2026-04-26T15:18:19Z</time></trkpt><trkpt lat="45.27000585032557" lon="3.720218239486055"><ele>1092.0</ele><time>2026-04-26T15:18:20Z</time></trkpt><trkpt lat="45.26992925135035" lon="3.7202822940657234"><ele>1092.0</ele><time>2026-04-26T15:18:21Z</time></trkpt><trkpt lat="45.26985070143226" lon="3.7203426661882926"><ele>1092.6</ele><time>2026-04-26T15:18:22Z</time></trkpt><trkpt lat="45.26978732178967" lon="3.7204205518682283"><ele>1093.2</ele><time>2026-04-26T15:18:23Z</time></trkpt><trkpt lat="45.269711663507415" lon="3.720486165171405"><ele>1093.8</ele><time>2026-04-26T15:18:24Z</time></trkpt><trkpt lat="45.26965243133214" lon="3.72054340627179"><ele>1094.4</ele><time>2026-04-26T15:18:25Z</time></trkpt><trkpt lat="45.269540114292624" lon="3.720632167634573"><ele>1095.0</ele><time>2026-04-26T15:18:27Z</time></trkpt><trkpt lat="45.26945628904209" lon="3.720708458685315"><ele>1095.0</ele><time>2026-04-26T15:18:28Z</time></trkpt><trkpt lat="45.26939544063423" lon="3.720768556731997"><ele>1095.0</ele><time>2026-04-26T15:18:29Z</time></trkpt><trkpt lat="45.26931648398725" lon="3.720874577571708"><ele>1095.0</ele><time>2026-04-26T15:18:31Z</time></trkpt><trkpt lat="45.269194677536944" lon="3.720999702487914"><ele>1095.0</ele><time>2026-04-26T15:18:33Z</time></trkpt><trkpt lat="45.26912069573708" lon="3.721055389895762"><ele>1095.0</ele><time>2026-04-26T15:18:34Z</time></trkpt><trkpt lat="45.26907581833412" lon="3.7211428520335623"><ele>1095.4</ele><time>2026-04-26T15:18:35Z</time></trkpt><trkpt lat="45.268986493827285" lon="3.721222728566782"><ele>1095.8</ele><time>2026-04-26T15:18:36Z</time></trkpt><trkpt lat="45.26893732062644" lon="3.7212916576432047"><ele>1096.2</ele><time>2026-04-26T15:18:37Z</time></trkpt><trkpt lat="45.26887369282718" lon="3.7213222355888274"><ele>1096.6</ele><time>2026-04-26T15:18:38Z</time></trkpt><trkpt lat="45.26878971543466" lon="3.7214511088887865"><ele>1097.0</ele><time>2026-04-26T15:18:40Z</time></trkpt><trkpt lat="45.26874925710663" lon="3.72159116267245"><ele>1097.0</ele><time>2026-04-26T15:18:42Z</time></trkpt><trkpt lat="45.268753383134786" lon="3.721737862211331"><ele>1097.0</ele><time>2026-04-26T15:18:44Z</time></trkpt><trkpt lat="45.268770073128195" lon="3.7218259005318135"><ele>1097.0</ele><time>2026-04-26T15:18:45Z</time></trkpt><trkpt lat="45.2687706711878" lon="3.721927228140526"><ele>1097.0</ele><time>2026-04-26T15:18:46Z</time></trkpt><trkpt lat="45.26876317550444" lon="3.7220406166601454"><ele>1097.0</ele><time>2026-04-26T15:18:47Z</time></trkpt><trkpt lat="45.26875635722888" lon="3.7221806749738664"><ele>1097.0</ele><time>2026-04-26T15:18:48Z</time></trkpt><trkpt lat="45.26875360640063" lon="3.7222884622743484"><ele>1097.3333333333335</ele><time>2026-04-26T15:18:49Z</time></trkpt><trkpt lat="45.268761146642284" lon="3.7223778869290896"><ele>1097.6666666666667</ele><time>2026-04-26T15:18:50Z</time></trkpt><trkpt lat="45.26877078056864" lon="3.722507320707569"><ele>1098.0</ele><time>2026-04-26T15:18:52Z</time></trkpt><trkpt lat="45.268792577483495" lon="3.722637395814262"><ele>1098.3333333333333</ele><time>2026-04-26T15:19:03Z</time></trkpt><trkpt lat="45.26883202420418" lon="3.7227185920980825"><ele>1098.6666666666665</ele><time>2026-04-26T15:19:07Z</time></trkpt><trkpt lat="45.2688398212848" lon="3.722824345743611"><ele>1099.0</ele><time>2026-04-26T15:19:11Z</time></trkpt><trkpt lat="45.26886136069637" lon="3.7229105937940274"><ele>1099.1666666666665</ele><time>2026-04-26T15:19:48Z</time></trkpt><trkpt lat="45.268866342499365" lon="3.7230939335927533"><ele>1099.3333333333333</ele><time>2026-04-26T15:19:50Z</time></trkpt><trkpt lat="45.268874423606746" lon="3.7232029743624016"><ele>1099.5</ele><time>2026-04-26T15:19:51Z</time></trkpt><trkpt lat="45.26887726300294" lon="3.7233089448247725"><ele>1099.6666666666667</ele><time>2026-04-26T15:19:52Z</time></trkpt><trkpt lat="45.26888055876204" lon="3.7234044057199083"><ele>1099.8333333333335</ele><time>2026-04-26T15:19:53Z</time></trkpt><trkpt lat="45.26886520858109" lon="3.7234941495382103"><ele>1100.0</ele><time>2026-04-26T15:19:54Z</time></trkpt><trkpt lat="45.26885026249711" lon="3.723586255584929"><ele>1097.5</ele><time>2026-04-26T15:19:55Z</time></trkpt><trkpt lat="45.26883602179899" lon="3.7236744253734777"><ele>1095.0</ele><time>2026-04-26T15:19:56Z</time></trkpt><trkpt lat="45.26881744936014" lon="3.7237693689849007"><ele>1092.5</ele><time>2026-04-26T15:19:57Z</time></trkpt><trkpt lat="45.26880293281169" lon="3.7238701876884672"><ele>1090.0</ele><time>2026-04-26T15:19:58Z</time></trkpt><trkpt lat="45.26877426569188" lon="3.7240159473805514"><ele>1087.5</ele><time>2026-04-26T15:20:00Z</time></trkpt><trkpt lat="45.26870947426976" lon="3.724068675035556"><ele>1085.0</ele><time>2026-04-26T15:20:02Z</time></trkpt><trkpt lat="45.26863071116613" lon="3.7240648372417753"><ele>1085.0</ele><time>2026-04-26T15:20:04Z</time></trkpt><trkpt lat="45.268562355711076" lon="3.7240445989033706"><ele>1085.0</ele><time>2026-04-26T15:20:05Z</time></trkpt><trkpt lat="45.26848923848707" lon="3.7240235696052415"><ele>1085.0</ele><time>2026-04-26T15:20:06Z</time></trkpt><trkpt lat="45.26840096004625" lon="3.7239979204984093"><ele>1085.0</ele><time>2026-04-26T15:20:08Z</time></trkpt><trkpt lat="45.26833062429679" lon="3.7240891549243718"><ele>1085.0</ele><time>2026-04-26T15:20:12Z</time></trkpt><trkpt lat="45.26831549016996" lon="3.724213312820924"><ele>1085.0</ele><time>2026-04-26T15:20:18Z</time></trkpt><trkpt lat="45.26840990549168" lon="3.724313342098127"><ele>1085.0</ele><time>2026-04-26T15:20:21Z</time></trkpt><trkpt lat="45.26847333970432" lon="3.72437928580471"><ele>1085.0</ele><time>2026-04-26T15:20:22Z</time></trkpt><trkpt lat="45.2685430493264" lon="3.7244500017788766"><ele>1085.0</ele><time>2026-04-26T15:20:23Z</time></trkpt><trkpt lat="45.26859971385405" lon="3.7245115309608092"><ele>1085.0</ele><time>2026-04-26T15:20:24Z</time></trkpt><trkpt lat="45.26868804384774" lon="3.7245993683836396"><ele>1085.0</ele><time>2026-04-26T15:20:26Z</time></trkpt><trkpt lat="45.26873810154571" lon="3.72469044532997"><ele>1085.0</ele><time>2026-04-26T15:20:28Z</time></trkpt><trkpt lat="45.268733986389094" lon="3.7248701158650435"><ele>1081.6666666666667</ele><time>2026-04-26T15:20:30Z</time></trkpt><trkpt lat="45.26872105132026" lon="3.724972473272017"><ele>1078.3333333333335</ele><time>2026-04-26T15:20:31Z</time></trkpt><trkpt lat="45.26870647812355" lon="3.725080163267357"><ele>1075.0</ele><time>2026-04-26T15:20:32Z</time></trkpt><trkpt lat="45.2686937679477" lon="3.7252022883711167"><ele>1071.6666666666667</ele><time>2026-04-26T15:20:33Z</time></trkpt><trkpt lat="45.26869363787305" lon="3.7253207524081398"><ele>1068.3333333333333</ele><time>2026-04-26T15:20:34Z</time></trkpt><trkpt lat="45.26868406827137" lon="3.72543889697816"><ele>1065.0</ele><time>2026-04-26T15:20:35Z</time></trkpt><trkpt lat="45.26867452811099" lon="3.7255476123638243"><ele>1063.5</ele><time>2026-04-26T15:20:36Z</time></trkpt><trkpt lat="45.26866754971482" lon="3.725653304822238"><ele>1062.0</ele><time>2026-04-26T15:20:37Z</time></trkpt><trkpt lat="45.268658630271915" lon="3.725760376964227"><ele>1060.5</ele><time>2026-04-26T15:20:38Z</time></trkpt><trkpt lat="45.26864821848944" lon="3.725865609179497"><ele>1059.0</ele><time>2026-04-26T15:20:39Z</time></trkpt><trkpt lat="45.26863927436824" lon="3.7259652011694295"><ele>1057.5</ele><time>2026-04-26T15:20:40Z</time></trkpt><trkpt lat="45.2686348304081" lon="3.726140174010848"><ele>1056.0</ele><time>2026-04-26T15:20:42Z</time></trkpt><trkpt lat="45.268653758280834" lon="3.726280637309012"><ele>1055.6666666666667</ele><time>2026-04-26T15:20:44Z</time></trkpt><trkpt lat="45.268678248099555" lon="3.7264127525858624"><ele>1055.3333333333333</ele><time>2026-04-26T15:20:46Z</time></trkpt><trkpt lat="45.26868758904523" lon="3.7265321286145463"><ele>1055.0</ele><time>2026-04-26T15:20:48Z</time></trkpt><trkpt lat="45.268699270174075" lon="3.7266552600496445"><ele>1054.6666666666665</ele><time>2026-04-26T15:20:50Z</time></trkpt><trkpt lat="45.26868378904191" lon="3.726765886843374"><ele>1054.3333333333333</ele><time>2026-04-26T15:20:52Z</time></trkpt><trkpt lat="45.26864718245834" lon="3.7268408091317777"><ele>1054.0</ele><time>2026-04-26T15:20:54Z</time></trkpt><trkpt lat="45.26861356778076" lon="3.726941608069035"><ele>1053.8</ele><time>2026-04-26T15:20:59Z</time></trkpt><trkpt lat="45.26868081318297" lon="3.7270053384485786"><ele>1053.6000000000001</ele><time>2026-04-26T15:21:04Z</time></trkpt><trkpt lat="45.268746093252695" lon="3.727024751464275"><ele>1053.4</ele><time>2026-04-26T15:21:06Z</time></trkpt><trkpt lat="45.26881321718159" lon="3.727066520797264"><ele>1053.2</ele><time>2026-04-26T15:21:08Z</time></trkpt><trkpt lat="45.26891594172631" lon="3.7271602022757317"><ele>1053.0</ele><time>2026-04-26T15:21:10Z</time></trkpt><trkpt lat="45.26903322046086" lon="3.7272341909780016"><ele>1053.0</ele><time>2026-04-26T15:21:12Z</time></trkpt><trkpt lat="45.26910538612858" lon="3.727290071983846"><ele>1053.0</ele><time>2026-04-26T15:21:13Z</time></trkpt><trkpt lat="45.26916822574799" lon="3.7273411104043204"><ele>1053.0</ele><time>2026-04-26T15:21:14Z</time></trkpt><trkpt lat="45.269238269407204" lon="3.727386705068956"><ele>1053.0</ele><time>2026-04-26T15:21:15Z</time></trkpt><trkpt lat="45.26931101551816" lon="3.727435916450949"><ele>1053.0</ele><time>2026-04-26T15:21:16Z</time></trkpt><trkpt lat="45.2693801004181" lon="3.7274766809253372"><ele>1053.0</ele><time>2026-04-26T15:21:17Z</time></trkpt><trkpt lat="45.26944985237939" lon="3.727504507412704"><ele>1053.0</ele><time>2026-04-26T15:21:18Z</time></trkpt><trkpt lat="45.269516189800555" lon="3.7275423623610617"><ele>1053.0</ele><time>2026-04-26T15:21:19Z</time></trkpt><trkpt lat="45.269633622499384" lon="3.7275813810031324"><ele>1053.0</ele><time>2026-04-26T15:21:21Z</time></trkpt><trkpt lat="45.26974784098624" lon="3.7276269653879375"><ele>1053.0</ele><time>2026-04-26T15:21:23Z</time></trkpt><trkpt lat="45.26986381602543" lon="3.7276651818759308"><ele>1053.0</ele><time>2026-04-26T15:21:25Z</time></trkpt><trkpt lat="45.26998893183408" lon="3.7276840979437336"><ele>1052.8</ele><time>2026-04-26T15:21:27Z</time></trkpt><trkpt lat="45.2700622112476" lon="3.7277135744905285"><ele>1052.6</ele><time>2026-04-26T15:21:28Z</time></trkpt><trkpt lat="45.27018948458151" lon="3.7277536705700425"><ele>1052.4</ele><time>2026-04-26T15:21:29Z</time></trkpt><trkpt lat="45.27029221564171" lon="3.727794826498602"><ele>1052.2</ele><time>2026-04-26T15:21:30Z</time></trkpt><trkpt lat="45.27039405534745" lon="3.7278518268267455"><ele>1052.0</ele><time>2026-04-26T15:21:31Z</time></trkpt><trkpt lat="45.270492247755755" lon="3.727925964805459"><ele>1052.0</ele><time>2026-04-26T15:21:32Z</time></trkpt><trkpt lat="45.27055560736665" lon="3.7279836614575355"><ele>1052.0</ele><time>2026-04-26T15:21:33Z</time></trkpt><trkpt lat="45.27059328983075" lon="3.7280735522945174"><ele>1052.0</ele><time>2026-04-26T15:21:34Z</time></trkpt><trkpt lat="45.27060911967031" lon="3.7281976390295797"><ele>1052.0</ele><time>2026-04-26T15:21:35Z</time></trkpt><trkpt lat="45.27063855576893" lon="3.728393945441894"><ele>1052.0</ele><time>2026-04-26T15:21:36Z</time></trkpt><trkpt lat="45.270678965017034" lon="3.7285985101903045"><ele>1053.25</ele><time>2026-04-26T15:21:37Z</time></trkpt><trkpt lat="45.27072165474881" lon="3.7287566968435137"><ele>1054.5</ele><time>2026-04-26T15:21:38Z</time></trkpt><trkpt lat="45.2707896683036" lon="3.7289134711504026"><ele>1055.75</ele><time>2026-04-26T15:21:39Z</time></trkpt><trkpt lat="45.270886074888196" lon="3.7290998076427604"><ele>1057.0</ele><time>2026-04-26T15:21:40Z</time></trkpt><trkpt lat="45.2710115468384" lon="3.7293207660379064"><ele>1057.0</ele><time>2026-04-26T15:21:41Z</time></trkpt><trkpt lat="45.271113834326435" lon="3.729518469162136"><ele>1057.0</ele><time>2026-04-26T15:21:42Z</time></trkpt><trkpt lat="45.271194789419916" lon="3.7296697712543168"><ele>1057.0</ele><time>2026-04-26T15:21:43Z</time></trkpt><trkpt lat="45.27125175993323" lon="3.7297812020746104"><ele>1057.0</ele><time>2026-04-26T15:21:44Z</time></trkpt><trkpt lat="45.271295125839394" lon="3.7298620272811935"><ele>1057.0</ele><time>2026-04-26T15:21:46Z</time></trkpt><trkpt lat="45.271359488462295" lon="3.7299409470097054"><ele>1057.0</ele><time>2026-04-26T15:21:49Z</time></trkpt><trkpt lat="45.271416559229756" lon="3.73001811203528"><ele>1057.0</ele><time>2026-04-26T15:21:50Z</time></trkpt><trkpt lat="45.271488096862996" lon="3.7301103392429353"><ele>1057.0</ele><time>2026-04-26T15:21:51Z</time></trkpt><trkpt lat="45.27159971907894" lon="3.7302061114972487"><ele>1057.0</ele><time>2026-04-26T15:21:52Z</time></trkpt><trkpt lat="45.27171159702036" lon="3.730306180153996"><ele>1059.0</ele><time>2026-04-26T15:21:53Z</time></trkpt><trkpt lat="45.27185877999056" lon="3.7304146015802893"><ele>1061.0</ele><time>2026-04-26T15:21:54Z</time></trkpt><trkpt lat="45.271943547120834" lon="3.730536266586959"><ele>1063.0</ele><time>2026-04-26T15:21:55Z</time></trkpt><trkpt lat="45.27198297680837" lon="3.7306543670735586"><ele>1065.0</ele><time>2026-04-26T15:21:56Z</time></trkpt><trkpt lat="45.27203687853904" lon="3.7308022901752826"><ele>1065.0</ele><time>2026-04-26T15:21:57Z</time></trkpt><trkpt lat="45.27209425236994" lon="3.730969259767701"><ele>1065.0</ele><time>2026-04-26T15:21:58Z</time></trkpt><trkpt lat="45.27215052560995" lon="3.7311474968486604"><ele>1065.0</ele><time>2026-04-26T15:21:59Z</time></trkpt><trkpt lat="45.27220231582535" lon="3.7313229921807767"><ele>1065.0</ele><time>2026-04-26T15:22:00Z</time></trkpt><trkpt lat="45.272255459687784" lon="3.7314717935279127"><ele>1065.0</ele><time>2026-04-26T15:22:01Z</time></trkpt><trkpt lat="45.272285775255334" lon="3.731595321373324"><ele>1065.0</ele><time>2026-04-26T15:22:02Z</time></trkpt><trkpt lat="45.27230703393017" lon="3.7317180766552087"><ele>1065.0</ele><time>2026-04-26T15:22:03Z</time></trkpt><trkpt lat="45.27234702950402" lon="3.7318135222917532"><ele>1065.0</ele><time>2026-04-26T15:22:04Z</time></trkpt><trkpt lat="45.27251575445927" lon="3.731992394768915"><ele>1065.0</ele><time>2026-04-26T15:22:06Z</time></trkpt><trkpt lat="45.27265924285945" lon="3.7320918259416485"><ele>1065.0</ele><time>2026-04-26T15:22:07Z</time></trkpt><trkpt lat="45.27277800862139" lon="3.732141554598209"><ele>1065.0</ele><time>2026-04-26T15:22:08Z</time></trkpt><trkpt lat="45.27291944310463" lon="3.7321875444944985"><ele>1065.0</ele><time>2026-04-26T15:22:09Z</time></trkpt><trkpt lat="45.273056587255645" lon="3.732241683533999"><ele>1066.0</ele><time>2026-04-26T15:22:10Z</time></trkpt><trkpt lat="45.273175437238365" lon="3.732277259369132"><ele>1067.0</ele><time>2026-04-26T15:22:11Z</time></trkpt><trkpt lat="45.27326727272979" lon="3.732326131388631"><ele>1068.0</ele><time>2026-04-26T15:22:12Z</time></trkpt><trkpt lat="45.273350795714165" lon="3.7323815496753205"><ele>1069.0</ele><time>2026-04-26T15:22:13Z</time></trkpt><trkpt lat="45.2734111888364" lon="3.732425210380368"><ele>1070.0</ele><time>2026-04-26T15:22:14Z</time></trkpt><trkpt lat="45.27339292614705" lon="3.732532427317852"><ele>1070.0</ele><time>2026-04-26T15:22:23Z</time></trkpt><trkpt lat="45.273340759799595" lon="3.732630037414506"><ele>1070.0</ele><time>2026-04-26T15:22:24Z</time></trkpt><trkpt lat="45.27330357095672" lon="3.732787787050841"><ele>1070.0</ele><time>2026-04-26T15:22:25Z</time></trkpt><trkpt lat="45.273258425664665" lon="3.73292916567173"><ele>1070.0</ele><time>2026-04-26T15:22:26Z</time></trkpt><trkpt lat="45.2732060409723" lon="3.7330544515317494"><ele>1070.0</ele><time>2026-04-26T15:22:27Z</time></trkpt><trkpt lat="45.273156940343355" lon="3.733145240128579"><ele>1070.0</ele><time>2026-04-26T15:22:28Z</time></trkpt><trkpt lat="45.27310926886682" lon="3.733219573639371"><ele>1070.0</ele><time>2026-04-26T15:22:29Z</time></trkpt><trkpt lat="45.27305280468785" lon="3.7332644743405257"><ele>1070.0</ele><time>2026-04-26T15:22:30Z</time></trkpt><trkpt lat="45.27294719926428" lon="3.7333387289186395"><ele>1070.0</ele><time>2026-04-26T15:22:32Z</time></trkpt><trkpt lat="45.272870418003485" lon="3.7333749991063865"><ele>1070.0</ele><time>2026-04-26T15:22:33Z</time></trkpt><trkpt lat="45.2727584158263" lon="3.7334186802276443"><ele>1070.0</ele><time>2026-04-26T15:22:34Z</time></trkpt><trkpt lat="45.272644597793075" lon="3.7334739653579314"><ele>1070.0</ele><time>2026-04-26T15:22:35Z</time></trkpt><trkpt lat="45.27252853805637" lon="3.7335335709398647"><ele>1070.0</ele><time>2026-04-26T15:22:36Z</time></trkpt><trkpt lat="45.27243894140824" lon="3.733581080814766"><ele>1070.0</ele><time>2026-04-26T15:22:37Z</time></trkpt><trkpt lat="45.272321035631855" lon="3.7336348049374037"><ele>1071.4</ele><time>2026-04-26T15:22:38Z</time></trkpt><trkpt lat="45.27223440282781" lon="3.733670865183959"><ele>1072.8</ele><time>2026-04-26T15:22:39Z</time></trkpt><trkpt lat="45.2721358268131" lon="3.7336988568285694"><ele>1074.2</ele><time>2026-04-26T15:22:40Z</time></trkpt><trkpt lat="45.27204667697928" lon="3.7337631322482854"><ele>1075.6</ele><time>2026-04-26T15:22:41Z</time></trkpt><trkpt lat="45.27194233087585" lon="3.7338657903893355"><ele>1077.0</ele><time>2026-04-26T15:22:42Z</time></trkpt><trkpt lat="45.27183952561542" lon="3.7339400386890924"><ele>1077.0</ele><time>2026-04-26T15:22:43Z</time></trkpt><trkpt lat="45.27171283121584" lon="3.734034301467421"><ele>1077.0</ele><time>2026-04-26T15:22:44Z</time></trkpt><trkpt lat="45.2715759301505" lon="3.734124202322287"><ele>1077.0</ele><time>2026-04-26T15:22:45Z</time></trkpt><trkpt lat="45.271441097934535" lon="3.7342114223798144"><ele>1077.0</ele><time>2026-04-26T15:22:46Z</time></trkpt><trkpt lat="45.27131967827125" lon="3.7342784619695686"><ele>1076.4</ele><time>2026-04-26T15:22:47Z</time></trkpt><trkpt lat="45.27125848281724" lon="3.7343326273700383"><ele>1075.8000000000002</ele><time>2026-04-26T15:22:48Z</time></trkpt><trkpt lat="45.27119529274614" lon="3.7344348866497854"><ele>1075.2</ele><time>2026-04-26T15:22:49Z</time></trkpt><trkpt lat="45.2711240644926" lon="3.7345102568923387"><ele>1074.6000000000001</ele><time>2026-04-26T15:22:50Z</time></trkpt><trkpt lat="45.27106495542063" lon="3.7346075143757447"><ele>1074.0</ele><time>2026-04-26T15:22:51Z</time></trkpt><trkpt lat="45.271003844241605" lon="3.7347481204029713"><ele>1074.0</ele><time>2026-04-26T15:22:52Z</time></trkpt><trkpt lat="45.270939289431006" lon="3.7349051521285657"><ele>1074.0</ele><time>2026-04-26T15:22:53Z</time></trkpt><trkpt lat="45.27084485142749" lon="3.7349832992511693"><ele>1074.0</ele><time>2026-04-26T15:22:54Z</time></trkpt><trkpt lat="45.2707551888588" lon="3.7351027505221044"><ele>1074.0</ele><time>2026-04-26T15:22:55Z</time></trkpt><trkpt lat="45.270678186829514" lon="3.7352000334334186"><ele>1072.2</ele><time>2026-04-26T15:22:56Z</time></trkpt><trkpt lat="45.27060397057024" lon="3.7352773468543923"><ele>1070.4</ele><time>2026-04-26T15:22:57Z</time></trkpt><trkpt lat="45.270514168125636" lon="3.735334306338713"><ele>1068.6</ele><time>2026-04-26T15:22:58Z</time></trkpt><trkpt lat="45.270426411962895" lon="3.735394067001305"><ele>1066.8</ele><time>2026-04-26T15:22:59Z</time></trkpt><trkpt lat="45.270286300421155" lon="3.735438545273201"><ele>1065.0</ele><time>2026-04-26T15:23:01Z</time></trkpt><trkpt lat="45.27017763766036" lon="3.7354315905147644"><ele>1065.0</ele><time>2026-04-26T15:23:02Z</time></trkpt><trkpt lat="45.27001579939853" lon="3.735400042582183"><ele>1065.0</ele><time>2026-04-26T15:23:03Z</time></trkpt><trkpt lat="45.269860088303545" lon="3.735361125638627"><ele>1065.0</ele><time>2026-04-26T15:23:04Z</time></trkpt><trkpt lat="45.26970972166137" lon="3.735301401459876"><ele>1065.25</ele><time>2026-04-26T15:23:05Z</time></trkpt><trkpt lat="45.269567649140626" lon="3.7352124380640714"><ele>1065.5</ele><time>2026-04-26T15:23:06Z</time></trkpt><trkpt lat="45.269432537759606" lon="3.735173938791009"><ele>1065.75</ele><time>2026-04-26T15:23:07Z</time></trkpt><trkpt lat="45.269348189870264" lon="3.735147481445471"><ele>1066.0</ele><time>2026-04-26T15:23:08Z</time></trkpt><trkpt lat="45.26927000138003" lon="3.7351127882516133"><ele>1066.0</ele><time>2026-04-26T15:23:10Z</time></trkpt><trkpt lat="45.269207570955956" lon="3.7351283776543354"><ele>1066.0</ele><time>2026-04-26T15:23:27Z</time></trkpt><trkpt lat="45.26919442498379" lon="3.7352202789513584"><ele>1066.0</ele><time>2026-04-26T15:23:30Z</time></trkpt><trkpt lat="45.269176986109784" lon="3.735430973719518"><ele>1066.0</ele><time>2026-04-26T15:23:32Z</time></trkpt><trkpt lat="45.2691097551555" lon="3.7355772361073525"><ele>1066.0</ele><time>2026-04-26T15:23:33Z</time></trkpt><trkpt lat="45.26901388217262" lon="3.7357263282740347"><ele>1066.25</ele><time>2026-04-26T15:23:34Z</time></trkpt><trkpt lat="45.26891648479011" lon="3.735885831952617"><ele>1066.5</ele><time>2026-04-26T15:23:35Z</time></trkpt><trkpt lat="45.2688316090574" lon="3.736043460670224"><ele>1066.75</ele><time>2026-04-26T15:23:36Z</time></trkpt><trkpt lat="45.268761893041024" lon="3.7361996787798826"><ele>1067.0</ele><time>2026-04-26T15:23:37Z</time></trkpt><trkpt lat="45.26874841378359" lon="3.736354553253695"><ele>1067.0</ele><time>2026-04-26T15:23:38Z</time></trkpt><trkpt lat="45.26876557626688" lon="3.7365477796835367"><ele>1067.0</ele><time>2026-04-26T15:23:39Z</time></trkpt><trkpt lat="45.26877399443576" lon="3.7367164726388835"><ele>1067.0</ele><time>2026-04-26T15:23:40Z</time></trkpt><trkpt lat="45.2688003429798" lon="3.736888487214763"><ele>1067.0</ele><time>2026-04-26T15:23:41Z</time></trkpt><trkpt lat="45.26884067608031" lon="3.737077596261329"><ele>1063.3333333333335</ele><time>2026-04-26T15:23:42Z</time></trkpt><trkpt lat="45.26890758382881" lon="3.737231788448185"><ele>1059.6666666666667</ele><time>2026-04-26T15:23:43Z</time></trkpt><trkpt lat="45.268741273009205" lon="3.737510880454104"><ele>1056.0</ele><time>2026-04-26T15:23:44Z</time></trkpt><trkpt lat="45.2687158615263" lon="3.737705415321938"><ele>1054.0</ele><time>2026-04-26T15:23:45Z</time></trkpt><trkpt lat="45.26868751005093" lon="3.7379035754843946"><ele>1052.0</ele><time>2026-04-26T15:23:46Z</time></trkpt><trkpt lat="45.268658369777725" lon="3.7380765817937167"><ele>1050.0</ele><time>2026-04-26T15:23:47Z</time></trkpt><trkpt lat="45.268619496617276" lon="3.7382370089862422"><ele>1048.0</ele><time>2026-04-26T15:23:48Z</time></trkpt><trkpt lat="45.268572704233655" lon="3.7384079077075087"><ele>1048.0</ele><time>2026-04-26T15:23:49Z</time></trkpt><trkpt lat="45.268499696088995" lon="3.738541788747422"><ele>1048.0</ele><time>2026-04-26T15:23:50Z</time></trkpt><trkpt lat="45.26841631532855" lon="3.738671704742125"><ele>1048.0</ele><time>2026-04-26T15:23:51Z</time></trkpt><trkpt lat="45.26832356553941" lon="3.7388170085321386"><ele>1048.0</ele><time>2026-04-26T15:23:52Z</time></trkpt><trkpt lat="45.26820949213856" lon="3.738983004950624"><ele>1045.3333333333333</ele><time>2026-04-26T15:23:53Z</time></trkpt><trkpt lat="45.26809424660413" lon="3.7391944902067182"><ele>1042.6666666666667</ele><time>2026-04-26T15:23:54Z</time></trkpt><trkpt lat="45.26796042876733" lon="3.7393934010477943"><ele>1040.0</ele><time>2026-04-26T15:23:55Z</time></trkpt><trkpt lat="45.26786687658365" lon="3.739591160366327"><ele>1038.75</ele><time>2026-04-26T15:23:56Z</time></trkpt><trkpt lat="45.2677647586876" lon="3.7397551132639895"><ele>1037.5</ele><time>2026-04-26T15:23:57Z</time></trkpt><trkpt lat="45.26768823497472" lon="3.7398934800407178"><ele>1036.25</ele><time>2026-04-26T15:23:58Z</time></trkpt><trkpt lat="45.26764796598126" lon="3.7400626904910994"><ele>1035.0</ele><time>2026-04-26T15:23:59Z</time></trkpt><trkpt lat="45.26761900013259" lon="3.7402448590389463"><ele>1033.25</ele><time>2026-04-26T15:24:00Z</time></trkpt><trkpt lat="45.2675965736168" lon="3.74045589495196"><ele>1031.5</ele><time>2026-04-26T15:24:01Z</time></trkpt><trkpt lat="45.26756543805598" lon="3.740654386703019"><ele>1029.75</ele><time>2026-04-26T15:24:02Z</time></trkpt><trkpt lat="45.2675320361356" lon="3.7408335139087345"><ele>1028.0</ele><time>2026-04-26T15:24:03Z</time></trkpt><trkpt lat="45.26750777663721" lon="3.741006012405833"><ele>1027.0</ele><time>2026-04-26T15:24:04Z</time></trkpt><trkpt lat="45.26750185307963" lon="3.7411776775141634"><ele>1026.0</ele><time>2026-04-26T15:24:05Z</time></trkpt><trkpt lat="45.267509278739155" lon="3.7413480285142935"><ele>1025.0</ele><time>2026-04-26T15:24:06Z</time></trkpt><trkpt lat="45.26751825996186" lon="3.7415124083757494"><ele>1024.0</ele><time>2026-04-26T15:24:07Z</time></trkpt><trkpt lat="45.26752750055469" lon="3.741673065329082"><ele>1024.0</ele><time>2026-04-26T15:24:08Z</time></trkpt><trkpt lat="45.26753402212233" lon="3.7418333234085988"><ele>1024.0</ele><time>2026-04-26T15:24:09Z</time></trkpt><trkpt lat="45.2675526231105" lon="3.741988223701406"><ele>1024.0</ele><time>2026-04-26T15:24:10Z</time></trkpt><trkpt lat="45.267577366977875" lon="3.742145824117733"><ele>1024.0</ele><time>2026-04-26T15:24:11Z</time></trkpt><trkpt lat="45.2675762737191" lon="3.742300735615447"><ele>1024.0</ele><time>2026-04-26T15:24:12Z</time></trkpt><trkpt lat="45.26757061383785" lon="3.742448872522796"><ele>1024.0</ele><time>2026-04-26T15:24:13Z</time></trkpt><trkpt lat="45.267545037420945" lon="3.742596203702637"><ele>1024.0</ele><time>2026-04-26T15:24:14Z</time></trkpt><trkpt lat="45.267511044062026" lon="3.742737867196525"><ele>1024.0</ele><time>2026-04-26T15:24:15Z</time></trkpt><trkpt lat="45.26746219107311" lon="3.7429087130442382"><ele>1024.0</ele><time>2026-04-26T15:24:16Z</time></trkpt><trkpt lat="45.267410629884075" lon="3.743058103898294"><ele>1023.4000000000001</ele><time>2026-04-26T15:24:17Z</time></trkpt><trkpt lat="45.26735519115191" lon="3.743194683617411"><ele>1022.8000000000001</ele><time>2026-04-26T15:24:18Z</time></trkpt><trkpt lat="45.26729819162701" lon="3.743334848382784"><ele>1022.1999999999999</ele><time>2026-04-26T15:24:19Z</time></trkpt><trkpt lat="45.267248439247055" lon="3.7434642589675597"><ele>1021.5999999999999</ele><time>2026-04-26T15:24:20Z</time></trkpt><trkpt lat="45.26723203539565" lon="3.74355558524219"><ele>1021.0</ele><time>2026-04-26T15:24:21Z</time></trkpt><trkpt lat="45.267196975323934" lon="3.7436482636989403"><ele>1019.6666666666666</ele><time>2026-04-26T15:24:23Z</time></trkpt><trkpt lat="45.26715983711452" lon="3.7437289128640296"><ele>1018.3333333333333</ele><time>2026-04-26T15:24:27Z</time></trkpt><trkpt lat="45.26720466143623" lon="3.74385963888315"><ele>1017.0</ele><time>2026-04-26T15:24:33Z</time></trkpt><trkpt lat="45.26726733288686" lon="3.7438743027745334"><ele>1015.6666666666667</ele><time>2026-04-26T15:24:35Z</time></trkpt><trkpt lat="45.2673580660842" lon="3.7439277407590907"><ele>1014.3333333333334</ele><time>2026-04-26T15:24:37Z</time></trkpt><trkpt lat="45.26743560550549" lon="3.743963369976529"><ele>1013.0</ele><time>2026-04-26T15:24:39Z</time></trkpt><trkpt lat="45.26748564233381" lon="3.7440509755607927"><ele>1013.0</ele><time>2026-04-26T15:24:42Z</time></trkpt><trkpt lat="45.267433643942375" lon="3.744160293612111"><ele>1013.0</ele><time>2026-04-26T15:24:45Z</time></trkpt><trkpt lat="45.267374126055394" lon="3.7442208617179666"><ele>1013.0</ele><time>2026-04-26T15:24:46Z</time></trkpt><trkpt lat="45.26727656805279" lon="3.744306726517628"><ele>1013.0</ele><time>2026-04-26T15:24:47Z</time></trkpt><trkpt lat="45.26704804684006" lon="3.7442076364002626"><ele>1012.5</ele><time>2026-04-26T15:24:48Z</time></trkpt><trkpt lat="45.26692021169959" lon="3.7443355000488627"><ele>1012.0</ele><time>2026-04-26T15:24:49Z</time></trkpt><trkpt lat="45.266787981983235" lon="3.7444614899966373"><ele>1011.5</ele><time>2026-04-26T15:24:50Z</time></trkpt><trkpt lat="45.26668709343148" lon="3.744555252039481"><ele>1011.0</ele><time>2026-04-26T15:24:51Z</time></trkpt><trkpt lat="45.26659834326201" lon="3.744637385994148"><ele>1011.8</ele><time>2026-04-26T15:24:52Z</time></trkpt><trkpt lat="45.26652631536731" lon="3.74470367947969"><ele>1012.5999999999999</ele><time>2026-04-26T15:24:53Z</time></trkpt><trkpt lat="45.26644903805201" lon="3.744773990230393"><ele>1013.4</ele><time>2026-04-26T15:24:55Z</time></trkpt><trkpt lat="45.26632124720402" lon="3.7448869419393627"><ele>1014.2</ele><time>2026-04-26T15:24:57Z</time></trkpt><trkpt lat="45.266231288548994" lon="3.744965185524024"><ele>1015.0</ele><time>2026-04-26T15:24:58Z</time></trkpt><trkpt lat="45.26614786609743" lon="3.745037000780202"><ele>1017.5</ele><time>2026-04-26T15:24:59Z</time></trkpt><trkpt lat="45.266037767522604" lon="3.7451514626832445"><ele>1020.0</ele><time>2026-04-26T15:25:01Z</time></trkpt><trkpt lat="45.26629538561228" lon="3.7460962185804823"><ele>1025.0</ele><time>2026-04-26T15:25:03Z</time></trkpt><trkpt lat="45.26630746764033" lon="3.7462787051955613"><ele>1030.0</ele><time>2026-04-26T15:25:04Z</time></trkpt><trkpt lat="45.266336056426255" lon="3.7464537002203206"><ele>1035.0</ele><time>2026-04-26T15:25:05Z</time></trkpt><trkpt lat="45.26636032147998" lon="3.746628819015075"><ele>1040.0</ele><time>2026-04-26T15:25:06Z</time></trkpt><trkpt lat="45.26639148426371" lon="3.7467978118861387"><ele>1039.8</ele><time>2026-04-26T15:25:07Z</time></trkpt><trkpt lat="45.26642638474935" lon="3.7469436311051076"><ele>1039.6</ele><time>2026-04-26T15:25:08Z</time></trkpt><trkpt lat="45.266456318948514" lon="3.7470752387422714"><ele>1039.4</ele><time>2026-04-26T15:25:09Z</time></trkpt><trkpt lat="45.266494717732016" lon="3.747216332430465"><ele>1039.2</ele><time>2026-04-26T15:25:10Z</time></trkpt><trkpt lat="45.26651196763535" lon="3.7473664900767845"><ele>1039.0</ele><time>2026-04-26T15:25:11Z</time></trkpt><trkpt lat="45.2665304250916" lon="3.7475235101932673"><ele>1039.0</ele><time>2026-04-26T15:25:12Z</time></trkpt><trkpt lat="45.26656753131748" lon="3.7476719991184506"><ele>1039.0</ele><time>2026-04-26T15:25:13Z</time></trkpt><trkpt lat="45.26660885832369" lon="3.747802670113175"><ele>1039.0</ele><time>2026-04-26T15:25:14Z</time></trkpt><trkpt lat="45.2666543035614" lon="3.7479598226415782"><ele>1039.0</ele><time>2026-04-26T15:25:15Z</time></trkpt><trkpt lat="45.26668109553181" lon="3.7481013258722675"><ele>1039.0</ele><time>2026-04-26T15:25:16Z</time></trkpt><trkpt lat="45.26669804046105" lon="3.7482223864215"><ele>1041.2</ele><time>2026-04-26T15:25:17Z</time></trkpt><trkpt lat="45.266715993718734" lon="3.748371897924532"><ele>1043.4</ele><time>2026-04-26T15:25:18Z</time></trkpt><trkpt lat="45.266738933327915" lon="3.748526713138391"><ele>1045.6</ele><time>2026-04-26T15:25:19Z</time></trkpt><trkpt lat="45.26674245007427" lon="3.748655663348351"><ele>1047.8</ele><time>2026-04-26T15:25:20Z</time></trkpt><trkpt lat="45.26674914828825" lon="3.7487904892612356"><ele>1050.0</ele><time>2026-04-26T15:25:21Z</time></trkpt><trkpt lat="45.26676898527702" lon="3.7489589476740526"><ele>1051.4</ele><time>2026-04-26T15:25:22Z</time></trkpt><trkpt lat="45.26679618715131" lon="3.7491304039278393"><ele>1052.8</ele><time>2026-04-26T15:25:23Z</time></trkpt><trkpt lat="45.266826457406715" lon="3.7492908810724703"><ele>1054.2</ele><time>2026-04-26T15:25:24Z</time></trkpt><trkpt lat="45.26682804984763" lon="3.7494276162524454"><ele>1055.6</ele><time>2026-04-26T15:25:25Z</time></trkpt><trkpt lat="45.26682186536275" lon="3.7495179687108893"><ele>1057.0</ele><time>2026-04-26T15:25:26Z</time></trkpt><trkpt lat="45.26681086951538" lon="3.7496410620908693"><ele>1057.0</ele><time>2026-04-26T15:25:27Z</time></trkpt><trkpt lat="45.26680018221284" lon="3.74975913379"><ele>1057.0</ele><time>2026-04-26T15:25:28Z</time></trkpt><trkpt lat="45.266789593601835" lon="3.7498822319651164"><ele>1057.0</ele><time>2026-04-26T15:25:30Z</time></trkpt><trkpt lat="45.266772021802616" lon="3.749970166823775"><ele>1057.0</ele><time>2026-04-26T15:25:33Z</time></trkpt><trkpt lat="45.26669338861003" lon="3.750034467205972"><ele>1057.0</ele><time>2026-04-26T15:25:57Z</time></trkpt><trkpt lat="45.266619220977006" lon="3.750032380880663"><ele>1057.0</ele><time>2026-04-26T15:25:58Z</time></trkpt><trkpt lat="45.26649512641514" lon="3.7500133092269943"><ele>1056.75</ele><time>2026-04-26T15:25:59Z</time></trkpt><trkpt lat="45.26633434633734" lon="3.7500240271409018"><ele>1056.5</ele><time>2026-04-26T15:26:00Z</time></trkpt><trkpt lat="45.26620910202998" lon="3.750056877426751"><ele>1056.25</ele><time>2026-04-26T15:26:01Z</time></trkpt><trkpt lat="45.26610934707576" lon="3.7500852692536837"><ele>1056.0</ele><time>2026-04-26T15:26:02Z</time></trkpt><trkpt lat="45.26600237226155" lon="3.750142351118964"><ele>1056.0</ele><time>2026-04-26T15:26:03Z</time></trkpt><trkpt lat="45.26591278957529" lon="3.750199396364193"><ele>1056.0</ele><time>2026-04-26T15:26:04Z</time></trkpt><trkpt lat="45.26580234488747" lon="3.750207803501324"><ele>1056.0</ele><time>2026-04-26T15:26:05Z</time></trkpt><trkpt lat="45.265667049371196" lon="3.750224370708848"><ele>1056.0</ele><time>2026-04-26T15:26:06Z</time></trkpt><trkpt lat="45.26551401426361" lon="3.750259565496121"><ele>1057.0</ele><time>2026-04-26T15:26:07Z</time></trkpt><trkpt lat="45.26539505615733" lon="3.7502815221955887"><ele>1058.0</ele><time>2026-04-26T15:26:08Z</time></trkpt><trkpt lat="45.265256341485724" lon="3.750297104900666"><ele>1059.0</ele><time>2026-04-26T15:26:09Z</time></trkpt><trkpt lat="45.26515075028791" lon="3.7503044572862128"><ele>1060.0</ele><time>2026-04-26T15:26:10Z</time></trkpt><trkpt lat="45.26502376266925" lon="3.750355756615414"><ele>1060.0</ele><time>2026-04-26T15:26:11Z</time></trkpt><trkpt lat="45.26487215539507" lon="3.7504101975270108"><ele>1060.0</ele><time>2026-04-26T15:26:12Z</time></trkpt><trkpt lat="45.264727504301554" lon="3.750455843883947"><ele>1060.0</ele><time>2026-04-26T15:26:13Z</time></trkpt><trkpt lat="45.26461512540201" lon="3.7504945333259223"><ele>1060.0</ele><time>2026-04-26T15:26:14Z</time></trkpt><trkpt lat="45.26449691622678" lon="3.7505553573201578"><ele>1058.4</ele><time>2026-04-26T15:26:15Z</time></trkpt><trkpt lat="45.26438497741523" lon="3.7506063178442717"><ele>1056.8</ele><time>2026-04-26T15:26:16Z</time></trkpt><trkpt lat="45.26429718857455" lon="3.7506951458738915"><ele>1055.2</ele><time>2026-04-26T15:26:17Z</time></trkpt><trkpt lat="45.26422533766641" lon="3.7507711644954713"><ele>1053.6</ele><time>2026-04-26T15:26:18Z</time></trkpt><trkpt lat="45.26415613237406" lon="3.750805892210486"><ele>1052.0</ele><time>2026-04-26T15:26:19Z</time></trkpt><trkpt lat="45.26406675793794" lon="3.75087452628758"><ele>1052.0</ele><time>2026-04-26T15:26:21Z</time></trkpt><trkpt lat="45.26399205155798" lon="3.750916840808837"><ele>1052.0</ele><time>2026-04-26T15:26:27Z</time></trkpt><trkpt lat="45.26394138495278" lon="3.7509744386388"><ele>1052.0</ele><time>2026-04-26T15:26:37Z</time></trkpt><trkpt lat="45.26395360662978" lon="3.751119182309668"><ele>1052.0</ele><time>2026-04-26T15:27:35Z</time></trkpt><trkpt lat="45.26390549923575" lon="3.751206399711519"><ele>1052.0</ele><time>2026-04-26T15:27:59Z</time></trkpt><trkpt lat="45.263826971800256" lon="3.7512894814837656"><ele>1052.0</ele><time>2026-04-26T15:28:00Z</time></trkpt><trkpt lat="45.263756784459915" lon="3.751431711016277"><ele>1052.6</ele><time>2026-04-26T15:28:01Z</time></trkpt><trkpt lat="45.26368980371578" lon="3.7515613715845304"><ele>1053.2</ele><time>2026-04-26T15:28:02Z</time></trkpt><trkpt lat="45.26363370182547" lon="3.751650846591492"><ele>1053.8</ele><time>2026-04-26T15:28:03Z</time></trkpt><trkpt lat="45.26355144331454" lon="3.7517111261979057"><ele>1054.4</ele><time>2026-04-26T15:28:04Z</time></trkpt><trkpt lat="45.26343806779317" lon="3.75173548503563"><ele>1055.0</ele><time>2026-04-26T15:28:05Z</time></trkpt><trkpt lat="45.263315620860695" lon="3.7517716957997096"><ele>1055.0</ele><time>2026-04-26T15:28:06Z</time></trkpt><trkpt lat="45.26317429222044" lon="3.751769569761659"><ele>1055.0</ele><time>2026-04-26T15:28:07Z</time></trkpt><trkpt lat="45.26307001289235" lon="3.7517669300534915"><ele>1055.0</ele><time>2026-04-26T15:28:08Z</time></trkpt><trkpt lat="45.26296389016791" lon="3.751801555412501"><ele>1055.0</ele><time>2026-04-26T15:28:09Z</time></trkpt><trkpt lat="45.26284377560745" lon="3.7518045429587676"><ele>1056.5</ele><time>2026-04-26T15:28:10Z</time></trkpt><trkpt lat="45.262726517116775" lon="3.7518038716310205"><ele>1058.0</ele><time>2026-04-26T15:28:11Z</time></trkpt><trkpt lat="45.26260870924444" lon="3.7517774907382684"><ele>1059.5</ele><time>2026-04-26T15:28:12Z</time></trkpt><trkpt lat="45.26250584442351" lon="3.751761020495881"><ele>1061.0</ele><time>2026-04-26T15:28:13Z</time></trkpt><trkpt lat="45.26238563661957" lon="3.751744563831119"><ele>1060.5</ele><time>2026-04-26T15:28:14Z</time></trkpt><trkpt lat="45.262269615906376" lon="3.75175324465378"><ele>1060.0</ele><time>2026-04-26T15:28:15Z</time></trkpt><trkpt lat="45.26216296355427" lon="3.751772086839061"><ele>1059.5</ele><time>2026-04-26T15:28:16Z</time></trkpt><trkpt lat="45.26205194709492" lon="3.751790465370653"><ele>1059.0</ele><time>2026-04-26T15:28:17Z</time></trkpt><trkpt lat="45.26188922998478" lon="3.7518092694635135"><ele>1059.0</ele><time>2026-04-26T15:28:18Z</time></trkpt><trkpt lat="45.26180047000424" lon="3.7518111975115787"><ele>1059.0</ele><time>2026-04-26T15:28:19Z</time></trkpt><trkpt lat="45.26170711736121" lon="3.751841970011111"><ele>1059.0</ele><time>2026-04-26T15:28:20Z</time></trkpt><trkpt lat="45.26163675150278" lon="3.751859670058895"><ele>1059.0</ele><time>2026-04-26T15:28:21Z</time></trkpt><trkpt lat="45.26155533566691" lon="3.7518862016357697"><ele>1059.0</ele><time>2026-04-26T15:28:22Z</time></trkpt><trkpt lat="45.26147669084953" lon="3.751916217344159"><ele>1059.0</ele><time>2026-04-26T15:28:23Z</time></trkpt><trkpt lat="45.26141277835474" lon="3.7519406103061708"><ele>1059.0</ele><time>2026-04-26T15:28:24Z</time></trkpt><trkpt lat="45.26134976358154" lon="3.7519646606301813"><ele>1059.0</ele><time>2026-04-26T15:28:25Z</time></trkpt><trkpt lat="45.26128140843891" lon="3.7519960155697176"><ele>1059.0</ele><time>2026-04-26T15:28:26Z</time></trkpt><trkpt lat="45.26119005884726" lon="3.752039991297053"><ele>1059.0</ele><time>2026-04-26T15:28:27Z</time></trkpt><trkpt lat="45.261097116124844" lon="3.752085107890432"><ele>1059.0</ele><time>2026-04-26T15:28:28Z</time></trkpt><trkpt lat="45.26097280465358" lon="3.7521488483196963"><ele>1059.0</ele><time>2026-04-26T15:28:29Z</time></trkpt><trkpt lat="45.26083303892792" lon="3.752221938562639"><ele>1059.0</ele><time>2026-04-26T15:28:30Z</time></trkpt><trkpt lat="45.260714059337744" lon="3.7522858090574776"><ele>1059.0</ele><time>2026-04-26T15:28:31Z</time></trkpt><trkpt lat="45.26060668096431" lon="3.7523420719527083"><ele>1059.0</ele><time>2026-04-26T15:28:32Z</time></trkpt><trkpt lat="45.26050692252458" lon="3.7523943452384647"><ele>1058.5</ele><time>2026-04-26T15:28:33Z</time></trkpt><trkpt lat="45.26043157682848" lon="3.75243382628385"><ele>1058.0</ele><time>2026-04-26T15:28:34Z</time></trkpt><trkpt lat="45.26036404526492" lon="3.7524692127326635"><ele>1057.5</ele><time>2026-04-26T15:28:35Z</time></trkpt><trkpt lat="45.26029648368456" lon="3.7524841599606384"><ele>1057.0</ele><time>2026-04-26T15:28:36Z</time></trkpt><trkpt lat="45.26016463997086" lon="3.752494147913486"><ele>1056.5</ele><time>2026-04-26T15:28:38Z</time></trkpt><trkpt lat="45.260074073685004" lon="3.7525098789590006"><ele>1056.0</ele><time>2026-04-26T15:28:39Z</time></trkpt><trkpt lat="45.25992835753982" lon="3.752544473461838"><ele>1056.0</ele><time>2026-04-26T15:28:40Z</time></trkpt><trkpt lat="45.25983065740986" lon="3.752569064845759"><ele>1056.0</ele><time>2026-04-26T15:28:41Z</time></trkpt><trkpt lat="45.259703809336486" lon="3.7525869025104592"><ele>1056.0</ele><time>2026-04-26T15:28:42Z</time></trkpt><trkpt lat="45.259566209651275" lon="3.7526266449564614"><ele>1056.0</ele><time>2026-04-26T15:28:43Z</time></trkpt><trkpt lat="45.259463916490596" lon="3.7526662915513165"><ele>1056.6</ele><time>2026-04-26T15:28:44Z</time></trkpt><trkpt lat="45.25932667679474" lon="3.7527097785030414"><ele>1057.1999999999998</ele><time>2026-04-26T15:28:46Z</time></trkpt><trkpt lat="45.25923379016859" lon="3.7527326350431784"><ele>1057.8000000000002</ele><time>2026-04-26T15:28:47Z</time></trkpt><trkpt lat="45.259162536654614" lon="3.752779895043676"><ele>1058.4</ele><time>2026-04-26T15:28:48Z</time></trkpt><trkpt lat="45.259090315122215" lon="3.7528233967771105"><ele>1059.0</ele><time>2026-04-26T15:28:49Z</time></trkpt><trkpt lat="45.25902652259448" lon="3.7528585023696044"><ele>1059.0</ele><time>2026-04-26T15:28:50Z</time></trkpt><trkpt lat="45.25896729215222" lon="3.7528910974094125"><ele>1059.0</ele><time>2026-04-26T15:28:51Z</time></trkpt><trkpt lat="45.25890157875493" lon="3.7529271813566374"><ele>1059.0</ele><time>2026-04-26T15:28:52Z</time></trkpt><trkpt lat="45.25876733499073" lon="3.752984590460265"><ele>1059.0</ele><time>2026-04-26T15:28:54Z</time></trkpt><trkpt lat="45.25868659160185" lon="3.7529984937454346"><ele>1059.0</ele><time>2026-04-26T15:28:55Z</time></trkpt><trkpt lat="45.258622087507376" lon="3.753028391635796"><ele>1059.0</ele><time>2026-04-26T15:28:56Z</time></trkpt><trkpt lat="45.25847605779724" lon="3.753081465863013"><ele>1058.2</ele><time>2026-04-26T15:28:58Z</time></trkpt><trkpt lat="45.25837916273358" lon="3.75313015279777"><ele>1057.4</ele><time>2026-04-26T15:28:59Z</time></trkpt><trkpt lat="45.258300930213146" lon="3.7531695063774673"><ele>1056.6</ele><time>2026-04-26T15:29:01Z</time></trkpt><trkpt lat="45.2582170371838" lon="3.753211707407954"><ele>1055.8</ele><time>2026-04-26T15:29:03Z</time></trkpt><trkpt lat="45.25815251449511" lon="3.753240017147143"><ele>1055.0</ele><time>2026-04-26T15:29:04Z</time></trkpt><trkpt lat="45.258028072359565" lon="3.753293213044823"><ele>1054.1666666666667</ele><time>2026-04-26T15:29:06Z</time></trkpt><trkpt lat="45.257955532461345" lon="3.7533242220520373"><ele>1053.3333333333335</ele><time>2026-04-26T15:29:07Z</time></trkpt><trkpt lat="45.25789457461344" lon="3.7533470053950135"><ele>1052.5</ele><time>2026-04-26T15:29:08Z</time></trkpt><trkpt lat="45.25782913664503" lon="3.7533694579771755"><ele>1051.6666666666667</ele><time>2026-04-26T15:29:09Z</time></trkpt><trkpt lat="45.25776270284368" lon="3.753398461730595"><ele>1050.8333333333333</ele><time>2026-04-26T15:29:11Z</time></trkpt><trkpt lat="45.25766380323064" lon="3.7534446215195634"><ele>1050.0</ele><time>2026-04-26T15:29:13Z</time></trkpt><trkpt lat="45.25760509826266" lon="3.7535180573473257"><ele>1050.0</ele><time>2026-04-26T15:29:32Z</time></trkpt><trkpt lat="45.257543301960425" lon="3.753480033860531"><ele>1050.0</ele><time>2026-04-26T15:30:03Z</time></trkpt><trkpt lat="45.25746928174699" lon="3.7535149105527212"><ele>1050.0</ele><time>2026-04-26T15:30:05Z</time></trkpt><trkpt lat="45.257340143905154" lon="3.75350885770167"><ele>1050.0</ele><time>2026-04-26T15:30:07Z</time></trkpt><trkpt lat="45.25724258960365" lon="3.7535075891887515"><ele>1050.0</ele><time>2026-04-26T15:30:08Z</time></trkpt><trkpt lat="45.25711256703264" lon="3.753506545349894"><ele>1048.3333333333333</ele><time>2026-04-26T15:30:09Z</time></trkpt><trkpt lat="45.256960387495766" lon="3.7535001986056096"><ele>1046.6666666666665</ele><time>2026-04-26T15:30:10Z</time></trkpt><trkpt lat="45.25678854065243" lon="3.7535020108918746"><ele>1045.0</ele><time>2026-04-26T15:30:11Z</time></trkpt><trkpt lat="45.256598518312686" lon="3.753509126838699"><ele>1044.6666666666665</ele><time>2026-04-26T15:30:12Z</time></trkpt><trkpt lat="45.256388602281994" lon="3.7535067000646585"><ele>1044.3333333333333</ele><time>2026-04-26T15:30:13Z</time></trkpt><trkpt lat="45.25617217101609" lon="3.753520099542591"><ele>1044.0</ele><time>2026-04-26T15:30:14Z</time></trkpt><trkpt lat="45.25594685424446" lon="3.75351834778583"><ele>1044.0</ele><time>2026-04-26T15:30:15Z</time></trkpt><trkpt lat="45.25572373616609" lon="3.7535127334392833"><ele>1044.0</ele><time>2026-04-26T15:30:16Z</time></trkpt><trkpt lat="45.255532148487376" lon="3.753509126364456"><ele>1044.0</ele><time>2026-04-26T15:30:17Z</time></trkpt><trkpt lat="45.255353566336545" lon="3.753513369674048"><ele>1042.6666666666667</ele><time>2026-04-26T15:30:18Z</time></trkpt><trkpt lat="45.255163681218576" lon="3.753516329520178"><ele>1041.3333333333335</ele><time>2026-04-26T15:30:19Z</time></trkpt><trkpt lat="45.25496471618207" lon="3.7535154814718643"><ele>1040.0</ele><time>2026-04-26T15:30:20Z</time></trkpt><trkpt lat="45.25478283325331" lon="3.7535214057474504"><ele>1038.75</ele><time>2026-04-26T15:30:21Z</time></trkpt><trkpt lat="45.25462672112935" lon="3.7535358886349126"><ele>1037.5</ele><time>2026-04-26T15:30:22Z</time></trkpt><trkpt lat="45.254479384110844" lon="3.753551352781555"><ele>1036.25</ele><time>2026-04-26T15:30:23Z</time></trkpt><trkpt lat="45.25434485588295" lon="3.7535890802315532"><ele>1035.0</ele><time>2026-04-26T15:30:24Z</time></trkpt><trkpt lat="45.254207063213585" lon="3.75359133564351"><ele>1033.75</ele><time>2026-04-26T15:30:25Z</time></trkpt><trkpt lat="45.254081413604155" lon="3.753607506475828"><ele>1032.5</ele><time>2026-04-26T15:30:26Z</time></trkpt><trkpt lat="45.25397064838229" lon="3.7535984538794276"><ele>1031.25</ele><time>2026-04-26T15:30:27Z</time></trkpt><trkpt lat="45.25386519137168" lon="3.753581569189455"><ele>1030.0</ele><time>2026-04-26T15:30:28Z</time></trkpt><trkpt lat="45.25366124700864" lon="3.753580944757395"><ele>1029.6</ele><time>2026-04-26T15:30:29Z</time></trkpt><trkpt lat="45.253575955006845" lon="3.753671359156475"><ele>1029.2</ele><time>2026-04-26T15:30:30Z</time></trkpt><trkpt lat="45.25348073923702" lon="3.753774563862722"><ele>1028.8</ele><time>2026-04-26T15:30:31Z</time></trkpt><trkpt lat="45.253393546712694" lon="3.7538689523667"><ele>1028.4</ele><time>2026-04-26T15:30:32Z</time></trkpt><trkpt lat="45.25331437111064" lon="3.7539557798028174"><ele>1028.0</ele><time>2026-04-26T15:30:33Z</time></trkpt><trkpt lat="45.25324076417718" lon="3.754037134960538"><ele>1028.0</ele><time>2026-04-26T15:30:34Z</time></trkpt><trkpt lat="45.25315228426745" lon="3.7541392934276097"><ele>1028.0</ele><time>2026-04-26T15:30:35Z</time></trkpt><trkpt lat="45.25305640429794" lon="3.754253864592347"><ele>1028.0</ele><time>2026-04-26T15:30:36Z</time></trkpt><trkpt lat="45.252975770476944" lon="3.754358465197754"><ele>1028.0</ele><time>2026-04-26T15:30:37Z</time></trkpt><trkpt lat="45.25290462879775" lon="3.754447183416179"><ele>1028.0</ele><time>2026-04-26T15:30:38Z</time></trkpt><trkpt lat="45.25283837202775" lon="3.7545290338747668"><ele>1027.6666666666667</ele><time>2026-04-26T15:30:39Z</time></trkpt><trkpt lat="45.2527802205579" lon="3.754600871371373"><ele>1027.3333333333333</ele><time>2026-04-26T15:30:40Z</time></trkpt><trkpt lat="45.25271688094946" lon="3.7546813914298656"><ele>1027.0</ele><time>2026-04-26T15:30:42Z</time></trkpt><trkpt lat="45.25291562826283" lon="3.7549775579495237"><ele>1027.0</ele><time>2026-04-26T15:30:47Z</time></trkpt><trkpt lat="45.252967017748844" lon="3.755052397998662"><ele>1027.0</ele><time>2026-04-26T15:30:50Z</time></trkpt><trkpt lat="45.253011846187206" lon="3.755129525237453"><ele>1027.0</ele><time>2026-04-26T15:30:52Z</time></trkpt><trkpt lat="45.253144582589805" lon="3.7553281433156105"><ele>1027.0</ele><time>2026-04-26T15:30:54Z</time></trkpt><trkpt lat="45.25317977699015" lon="3.755433445039836"><ele>1027.0</ele><time>2026-04-26T15:30:56Z</time></trkpt><trkpt lat="45.25320813224471" lon="3.7555960631547367"><ele>1027.0</ele><time>2026-04-26T15:30:58Z</time></trkpt><trkpt lat="45.253239308244495" lon="3.755766150518665"><ele>1027.0</ele><time>2026-04-26T15:31:00Z</time></trkpt><trkpt lat="45.25324642304553" lon="3.7558739302669535"><ele>1027.0</ele><time>2026-04-26T15:31:01Z</time></trkpt><trkpt lat="45.253254417517944" lon="3.7560201096134262"><ele>1027.0</ele><time>2026-04-26T15:31:02Z</time></trkpt><trkpt lat="45.2532576739321" lon="3.7561364634839456"><ele>1027.0</ele><time>2026-04-26T15:31:03Z</time></trkpt><trkpt lat="45.25325516818596" lon="3.756239966533831"><ele>1026.8</ele><time>2026-04-26T15:31:04Z</time></trkpt><trkpt lat="45.25322861067638" lon="3.756376031114111"><ele>1026.6</ele><time>2026-04-26T15:31:05Z</time></trkpt><trkpt lat="45.25322374135562" lon="3.7565018206582366"><ele>1026.3999999999999</ele><time>2026-04-26T15:31:07Z</time></trkpt><trkpt lat="45.25321299215119" lon="3.7567049254356175"><ele>1026.2</ele><time>2026-04-26T15:31:09Z</time></trkpt><trkpt lat="45.25319851254342" lon="3.75684874763707"><ele>1026.0</ele><time>2026-04-26T15:31:10Z</time></trkpt><trkpt lat="45.253218518244715" lon="3.7569708393913612"><ele>1027.1666666666667</ele><time>2026-04-26T15:31:11Z</time></trkpt><trkpt lat="45.25324905217888" lon="3.7571004414604245"><ele>1028.3333333333333</ele><time>2026-04-26T15:31:12Z</time></trkpt><trkpt lat="45.253215960443875" lon="3.757207034800159"><ele>1029.5</ele><time>2026-04-26T15:31:13Z</time></trkpt><trkpt lat="45.25317131933681" lon="3.7572805324987533"><ele>1030.6666666666665</ele><time>2026-04-26T15:31:15Z</time></trkpt><trkpt lat="45.25314828621374" lon="3.7573747863590365"><ele>1031.8333333333333</ele><time>2026-04-26T15:31:16Z</time></trkpt><trkpt lat="45.253114163065554" lon="3.7575450285928174"><ele>1033.0</ele><time>2026-04-26T15:31:18Z</time></trkpt><trkpt lat="45.25312242895387" lon="3.7576482139483978"><ele>1031.5</ele><time>2026-04-26T15:31:19Z</time></trkpt><trkpt lat="45.2530942338035" lon="3.757741659070344"><ele>1030.0</ele><time>2026-04-26T15:31:20Z</time></trkpt><trkpt lat="45.25304639393146" lon="3.757904155188807"><ele>1028.5</ele><time>2026-04-26T15:31:22Z</time></trkpt><trkpt lat="45.25301278091897" lon="3.7579909981782107"><ele>1027.0</ele><time>2026-04-26T15:31:23Z</time></trkpt><trkpt lat="45.2530023275839" lon="3.7580958333403087"><ele>1025.5</ele><time>2026-04-26T15:31:25Z</time></trkpt><trkpt lat="45.252968997164636" lon="3.758234689338353"><ele>1024.0</ele><time>2026-04-26T15:31:44Z</time></trkpt><trkpt lat="45.25291728386527" lon="3.758317161547047"><ele>1023.9999999999999</ele><time>2026-04-26T15:32:13Z</time></trkpt><trkpt lat="45.25285212862507" lon="3.758334067367624"><ele>1024.0</ele><time>2026-04-26T15:32:17Z</time></trkpt><trkpt lat="45.252762024077576" lon="3.758364117058873"><ele>1024.0</ele><time>2026-04-26T15:32:20Z</time></trkpt><trkpt lat="45.25267541763287" lon="3.7584158101973166"><ele>1024.0</ele><time>2026-04-26T15:32:22Z</time></trkpt><trkpt lat="45.252579564252166" lon="3.7584370980138875"><ele>1023.9999999999999</ele><time>2026-04-26T15:32:24Z</time></trkpt><trkpt lat="45.25255086176408" lon="3.7583191399011247"><ele>1024.0</ele><time>2026-04-26T15:32:26Z</time></trkpt><trkpt lat="45.252508580289685" lon="3.7582017357456823"><ele>1023.9999999999999</ele><time>2026-04-26T15:32:28Z</time></trkpt><trkpt lat="45.252460022795425" lon="3.7581222743845464"><ele>1024.0</ele><time>2026-04-26T15:32:30Z</time></trkpt><trkpt lat="45.2523752306115" lon="3.758070616073774"><ele>1024.0</ele><time>2026-04-26T15:32:33Z</time></trkpt><trkpt lat="45.25231857526361" lon="3.757985348337991"><ele>1024.0</ele><time>2026-04-26T15:32:35Z</time></trkpt><trkpt lat="45.25229628821606" lon="3.757896850459824"><ele>1023.9999999999999</ele><time>2026-04-26T15:32:37Z</time></trkpt><trkpt lat="45.25228369564946" lon="3.757797485658799"><ele>1024.0</ele><time>2026-04-26T15:32:39Z</time></trkpt><trkpt lat="45.252254684732" lon="3.7577131221628974"><ele>1023.9999999999999</ele><time>2026-04-26T15:32:46Z</time></trkpt><trkpt lat="45.25221764758302" lon="3.7575812924823686"><ele>1024.0</ele><time>2026-04-26T15:33:16Z</time></trkpt><trkpt lat="45.252241889798306" lon="3.7576804340373138"><ele>1024.0</ele><time>2026-04-26T15:33:38Z</time></trkpt><trkpt lat="45.252271697189634" lon="3.7577625534861534"><ele>1024.0</ele><time>2026-04-26T15:33:41Z</time></trkpt><trkpt lat="45.252307509342614" lon="3.7578482442947783"><ele>1023.9999999999999</ele><time>2026-04-26T15:33:44Z</time></trkpt><trkpt lat="45.25235503554178" lon="3.7579228863798972"><ele>1024.0</ele><time>2026-04-26T15:33:46Z</time></trkpt><trkpt lat="45.25238971169757" lon="3.7580170474670633"><ele>1023.9999999999999</ele><time>2026-04-26T15:33:50Z</time></trkpt><trkpt lat="45.252391803284176" lon="3.7581306423971688"><ele>1024.0</ele><time>2026-04-26T15:33:53Z</time></trkpt><trkpt lat="45.25244565956846" lon="3.7582328899332826"><ele>1024.0</ele><time>2026-04-26T15:33:57Z</time></trkpt><trkpt lat="45.25251061486482" lon="3.7582458368965526"><ele>1024.0</ele><time>2026-04-26T15:33:59Z</time></trkpt><trkpt lat="45.2525732524773" lon="3.7582854885268704"><ele>1023.9999999999999</ele><time>2026-04-26T15:34:01Z</time></trkpt><trkpt lat="45.252662897467175" lon="3.758299688403658"><ele>1024.0</ele><time>2026-04-26T15:34:04Z</time></trkpt><trkpt lat="45.25272567209128" lon="3.7582831185829217"><ele>1024.0</ele><time>2026-04-26T15:34:07Z</time></trkpt><trkpt lat="45.252789909928296" lon="3.7582222351284496"><ele>1023.9999999999999</ele><time>2026-04-26T15:34:11Z</time></trkpt><trkpt lat="45.2528613763972" lon="3.758191891518475"><ele>1024.0</ele><time>2026-04-26T15:34:13Z</time></trkpt><trkpt lat="45.25289188732076" lon="3.7581048051496673"><ele>1024.0</ele><time>2026-04-26T15:34:15Z</time></trkpt><trkpt lat="45.2529422789921" lon="3.7580320384520456"><ele>1023.9999999999999</ele><time>2026-04-26T15:34:18Z</time></trkpt><trkpt lat="45.25299941238987" lon="3.75796979099786"><ele>1024.0</ele><time>2026-04-26T15:34:21Z</time></trkpt><trkpt lat="45.253070533784225" lon="3.7580262589310753"><ele>1024.0</ele><time>2026-04-26T15:34:25Z</time></trkpt><trkpt lat="45.253125125442104" lon="3.758095402267672"><ele>1023.9999999999999</ele><time>2026-04-26T15:34:31Z</time></trkpt><trkpt lat="45.253056567023606" lon="3.758049958957867"><ele>1024.0</ele><time>2026-04-26T15:34:40Z</time></trkpt><trkpt lat="45.25301747412758" lon="3.757948320319708"><ele>1024.0</ele><time>2026-04-26T15:34:43Z</time></trkpt><trkpt lat="45.25296221322536" lon="3.7578795019116034"><ele>1024.0</ele><time>2026-04-26T15:34:46Z</time></trkpt><trkpt lat="45.252885449953844" lon="3.757806429483629"><ele>1023.9999999999999</ele><time>2026-04-26T15:34:49Z</time></trkpt><trkpt lat="45.25281209946053" lon="3.757722895972685"><ele>1024.0</ele><time>2026-04-26T15:34:52Z</time></trkpt><trkpt lat="45.25274597280114" lon="3.757687666571142"><ele>1023.9999999999999</ele><time>2026-04-26T15:34:55Z</time></trkpt><trkpt lat="45.252714101646845" lon="3.757604391959942"><ele>1024.0</ele><time>2026-04-26T15:35:05Z</time></trkpt><trkpt lat="45.25275031460384" lon="3.757681654869447"><ele>1024.0</ele><time>2026-04-26T15:35:15Z</time></trkpt><trkpt lat="45.25279640725518" lon="3.7577431856870134"><ele>1024.0</ele><time>2026-04-26T15:35:18Z</time></trkpt><trkpt lat="45.25285578807124" lon="3.757785464259889"><ele>1023.9999999999999</ele><time>2026-04-26T15:35:21Z</time></trkpt><trkpt lat="45.25289631440322" lon="3.7578663641823664"><ele>1024.0</ele><time>2026-04-26T15:35:23Z</time></trkpt><trkpt lat="45.25296597762832" lon="3.7580137631757147"><ele>1024.0</ele><time>2026-04-26T15:36:34Z</time></trkpt><trkpt lat="45.25300138165557" lon="3.758097852430975"><ele>1024.0</ele><time>2026-04-26T15:36:59Z</time></trkpt><trkpt lat="45.252935486110225" lon="3.758055807191835"><ele>1024.0</ele><time>2026-04-26T15:37:56Z</time></trkpt><trkpt lat="45.25291992770396" lon="3.7581644049202825"><ele>1024.0</ele><time>2026-04-26T15:38:02Z</time></trkpt><trkpt lat="45.25286449148196" lon="3.7583326323876105"><ele>1024.0</ele><time>2026-04-26T15:38:04Z</time></trkpt><trkpt lat="45.25281834662879" lon="3.758524222620062"><ele>1021.8333333333333</ele><time>2026-04-26T15:38:05Z</time></trkpt><trkpt lat="45.25279717679064" lon="3.7586617802824605"><ele>1019.6666666666666</ele><time>2026-04-26T15:38:06Z</time></trkpt><trkpt lat="45.25276666750608" lon="3.7587830785723004"><ele>1017.5</ele><time>2026-04-26T15:38:07Z</time></trkpt><trkpt lat="45.252742095595586" lon="3.7588738797062256"><ele>1015.3333333333333</ele><time>2026-04-26T15:38:08Z</time></trkpt><trkpt lat="45.25271230002111" lon="3.75898029415751"><ele>1013.1666666666666</ele><time>2026-04-26T15:38:09Z</time></trkpt><trkpt lat="45.25269290817725" lon="3.7590835022934126"><ele>1011.0</ele><time>2026-04-26T15:38:10Z</time></trkpt><trkpt lat="45.25266574218822" lon="3.7592045720716674"><ele>1011.0</ele><time>2026-04-26T15:38:11Z</time></trkpt><trkpt lat="45.25268221588966" lon="3.759328726084909"><ele>1011.0</ele><time>2026-04-26T15:38:12Z</time></trkpt><trkpt lat="45.25267611644526" lon="3.759459492161131"><ele>1011.0</ele><time>2026-04-26T15:38:13Z</time></trkpt><trkpt lat="45.25270511696054" lon="3.7595623525694"><ele>1011.0</ele><time>2026-04-26T15:38:14Z</time></trkpt><trkpt lat="45.25272331429157" lon="3.7597080458031695"><ele>1011.0</ele><time>2026-04-26T15:38:16Z</time></trkpt><trkpt lat="45.252671876142436" lon="3.7598007971057736"><ele>1011.0</ele><time>2026-04-26T15:38:22Z</time></trkpt><trkpt lat="45.252634272624505" lon="3.759727403804282"><ele>1011.0</ele><time>2026-04-26T15:38:26Z</time></trkpt><trkpt lat="45.252604876339" lon="3.759639308219263"><ele>1011.0</ele><time>2026-04-26T15:38:31Z</time></trkpt><trkpt lat="45.2525436192997" lon="3.7594801721700626"><ele>1011.0</ele><time>2026-04-26T15:39:06Z</time></trkpt><trkpt lat="45.25249614813301" lon="3.7593852903371134"><ele>1011.0</ele><time>2026-04-26T15:39:07Z</time></trkpt><trkpt lat="45.252452079140326" lon="3.759321244803906"><ele>1011.0</ele><time>2026-04-26T15:39:08Z</time></trkpt><trkpt lat="45.25241595026321" lon="3.7592381384428952"><ele>1011.0</ele><time>2026-04-26T15:39:09Z</time></trkpt><trkpt lat="45.25235290754314" lon="3.7591685222698796"><ele>1011.0</ele><time>2026-04-26T15:39:10Z</time></trkpt><trkpt lat="45.252294601502484" lon="3.7590269132708025"><ele>1011.0</ele><time>2026-04-26T15:39:12Z</time></trkpt><trkpt lat="45.25227312920077" lon="3.758915206285169"><ele>1011.0</ele><time>2026-04-26T15:39:14Z</time></trkpt><trkpt lat="45.25219485482661" lon="3.7588509502180387"><ele>1011.0</ele><time>2026-04-26T15:39:16Z</time></trkpt><trkpt lat="45.252185972464574" lon="3.758761469506999"><ele>1011.0</ele><time>2026-04-26T15:39:21Z</time></trkpt><trkpt lat="45.25223403508389" lon="3.7588231185531966"><ele>1011.0</ele><time>2026-04-26T15:39:55Z</time></trkpt><trkpt lat="45.2522804683167" lon="3.7589009685785615"><ele>1011.0</ele><time>2026-04-26T15:39:59Z</time></trkpt><trkpt lat="45.25232196361686" lon="3.758991279457532"><ele>1011.0</ele><time>2026-04-26T15:40:03Z</time></trkpt><trkpt lat="45.252367350744365" lon="3.759067646672429"><ele>1011.0</ele><time>2026-04-26T15:40:06Z</time></trkpt><trkpt lat="45.25240665850118" lon="3.7591492292516104"><ele>1011.0</ele><time>2026-04-26T15:40:11Z</time></trkpt><trkpt lat="45.25244810095787" lon="3.759233508885577"><ele>1011.0</ele><time>2026-04-26T15:40:15Z</time></trkpt><trkpt lat="45.2525237346201" lon="3.7593718281016546"><ele>1011.0</ele><time>2026-04-26T15:40:25Z</time></trkpt><trkpt lat="45.25258350181548" lon="3.7594314446444455"><ele>1011.0</ele><time>2026-04-26T15:41:06Z</time></trkpt><trkpt lat="45.25249853431037" lon="3.7593985096125353"><ele>1011.0</ele><time>2026-04-26T15:41:10.999Z</time></trkpt><trkpt lat="45.25246021881255" lon="3.7593214757972837"><ele>1011.0</ele><time>2026-04-26T15:41:11.999Z</time></trkpt><trkpt lat="45.25236602821973" lon="3.759239157650666"><ele>1011.0</ele><time>2026-04-26T15:41:13.999Z</time></trkpt><trkpt lat="45.25231335697577" lon="3.759146141840423"><ele>1011.0</ele><time>2026-04-26T15:41:14.999Z</time></trkpt><trkpt lat="45.25226200131122" lon="3.759079406996565"><ele>1011.0</ele><time>2026-04-26T15:41:15.999Z</time></trkpt><trkpt lat="45.25226132663513" lon="3.7589817594908803"><ele>1011.0</ele><time>2026-04-26T15:41:17Z</time></trkpt><trkpt lat="45.25219571652429" lon="3.758890254325539"><ele>1011.0</ele><time>2026-04-26T15:41:19Z</time></trkpt><trkpt lat="45.252147575615254" lon="3.758830631320532"><ele>1011.0</ele><time>2026-04-26T15:41:22Z</time></trkpt><trkpt lat="45.25213560461405" lon="3.7587339178006034"><ele>1011.0</ele><time>2026-04-26T15:41:34Z</time></trkpt><trkpt lat="45.252218305632375" lon="3.75877980515493"><ele>1011.0</ele><time>2026-04-26T15:42:27Z</time></trkpt><trkpt lat="45.25226777815134" lon="3.758841428237845"><ele>1011.0</ele><time>2026-04-26T15:42:29Z</time></trkpt><trkpt lat="45.25231792338948" lon="3.7589537561311905"><ele>1011.0</ele><time>2026-04-26T15:42:32Z</time></trkpt><trkpt lat="45.25236477252474" lon="3.7590210366559225"><ele>1010.9999999999999</ele><time>2026-04-26T15:42:35Z</time></trkpt><trkpt lat="45.25243285411504" lon="3.759083794747999"><ele>1010.9999999999999</ele><time>2026-04-26T15:42:38Z</time></trkpt><trkpt lat="45.2524981561251" lon="3.7592368080279166"><ele>1011.0</ele><time>2026-04-26T15:42:40Z</time></trkpt><trkpt lat="45.25254113194702" lon="3.759332219377099"><ele>1011.0</ele><time>2026-04-26T15:42:42Z</time></trkpt><trkpt lat="45.25260070574766" lon="3.7595422765077418"><ele>1009.8571428571427</ele><time>2026-04-26T15:42:44Z</time></trkpt><trkpt lat="45.25263035479323" lon="3.7596361255021766"><ele>1008.7142857142857</ele><time>2026-04-26T15:42:45Z</time></trkpt><trkpt lat="45.25266650253932" lon="3.759761877372357"><ele>1007.5714285714284</ele><time>2026-04-26T15:42:47Z</time></trkpt><trkpt lat="45.25267047337629" lon="3.759873069768534"><ele>1006.4285714285713</ele><time>2026-04-26T15:42:49Z</time></trkpt><trkpt lat="45.252682565986596" lon="3.759962477026884"><ele>1005.2857142857142</ele><time>2026-04-26T15:42:50Z</time></trkpt><trkpt lat="45.25269502486346" lon="3.7600532968450984"><ele>1004.1428571428571</ele><time>2026-04-26T15:42:51Z</time></trkpt><trkpt lat="45.252675675324284" lon="3.7601482856583237"><ele>1003.0</ele><time>2026-04-26T15:42:53Z</time></trkpt><trkpt lat="45.252677807798854" lon="3.760255493701625"><ele>1002.9999999999999</ele><time>2026-04-26T15:42:56Z</time></trkpt><trkpt lat="45.2526053379324" lon="3.760357306039126"><ele>1003.0</ele><time>2026-04-26T15:42:59Z</time></trkpt><trkpt lat="45.25252986342241" lon="3.760414408429214"><ele>1003.0</ele><time>2026-04-26T15:43:03.999Z</time></trkpt><trkpt lat="45.25246550154205" lon="3.7603434803804876"><ele>1003.0</ele><time>2026-04-26T15:43:08.999Z</time></trkpt><trkpt lat="45.25240247394892" lon="3.7603043994107734"><ele>1002.9999999999999</ele><time>2026-04-26T15:43:11.999Z</time></trkpt><trkpt lat="45.25234333187533" lon="3.7602402180822248"><ele>1003.0</ele><time>2026-04-26T15:43:17.999Z</time></trkpt><trkpt lat="45.25231650463435" lon="3.7601578019790947"><ele>1005.0</ele><time>2026-04-26T15:43:19.999Z</time></trkpt><trkpt lat="45.25226700695698" lon="3.7600720414991855"><ele>1007.0</ele><time>2026-04-26T15:43:23Z</time></trkpt><trkpt lat="45.25218109006727" lon="3.76007447320392"><ele>1009.0</ele><time>2026-04-26T15:44:17Z</time></trkpt><trkpt lat="45.25214483747842" lon="3.7599598123020535"><ele>1011.0</ele><time>2026-04-26T15:44:19Z</time></trkpt><trkpt lat="45.25207760507831" lon="3.759812902993742"><ele>1013.0</ele><time>2026-04-26T15:44:21Z</time></trkpt><trkpt lat="45.25202390806106" lon="3.759716927950803"><ele>1013.0</ele><time>2026-04-26T15:44:23Z</time></trkpt><trkpt lat="45.25200324445415" lon="3.7596274638919773"><ele>1013.0000000000001</ele><time>2026-04-26T15:44:25Z</time></trkpt><trkpt lat="45.25197333291831" lon="3.759528897414734"><ele>1013.0</ele><time>2026-04-26T15:44:28Z</time></trkpt><trkpt lat="45.25194111839712" lon="3.759421146343972"><ele>1013.0</ele><time>2026-04-26T15:44:30Z</time></trkpt><trkpt lat="45.251889702199655" lon="3.759351889869366"><ele>1013.0000000000001</ele><time>2026-04-26T15:44:33Z</time></trkpt><trkpt lat="45.25185066481742" lon="3.7592756135635943"><ele>1013.0</ele><time>2026-04-26T15:44:36Z</time></trkpt><trkpt lat="45.251839362725015" lon="3.759168157824044"><ele>1013.0</ele><time>2026-04-26T15:44:39Z</time></trkpt><trkpt lat="45.251817387561644" lon="3.7590653227610162"><ele>1013.0000000000001</ele><time>2026-04-26T15:44:41Z</time></trkpt><trkpt lat="45.25185800089738" lon="3.7591490000614085"><ele>1013.0</ele><time>2026-04-26T15:45:17.999Z</time></trkpt><trkpt lat="45.2519061028705" lon="3.7592168631257583"><ele>1013.0</ele><time>2026-04-26T15:45:20.999Z</time></trkpt><trkpt lat="45.251947637436025" lon="3.759284852572464"><ele>1013.0</ele><time>2026-04-26T15:45:24.999Z</time></trkpt><trkpt lat="45.2519526060601" lon="3.759381711482848"><ele>1013.0000000000001</ele><time>2026-04-26T15:45:27.999Z</time></trkpt><trkpt lat="45.25200450913825" lon="3.7594758218555486"><ele>1013.0</ele><time>2026-04-26T15:45:30Z</time></trkpt><trkpt lat="45.25206988154159" lon="3.759584115553457"><ele>1013.0000000000001</ele><time>2026-04-26T15:45:32Z</time></trkpt><trkpt lat="45.252097547192825" lon="3.759671538947896"><ele>1013.0</ele><time>2026-04-26T15:45:34Z</time></trkpt><trkpt lat="45.252143733929806" lon="3.7597574808272745"><ele>1013.0</ele><time>2026-04-26T15:45:35Z</time></trkpt><trkpt lat="45.252181661727086" lon="3.759848904514212"><ele>1013.0</ele><time>2026-04-26T15:45:37Z</time></trkpt><trkpt lat="45.252216982599116" lon="3.759941305649625"><ele>1013.0000000000001</ele><time>2026-04-26T15:45:38Z</time></trkpt><trkpt lat="45.2522781625977" lon="3.7600621648965675"><ele>1013.0</ele><time>2026-04-26T15:45:41Z</time></trkpt><trkpt lat="45.25231410148695" lon="3.760145321905927"><ele>1011.5000000000001</ele><time>2026-04-26T15:45:43Z</time></trkpt><trkpt lat="45.25235532625923" lon="3.7602261150790035"><ele>1010.0</ele><time>2026-04-26T15:45:46Z</time></trkpt><trkpt lat="45.25238701760117" lon="3.7603211110244286"><ele>1008.5</ele><time>2026-04-26T15:45:49Z</time></trkpt><trkpt lat="45.252319598070905" lon="3.760423426727251"><ele>1007.0</ele><time>2026-04-26T15:45:50Z</time></trkpt><trkpt lat="45.252260010755286" lon="3.7604616462765668"><ele>1005.5000000000001</ele><time>2026-04-26T15:45:51Z</time></trkpt><trkpt lat="45.2521931584987" lon="3.76055654661181"><ele>1004.0</ele><time>2026-04-26T15:45:53Z</time></trkpt><trkpt lat="45.252122575920914" lon="3.7605739297691585"><ele>1004.0000000000001</ele><time>2026-04-26T15:45:59Z</time></trkpt><trkpt lat="45.25205159699705" lon="3.760566866080342"><ele>1004.0</ele><time>2026-04-26T15:46:03Z</time></trkpt><trkpt lat="45.2519779719716" lon="3.760571305307922"><ele>1004.0</ele><time>2026-04-26T15:46:09Z</time></trkpt><trkpt lat="45.25191291723713" lon="3.76057392157406"><ele>1004.0</ele><time>2026-04-26T15:46:12Z</time></trkpt><trkpt lat="45.25183713058885" lon="3.760634406212368"><ele>1004.0000000000001</ele><time>2026-04-26T15:46:14Z</time></trkpt><trkpt lat="45.25175240483822" lon="3.7605758989556164"><ele>1004.0</ele><time>2026-04-26T15:46:17Z</time></trkpt><trkpt lat="45.25167537277467" lon="3.760409570425631"><ele>1004.0000000000001</ele><time>2026-04-26T15:46:20Z</time></trkpt><trkpt lat="45.25163499029962" lon="3.760286870578503"><ele>1004.0</ele><time>2026-04-26T15:46:21Z</time></trkpt><trkpt lat="45.25161638497868" lon="3.760162654891793"><ele>1004.0</ele><time>2026-04-26T15:46:22Z</time></trkpt><trkpt lat="45.251597170720196" lon="3.760028644215952"><ele>1004.0</ele><time>2026-04-26T15:46:23Z</time></trkpt><trkpt lat="45.2515787559586" lon="3.759919428739956"><ele>1004.0000000000001</ele><time>2026-04-26T15:46:24Z</time></trkpt><trkpt lat="45.251564024627214" lon="3.7598189042780468"><ele>1004.0</ele><time>2026-04-26T15:46:25Z</time></trkpt><trkpt lat="45.2515529470862" lon="3.7597146040829412"><ele>1005.5000000000001</ele><time>2026-04-26T15:46:27Z</time></trkpt><trkpt lat="45.251508978681436" lon="3.759644002264863"><ele>1007.0</ele><time>2026-04-26T15:46:30Z</time></trkpt><trkpt lat="45.25147123927872" lon="3.759567447515336"><ele>1008.5</ele><time>2026-04-26T15:46:32Z</time></trkpt><trkpt lat="45.251445522628316" lon="3.7594737710963964"><ele>1010.0</ele><time>2026-04-26T15:46:34Z</time></trkpt><trkpt lat="45.251404731474956" lon="3.759370892406277"><ele>1011.5000000000001</ele><time>2026-04-26T15:46:36Z</time></trkpt><trkpt lat="45.25134722575168" lon="3.7592533105306276"><ele>1013.0</ele><time>2026-04-26T15:46:38Z</time></trkpt><trkpt lat="45.25129630142468" lon="3.7591843419539885"><ele>1013.0000000000001</ele><time>2026-04-26T15:46:40Z</time></trkpt><trkpt lat="45.25126434629998" lon="3.759306453303199"><ele>1013.0</ele><time>2026-04-26T15:46:41Z</time></trkpt><trkpt lat="45.25134781401259" lon="3.759377281590415"><ele>1013.0</ele><time>2026-04-26T15:46:46Z</time></trkpt><trkpt lat="45.25137915554768" lon="3.7594831409227334"><ele>1013.0</ele><time>2026-04-26T15:46:51Z</time></trkpt><trkpt lat="45.25142353412697" lon="3.7596017359932854"><ele>1013.0000000000001</ele><time>2026-04-26T15:46:53Z</time></trkpt><trkpt lat="45.2514711527089" lon="3.7596964870830636"><ele>1013.0</ele><time>2026-04-26T15:46:56Z</time></trkpt><trkpt lat="45.25152282178363" lon="3.7598194222196244"><ele>1013.0000000000001</ele><time>2026-04-26T15:46:57Z</time></trkpt><trkpt lat="45.25155482317779" lon="3.7599291778926096"><ele>1013.0</ele><time>2026-04-26T15:46:58Z</time></trkpt><trkpt lat="45.25156451278093" lon="3.760061847982371"><ele>1013.0</ele><time>2026-04-26T15:46:59Z</time></trkpt><trkpt lat="45.251581916272954" lon="3.7601605484097536"><ele>1013.0</ele><time>2026-04-26T15:47:00Z</time></trkpt><trkpt lat="45.251575201349375" lon="3.7602957068578866"><ele>1013.0000000000001</ele><time>2026-04-26T15:47:02Z</time></trkpt><trkpt lat="45.251618229428686" lon="3.760378145712794"><ele>1013.0</ele><time>2026-04-26T15:47:06Z</time></trkpt><trkpt lat="45.25164880909099" lon="3.760459607747285"><ele>1013.0000000000001</ele><time>2026-04-26T15:47:12Z</time></trkpt><trkpt lat="45.25168245777467" lon="3.7605366472694506"><ele>1013.0</ele><time>2026-04-26T15:48:09Z</time></trkpt><trkpt lat="45.25161628868024" lon="3.7605132266706285"><ele>1013.0</ele><time>2026-04-26T15:48:14Z</time></trkpt><trkpt lat="45.251558807398595" lon="3.7603988558642465"><ele>1013.0</ele><time>2026-04-26T15:48:44Z</time></trkpt><trkpt lat="45.251545982120845" lon="3.7602999997482884"><ele>1013.0000000000001</ele><time>2026-04-26T15:48:45Z</time></trkpt><trkpt lat="45.251522727708895" lon="3.7601825299603235"><ele>1013.0</ele><time>2026-04-26T15:48:46Z</time></trkpt><trkpt lat="45.25150098685933" lon="3.760059297374741"><ele>1013.0</ele><time>2026-04-26T15:48:47Z</time></trkpt><trkpt lat="45.25147822241098" lon="3.7599313191734574"><ele>1013.0</ele><time>2026-04-26T15:48:48Z</time></trkpt><trkpt lat="45.251448817923446" lon="3.7598192618524497"><ele>1013.0</ele><time>2026-04-26T15:48:50Z</time></trkpt><trkpt lat="45.2513905333597" lon="3.759736108782373"><ele>1013.0</ele><time>2026-04-26T15:48:52Z</time></trkpt><trkpt lat="45.25137025952106" lon="3.759579025378881"><ele>1013.0</ele><time>2026-04-26T15:48:54Z</time></trkpt><trkpt lat="45.25133164785029" lon="3.7594410843743415"><ele>1013.0000000000001</ele><time>2026-04-26T15:48:56Z</time></trkpt><trkpt lat="45.25126872415915" lon="3.7593082677470586"><ele>1013.0</ele><time>2026-04-26T15:48:58Z</time></trkpt><trkpt lat="45.251340698276366" lon="3.759372547858225"><ele>1013.0</ele><time>2026-04-26T15:49:09Z</time></trkpt><trkpt lat="45.25137944725491" lon="3.7594586545083506"><ele>1013.0</ele><time>2026-04-26T15:49:14.999Z</time></trkpt><trkpt lat="45.2514125819824" lon="3.759574695297666"><ele>1013.0000000000001</ele><time>2026-04-26T15:49:16.999Z</time></trkpt><trkpt lat="45.25146631474445" lon="3.7596301456270815"><ele>1013.0</ele><time>2026-04-26T15:49:24.999Z</time></trkpt><trkpt lat="45.25151844577206" lon="3.759727694017812"><ele>1013.0000000000001</ele><time>2026-04-26T15:49:31.999Z</time></trkpt><trkpt lat="45.25154178431431" lon="3.759866545704156"><ele>1013.0</ele><time>2026-04-26T15:49:33.999Z</time></trkpt><trkpt lat="45.251552455214885" lon="3.7600103619616974"><ele>1013.0</ele><time>2026-04-26T15:49:34.999Z</time></trkpt><trkpt lat="45.25157380753681" lon="3.7601070079264383"><ele>1013.0</ele><time>2026-04-26T15:49:35.999Z</time></trkpt><trkpt lat="45.25159347326852" lon="3.760204428367284"><ele>1013.0000000000001</ele><time>2026-04-26T15:49:36.999Z</time></trkpt><trkpt lat="45.251616507457285" lon="3.7603483658865127"><ele>1013.0</ele><time>2026-04-26T15:49:38.999Z</time></trkpt><trkpt lat="45.251658632108644" lon="3.7604302064221597"><ele>1013.0</ele><time>2026-04-26T15:49:43Z</time></trkpt><trkpt lat="45.25159117393975" lon="3.7604022182690597"><ele>1013.0</ele><time>2026-04-26T15:49:54Z</time></trkpt><trkpt lat="45.25155243784679" lon="3.7602793622246256"><ele>1013.0</ele><time>2026-04-26T15:49:57Z</time></trkpt><trkpt lat="45.25151725386552" lon="3.7600909780190483"><ele>1013.0</ele><time>2026-04-26T15:49:59Z</time></trkpt><trkpt lat="45.25150707242606" lon="3.7599952297367736"><ele>1013.0</ele><time>2026-04-26T15:50:00Z</time></trkpt><trkpt lat="45.251470014298135" lon="3.759869283433196"><ele>1013.2</ele><time>2026-04-26T15:50:03Z</time></trkpt><trkpt lat="45.25141077729017" lon="3.759733120571192"><ele>1013.4</ele><time>2026-04-26T15:50:06Z</time></trkpt><trkpt lat="45.25137644775413" lon="3.759604848163017"><ele>1013.6000000000001</ele><time>2026-04-26T15:50:08Z</time></trkpt><trkpt lat="45.25133780728452" lon="3.7594986148594627"><ele>1013.8000000000001</ele><time>2026-04-26T15:50:10Z</time></trkpt><trkpt lat="45.251286992850524" lon="3.7593633102290385"><ele>1014.0</ele><time>2026-04-26T15:50:12Z</time></trkpt><trkpt lat="45.251360186500385" lon="3.7593975014600662"><ele>1014.0</ele><time>2026-04-26T15:50:24Z</time></trkpt><trkpt lat="45.25139800082624" lon="3.759498980739606"><ele>1014.0000000000001</ele><time>2026-04-26T15:50:27Z</time></trkpt><trkpt lat="45.25144993740623" lon="3.759626978401991"><ele>1014.0000000000001</ele><time>2026-04-26T15:50:29Z</time></trkpt><trkpt lat="45.251507593998795" lon="3.759827830714522"><ele>1014.0</ele><time>2026-04-26T15:50:31Z</time></trkpt><trkpt lat="45.25155262888884" lon="3.759955840749119"><ele>1014.0</ele><time>2026-04-26T15:50:32Z</time></trkpt><trkpt lat="45.25155677795969" lon="3.7600730826376463"><ele>1012.3333333333334</ele><time>2026-04-26T15:50:33Z</time></trkpt><trkpt lat="45.25156206970513" lon="3.7602158881885828"><ele>1010.6666666666667</ele><time>2026-04-26T15:50:35Z</time></trkpt><trkpt lat="45.25158899357746" lon="3.7603128735316464"><ele>1009.0</ele><time>2026-04-26T15:50:38Z</time></trkpt><trkpt lat="45.25162405403599" lon="3.76038828880977"><ele>1007.3333333333334</ele><time>2026-04-26T15:50:40Z</time></trkpt><trkpt lat="45.25167349042134" lon="3.7604437252496266"><ele>1005.6666666666667</ele><time>2026-04-26T15:50:43Z</time></trkpt><trkpt lat="45.25160793061112" lon="3.7604426526805272"><ele>1004.0</ele><time>2026-04-26T15:50:49Z</time></trkpt><trkpt lat="45.25157181824025" lon="3.7602732033704527"><ele>1005.5000000000001</ele><time>2026-04-26T15:50:52Z</time></trkpt><trkpt lat="45.251554958104286" lon="3.7601064251792"><ele>1007.0</ele><time>2026-04-26T15:50:54Z</time></trkpt><trkpt lat="45.251539915709145" lon="3.7599974210198295"><ele>1008.5</ele><time>2026-04-26T15:50:55Z</time></trkpt><trkpt lat="45.25152576805601" lon="3.759867619127545"><ele>1010.0</ele><time>2026-04-26T15:50:56Z</time></trkpt><trkpt lat="45.25152165232718" lon="3.7597650142076238"><ele>1011.5000000000001</ele><time>2026-04-26T15:50:57Z</time></trkpt><trkpt lat="45.25151612690148" lon="3.7596721062875456"><ele>1013.0</ele><time>2026-04-26T15:50:59Z</time></trkpt><trkpt lat="45.25145740631743" lon="3.759603245564698"><ele>1013.1666666666667</ele><time>2026-04-26T15:51:02Z</time></trkpt><trkpt lat="45.25142001051064" lon="3.759506063721916"><ele>1013.3333333333334</ele><time>2026-04-26T15:51:04Z</time></trkpt><trkpt lat="45.251393050642534" lon="3.7594042364935505"><ele>1013.5</ele><time>2026-04-26T15:51:06Z</time></trkpt><trkpt lat="45.2513536322624" lon="3.7592708423874845"><ele>1013.6666666666667</ele><time>2026-04-26T15:51:08Z</time></trkpt><trkpt lat="45.251307903612485" lon="3.759192582800325"><ele>1013.8333333333334</ele><time>2026-04-26T15:51:10Z</time></trkpt><trkpt lat="45.251265854021604" lon="3.759259562512342"><ele>1014.0</ele><time>2026-04-26T15:51:13Z</time></trkpt><trkpt lat="45.251338751601054" lon="3.759298423853519"><ele>1014.0</ele><time>2026-04-26T15:51:15Z</time></trkpt><trkpt lat="45.251376406798535" lon="3.7594093214442004"><ele>1014.0000000000001</ele><time>2026-04-26T15:51:17Z</time></trkpt><trkpt lat="45.251414375141714" lon="3.7595492245589184"><ele>1014.0000000000001</ele><time>2026-04-26T15:51:19.999Z</time></trkpt><trkpt lat="45.2514616555943" lon="3.7596947939045533"><ele>1014.0</ele><time>2026-04-26T15:51:21.999Z</time></trkpt><trkpt lat="45.25151476886116" lon="3.7598306016156338"><ele>1014.0</ele><time>2026-04-26T15:51:23.999Z</time></trkpt><trkpt lat="45.25154210910877" lon="3.759930918428606"><ele>1013.8333333333334</ele><time>2026-04-26T15:51:24.999Z</time></trkpt><trkpt lat="45.25153504105967" lon="3.760025817754898"><ele>1013.6666666666667</ele><time>2026-04-26T15:51:25.999Z</time></trkpt><trkpt lat="45.25155062373301" lon="3.7601625290451968"><ele>1013.5</ele><time>2026-04-26T15:51:27.999Z</time></trkpt><trkpt lat="45.251582969368364" lon="3.7602876816056683"><ele>1013.3333333333334</ele><time>2026-04-26T15:51:31.999Z</time></trkpt><trkpt lat="45.251647448374825" lon="3.7603874947909097"><ele>1013.1666666666667</ele><time>2026-04-26T15:51:33.999Z</time></trkpt><trkpt lat="45.251690786974684" lon="3.7604819838207835"><ele>1013.0</ele><time>2026-04-26T15:51:37.999Z</time></trkpt><trkpt lat="45.25165600204334" lon="3.7605748448631506"><ele>1013.0</ele><time>2026-04-26T15:52:01Z</time></trkpt><trkpt lat="45.25157941069249" lon="3.7604799322143294"><ele>1013.0</ele><time>2026-04-26T15:52:03Z</time></trkpt><trkpt lat="45.25157111990061" lon="3.7603858964625583"><ele>1013.0</ele><time>2026-04-26T15:53:17.999Z</time></trkpt><trkpt lat="45.25154444508454" lon="3.760191223020172"><ele>1013.0</ele><time>2026-04-26T15:53:19.999Z</time></trkpt><trkpt lat="45.25151467170138" lon="3.760030500626743"><ele>1013.0</ele><time>2026-04-26T15:53:21.999Z</time></trkpt><trkpt lat="45.25147768496506" lon="3.7599233141363713"><ele>1013.0000000000001</ele><time>2026-04-26T15:53:24.999Z</time></trkpt><trkpt lat="45.25146871865124" lon="3.7598283098596363"><ele>1013.0</ele><time>2026-04-26T15:53:26.999Z</time></trkpt><trkpt lat="45.25147945469368" lon="3.7597236315988165"><ele>1013.0</ele><time>2026-04-26T15:53:31.999Z</time></trkpt><trkpt lat="45.25158800678421" lon="3.759667739033359"><ele>1013.0</ele><time>2026-04-26T15:54:09Z</time></trkpt><trkpt lat="45.251526822451176" lon="3.759636900623312"><ele>1013.0000000000001</ele><time>2026-04-26T15:54:20Z</time></trkpt><trkpt lat="45.25152302357156" lon="3.7597950121806356"><ele>1013.0</ele><time>2026-04-26T15:54:28Z</time></trkpt><trkpt lat="45.25157048499187" lon="3.759969406090517"><ele>1013.0000000000001</ele><time>2026-04-26T15:54:30Z</time></trkpt><trkpt lat="45.25156921541549" lon="3.760063117621202"><ele>1013.0</ele><time>2026-04-26T15:54:31Z</time></trkpt><trkpt lat="45.251600527005934" lon="3.760185296624209"><ele>1013.0</ele><time>2026-04-26T15:54:33Z</time></trkpt><trkpt lat="45.251618501248736" lon="3.7603252418458633"><ele>1013.0</ele><time>2026-04-26T15:54:59Z</time></trkpt><trkpt lat="45.25167963328128" lon="3.760427198308896"><ele>1013.0000000000001</ele><time>2026-04-26T15:55:01Z</time></trkpt><trkpt lat="45.25173058273776" lon="3.7604895382113313"><ele>1013.0</ele><time>2026-04-26T15:55:04Z</time></trkpt><trkpt lat="45.2516516651544" lon="3.7604867319580375"><ele>1013.0</ele><time>2026-04-26T15:55:08Z</time></trkpt><trkpt lat="45.25159806640586" lon="3.7604262498120336"><ele>1013.0</ele><time>2026-04-26T15:55:10Z</time></trkpt><trkpt lat="45.251558234335604" lon="3.7603294158124863"><ele>1013.0</ele><time>2026-04-26T15:55:12Z</time></trkpt><trkpt lat="45.25152749508917" lon="3.760077355710319"><ele>1013.0</ele><time>2026-04-26T15:55:16Z</time></trkpt><trkpt lat="45.2515199731228" lon="3.759746626225617"><ele>1013.0</ele><time>2026-04-26T15:55:17Z</time></trkpt><trkpt lat="45.251515843464375" lon="3.7596447225679848"><ele>1013.0</ele><time>2026-04-26T15:55:18Z</time></trkpt><trkpt lat="45.25143786270728" lon="3.7595176025530774"><ele>1013.0</ele><time>2026-04-26T15:55:20Z</time></trkpt><trkpt lat="45.251411370140964" lon="3.7594188915052866"><ele>1013.0</ele><time>2026-04-26T15:55:22Z</time></trkpt><trkpt lat="45.25135587242431" lon="3.759283857976616"><ele>1013.0</ele><time>2026-04-26T15:55:24Z</time></trkpt><trkpt lat="45.25130696521845" lon="3.7591963353823865"><ele>1015.0000000000001</ele><time>2026-04-26T15:55:25Z</time></trkpt><trkpt lat="45.25122984186756" lon="3.7591176819209653"><ele>1017.0</ele><time>2026-04-26T15:55:26Z</time></trkpt><trkpt lat="45.25119253974988" lon="3.759000457866445"><ele>1019.0</ele><time>2026-04-26T15:55:27Z</time></trkpt><trkpt lat="45.25116235839254" lon="3.7589049126431053"><ele>1021.0</ele><time>2026-04-26T15:55:28Z</time></trkpt><trkpt lat="45.25115001200301" lon="3.7587969648923627"><ele>1023.0000000000001</ele><time>2026-04-26T15:55:28.999Z</time></trkpt><trkpt lat="45.25111382087312" lon="3.7586728776920775"><ele>1025.0</ele><time>2026-04-26T15:55:29.999Z</time></trkpt><trkpt lat="45.25107945692648" lon="3.758584578642764"><ele>1026.6</ele><time>2026-04-26T15:55:30.999Z</time></trkpt><trkpt lat="45.25107969537416" lon="3.758481668890578"><ele>1028.2</ele><time>2026-04-26T15:55:31.999Z</time></trkpt><trkpt lat="45.25107665010601" lon="3.7583584903640914"><ele>1029.8</ele><time>2026-04-26T15:55:32.999Z</time></trkpt><trkpt lat="45.25108076966022" lon="3.7581981112702088"><ele>1031.4</ele><time>2026-04-26T15:55:34.999Z</time></trkpt><trkpt lat="45.25099712992259" lon="3.75835548824164"><ele>1033.0</ele><time>2026-04-26T15:55:36.999Z</time></trkpt><trkpt lat="45.250895200969694" lon="3.7584544443052144"><ele>1031.857142857143</ele><time>2026-04-26T15:55:43.999Z</time></trkpt><trkpt lat="45.25086648609395" lon="3.7585423456995786"><ele>1030.7142857142858</ele><time>2026-04-26T15:55:45.999Z</time></trkpt><trkpt lat="45.250839350625206" lon="3.758633344427168"><ele>1029.5714285714284</ele><time>2026-04-26T15:55:47.999Z</time></trkpt><trkpt lat="45.25080309786746" lon="3.758714740996624"><ele>1028.4285714285716</ele><time>2026-04-26T15:56:04Z</time></trkpt><trkpt lat="45.25082926954938" lon="3.7588021222570633"><ele>1027.2857142857142</ele><time>2026-04-26T15:56:18Z</time></trkpt><trkpt lat="45.25086017529953" lon="3.7589074733071017"><ele>1026.142857142857</ele><time>2026-04-26T15:57:24.999Z</time></trkpt><trkpt lat="45.250793842187896" lon="3.758882066424987"><ele>1025.0</ele><time>2026-04-26T15:59:48.999Z</time></trkpt><trkpt lat="45.25081122673266" lon="3.7587235616826646"><ele>1024.9999999999998</ele><time>2026-04-26T16:01:00Z</time></trkpt><trkpt lat="45.250810990064515" lon="3.7586176318420903"><ele>1025.0</ele><time>2026-04-26T16:01:02Z</time></trkpt><trkpt lat="45.25081534885358" lon="3.7585196094549636"><ele>1025.0</ele><time>2026-04-26T16:01:04Z</time></trkpt><trkpt lat="45.25083200732192" lon="3.7584315374506243"><ele>1025.0</ele><time>2026-04-26T16:01:07Z</time></trkpt><trkpt lat="45.250839582076644" lon="3.7583200281952043"><ele>1025.0</ele><time>2026-04-26T16:01:10Z</time></trkpt><trkpt lat="45.25091924530188" lon="3.7582522332858272"><ele>1024.9999999999998</ele><time>2026-04-26T16:01:14Z</time></trkpt><trkpt lat="45.250970876541956" lon="3.75820063923499"><ele>1025.0</ele><time>2026-04-26T16:01:19Z</time></trkpt><trkpt lat="45.25102484166901" lon="3.75812337572137"><ele>1026.0</ele><time>2026-04-26T16:01:54.999Z</time></trkpt><trkpt lat="45.25103486397013" lon="3.7580276516977866"><ele>1027.0</ele><time>2026-04-26T16:01:57.999Z</time></trkpt><trkpt lat="45.25104089275296" lon="3.757922807631129"><ele>1028.0</ele><time>2026-04-26T16:01:58.999Z</time></trkpt><trkpt lat="45.251053147706735" lon="3.757800596094126"><ele>1029.0</ele><time>2026-04-26T16:01:59.999Z</time></trkpt><trkpt lat="45.25105067013875" lon="3.7576695528536583"><ele>1030.0</ele><time>2026-04-26T16:02:00.999Z</time></trkpt><trkpt lat="45.25103468049876" lon="3.7575422623691477"><ele>1031.0</ele><time>2026-04-26T16:02:01.999Z</time></trkpt><trkpt lat="45.25101538639691" lon="3.7574461969242843"><ele>1031.0</ele><time>2026-04-26T16:02:02.999Z</time></trkpt><trkpt lat="45.25092554857425" lon="3.7573487704410264"><ele>1031.0</ele><time>2026-04-26T16:02:04.999Z</time></trkpt><trkpt lat="45.250842002389376" lon="3.7573595020413246"><ele>1031.0</ele><time>2026-04-26T16:02:06.999Z</time></trkpt><trkpt lat="45.25076669259621" lon="3.7574875144781568"><ele>1031.0</ele><time>2026-04-26T16:02:08.999Z</time></trkpt><trkpt lat="45.25072595702555" lon="3.757569229710284"><ele>1031.0</ele><time>2026-04-26T16:02:09.999Z</time></trkpt><trkpt lat="45.25066692142583" lon="3.75764685830461"><ele>1030.3999999999999</ele><time>2026-04-26T16:02:10.999Z</time></trkpt><trkpt lat="45.2505957822673" lon="3.7577420435672306"><ele>1029.8</ele><time>2026-04-26T16:02:11.999Z</time></trkpt><trkpt lat="45.25052052973235" lon="3.7578473429280552"><ele>1029.1999999999998</ele><time>2026-04-26T16:02:12.999Z</time></trkpt><trkpt lat="45.250458053457606" lon="3.75795107921986"><ele>1028.6</ele><time>2026-04-26T16:02:13.999Z</time></trkpt><trkpt lat="45.250402859513166" lon="3.7580700582312865"><ele>1028.0</ele><time>2026-04-26T16:02:14.999Z</time></trkpt><trkpt lat="45.25031706546195" lon="3.7582139849988447"><ele>1028.0</ele><time>2026-04-26T16:02:15.999Z</time></trkpt><trkpt lat="45.25020361667422" lon="3.758381261741894"><ele>1028.0</ele><time>2026-04-26T16:02:17Z</time></trkpt><trkpt lat="45.25008454887834" lon="3.7585898097474937"><ele>1028.0</ele><time>2026-04-26T16:02:18Z</time></trkpt><trkpt lat="45.24996903421212" lon="3.758810698984911"><ele>1028.0</ele><time>2026-04-26T16:02:19Z</time></trkpt><trkpt lat="45.24986028063151" lon="3.7590561719768645"><ele>1028.0</ele><time>2026-04-26T16:02:20Z</time></trkpt><trkpt lat="45.249763988194815" lon="3.759308572461306"><ele>1028.0</ele><time>2026-04-26T16:02:21Z</time></trkpt><trkpt lat="45.249685486987346" lon="3.7595485313348695"><ele>1028.0</ele><time>2026-04-26T16:02:22Z</time></trkpt><trkpt lat="45.24963246906088" lon="3.7597724019353675"><ele>1028.0</ele><time>2026-04-26T16:02:23Z</time></trkpt><trkpt lat="45.24958672247436" lon="3.7599966304146695"><ele>1028.0</ele><time>2026-04-26T16:02:24Z</time></trkpt><trkpt lat="45.24954676844161" lon="3.760241945412803"><ele>1030.3333333333335</ele><time>2026-04-26T16:02:25Z</time></trkpt><trkpt lat="45.249492974391224" lon="3.760476300021498"><ele>1032.6666666666667</ele><time>2026-04-26T16:02:26Z</time></trkpt><trkpt lat="45.24947050333735" lon="3.760687253018625"><ele>1035.0</ele><time>2026-04-26T16:02:27Z</time></trkpt><trkpt lat="45.249469945455765" lon="3.760894344395959"><ele>1035.75</ele><time>2026-04-26T16:02:28Z</time></trkpt><trkpt lat="45.24947487362291" lon="3.761113424644255"><ele>1036.5</ele><time>2026-04-26T16:02:29Z</time></trkpt><trkpt lat="45.24948062407649" lon="3.76131745593427"><ele>1037.25</ele><time>2026-04-26T16:02:30Z</time></trkpt><trkpt lat="45.24949116672699" lon="3.7615251512799697"><ele>1038.0</ele><time>2026-04-26T16:02:31Z</time></trkpt><trkpt lat="45.24947775462874" lon="3.761769355527232"><ele>1037.0</ele><time>2026-04-26T16:02:32Z</time></trkpt><trkpt lat="45.24945945059593" lon="3.7619960584562735"><ele>1036.0</ele><time>2026-04-26T16:02:33Z</time></trkpt><trkpt lat="45.24943639313267" lon="3.7622054083501495"><ele>1035.0</ele><time>2026-04-26T16:02:34Z</time></trkpt><trkpt lat="45.24941047931417" lon="3.7623992442407306"><ele>1034.0</ele><time>2026-04-26T16:02:35Z</time></trkpt><trkpt lat="45.24938339139168" lon="3.762635984376772"><ele>1030.3333333333335</ele><time>2026-04-26T16:02:36Z</time></trkpt><trkpt lat="45.24932749604669" lon="3.7629113594026373"><ele>1026.6666666666667</ele><time>2026-04-26T16:02:37Z</time></trkpt><trkpt lat="45.24925222671234" lon="3.763211460681435"><ele>1023.0</ele><time>2026-04-26T16:02:38Z</time></trkpt><trkpt lat="45.24916679220681" lon="3.763473703623893"><ele>1022.8</ele><time>2026-04-26T16:02:39Z</time></trkpt><trkpt lat="45.249095167827726" lon="3.763661887041458"><ele>1022.5999999999999</ele><time>2026-04-26T16:02:40Z</time></trkpt><trkpt lat="45.249037280045904" lon="3.7638037040552486"><ele>1022.4000000000001</ele><time>2026-04-26T16:02:41Z</time></trkpt><trkpt lat="45.248996917486295" lon="3.763906185448376"><ele>1022.2</ele><time>2026-04-26T16:02:42Z</time></trkpt><trkpt lat="45.248957699870786" lon="3.764007400802697"><ele>1022.0</ele><time>2026-04-26T16:02:44Z</time></trkpt><trkpt lat="45.24902131675623" lon="3.7639610565033363"><ele>1022.0</ele><time>2026-04-26T16:02:50Z</time></trkpt><trkpt lat="45.24897517069138" lon="3.7638768011229606"><ele>1022.0</ele><time>2026-04-26T16:02:56Z</time></trkpt><trkpt lat="45.24888188826796" lon="3.7639065013641564"><ele>1022.0</ele><time>2026-04-26T16:02:59Z</time></trkpt><trkpt lat="45.24875356325413" lon="3.76390455101871"><ele>1022.0</ele><time>2026-04-26T16:03:01Z</time></trkpt><trkpt lat="45.24868408023032" lon="3.7638974843561197"><ele>1022.0</ele><time>2026-04-26T16:03:02Z</time></trkpt><trkpt lat="45.248580663034645" lon="3.763899165225259"><ele>1024.5</ele><time>2026-04-26T16:03:03Z</time></trkpt><trkpt lat="45.2484823450462" lon="3.763901481765444"><ele>1027.0</ele><time>2026-04-26T16:03:04Z</time></trkpt><trkpt lat="45.24835804533733" lon="3.763922889167179"><ele>1029.5</ele><time>2026-04-26T16:03:05Z</time></trkpt><trkpt lat="45.24820470105958" lon="3.763926707317865"><ele>1032.0</ele><time>2026-04-26T16:03:06Z</time></trkpt><trkpt lat="45.2480797579597" lon="3.7639403366935054"><ele>1033.25</ele><time>2026-04-26T16:03:07Z</time></trkpt><trkpt lat="45.24793567414091" lon="3.763924075877941"><ele>1034.5</ele><time>2026-04-26T16:03:08Z</time></trkpt><trkpt lat="45.24781820819001" lon="3.763927329807898"><ele>1035.75</ele><time>2026-04-26T16:03:09Z</time></trkpt><trkpt lat="45.247664337419515" lon="3.7639419278518007"><ele>1037.0</ele><time>2026-04-26T16:03:10Z</time></trkpt><trkpt lat="45.24755267451066" lon="3.7639643895315924"><ele>1037.0</ele><time>2026-04-26T16:03:11Z</time></trkpt><trkpt lat="45.247452127471874" lon="3.7640159235990582"><ele>1037.0</ele><time>2026-04-26T16:03:12Z</time></trkpt><trkpt lat="45.24735491219977" lon="3.764073718054331"><ele>1037.0</ele><time>2026-04-26T16:03:13Z</time></trkpt><trkpt lat="45.247229488288056" lon="3.7641415041708215"><ele>1037.0</ele><time>2026-04-26T16:03:14Z</time></trkpt><trkpt lat="45.24709321688175" lon="3.764193891225335"><ele>1036.75</ele><time>2026-04-26T16:03:15Z</time></trkpt><trkpt lat="45.2469605142747" lon="3.764237816102059"><ele>1036.5</ele><time>2026-04-26T16:03:16Z</time></trkpt><trkpt lat="45.246848244967" lon="3.7642509041991605"><ele>1036.25</ele><time>2026-04-26T16:03:17Z</time></trkpt><trkpt lat="45.246694672145644" lon="3.76428342075808"><ele>1036.0</ele><time>2026-04-26T16:03:18Z</time></trkpt><trkpt lat="45.24654371430696" lon="3.7643477101271854"><ele>1036.5</ele><time>2026-04-26T16:03:19Z</time></trkpt><trkpt lat="45.246420422874294" lon="3.7643789845137126"><ele>1037.0</ele><time>2026-04-26T16:03:20Z</time></trkpt><trkpt lat="45.246291149528496" lon="3.7644103620351306"><ele>1037.5</ele><time>2026-04-26T16:03:21Z</time></trkpt><trkpt lat="45.246155862811406" lon="3.7644340566314316"><ele>1038.0</ele><time>2026-04-26T16:03:22Z</time></trkpt><trkpt lat="45.24605007961644" lon="3.7644648656117585"><ele>1038.0</ele><time>2026-04-26T16:03:23Z</time></trkpt><trkpt lat="45.24593749800713" lon="3.7644994558775124"><ele>1038.0</ele><time>2026-04-26T16:03:24Z</time></trkpt><trkpt lat="45.24584776568779" lon="3.7645283465262147"><ele>1038.0</ele><time>2026-04-26T16:03:25Z</time></trkpt><trkpt lat="45.24575750159445" lon="3.7646168199426007"><ele>1038.0</ele><time>2026-04-26T16:03:28Z</time></trkpt><trkpt lat="45.24556137430781" lon="3.7645877326067265"><ele>1038.0</ele><time>2026-04-26T16:03:29Z</time></trkpt><trkpt lat="45.24551032242799" lon="3.764698496879471"><ele>1038.0</ele><time>2026-04-26T16:03:30Z</time></trkpt><trkpt lat="45.24545372525105" lon="3.7648320160214075"><ele>1038.0</ele><time>2026-04-26T16:03:31Z</time></trkpt><trkpt lat="45.24539210189094" lon="3.7649932568760263"><ele>1038.0</ele><time>2026-04-26T16:03:32Z</time></trkpt><trkpt lat="45.245339934614684" lon="3.765132764513433"><ele>1038.0</ele><time>2026-04-26T16:03:33Z</time></trkpt><trkpt lat="45.24528622356947" lon="3.7652805619312293"><ele>1035.6666666666667</ele><time>2026-04-26T16:03:34Z</time></trkpt><trkpt lat="45.24522457318067" lon="3.765458105780508"><ele>1033.3333333333335</ele><time>2026-04-26T16:03:35Z</time></trkpt><trkpt lat="45.245153072510796" lon="3.765699545920846"><ele>1031.0</ele><time>2026-04-26T16:03:36Z</time></trkpt><trkpt lat="45.24510507386131" lon="3.765888186277467"><ele>1030.5</ele><time>2026-04-26T16:03:37Z</time></trkpt><trkpt lat="45.24506723615023" lon="3.766052373478919"><ele>1030.0</ele><time>2026-04-26T16:03:38Z</time></trkpt><trkpt lat="45.245029783632646" lon="3.766216769669853"><ele>1029.5</ele><time>2026-04-26T16:03:39Z</time></trkpt><trkpt lat="45.24499113816385" lon="3.7663958207222663"><ele>1029.0</ele><time>2026-04-26T16:03:40Z</time></trkpt><trkpt lat="45.24495950684192" lon="3.7665631056538755"><ele>1029.0</ele><time>2026-04-26T16:03:41Z</time></trkpt><trkpt lat="45.24493628994223" lon="3.7667112572703774"><ele>1029.0</ele><time>2026-04-26T16:03:42Z</time></trkpt><trkpt lat="45.24491794540414" lon="3.766840252917696"><ele>1029.0</ele><time>2026-04-26T16:03:43Z</time></trkpt><trkpt lat="45.24490209381915" lon="3.7669711499436707"><ele>1029.0</ele><time>2026-04-26T16:03:44Z</time></trkpt><trkpt lat="45.244888121765015" lon="3.76710272898818"><ele>1029.0</ele><time>2026-04-26T16:03:46Z</time></trkpt><trkpt lat="45.24491268076191" lon="3.7671995173945056"><ele>1028.3333333333333</ele><time>2026-04-26T16:03:49Z</time></trkpt><trkpt lat="45.24521843300837" lon="3.7672511210087034"><ele>1027.6666666666665</ele><time>2026-04-26T16:04:16.999Z</time></trkpt><trkpt lat="45.245240010415884" lon="3.7673486199974127"><ele>1027.0</ele><time>2026-04-26T16:06:23.999Z</time></trkpt><trkpt lat="45.2452653640232" lon="3.767444230769673"><ele>1027.0</ele><time>2026-04-26T16:06:29.999Z</time></trkpt><trkpt lat="45.24531120802058" lon="3.7675278944494552"><ele>1027.0</ele><time>2026-04-26T16:06:34.999Z</time></trkpt><trkpt lat="45.245340716051146" lon="3.7676159168616072"><ele>1027.0</ele><time>2026-04-26T16:08:03.999Z</time></trkpt></trkseg></trk></gpx>